<?xml version="1.0" encoding="UTF-8" standalone="no" ?>
<gpx xmlns="http://www.topografix.com/GPX/1/1" xmlns:xsi="http://www.w3.org/2001/XMLSchema-instance" xsi:schemaLocation="http://www.topografix.com/GPX/1/1 http://www.topografix.com/GPX/1/1/gpx.xsd" version="1.1" creator="VisuGPX - https://www.visugpx.com">
  <metadata>
    <name>2018-05-08 Boucle Agde-Béziers Canal du Midi 70 Km</name>
    <desc><![CDATA[Beau parcours le long du canal du midi avec de superbes ouvrages , et retour par la Maire au niveau de Portiragnes, puis crochet en AR  jusqu'au phare de la Tamarissière.]]></desc>
  </metadata>
  <trk>
    <name><![CDATA[2018-05-08 18:35:49]]></name>
    <trkseg>
      <trkpt lat="43.31697" lon="3.47471">
        <ele>11.19</ele>
        <time>2018-05-08T08:45:14Z</time>
      </trkpt>
      <trkpt lat="43.31696" lon="3.4747">
        <ele>11.67</ele>
        <time>2018-05-08T08:45:43Z</time>
      </trkpt>
      <trkpt lat="43.31695" lon="3.4747">
        <ele>9.75</ele>
        <time>2018-05-08T08:46:09Z</time>
      </trkpt>
      <trkpt lat="43.31693" lon="3.47469">
        <ele>7.35</ele>
        <time>2018-05-08T08:46:25Z</time>
      </trkpt>
      <trkpt lat="43.31693" lon="3.47468">
        <ele>6.39</ele>
        <time>2018-05-08T08:46:42Z</time>
      </trkpt>
      <trkpt lat="43.31692" lon="3.47472">
        <ele>5.42</ele>
        <time>2018-05-08T08:47:01Z</time>
      </trkpt>
      <trkpt lat="43.31688" lon="3.47474">
        <ele>5.91</ele>
        <time>2018-05-08T08:47:18Z</time>
      </trkpt>
      <trkpt lat="43.31687" lon="3.47475">
        <ele>6.87</ele>
        <time>2018-05-08T08:47:21Z</time>
      </trkpt>
      <trkpt lat="43.31681" lon="3.47476">
        <ele>6.39</ele>
        <time>2018-05-08T08:47:27Z</time>
      </trkpt>
      <trkpt lat="43.31679" lon="3.47474">
        <ele>6.39</ele>
        <time>2018-05-08T08:47:28Z</time>
      </trkpt>
      <trkpt lat="43.31677" lon="3.47473">
        <ele>6.39</ele>
        <time>2018-05-08T08:47:29Z</time>
      </trkpt>
      <trkpt lat="43.31668" lon="3.47468">
        <ele>4.94</ele>
        <time>2018-05-08T08:47:35Z</time>
      </trkpt>
      <trkpt lat="43.31666" lon="3.47468">
        <ele>4.46</ele>
        <time>2018-05-08T08:47:36Z</time>
      </trkpt>
      <trkpt lat="43.31663" lon="3.47474">
        <ele>3.98</ele>
        <time>2018-05-08T08:47:39Z</time>
      </trkpt>
      <trkpt lat="43.31662" lon="3.47481">
        <ele>3.98</ele>
        <time>2018-05-08T08:47:42Z</time>
      </trkpt>
      <trkpt lat="43.31652" lon="3.47483">
        <ele>2.54</ele>
        <time>2018-05-08T08:47:49Z</time>
      </trkpt>
      <trkpt lat="43.31624" lon="3.47454">
        <ele>-1.79</ele>
        <time>2018-05-08T08:48:06Z</time>
      </trkpt>
      <trkpt lat="43.31623" lon="3.47447">
        <ele>-2.75</ele>
        <time>2018-05-08T08:48:08Z</time>
      </trkpt>
      <trkpt lat="43.31621" lon="3.47444">
        <ele>-3.23</ele>
        <time>2018-05-08T08:48:09Z</time>
      </trkpt>
      <trkpt lat="43.3162" lon="3.4744">
        <ele>-3.71</ele>
        <time>2018-05-08T08:48:10Z</time>
      </trkpt>
      <trkpt lat="43.31619" lon="3.47436">
        <ele>-4.19</ele>
        <time>2018-05-08T08:48:11Z</time>
      </trkpt>
      <trkpt lat="43.31618" lon="3.47433">
        <ele>-4.19</ele>
        <time>2018-05-08T08:48:12Z</time>
      </trkpt>
      <trkpt lat="43.31618" lon="3.47428">
        <ele>-4.67</ele>
        <time>2018-05-08T08:48:13Z</time>
      </trkpt>
      <trkpt lat="43.31617" lon="3.47424">
        <ele>-4.67</ele>
        <time>2018-05-08T08:48:14Z</time>
      </trkpt>
      <trkpt lat="43.3161" lon="3.47385">
        <ele>-9.96</ele>
        <time>2018-05-08T08:48:24Z</time>
      </trkpt>
      <trkpt lat="43.3161" lon="3.47381">
        <ele>-9.96</ele>
        <time>2018-05-08T08:48:25Z</time>
      </trkpt>
      <trkpt lat="43.31609" lon="3.47377">
        <ele>-10.44</ele>
        <time>2018-05-08T08:48:26Z</time>
      </trkpt>
      <trkpt lat="43.31608" lon="3.47354">
        <ele>-13.8</ele>
        <time>2018-05-08T08:48:32Z</time>
      </trkpt>
      <trkpt lat="43.31608" lon="3.47351">
        <ele>-14.28</ele>
        <time>2018-05-08T08:48:33Z</time>
      </trkpt>
      <trkpt lat="43.31609" lon="3.47349">
        <ele>-14.76</ele>
        <time>2018-05-08T08:48:34Z</time>
      </trkpt>
      <trkpt lat="43.31609" lon="3.47344">
        <ele>-17.17</ele>
        <time>2018-05-08T08:48:37Z</time>
      </trkpt>
      <trkpt lat="43.31608" lon="3.47342">
        <ele>-17.65</ele>
        <time>2018-05-08T08:48:38Z</time>
      </trkpt>
      <trkpt lat="43.31608" lon="3.4734">
        <ele>-18.61</ele>
        <time>2018-05-08T08:48:39Z</time>
      </trkpt>
      <trkpt lat="43.31609" lon="3.47338">
        <ele>-19.09</ele>
        <time>2018-05-08T08:48:40Z</time>
      </trkpt>
      <trkpt lat="43.3161" lon="3.47334">
        <ele>-19.57</ele>
        <time>2018-05-08T08:48:41Z</time>
      </trkpt>
      <trkpt lat="43.31612" lon="3.47331">
        <ele>-20.05</ele>
        <time>2018-05-08T08:48:42Z</time>
      </trkpt>
      <trkpt lat="43.31615" lon="3.47327">
        <ele>-21.01</ele>
        <time>2018-05-08T08:48:43Z</time>
      </trkpt>
      <trkpt lat="43.31619" lon="3.47317">
        <ele>-21.97</ele>
        <time>2018-05-08T08:48:46Z</time>
      </trkpt>
      <trkpt lat="43.31618" lon="3.47311">
        <ele>-23.9</ele>
        <time>2018-05-08T08:48:48Z</time>
      </trkpt>
      <trkpt lat="43.31616" lon="3.47308">
        <ele>-24.38</ele>
        <time>2018-05-08T08:48:49Z</time>
      </trkpt>
      <trkpt lat="43.31611" lon="3.47305">
        <ele>-23.9</ele>
        <time>2018-05-08T08:48:50Z</time>
      </trkpt>
      <trkpt lat="43.31608" lon="3.47301">
        <ele>-23.41</ele>
        <time>2018-05-08T08:48:51Z</time>
      </trkpt>
      <trkpt lat="43.31607" lon="3.47297">
        <ele>-23.9</ele>
        <time>2018-05-08T08:48:52Z</time>
      </trkpt>
      <trkpt lat="43.31607" lon="3.47292">
        <ele>-23.9</ele>
        <time>2018-05-08T08:48:53Z</time>
      </trkpt>
      <trkpt lat="43.31608" lon="3.47288">
        <ele>-23.41</ele>
        <time>2018-05-08T08:48:54Z</time>
      </trkpt>
      <trkpt lat="43.31608" lon="3.47284">
        <ele>-22.93</ele>
        <time>2018-05-08T08:48:55Z</time>
      </trkpt>
      <trkpt lat="43.31609" lon="3.4728">
        <ele>-21.97</ele>
        <time>2018-05-08T08:48:56Z</time>
      </trkpt>
      <trkpt lat="43.31612" lon="3.47262">
        <ele>-19.57</ele>
        <time>2018-05-08T08:49:01Z</time>
      </trkpt>
      <trkpt lat="43.31611" lon="3.47258">
        <ele>-19.09</ele>
        <time>2018-05-08T08:49:02Z</time>
      </trkpt>
      <trkpt lat="43.31609" lon="3.47254">
        <ele>-18.61</ele>
        <time>2018-05-08T08:49:03Z</time>
      </trkpt>
      <trkpt lat="43.31607" lon="3.4725">
        <ele>-18.61</ele>
        <time>2018-05-08T08:49:04Z</time>
      </trkpt>
      <trkpt lat="43.31605" lon="3.47246">
        <ele>-17.65</ele>
        <time>2018-05-08T08:49:05Z</time>
      </trkpt>
      <trkpt lat="43.31603" lon="3.47242">
        <ele>-17.17</ele>
        <time>2018-05-08T08:49:06Z</time>
      </trkpt>
      <trkpt lat="43.31601" lon="3.47238">
        <ele>-16.69</ele>
        <time>2018-05-08T08:49:07Z</time>
      </trkpt>
      <trkpt lat="43.31599" lon="3.47234">
        <ele>-16.21</ele>
        <time>2018-05-08T08:49:08Z</time>
      </trkpt>
      <trkpt lat="43.31597" lon="3.47229">
        <ele>-15.72</ele>
        <time>2018-05-08T08:49:09Z</time>
      </trkpt>
      <trkpt lat="43.31578" lon="3.47197">
        <ele>-8.03</ele>
        <time>2018-05-08T08:49:22Z</time>
      </trkpt>
      <trkpt lat="43.31568" lon="3.47173">
        <ele>-5.63</ele>
        <time>2018-05-08T08:49:35Z</time>
      </trkpt>
      <trkpt lat="43.31552" lon="3.47138">
        <ele>-3.71</ele>
        <time>2018-05-08T08:49:45Z</time>
      </trkpt>
      <trkpt lat="43.3155" lon="3.47137">
        <ele>-3.23</ele>
        <time>2018-05-08T08:49:46Z</time>
      </trkpt>
      <trkpt lat="43.31548" lon="3.47137">
        <ele>-3.23</ele>
        <time>2018-05-08T08:49:47Z</time>
      </trkpt>
      <trkpt lat="43.31546" lon="3.47139">
        <ele>-2.75</ele>
        <time>2018-05-08T08:49:48Z</time>
      </trkpt>
      <trkpt lat="43.31544" lon="3.47141">
        <ele>-2.75</ele>
        <time>2018-05-08T08:49:49Z</time>
      </trkpt>
      <trkpt lat="43.31542" lon="3.47142">
        <ele>-2.27</ele>
        <time>2018-05-08T08:49:50Z</time>
      </trkpt>
      <trkpt lat="43.3154" lon="3.47143">
        <ele>-2.27</ele>
        <time>2018-05-08T08:49:51Z</time>
      </trkpt>
      <trkpt lat="43.31538" lon="3.47142">
        <ele>-1.79</ele>
        <time>2018-05-08T08:49:52Z</time>
      </trkpt>
      <trkpt lat="43.3153" lon="3.47135">
        <ele>-2.27</ele>
        <time>2018-05-08T08:49:57Z</time>
      </trkpt>
      <trkpt lat="43.31529" lon="3.47132">
        <ele>-2.27</ele>
        <time>2018-05-08T08:49:58Z</time>
      </trkpt>
      <trkpt lat="43.31529" lon="3.47128">
        <ele>-2.75</ele>
        <time>2018-05-08T08:49:59Z</time>
      </trkpt>
      <trkpt lat="43.31525" lon="3.47069">
        <ele>-8.03</ele>
        <time>2018-05-08T08:50:14Z</time>
      </trkpt>
      <trkpt lat="43.31494" lon="3.47021">
        <ele>-6.59</ele>
        <time>2018-05-08T08:50:28Z</time>
      </trkpt>
      <trkpt lat="43.31484" lon="3.46966">
        <ele>-0.34</ele>
        <time>2018-05-08T08:50:41Z</time>
      </trkpt>
      <trkpt lat="43.31517" lon="3.46888">
        <ele>6.39</ele>
        <time>2018-05-08T08:51:00Z</time>
      </trkpt>
      <trkpt lat="43.31529" lon="3.46869">
        <ele>5.42</ele>
        <time>2018-05-08T08:51:05Z</time>
      </trkpt>
      <trkpt lat="43.31533" lon="3.46868">
        <ele>4.94</ele>
        <time>2018-05-08T08:51:06Z</time>
      </trkpt>
      <trkpt lat="43.31545" lon="3.46864">
        <ele>4.94</ele>
        <time>2018-05-08T08:51:15Z</time>
      </trkpt>
      <trkpt lat="43.31545" lon="3.46863">
        <ele>6.87</ele>
        <time>2018-05-08T08:51:36Z</time>
      </trkpt>
      <trkpt lat="43.31544" lon="3.46865">
        <ele>8.31</ele>
        <time>2018-05-08T08:52:05Z</time>
      </trkpt>
      <trkpt lat="43.31543" lon="3.46865">
        <ele>8.79</ele>
        <time>2018-05-08T08:52:19Z</time>
      </trkpt>
      <trkpt lat="43.31543" lon="3.46865">
        <ele>8.79</ele>
        <time>2018-05-08T08:52:42Z</time>
      </trkpt>
      <trkpt lat="43.31568" lon="3.46864">
        <ele>7.83</ele>
        <time>2018-05-08T08:52:54Z</time>
      </trkpt>
      <trkpt lat="43.31574" lon="3.46865">
        <ele>7.83</ele>
        <time>2018-05-08T08:52:57Z</time>
      </trkpt>
      <trkpt lat="43.31576" lon="3.46864">
        <ele>7.35</ele>
        <time>2018-05-08T08:52:58Z</time>
      </trkpt>
      <trkpt lat="43.31576" lon="3.46863">
        <ele>6.87</ele>
        <time>2018-05-08T08:52:59Z</time>
      </trkpt>
      <trkpt lat="43.31574" lon="3.46862">
        <ele>6.87</ele>
        <time>2018-05-08T08:53:00Z</time>
      </trkpt>
      <trkpt lat="43.31572" lon="3.46863">
        <ele>6.39</ele>
        <time>2018-05-08T08:53:01Z</time>
      </trkpt>
      <trkpt lat="43.31569" lon="3.46864">
        <ele>5.91</ele>
        <time>2018-05-08T08:53:02Z</time>
      </trkpt>
      <trkpt lat="43.31567" lon="3.46864">
        <ele>5.42</ele>
        <time>2018-05-08T08:53:03Z</time>
      </trkpt>
      <trkpt lat="43.31556" lon="3.46866">
        <ele>1.58</ele>
        <time>2018-05-08T08:53:12Z</time>
      </trkpt>
      <trkpt lat="43.31555" lon="3.46867">
        <ele>1.58</ele>
        <time>2018-05-08T08:53:13Z</time>
      </trkpt>
      <trkpt lat="43.31554" lon="3.46868">
        <ele>1.58</ele>
        <time>2018-05-08T08:53:14Z</time>
      </trkpt>
      <trkpt lat="43.31555" lon="3.46869">
        <ele>1.1</ele>
        <time>2018-05-08T08:53:15Z</time>
      </trkpt>
      <trkpt lat="43.31556" lon="3.4687">
        <ele>1.1</ele>
        <time>2018-05-08T08:53:16Z</time>
      </trkpt>
      <trkpt lat="43.31557" lon="3.4687">
        <ele>1.1</ele>
        <time>2018-05-08T08:53:17Z</time>
      </trkpt>
      <trkpt lat="43.31558" lon="3.46871">
        <ele>1.1</ele>
        <time>2018-05-08T08:53:18Z</time>
      </trkpt>
      <trkpt lat="43.31562" lon="3.46873">
        <ele>-0.82</ele>
        <time>2018-05-08T08:53:29Z</time>
      </trkpt>
      <trkpt lat="43.31563" lon="3.46873">
        <ele>-0.82</ele>
        <time>2018-05-08T08:53:30Z</time>
      </trkpt>
      <trkpt lat="43.31596" lon="3.46866">
        <ele>-1.79</ele>
        <time>2018-05-08T08:53:43Z</time>
      </trkpt>
      <trkpt lat="43.3164" lon="3.46853">
        <ele>-0.34</ele>
        <time>2018-05-08T08:53:58Z</time>
      </trkpt>
      <trkpt lat="43.3169" lon="3.46839">
        <ele>-1.3</ele>
        <time>2018-05-08T08:54:14Z</time>
      </trkpt>
      <trkpt lat="43.31729" lon="3.46826">
        <ele>-0.34</ele>
        <time>2018-05-08T08:54:30Z</time>
      </trkpt>
      <trkpt lat="43.31729" lon="3.4682">
        <ele>-0.34</ele>
        <time>2018-05-08T08:54:42Z</time>
      </trkpt>
      <trkpt lat="43.31755" lon="3.46812">
        <ele>1.58</ele>
        <time>2018-05-08T08:54:53Z</time>
      </trkpt>
      <trkpt lat="43.31787" lon="3.46799">
        <ele>3.5</ele>
        <time>2018-05-08T08:55:06Z</time>
      </trkpt>
      <trkpt lat="43.31808" lon="3.46793">
        <ele>3.5</ele>
        <time>2018-05-08T08:55:17Z</time>
      </trkpt>
      <trkpt lat="43.3181" lon="3.46793">
        <ele>3.98</ele>
        <time>2018-05-08T08:55:18Z</time>
      </trkpt>
      <trkpt lat="43.31813" lon="3.46793">
        <ele>3.5</ele>
        <time>2018-05-08T08:55:19Z</time>
      </trkpt>
      <trkpt lat="43.31815" lon="3.46792">
        <ele>3.5</ele>
        <time>2018-05-08T08:55:20Z</time>
      </trkpt>
      <trkpt lat="43.31818" lon="3.46791">
        <ele>3.5</ele>
        <time>2018-05-08T08:55:21Z</time>
      </trkpt>
      <trkpt lat="43.31821" lon="3.4679">
        <ele>3.5</ele>
        <time>2018-05-08T08:55:22Z</time>
      </trkpt>
      <trkpt lat="43.31823" lon="3.46789">
        <ele>3.98</ele>
        <time>2018-05-08T08:55:23Z</time>
      </trkpt>
      <trkpt lat="43.31826" lon="3.46788">
        <ele>3.98</ele>
        <time>2018-05-08T08:55:24Z</time>
      </trkpt>
      <trkpt lat="43.31869" lon="3.46774">
        <ele>4.94</ele>
        <time>2018-05-08T08:55:38Z</time>
      </trkpt>
      <trkpt lat="43.3191" lon="3.46761">
        <ele>5.91</ele>
        <time>2018-05-08T08:55:51Z</time>
      </trkpt>
      <trkpt lat="43.31944" lon="3.4675">
        <ele>5.42</ele>
        <time>2018-05-08T08:56:02Z</time>
      </trkpt>
      <trkpt lat="43.31956" lon="3.46746">
        <ele>4.46</ele>
        <time>2018-05-08T08:56:06Z</time>
      </trkpt>
      <trkpt lat="43.31959" lon="3.46745">
        <ele>3.98</ele>
        <time>2018-05-08T08:56:07Z</time>
      </trkpt>
      <trkpt lat="43.31962" lon="3.46745">
        <ele>4.46</ele>
        <time>2018-05-08T08:56:08Z</time>
      </trkpt>
      <trkpt lat="43.31994" lon="3.46757">
        <ele>1.58</ele>
        <time>2018-05-08T08:56:20Z</time>
      </trkpt>
      <trkpt lat="43.31994" lon="3.4676">
        <ele>1.58</ele>
        <time>2018-05-08T08:56:21Z</time>
      </trkpt>
      <trkpt lat="43.31995" lon="3.46763">
        <ele>1.58</ele>
        <time>2018-05-08T08:56:22Z</time>
      </trkpt>
      <trkpt lat="43.31997" lon="3.46772">
        <ele>3.02</ele>
        <time>2018-05-08T08:56:28Z</time>
      </trkpt>
      <trkpt lat="43.31997" lon="3.46774">
        <ele>3.02</ele>
        <time>2018-05-08T08:56:29Z</time>
      </trkpt>
      <trkpt lat="43.31997" lon="3.46787">
        <ele>3.02</ele>
        <time>2018-05-08T08:56:34Z</time>
      </trkpt>
      <trkpt lat="43.31998" lon="3.46789">
        <ele>3.5</ele>
        <time>2018-05-08T08:56:35Z</time>
      </trkpt>
      <trkpt lat="43.31999" lon="3.46789">
        <ele>3.02</ele>
        <time>2018-05-08T08:56:36Z</time>
      </trkpt>
      <trkpt lat="43.32" lon="3.46788">
        <ele>2.54</ele>
        <time>2018-05-08T08:56:37Z</time>
      </trkpt>
      <trkpt lat="43.32001" lon="3.46786">
        <ele>2.54</ele>
        <time>2018-05-08T08:56:38Z</time>
      </trkpt>
      <trkpt lat="43.32001" lon="3.46784">
        <ele>2.54</ele>
        <time>2018-05-08T08:56:39Z</time>
      </trkpt>
      <trkpt lat="43.32001" lon="3.46783">
        <ele>2.54</ele>
        <time>2018-05-08T08:56:40Z</time>
      </trkpt>
      <trkpt lat="43.32001" lon="3.46781">
        <ele>3.02</ele>
        <time>2018-05-08T08:56:41Z</time>
      </trkpt>
      <trkpt lat="43.32001" lon="3.46779">
        <ele>3.02</ele>
        <time>2018-05-08T08:56:42Z</time>
      </trkpt>
      <trkpt lat="43.32" lon="3.46776">
        <ele>3.98</ele>
        <time>2018-05-08T08:56:44Z</time>
      </trkpt>
      <trkpt lat="43.32" lon="3.46766">
        <ele>6.39</ele>
        <time>2018-05-08T08:56:59Z</time>
      </trkpt>
      <trkpt lat="43.31999" lon="3.46762">
        <ele>5.91</ele>
        <time>2018-05-08T08:57:17Z</time>
      </trkpt>
      <trkpt lat="43.31996" lon="3.46751">
        <ele>5.42</ele>
        <time>2018-05-08T08:57:20Z</time>
      </trkpt>
      <trkpt lat="43.31994" lon="3.46749">
        <ele>5.42</ele>
        <time>2018-05-08T08:57:21Z</time>
      </trkpt>
      <trkpt lat="43.31991" lon="3.46747">
        <ele>5.42</ele>
        <time>2018-05-08T08:57:22Z</time>
      </trkpt>
      <trkpt lat="43.31989" lon="3.46746">
        <ele>4.94</ele>
        <time>2018-05-08T08:57:23Z</time>
      </trkpt>
      <trkpt lat="43.31988" lon="3.46744">
        <ele>5.42</ele>
        <time>2018-05-08T08:57:24Z</time>
      </trkpt>
      <trkpt lat="43.31987" lon="3.46742">
        <ele>5.42</ele>
        <time>2018-05-08T08:57:25Z</time>
      </trkpt>
      <trkpt lat="43.31986" lon="3.4674">
        <ele>5.42</ele>
        <time>2018-05-08T08:57:26Z</time>
      </trkpt>
      <trkpt lat="43.31986" lon="3.46739">
        <ele>5.91</ele>
        <time>2018-05-08T08:57:27Z</time>
      </trkpt>
      <trkpt lat="43.31986" lon="3.46737">
        <ele>5.91</ele>
        <time>2018-05-08T08:57:28Z</time>
      </trkpt>
      <trkpt lat="43.31987" lon="3.46734">
        <ele>6.39</ele>
        <time>2018-05-08T08:57:29Z</time>
      </trkpt>
      <trkpt lat="43.31988" lon="3.46732">
        <ele>6.39</ele>
        <time>2018-05-08T08:57:30Z</time>
      </trkpt>
      <trkpt lat="43.31989" lon="3.4673">
        <ele>6.87</ele>
        <time>2018-05-08T08:57:31Z</time>
      </trkpt>
      <trkpt lat="43.31991" lon="3.46728">
        <ele>6.87</ele>
        <time>2018-05-08T08:57:32Z</time>
      </trkpt>
      <trkpt lat="43.31992" lon="3.46726">
        <ele>6.87</ele>
        <time>2018-05-08T08:57:33Z</time>
      </trkpt>
      <trkpt lat="43.31994" lon="3.46723">
        <ele>7.35</ele>
        <time>2018-05-08T08:57:35Z</time>
      </trkpt>
      <trkpt lat="43.31995" lon="3.46721">
        <ele>7.35</ele>
        <time>2018-05-08T08:57:36Z</time>
      </trkpt>
      <trkpt lat="43.31995" lon="3.46719">
        <ele>7.35</ele>
        <time>2018-05-08T08:57:37Z</time>
      </trkpt>
      <trkpt lat="43.31995" lon="3.46717">
        <ele>7.35</ele>
        <time>2018-05-08T08:57:38Z</time>
      </trkpt>
      <trkpt lat="43.31991" lon="3.46684">
        <ele>6.39</ele>
        <time>2018-05-08T08:57:49Z</time>
      </trkpt>
      <trkpt lat="43.3199" lon="3.46648">
        <ele>5.91</ele>
        <time>2018-05-08T08:58:02Z</time>
      </trkpt>
      <trkpt lat="43.31984" lon="3.46618">
        <ele>6.87</ele>
        <time>2018-05-08T08:58:14Z</time>
      </trkpt>
      <trkpt lat="43.31984" lon="3.46615">
        <ele>6.87</ele>
        <time>2018-05-08T08:58:15Z</time>
      </trkpt>
      <trkpt lat="43.31984" lon="3.46612">
        <ele>6.87</ele>
        <time>2018-05-08T08:58:16Z</time>
      </trkpt>
      <trkpt lat="43.31981" lon="3.4657">
        <ele>7.83</ele>
        <time>2018-05-08T08:58:28Z</time>
      </trkpt>
      <trkpt lat="43.31974" lon="3.46523">
        <ele>6.87</ele>
        <time>2018-05-08T08:58:41Z</time>
      </trkpt>
      <trkpt lat="43.31969" lon="3.46495">
        <ele>6.87</ele>
        <time>2018-05-08T08:58:49Z</time>
      </trkpt>
      <trkpt lat="43.31968" lon="3.46493">
        <ele>7.35</ele>
        <time>2018-05-08T08:58:50Z</time>
      </trkpt>
      <trkpt lat="43.31966" lon="3.46491">
        <ele>7.35</ele>
        <time>2018-05-08T08:58:51Z</time>
      </trkpt>
      <trkpt lat="43.31959" lon="3.46484">
        <ele>7.35</ele>
        <time>2018-05-08T08:58:55Z</time>
      </trkpt>
      <trkpt lat="43.31959" lon="3.46481">
        <ele>7.83</ele>
        <time>2018-05-08T08:58:56Z</time>
      </trkpt>
      <trkpt lat="43.31946" lon="3.46425">
        <ele>8.79</ele>
        <time>2018-05-08T08:59:11Z</time>
      </trkpt>
      <trkpt lat="43.31941" lon="3.46368">
        <ele>7.35</ele>
        <time>2018-05-08T08:59:25Z</time>
      </trkpt>
      <trkpt lat="43.31932" lon="3.46305">
        <ele>7.35</ele>
        <time>2018-05-08T08:59:40Z</time>
      </trkpt>
      <trkpt lat="43.31919" lon="3.46237">
        <ele>7.35</ele>
        <time>2018-05-08T08:59:56Z</time>
      </trkpt>
      <trkpt lat="43.3191" lon="3.46181">
        <ele>7.35</ele>
        <time>2018-05-08T09:00:08Z</time>
      </trkpt>
      <trkpt lat="43.31905" lon="3.46145">
        <ele>6.39</ele>
        <time>2018-05-08T09:00:15Z</time>
      </trkpt>
      <trkpt lat="43.31905" lon="3.46139">
        <ele>6.39</ele>
        <time>2018-05-08T09:00:16Z</time>
      </trkpt>
      <trkpt lat="43.31904" lon="3.46134">
        <ele>6.39</ele>
        <time>2018-05-08T09:00:17Z</time>
      </trkpt>
      <trkpt lat="43.31894" lon="3.46084">
        <ele>6.87</ele>
        <time>2018-05-08T09:00:28Z</time>
      </trkpt>
      <trkpt lat="43.31881" lon="3.46009">
        <ele>7.35</ele>
        <time>2018-05-08T09:00:43Z</time>
      </trkpt>
      <trkpt lat="43.31868" lon="3.45928">
        <ele>6.39</ele>
        <time>2018-05-08T09:01:00Z</time>
      </trkpt>
      <trkpt lat="43.31866" lon="3.4591">
        <ele>6.39</ele>
        <time>2018-05-08T09:01:04Z</time>
      </trkpt>
      <trkpt lat="43.31862" lon="3.45891">
        <ele>5.42</ele>
        <time>2018-05-08T09:01:07Z</time>
      </trkpt>
      <trkpt lat="43.31856" lon="3.45852">
        <ele>5.91</ele>
        <time>2018-05-08T09:01:16Z</time>
      </trkpt>
      <trkpt lat="43.31847" lon="3.45792">
        <ele>6.87</ele>
        <time>2018-05-08T09:01:30Z</time>
      </trkpt>
      <trkpt lat="43.31833" lon="3.45709">
        <ele>7.35</ele>
        <time>2018-05-08T09:01:48Z</time>
      </trkpt>
      <trkpt lat="43.31822" lon="3.4564">
        <ele>6.39</ele>
        <time>2018-05-08T09:02:03Z</time>
      </trkpt>
      <trkpt lat="43.31809" lon="3.45561">
        <ele>6.39</ele>
        <time>2018-05-08T09:02:18Z</time>
      </trkpt>
      <trkpt lat="43.31795" lon="3.45477">
        <ele>5.91</ele>
        <time>2018-05-08T09:02:35Z</time>
      </trkpt>
      <trkpt lat="43.31793" lon="3.45443">
        <ele>4.46</ele>
        <time>2018-05-08T09:02:47Z</time>
      </trkpt>
      <trkpt lat="43.31787" lon="3.45387">
        <ele>4.94</ele>
        <time>2018-05-08T09:03:01Z</time>
      </trkpt>
      <trkpt lat="43.3178" lon="3.45344">
        <ele>5.42</ele>
        <time>2018-05-08T09:03:13Z</time>
      </trkpt>
      <trkpt lat="43.31772" lon="3.4531">
        <ele>6.39</ele>
        <time>2018-05-08T09:03:23Z</time>
      </trkpt>
      <trkpt lat="43.31765" lon="3.45249">
        <ele>6.39</ele>
        <time>2018-05-08T09:03:38Z</time>
      </trkpt>
      <trkpt lat="43.31756" lon="3.45187">
        <ele>5.42</ele>
        <time>2018-05-08T09:03:53Z</time>
      </trkpt>
      <trkpt lat="43.31745" lon="3.4513">
        <ele>4.94</ele>
        <time>2018-05-08T09:04:08Z</time>
      </trkpt>
      <trkpt lat="43.31736" lon="3.45077">
        <ele>5.42</ele>
        <time>2018-05-08T09:04:21Z</time>
      </trkpt>
      <trkpt lat="43.31728" lon="3.45028">
        <ele>5.42</ele>
        <time>2018-05-08T09:04:34Z</time>
      </trkpt>
      <trkpt lat="43.31721" lon="3.44986">
        <ele>5.91</ele>
        <time>2018-05-08T09:04:45Z</time>
      </trkpt>
      <trkpt lat="43.3171" lon="3.44922">
        <ele>4.94</ele>
        <time>2018-05-08T09:05:02Z</time>
      </trkpt>
      <trkpt lat="43.3171" lon="3.44922">
        <ele>4.94</ele>
        <time>2018-05-08T09:05:22Z</time>
      </trkpt>
      <trkpt lat="43.31706" lon="3.44906">
        <ele>3.98</ele>
        <time>2018-05-08T09:05:38Z</time>
      </trkpt>
      <trkpt lat="43.31699" lon="3.44862">
        <ele>4.46</ele>
        <time>2018-05-08T09:05:51Z</time>
      </trkpt>
      <trkpt lat="43.31692" lon="3.44817">
        <ele>5.42</ele>
        <time>2018-05-08T09:06:04Z</time>
      </trkpt>
      <trkpt lat="43.31681" lon="3.44759">
        <ele>6.39</ele>
        <time>2018-05-08T09:06:19Z</time>
      </trkpt>
      <trkpt lat="43.31675" lon="3.4473">
        <ele>6.39</ele>
        <time>2018-05-08T09:06:30Z</time>
      </trkpt>
      <trkpt lat="43.31674" lon="3.44728">
        <ele>6.39</ele>
        <time>2018-05-08T09:06:45Z</time>
      </trkpt>
      <trkpt lat="43.31674" lon="3.44726">
        <ele>6.39</ele>
        <time>2018-05-08T09:06:46Z</time>
      </trkpt>
      <trkpt lat="43.31674" lon="3.44724">
        <ele>6.39</ele>
        <time>2018-05-08T09:06:47Z</time>
      </trkpt>
      <trkpt lat="43.31673" lon="3.44721">
        <ele>6.39</ele>
        <time>2018-05-08T09:06:48Z</time>
      </trkpt>
      <trkpt lat="43.31672" lon="3.44718">
        <ele>5.91</ele>
        <time>2018-05-08T09:06:49Z</time>
      </trkpt>
      <trkpt lat="43.31672" lon="3.44715">
        <ele>5.91</ele>
        <time>2018-05-08T09:06:50Z</time>
      </trkpt>
      <trkpt lat="43.31664" lon="3.44671">
        <ele>5.91</ele>
        <time>2018-05-08T09:07:02Z</time>
      </trkpt>
      <trkpt lat="43.31655" lon="3.4462">
        <ele>6.39</ele>
        <time>2018-05-08T09:07:16Z</time>
      </trkpt>
      <trkpt lat="43.3165" lon="3.44596">
        <ele>5.42</ele>
        <time>2018-05-08T09:07:23Z</time>
      </trkpt>
      <trkpt lat="43.31648" lon="3.44594">
        <ele>5.42</ele>
        <time>2018-05-08T09:07:24Z</time>
      </trkpt>
      <trkpt lat="43.31646" lon="3.44592">
        <ele>5.42</ele>
        <time>2018-05-08T09:07:25Z</time>
      </trkpt>
      <trkpt lat="43.31645" lon="3.44588">
        <ele>5.91</ele>
        <time>2018-05-08T09:07:26Z</time>
      </trkpt>
      <trkpt lat="43.31645" lon="3.44585">
        <ele>5.42</ele>
        <time>2018-05-08T09:07:27Z</time>
      </trkpt>
      <trkpt lat="43.31644" lon="3.4458">
        <ele>5.42</ele>
        <time>2018-05-08T09:07:28Z</time>
      </trkpt>
      <trkpt lat="43.31643" lon="3.44575">
        <ele>5.42</ele>
        <time>2018-05-08T09:07:29Z</time>
      </trkpt>
      <trkpt lat="43.31642" lon="3.44571">
        <ele>5.42</ele>
        <time>2018-05-08T09:07:30Z</time>
      </trkpt>
      <trkpt lat="43.31634" lon="3.44519">
        <ele>5.42</ele>
        <time>2018-05-08T09:07:42Z</time>
      </trkpt>
      <trkpt lat="43.31622" lon="3.44443">
        <ele>4.94</ele>
        <time>2018-05-08T09:08:01Z</time>
      </trkpt>
      <trkpt lat="43.31608" lon="3.44362">
        <ele>4.94</ele>
        <time>2018-05-08T09:08:21Z</time>
      </trkpt>
      <trkpt lat="43.31605" lon="3.4434">
        <ele>4.46</ele>
        <time>2018-05-08T09:08:26Z</time>
      </trkpt>
      <trkpt lat="43.31594" lon="3.4429">
        <ele>3.98</ele>
        <time>2018-05-08T09:08:38Z</time>
      </trkpt>
      <trkpt lat="43.31584" lon="3.44224">
        <ele>4.46</ele>
        <time>2018-05-08T09:08:54Z</time>
      </trkpt>
      <trkpt lat="43.31574" lon="3.44167">
        <ele>3.02</ele>
        <time>2018-05-08T09:09:08Z</time>
      </trkpt>
      <trkpt lat="43.31542" lon="3.44106">
        <ele>4.46</ele>
        <time>2018-05-08T09:09:26Z</time>
      </trkpt>
      <trkpt lat="43.31501" lon="3.44064">
        <ele>3.02</ele>
        <time>2018-05-08T09:09:43Z</time>
      </trkpt>
      <trkpt lat="43.31478" lon="3.44063">
        <ele>3.02</ele>
        <time>2018-05-08T09:09:52Z</time>
      </trkpt>
      <trkpt lat="43.31442" lon="3.44066">
        <ele>1.58</ele>
        <time>2018-05-08T09:10:03Z</time>
      </trkpt>
      <trkpt lat="43.31431" lon="3.44067">
        <ele>1.1</ele>
        <time>2018-05-08T09:10:07Z</time>
      </trkpt>
      <trkpt lat="43.31429" lon="3.44066">
        <ele>1.1</ele>
        <time>2018-05-08T09:10:08Z</time>
      </trkpt>
      <trkpt lat="43.31428" lon="3.44065">
        <ele>1.1</ele>
        <time>2018-05-08T09:10:09Z</time>
      </trkpt>
      <trkpt lat="43.31426" lon="3.44065">
        <ele>1.1</ele>
        <time>2018-05-08T09:10:10Z</time>
      </trkpt>
      <trkpt lat="43.31424" lon="3.44064">
        <ele>0.62</ele>
        <time>2018-05-08T09:10:11Z</time>
      </trkpt>
      <trkpt lat="43.31392" lon="3.44065">
        <ele>3.5</ele>
        <time>2018-05-08T09:10:22Z</time>
      </trkpt>
      <trkpt lat="43.31348" lon="3.44068">
        <ele>4.46</ele>
        <time>2018-05-08T09:10:35Z</time>
      </trkpt>
      <trkpt lat="43.31309" lon="3.44057">
        <ele>3.02</ele>
        <time>2018-05-08T09:10:48Z</time>
      </trkpt>
      <trkpt lat="43.3127" lon="3.44036">
        <ele>2.06</ele>
        <time>2018-05-08T09:11:01Z</time>
      </trkpt>
      <trkpt lat="43.31238" lon="3.44017">
        <ele>3.02</ele>
        <time>2018-05-08T09:11:11Z</time>
      </trkpt>
      <trkpt lat="43.31218" lon="3.44">
        <ele>3.02</ele>
        <time>2018-05-08T09:11:20Z</time>
      </trkpt>
      <trkpt lat="43.31187" lon="3.43986">
        <ele>1.1</ele>
        <time>2018-05-08T09:11:32Z</time>
      </trkpt>
      <trkpt lat="43.31141" lon="3.43965">
        <ele>-0.34</ele>
        <time>2018-05-08T09:11:47Z</time>
      </trkpt>
      <trkpt lat="43.31096" lon="3.43939">
        <ele>-0.34</ele>
        <time>2018-05-08T09:12:00Z</time>
      </trkpt>
      <trkpt lat="43.3105" lon="3.4392">
        <ele>0.62</ele>
        <time>2018-05-08T09:12:13Z</time>
      </trkpt>
      <trkpt lat="43.31016" lon="3.43906">
        <ele>-1.3</ele>
        <time>2018-05-08T09:12:25Z</time>
      </trkpt>
      <trkpt lat="43.30977" lon="3.43883">
        <ele>2.06</ele>
        <time>2018-05-08T09:12:38Z</time>
      </trkpt>
      <trkpt lat="43.30956" lon="3.43875">
        <ele>3.02</ele>
        <time>2018-05-08T09:12:43Z</time>
      </trkpt>
      <trkpt lat="43.3092" lon="3.43862">
        <ele>3.5</ele>
        <time>2018-05-08T09:12:56Z</time>
      </trkpt>
      <trkpt lat="43.30871" lon="3.4384">
        <ele>3.5</ele>
        <time>2018-05-08T09:13:12Z</time>
      </trkpt>
      <trkpt lat="43.30826" lon="3.43817">
        <ele>1.58</ele>
        <time>2018-05-08T09:13:27Z</time>
      </trkpt>
      <trkpt lat="43.30794" lon="3.43805">
        <ele>0.14</ele>
        <time>2018-05-08T09:13:37Z</time>
      </trkpt>
      <trkpt lat="43.30764" lon="3.4379">
        <ele>0.62</ele>
        <time>2018-05-08T09:13:51Z</time>
      </trkpt>
      <trkpt lat="43.30762" lon="3.43791">
        <ele>1.58</ele>
        <time>2018-05-08T09:14:10Z</time>
      </trkpt>
      <trkpt lat="43.30763" lon="3.43793">
        <ele>1.58</ele>
        <time>2018-05-08T09:14:25Z</time>
      </trkpt>
      <trkpt lat="43.3076" lon="3.43791">
        <ele>1.58</ele>
        <time>2018-05-08T09:14:29Z</time>
      </trkpt>
      <trkpt lat="43.30758" lon="3.43794">
        <ele>1.1</ele>
        <time>2018-05-08T09:14:32Z</time>
      </trkpt>
      <trkpt lat="43.30757" lon="3.43795">
        <ele>1.1</ele>
        <time>2018-05-08T09:14:33Z</time>
      </trkpt>
      <trkpt lat="43.30757" lon="3.43798">
        <ele>1.1</ele>
        <time>2018-05-08T09:14:35Z</time>
      </trkpt>
      <trkpt lat="43.30759" lon="3.43812">
        <ele>0.62</ele>
        <time>2018-05-08T09:14:49Z</time>
      </trkpt>
      <trkpt lat="43.30756" lon="3.43815">
        <ele>4.94</ele>
        <time>2018-05-08T09:15:25Z</time>
      </trkpt>
      <trkpt lat="43.30759" lon="3.43802">
        <ele>4.94</ele>
        <time>2018-05-08T09:15:38Z</time>
      </trkpt>
      <trkpt lat="43.30761" lon="3.43799">
        <ele>4.46</ele>
        <time>2018-05-08T09:15:40Z</time>
      </trkpt>
      <trkpt lat="43.30762" lon="3.43789">
        <ele>3.98</ele>
        <time>2018-05-08T09:15:53Z</time>
      </trkpt>
      <trkpt lat="43.30763" lon="3.4379">
        <ele>2.54</ele>
        <time>2018-05-08T09:16:15Z</time>
      </trkpt>
      <trkpt lat="43.30762" lon="3.43791">
        <ele>3.98</ele>
        <time>2018-05-08T09:16:35Z</time>
      </trkpt>
      <trkpt lat="43.30765" lon="3.43791">
        <ele>6.39</ele>
        <time>2018-05-08T09:17:02Z</time>
      </trkpt>
      <trkpt lat="43.30766" lon="3.43792">
        <ele>6.87</ele>
        <time>2018-05-08T09:17:15Z</time>
      </trkpt>
      <trkpt lat="43.30767" lon="3.4379">
        <ele>4.46</ele>
        <time>2018-05-08T09:17:27Z</time>
      </trkpt>
      <trkpt lat="43.30765" lon="3.43788">
        <ele>3.98</ele>
        <time>2018-05-08T09:17:30Z</time>
      </trkpt>
      <trkpt lat="43.30764" lon="3.43787">
        <ele>3.98</ele>
        <time>2018-05-08T09:17:31Z</time>
      </trkpt>
      <trkpt lat="43.30762" lon="3.43786">
        <ele>3.5</ele>
        <time>2018-05-08T09:17:32Z</time>
      </trkpt>
      <trkpt lat="43.3076" lon="3.43785">
        <ele>3.5</ele>
        <time>2018-05-08T09:17:33Z</time>
      </trkpt>
      <trkpt lat="43.30759" lon="3.43783">
        <ele>3.5</ele>
        <time>2018-05-08T09:17:34Z</time>
      </trkpt>
      <trkpt lat="43.30753" lon="3.43778">
        <ele>3.02</ele>
        <time>2018-05-08T09:17:40Z</time>
      </trkpt>
      <trkpt lat="43.30743" lon="3.43775">
        <ele>3.02</ele>
        <time>2018-05-08T09:17:47Z</time>
      </trkpt>
      <trkpt lat="43.30741" lon="3.43774">
        <ele>3.02</ele>
        <time>2018-05-08T09:17:48Z</time>
      </trkpt>
      <trkpt lat="43.30739" lon="3.43774">
        <ele>3.02</ele>
        <time>2018-05-08T09:17:49Z</time>
      </trkpt>
      <trkpt lat="43.30736" lon="3.43774">
        <ele>3.02</ele>
        <time>2018-05-08T09:17:50Z</time>
      </trkpt>
      <trkpt lat="43.30734" lon="3.43773">
        <ele>3.02</ele>
        <time>2018-05-08T09:17:51Z</time>
      </trkpt>
      <trkpt lat="43.30731" lon="3.43773">
        <ele>2.54</ele>
        <time>2018-05-08T09:17:52Z</time>
      </trkpt>
      <trkpt lat="43.30729" lon="3.43773">
        <ele>2.54</ele>
        <time>2018-05-08T09:17:53Z</time>
      </trkpt>
      <trkpt lat="43.30726" lon="3.43773">
        <ele>2.54</ele>
        <time>2018-05-08T09:17:54Z</time>
      </trkpt>
      <trkpt lat="43.307" lon="3.43759">
        <ele>0.14</ele>
        <time>2018-05-08T09:18:05Z</time>
      </trkpt>
      <trkpt lat="43.30663" lon="3.43743">
        <ele>-2.27</ele>
        <time>2018-05-08T09:18:18Z</time>
      </trkpt>
      <trkpt lat="43.30631" lon="3.43731">
        <ele>-4.67</ele>
        <time>2018-05-08T09:18:29Z</time>
      </trkpt>
      <trkpt lat="43.30596" lon="3.43715">
        <ele>-5.63</ele>
        <time>2018-05-08T09:18:41Z</time>
      </trkpt>
      <trkpt lat="43.30559" lon="3.43695">
        <ele>-6.59</ele>
        <time>2018-05-08T09:18:53Z</time>
      </trkpt>
      <trkpt lat="43.30529" lon="3.43678">
        <ele>-6.59</ele>
        <time>2018-05-08T09:19:03Z</time>
      </trkpt>
      <trkpt lat="43.30499" lon="3.4366">
        <ele>-7.07</ele>
        <time>2018-05-08T09:19:14Z</time>
      </trkpt>
      <trkpt lat="43.30459" lon="3.4364">
        <ele>-6.11</ele>
        <time>2018-05-08T09:19:26Z</time>
      </trkpt>
      <trkpt lat="43.30454" lon="3.43632">
        <ele>-5.63</ele>
        <time>2018-05-08T09:19:28Z</time>
      </trkpt>
      <trkpt lat="43.30435" lon="3.436">
        <ele>-6.59</ele>
        <time>2018-05-08T09:19:38Z</time>
      </trkpt>
      <trkpt lat="43.3041" lon="3.43569">
        <ele>-4.67</ele>
        <time>2018-05-08T09:19:48Z</time>
      </trkpt>
      <trkpt lat="43.30383" lon="3.43521">
        <ele>-0.34</ele>
        <time>2018-05-08T09:20:00Z</time>
      </trkpt>
      <trkpt lat="43.3035" lon="3.43462">
        <ele>-2.75</ele>
        <time>2018-05-08T09:20:14Z</time>
      </trkpt>
      <trkpt lat="43.30325" lon="3.43384">
        <ele>-0.34</ele>
        <time>2018-05-08T09:20:29Z</time>
      </trkpt>
      <trkpt lat="43.3031" lon="3.43307">
        <ele>-0.34</ele>
        <time>2018-05-08T09:20:44Z</time>
      </trkpt>
      <trkpt lat="43.30304" lon="3.43243">
        <ele>0.14</ele>
        <time>2018-05-08T09:20:57Z</time>
      </trkpt>
      <trkpt lat="43.303" lon="3.43177">
        <ele>0.62</ele>
        <time>2018-05-08T09:21:10Z</time>
      </trkpt>
      <trkpt lat="43.30293" lon="3.43109">
        <ele>-0.82</ele>
        <time>2018-05-08T09:21:23Z</time>
      </trkpt>
      <trkpt lat="43.30277" lon="3.43052">
        <ele>-0.34</ele>
        <time>2018-05-08T09:21:36Z</time>
      </trkpt>
      <trkpt lat="43.30271" lon="3.43007">
        <ele>1.1</ele>
        <time>2018-05-08T09:21:48Z</time>
      </trkpt>
      <trkpt lat="43.30269" lon="3.43008">
        <ele>3.02</ele>
        <time>2018-05-08T09:22:02Z</time>
      </trkpt>
      <trkpt lat="43.30268" lon="3.43006">
        <ele>3.02</ele>
        <time>2018-05-08T09:22:33Z</time>
      </trkpt>
      <trkpt lat="43.30268" lon="3.43004">
        <ele>2.54</ele>
        <time>2018-05-08T09:22:37Z</time>
      </trkpt>
      <trkpt lat="43.30269" lon="3.43002">
        <ele>2.54</ele>
        <time>2018-05-08T09:22:38Z</time>
      </trkpt>
      <trkpt lat="43.30269" lon="3.43">
        <ele>2.54</ele>
        <time>2018-05-08T09:22:39Z</time>
      </trkpt>
      <trkpt lat="43.30269" lon="3.42998">
        <ele>2.54</ele>
        <time>2018-05-08T09:22:40Z</time>
      </trkpt>
      <trkpt lat="43.30269" lon="3.42994">
        <ele>2.54</ele>
        <time>2018-05-08T09:22:41Z</time>
      </trkpt>
      <trkpt lat="43.30269" lon="3.42991">
        <ele>2.54</ele>
        <time>2018-05-08T09:22:42Z</time>
      </trkpt>
      <trkpt lat="43.30271" lon="3.42927">
        <ele>3.02</ele>
        <time>2018-05-08T09:22:56Z</time>
      </trkpt>
      <trkpt lat="43.30273" lon="3.42926">
        <ele>3.02</ele>
        <time>2018-05-08T09:22:57Z</time>
      </trkpt>
      <trkpt lat="43.30277" lon="3.42929">
        <ele>2.54</ele>
        <time>2018-05-08T09:22:59Z</time>
      </trkpt>
      <trkpt lat="43.3028" lon="3.42935">
        <ele>2.54</ele>
        <time>2018-05-08T09:23:01Z</time>
      </trkpt>
      <trkpt lat="43.30285" lon="3.42913">
        <ele>2.54</ele>
        <time>2018-05-08T09:23:09Z</time>
      </trkpt>
      <trkpt lat="43.30281" lon="3.4283">
        <ele>3.02</ele>
        <time>2018-05-08T09:23:26Z</time>
      </trkpt>
      <trkpt lat="43.30276" lon="3.42764">
        <ele>2.54</ele>
        <time>2018-05-08T09:23:40Z</time>
      </trkpt>
      <trkpt lat="43.30272" lon="3.42703">
        <ele>2.54</ele>
        <time>2018-05-08T09:23:53Z</time>
      </trkpt>
      <trkpt lat="43.30266" lon="3.42634">
        <ele>3.5</ele>
        <time>2018-05-08T09:24:07Z</time>
      </trkpt>
      <trkpt lat="43.30262" lon="3.42562">
        <ele>3.02</ele>
        <time>2018-05-08T09:24:22Z</time>
      </trkpt>
      <trkpt lat="43.30257" lon="3.4248">
        <ele>3.02</ele>
        <time>2018-05-08T09:24:39Z</time>
      </trkpt>
      <trkpt lat="43.30251" lon="3.42385">
        <ele>3.98</ele>
        <time>2018-05-08T09:24:58Z</time>
      </trkpt>
      <trkpt lat="43.30244" lon="3.42291">
        <ele>3.98</ele>
        <time>2018-05-08T09:25:17Z</time>
      </trkpt>
      <trkpt lat="43.30238" lon="3.42201">
        <ele>4.94</ele>
        <time>2018-05-08T09:25:36Z</time>
      </trkpt>
      <trkpt lat="43.30233" lon="3.42125">
        <ele>3.98</ele>
        <time>2018-05-08T09:25:52Z</time>
      </trkpt>
      <trkpt lat="43.30225" lon="3.42042">
        <ele>3.02</ele>
        <time>2018-05-08T09:26:10Z</time>
      </trkpt>
      <trkpt lat="43.3022" lon="3.41986">
        <ele>4.46</ele>
        <time>2018-05-08T09:26:24Z</time>
      </trkpt>
      <trkpt lat="43.30204" lon="3.41934">
        <ele>3.98</ele>
        <time>2018-05-08T09:26:38Z</time>
      </trkpt>
      <trkpt lat="43.30203" lon="3.41932">
        <ele>3.98</ele>
        <time>2018-05-08T09:26:39Z</time>
      </trkpt>
      <trkpt lat="43.30203" lon="3.41929">
        <ele>3.98</ele>
        <time>2018-05-08T09:26:40Z</time>
      </trkpt>
      <trkpt lat="43.30205" lon="3.41889">
        <ele>4.94</ele>
        <time>2018-05-08T09:26:53Z</time>
      </trkpt>
      <trkpt lat="43.30199" lon="3.41857">
        <ele>3.5</ele>
        <time>2018-05-08T09:27:00Z</time>
      </trkpt>
      <trkpt lat="43.30199" lon="3.41851">
        <ele>3.5</ele>
        <time>2018-05-08T09:27:01Z</time>
      </trkpt>
      <trkpt lat="43.302" lon="3.41845">
        <ele>3.5</ele>
        <time>2018-05-08T09:27:02Z</time>
      </trkpt>
      <trkpt lat="43.30202" lon="3.4184">
        <ele>3.5</ele>
        <time>2018-05-08T09:27:03Z</time>
      </trkpt>
      <trkpt lat="43.30203" lon="3.41834">
        <ele>3.02</ele>
        <time>2018-05-08T09:27:04Z</time>
      </trkpt>
      <trkpt lat="43.30206" lon="3.41822">
        <ele>3.02</ele>
        <time>2018-05-08T09:27:06Z</time>
      </trkpt>
      <trkpt lat="43.30207" lon="3.41816">
        <ele>3.02</ele>
        <time>2018-05-08T09:27:07Z</time>
      </trkpt>
      <trkpt lat="43.30207" lon="3.4181">
        <ele>3.02</ele>
        <time>2018-05-08T09:27:08Z</time>
      </trkpt>
      <trkpt lat="43.30207" lon="3.41804">
        <ele>3.02</ele>
        <time>2018-05-08T09:27:09Z</time>
      </trkpt>
      <trkpt lat="43.30207" lon="3.41799">
        <ele>3.02</ele>
        <time>2018-05-08T09:27:10Z</time>
      </trkpt>
      <trkpt lat="43.30194" lon="3.41735">
        <ele>3.5</ele>
        <time>2018-05-08T09:27:24Z</time>
      </trkpt>
      <trkpt lat="43.30193" lon="3.41731">
        <ele>3.5</ele>
        <time>2018-05-08T09:27:25Z</time>
      </trkpt>
      <trkpt lat="43.30195" lon="3.41728">
        <ele>3.5</ele>
        <time>2018-05-08T09:27:26Z</time>
      </trkpt>
      <trkpt lat="43.30197" lon="3.41725">
        <ele>3.5</ele>
        <time>2018-05-08T09:27:27Z</time>
      </trkpt>
      <trkpt lat="43.30198" lon="3.41722">
        <ele>3.98</ele>
        <time>2018-05-08T09:27:28Z</time>
      </trkpt>
      <trkpt lat="43.30199" lon="3.41719">
        <ele>3.98</ele>
        <time>2018-05-08T09:27:29Z</time>
      </trkpt>
      <trkpt lat="43.30199" lon="3.41715">
        <ele>3.98</ele>
        <time>2018-05-08T09:27:30Z</time>
      </trkpt>
      <trkpt lat="43.30198" lon="3.41711">
        <ele>3.98</ele>
        <time>2018-05-08T09:27:31Z</time>
      </trkpt>
      <trkpt lat="43.30197" lon="3.41707">
        <ele>3.98</ele>
        <time>2018-05-08T09:27:32Z</time>
      </trkpt>
      <trkpt lat="43.30197" lon="3.41703">
        <ele>3.98</ele>
        <time>2018-05-08T09:27:33Z</time>
      </trkpt>
      <trkpt lat="43.30196" lon="3.41698">
        <ele>3.98</ele>
        <time>2018-05-08T09:27:34Z</time>
      </trkpt>
      <trkpt lat="43.30191" lon="3.41613">
        <ele>3.98</ele>
        <time>2018-05-08T09:27:54Z</time>
      </trkpt>
      <trkpt lat="43.30185" lon="3.41526">
        <ele>3.98</ele>
        <time>2018-05-08T09:28:14Z</time>
      </trkpt>
      <trkpt lat="43.3018" lon="3.4145">
        <ele>4.46</ele>
        <time>2018-05-08T09:28:31Z</time>
      </trkpt>
      <trkpt lat="43.30174" lon="3.41374">
        <ele>4.46</ele>
        <time>2018-05-08T09:28:49Z</time>
      </trkpt>
      <trkpt lat="43.30169" lon="3.41296">
        <ele>3.98</ele>
        <time>2018-05-08T09:29:07Z</time>
      </trkpt>
      <trkpt lat="43.30163" lon="3.41212">
        <ele>3.98</ele>
        <time>2018-05-08T09:29:26Z</time>
      </trkpt>
      <trkpt lat="43.30159" lon="3.4115">
        <ele>4.46</ele>
        <time>2018-05-08T09:29:41Z</time>
      </trkpt>
      <trkpt lat="43.30154" lon="3.41081">
        <ele>3.98</ele>
        <time>2018-05-08T09:29:57Z</time>
      </trkpt>
      <trkpt lat="43.30149" lon="3.41024">
        <ele>4.46</ele>
        <time>2018-05-08T09:30:12Z</time>
      </trkpt>
      <trkpt lat="43.30145" lon="3.4096">
        <ele>3.98</ele>
        <time>2018-05-08T09:30:28Z</time>
      </trkpt>
      <trkpt lat="43.30141" lon="3.40901">
        <ele>3.98</ele>
        <time>2018-05-08T09:30:42Z</time>
      </trkpt>
      <trkpt lat="43.30136" lon="3.40834">
        <ele>4.94</ele>
        <time>2018-05-08T09:30:58Z</time>
      </trkpt>
      <trkpt lat="43.30132" lon="3.40763">
        <ele>4.46</ele>
        <time>2018-05-08T09:31:12Z</time>
      </trkpt>
      <trkpt lat="43.30126" lon="3.40713">
        <ele>5.91</ele>
        <time>2018-05-08T09:31:24Z</time>
      </trkpt>
      <trkpt lat="43.30122" lon="3.40667">
        <ele>6.39</ele>
        <time>2018-05-08T09:31:36Z</time>
      </trkpt>
      <trkpt lat="43.30118" lon="3.40616">
        <ele>6.39</ele>
        <time>2018-05-08T09:31:49Z</time>
      </trkpt>
      <trkpt lat="43.3011" lon="3.40571">
        <ele>4.94</ele>
        <time>2018-05-08T09:32:02Z</time>
      </trkpt>
      <trkpt lat="43.30105" lon="3.40523">
        <ele>4.46</ele>
        <time>2018-05-08T09:32:14Z</time>
      </trkpt>
      <trkpt lat="43.301" lon="3.40496">
        <ele>3.5</ele>
        <time>2018-05-08T09:32:24Z</time>
      </trkpt>
      <trkpt lat="43.30097" lon="3.40489">
        <ele>3.02</ele>
        <time>2018-05-08T09:32:36Z</time>
      </trkpt>
      <trkpt lat="43.30094" lon="3.40489">
        <ele>2.54</ele>
        <time>2018-05-08T09:33:09Z</time>
      </trkpt>
      <trkpt lat="43.30093" lon="3.40489">
        <ele>2.06</ele>
        <time>2018-05-08T09:33:49Z</time>
      </trkpt>
      <trkpt lat="43.30094" lon="3.4049">
        <ele>1.1</ele>
        <time>2018-05-08T09:34:20Z</time>
      </trkpt>
      <trkpt lat="43.30093" lon="3.40489">
        <ele>-0.34</ele>
        <time>2018-05-08T09:34:46Z</time>
      </trkpt>
      <trkpt lat="43.30091" lon="3.40488">
        <ele>2.06</ele>
        <time>2018-05-08T09:34:59Z</time>
      </trkpt>
      <trkpt lat="43.30089" lon="3.40486">
        <ele>2.06</ele>
        <time>2018-05-08T09:35:27Z</time>
      </trkpt>
      <trkpt lat="43.30091" lon="3.40489">
        <ele>2.54</ele>
        <time>2018-05-08T09:35:48Z</time>
      </trkpt>
      <trkpt lat="43.30092" lon="3.40488">
        <ele>2.06</ele>
        <time>2018-05-08T09:35:59Z</time>
      </trkpt>
      <trkpt lat="43.30089" lon="3.40492">
        <ele>2.06</ele>
        <time>2018-05-08T09:36:03Z</time>
      </trkpt>
      <trkpt lat="43.30092" lon="3.40499">
        <ele>2.06</ele>
        <time>2018-05-08T09:36:07Z</time>
      </trkpt>
      <trkpt lat="43.30096" lon="3.4049">
        <ele>2.54</ele>
        <time>2018-05-08T09:36:17Z</time>
      </trkpt>
      <trkpt lat="43.30098" lon="3.40486">
        <ele>2.54</ele>
        <time>2018-05-08T09:36:31Z</time>
      </trkpt>
      <trkpt lat="43.30099" lon="3.40471">
        <ele>2.54</ele>
        <time>2018-05-08T09:36:45Z</time>
      </trkpt>
      <trkpt lat="43.30097" lon="3.40455">
        <ele>1.58</ele>
        <time>2018-05-08T09:36:58Z</time>
      </trkpt>
      <trkpt lat="43.30097" lon="3.40446">
        <ele>1.58</ele>
        <time>2018-05-08T09:37:05Z</time>
      </trkpt>
      <trkpt lat="43.30104" lon="3.40444">
        <ele>3.02</ele>
        <time>2018-05-08T09:37:17Z</time>
      </trkpt>
      <trkpt lat="43.3011" lon="3.40462">
        <ele>3.5</ele>
        <time>2018-05-08T09:37:28Z</time>
      </trkpt>
      <trkpt lat="43.30112" lon="3.40476">
        <ele>3.5</ele>
        <time>2018-05-08T09:37:37Z</time>
      </trkpt>
      <trkpt lat="43.30107" lon="3.40449">
        <ele>1.1</ele>
        <time>2018-05-08T09:37:50Z</time>
      </trkpt>
      <trkpt lat="43.30104" lon="3.40443">
        <ele>0.14</ele>
        <time>2018-05-08T09:37:53Z</time>
      </trkpt>
      <trkpt lat="43.30097" lon="3.40409">
        <ele>0.62</ele>
        <time>2018-05-08T09:38:06Z</time>
      </trkpt>
      <trkpt lat="43.30091" lon="3.40405">
        <ele>1.1</ele>
        <time>2018-05-08T09:38:11Z</time>
      </trkpt>
      <trkpt lat="43.30087" lon="3.40405">
        <ele>1.58</ele>
        <time>2018-05-08T09:38:13Z</time>
      </trkpt>
      <trkpt lat="43.30081" lon="3.40377">
        <ele>1.58</ele>
        <time>2018-05-08T09:38:25Z</time>
      </trkpt>
      <trkpt lat="43.30079" lon="3.40372">
        <ele>2.54</ele>
        <time>2018-05-08T09:38:36Z</time>
      </trkpt>
      <trkpt lat="43.30077" lon="3.40369">
        <ele>2.54</ele>
        <time>2018-05-08T09:38:47Z</time>
      </trkpt>
      <trkpt lat="43.30066" lon="3.4035">
        <ele>1.1</ele>
        <time>2018-05-08T09:38:54Z</time>
      </trkpt>
      <trkpt lat="43.30057" lon="3.4033">
        <ele>-0.34</ele>
        <time>2018-05-08T09:38:59Z</time>
      </trkpt>
      <trkpt lat="43.30055" lon="3.40331">
        <ele>-1.3</ele>
        <time>2018-05-08T09:39:03Z</time>
      </trkpt>
      <trkpt lat="43.30056" lon="3.40332">
        <ele>-2.27</ele>
        <time>2018-05-08T09:39:19Z</time>
      </trkpt>
      <trkpt lat="43.30054" lon="3.4033">
        <ele>1.1</ele>
        <time>2018-05-08T09:39:56Z</time>
      </trkpt>
      <trkpt lat="43.30056" lon="3.40332">
        <ele>3.5</ele>
        <time>2018-05-08T09:40:20Z</time>
      </trkpt>
      <trkpt lat="43.30053" lon="3.40322">
        <ele>2.54</ele>
        <time>2018-05-08T09:40:28Z</time>
      </trkpt>
      <trkpt lat="43.30037" lon="3.40269">
        <ele>0.14</ele>
        <time>2018-05-08T09:40:46Z</time>
      </trkpt>
      <trkpt lat="43.30014" lon="3.40214">
        <ele>-0.82</ele>
        <time>2018-05-08T09:41:01Z</time>
      </trkpt>
      <trkpt lat="43.29999" lon="3.40167">
        <ele>-0.82</ele>
        <time>2018-05-08T09:41:13Z</time>
      </trkpt>
      <trkpt lat="43.29973" lon="3.40105">
        <ele>0.14</ele>
        <time>2018-05-08T09:41:27Z</time>
      </trkpt>
      <trkpt lat="43.29944" lon="3.40033">
        <ele>0.62</ele>
        <time>2018-05-08T09:41:43Z</time>
      </trkpt>
      <trkpt lat="43.29919" lon="3.3997">
        <ele>2.06</ele>
        <time>2018-05-08T09:41:57Z</time>
      </trkpt>
      <trkpt lat="43.29892" lon="3.39911">
        <ele>2.06</ele>
        <time>2018-05-08T09:42:10Z</time>
      </trkpt>
      <trkpt lat="43.29866" lon="3.39849">
        <ele>1.58</ele>
        <time>2018-05-08T09:42:24Z</time>
      </trkpt>
      <trkpt lat="43.29828" lon="3.39768">
        <ele>1.58</ele>
        <time>2018-05-08T09:42:41Z</time>
      </trkpt>
      <trkpt lat="43.29803" lon="3.39711">
        <ele>2.54</ele>
        <time>2018-05-08T09:42:54Z</time>
      </trkpt>
      <trkpt lat="43.2978" lon="3.39658">
        <ele>2.54</ele>
        <time>2018-05-08T09:43:05Z</time>
      </trkpt>
      <trkpt lat="43.29778" lon="3.39653">
        <ele>2.54</ele>
        <time>2018-05-08T09:43:06Z</time>
      </trkpt>
      <trkpt lat="43.29775" lon="3.39648">
        <ele>2.54</ele>
        <time>2018-05-08T09:43:07Z</time>
      </trkpt>
      <trkpt lat="43.29773" lon="3.39644">
        <ele>2.54</ele>
        <time>2018-05-08T09:43:08Z</time>
      </trkpt>
      <trkpt lat="43.29771" lon="3.39639">
        <ele>2.54</ele>
        <time>2018-05-08T09:43:09Z</time>
      </trkpt>
      <trkpt lat="43.29769" lon="3.39633">
        <ele>2.54</ele>
        <time>2018-05-08T09:43:10Z</time>
      </trkpt>
      <trkpt lat="43.29767" lon="3.39629">
        <ele>2.54</ele>
        <time>2018-05-08T09:43:11Z</time>
      </trkpt>
      <trkpt lat="43.29764" lon="3.39624">
        <ele>2.54</ele>
        <time>2018-05-08T09:43:12Z</time>
      </trkpt>
      <trkpt lat="43.29762" lon="3.39619">
        <ele>2.54</ele>
        <time>2018-05-08T09:43:13Z</time>
      </trkpt>
      <trkpt lat="43.2976" lon="3.39614">
        <ele>2.54</ele>
        <time>2018-05-08T09:43:14Z</time>
      </trkpt>
      <trkpt lat="43.29758" lon="3.39609">
        <ele>2.54</ele>
        <time>2018-05-08T09:43:15Z</time>
      </trkpt>
      <trkpt lat="43.29751" lon="3.39596">
        <ele>2.54</ele>
        <time>2018-05-08T09:43:18Z</time>
      </trkpt>
      <trkpt lat="43.29749" lon="3.39591">
        <ele>2.54</ele>
        <time>2018-05-08T09:43:19Z</time>
      </trkpt>
      <trkpt lat="43.29747" lon="3.39586">
        <ele>2.54</ele>
        <time>2018-05-08T09:43:20Z</time>
      </trkpt>
      <trkpt lat="43.29745" lon="3.39581">
        <ele>2.54</ele>
        <time>2018-05-08T09:43:21Z</time>
      </trkpt>
      <trkpt lat="43.29744" lon="3.39576">
        <ele>2.06</ele>
        <time>2018-05-08T09:43:22Z</time>
      </trkpt>
      <trkpt lat="43.29742" lon="3.39571">
        <ele>2.06</ele>
        <time>2018-05-08T09:43:23Z</time>
      </trkpt>
      <trkpt lat="43.2974" lon="3.39567">
        <ele>2.06</ele>
        <time>2018-05-08T09:43:24Z</time>
      </trkpt>
      <trkpt lat="43.29737" lon="3.39563">
        <ele>2.06</ele>
        <time>2018-05-08T09:43:25Z</time>
      </trkpt>
      <trkpt lat="43.29735" lon="3.39559">
        <ele>2.06</ele>
        <time>2018-05-08T09:43:26Z</time>
      </trkpt>
      <trkpt lat="43.29733" lon="3.39554">
        <ele>2.54</ele>
        <time>2018-05-08T09:43:27Z</time>
      </trkpt>
      <trkpt lat="43.29706" lon="3.39489">
        <ele>3.02</ele>
        <time>2018-05-08T09:43:41Z</time>
      </trkpt>
      <trkpt lat="43.29674" lon="3.39417">
        <ele>2.54</ele>
        <time>2018-05-08T09:43:56Z</time>
      </trkpt>
      <trkpt lat="43.29652" lon="3.39367">
        <ele>2.06</ele>
        <time>2018-05-08T09:44:07Z</time>
      </trkpt>
      <trkpt lat="43.29618" lon="3.39287">
        <ele>1.58</ele>
        <time>2018-05-08T09:44:23Z</time>
      </trkpt>
      <trkpt lat="43.2961" lon="3.39256">
        <ele>1.58</ele>
        <time>2018-05-08T09:44:29Z</time>
      </trkpt>
      <trkpt lat="43.29601" lon="3.39236">
        <ele>1.1</ele>
        <time>2018-05-08T09:44:33Z</time>
      </trkpt>
      <trkpt lat="43.296" lon="3.3923">
        <ele>1.1</ele>
        <time>2018-05-08T09:44:34Z</time>
      </trkpt>
      <trkpt lat="43.29598" lon="3.39219">
        <ele>1.1</ele>
        <time>2018-05-08T09:44:36Z</time>
      </trkpt>
      <trkpt lat="43.29596" lon="3.39215">
        <ele>1.1</ele>
        <time>2018-05-08T09:44:37Z</time>
      </trkpt>
      <trkpt lat="43.29573" lon="3.39153">
        <ele>2.54</ele>
        <time>2018-05-08T09:44:50Z</time>
      </trkpt>
      <trkpt lat="43.29555" lon="3.39093">
        <ele>2.06</ele>
        <time>2018-05-08T09:45:03Z</time>
      </trkpt>
      <trkpt lat="43.29539" lon="3.39029">
        <ele>3.02</ele>
        <time>2018-05-08T09:45:18Z</time>
      </trkpt>
      <trkpt lat="43.29523" lon="3.38969">
        <ele>1.58</ele>
        <time>2018-05-08T09:45:31Z</time>
      </trkpt>
      <trkpt lat="43.29505" lon="3.38886">
        <ele>2.54</ele>
        <time>2018-05-08T09:45:47Z</time>
      </trkpt>
      <trkpt lat="43.29489" lon="3.38811">
        <ele>3.02</ele>
        <time>2018-05-08T09:46:01Z</time>
      </trkpt>
      <trkpt lat="43.29477" lon="3.38732">
        <ele>2.54</ele>
        <time>2018-05-08T09:46:16Z</time>
      </trkpt>
      <trkpt lat="43.29464" lon="3.38665">
        <ele>2.06</ele>
        <time>2018-05-08T09:46:29Z</time>
      </trkpt>
      <trkpt lat="43.29456" lon="3.38606">
        <ele>3.02</ele>
        <time>2018-05-08T09:46:40Z</time>
      </trkpt>
      <trkpt lat="43.29456" lon="3.386">
        <ele>3.02</ele>
        <time>2018-05-08T09:46:41Z</time>
      </trkpt>
      <trkpt lat="43.29455" lon="3.38594">
        <ele>3.02</ele>
        <time>2018-05-08T09:46:42Z</time>
      </trkpt>
      <trkpt lat="43.29447" lon="3.38539">
        <ele>2.06</ele>
        <time>2018-05-08T09:46:52Z</time>
      </trkpt>
      <trkpt lat="43.29448" lon="3.38533">
        <ele>2.06</ele>
        <time>2018-05-08T09:46:53Z</time>
      </trkpt>
      <trkpt lat="43.29449" lon="3.38528">
        <ele>2.06</ele>
        <time>2018-05-08T09:46:54Z</time>
      </trkpt>
      <trkpt lat="43.29448" lon="3.38523">
        <ele>2.06</ele>
        <time>2018-05-08T09:46:55Z</time>
      </trkpt>
      <trkpt lat="43.29447" lon="3.38519">
        <ele>1.58</ele>
        <time>2018-05-08T09:46:56Z</time>
      </trkpt>
      <trkpt lat="43.29436" lon="3.38465">
        <ele>-0.34</ele>
        <time>2018-05-08T09:47:07Z</time>
      </trkpt>
      <trkpt lat="43.29428" lon="3.38397">
        <ele>-0.82</ele>
        <time>2018-05-08T09:47:19Z</time>
      </trkpt>
      <trkpt lat="43.29428" lon="3.38391">
        <ele>-0.82</ele>
        <time>2018-05-08T09:47:20Z</time>
      </trkpt>
      <trkpt lat="43.29427" lon="3.38385">
        <ele>-0.82</ele>
        <time>2018-05-08T09:47:21Z</time>
      </trkpt>
      <trkpt lat="43.29419" lon="3.38328">
        <ele>-0.82</ele>
        <time>2018-05-08T09:47:32Z</time>
      </trkpt>
      <trkpt lat="43.29412" lon="3.38258">
        <ele>-0.82</ele>
        <time>2018-05-08T09:47:46Z</time>
      </trkpt>
      <trkpt lat="43.294" lon="3.38189">
        <ele>-0.34</ele>
        <time>2018-05-08T09:47:59Z</time>
      </trkpt>
      <trkpt lat="43.29394" lon="3.38133">
        <ele>1.1</ele>
        <time>2018-05-08T09:48:10Z</time>
      </trkpt>
      <trkpt lat="43.29383" lon="3.38046">
        <ele>1.1</ele>
        <time>2018-05-08T09:48:27Z</time>
      </trkpt>
      <trkpt lat="43.29371" lon="3.37958">
        <ele>2.54</ele>
        <time>2018-05-08T09:48:44Z</time>
      </trkpt>
      <trkpt lat="43.29364" lon="3.37908">
        <ele>1.58</ele>
        <time>2018-05-08T09:48:55Z</time>
      </trkpt>
      <trkpt lat="43.29354" lon="3.37867">
        <ele>0.62</ele>
        <time>2018-05-08T09:49:05Z</time>
      </trkpt>
      <trkpt lat="43.29342" lon="3.37786">
        <ele>2.06</ele>
        <time>2018-05-08T09:49:23Z</time>
      </trkpt>
      <trkpt lat="43.29333" lon="3.37723">
        <ele>1.58</ele>
        <time>2018-05-08T09:49:37Z</time>
      </trkpt>
      <trkpt lat="43.29326" lon="3.37661">
        <ele>1.58</ele>
        <time>2018-05-08T09:49:53Z</time>
      </trkpt>
      <trkpt lat="43.29322" lon="3.37624">
        <ele>0.62</ele>
        <time>2018-05-08T09:50:05Z</time>
      </trkpt>
      <trkpt lat="43.29322" lon="3.37622">
        <ele>-1.3</ele>
        <time>2018-05-08T09:50:32Z</time>
      </trkpt>
      <trkpt lat="43.29322" lon="3.3762">
        <ele>-0.34</ele>
        <time>2018-05-08T09:50:51Z</time>
      </trkpt>
      <trkpt lat="43.29321" lon="3.37618">
        <ele>-0.82</ele>
        <time>2018-05-08T09:50:52Z</time>
      </trkpt>
      <trkpt lat="43.29321" lon="3.37616">
        <ele>-0.82</ele>
        <time>2018-05-08T09:50:53Z</time>
      </trkpt>
      <trkpt lat="43.2932" lon="3.37614">
        <ele>-0.82</ele>
        <time>2018-05-08T09:50:54Z</time>
      </trkpt>
      <trkpt lat="43.29319" lon="3.37611">
        <ele>-0.82</ele>
        <time>2018-05-08T09:50:55Z</time>
      </trkpt>
      <trkpt lat="43.29319" lon="3.37607">
        <ele>-1.3</ele>
        <time>2018-05-08T09:50:56Z</time>
      </trkpt>
      <trkpt lat="43.29318" lon="3.37604">
        <ele>-1.3</ele>
        <time>2018-05-08T09:50:57Z</time>
      </trkpt>
      <trkpt lat="43.29309" lon="3.37558">
        <ele>-2.27</ele>
        <time>2018-05-08T09:51:10Z</time>
      </trkpt>
      <trkpt lat="43.29299" lon="3.37496">
        <ele>-3.71</ele>
        <time>2018-05-08T09:51:25Z</time>
      </trkpt>
      <trkpt lat="43.29289" lon="3.37419">
        <ele>-3.23</ele>
        <time>2018-05-08T09:51:42Z</time>
      </trkpt>
      <trkpt lat="43.29284" lon="3.37365">
        <ele>-3.23</ele>
        <time>2018-05-08T09:51:54Z</time>
      </trkpt>
      <trkpt lat="43.29272" lon="3.37303">
        <ele>-5.15</ele>
        <time>2018-05-08T09:52:09Z</time>
      </trkpt>
      <trkpt lat="43.2927" lon="3.37259">
        <ele>-5.63</ele>
        <time>2018-05-08T09:52:20Z</time>
      </trkpt>
      <trkpt lat="43.29269" lon="3.37255">
        <ele>-5.63</ele>
        <time>2018-05-08T09:52:21Z</time>
      </trkpt>
      <trkpt lat="43.29267" lon="3.37251">
        <ele>-5.63</ele>
        <time>2018-05-08T09:52:22Z</time>
      </trkpt>
      <trkpt lat="43.29266" lon="3.37247">
        <ele>-5.63</ele>
        <time>2018-05-08T09:52:23Z</time>
      </trkpt>
      <trkpt lat="43.29257" lon="3.37184">
        <ele>-6.11</ele>
        <time>2018-05-08T09:52:38Z</time>
      </trkpt>
      <trkpt lat="43.2925" lon="3.37137">
        <ele>-6.11</ele>
        <time>2018-05-08T09:52:50Z</time>
      </trkpt>
      <trkpt lat="43.29246" lon="3.37133">
        <ele>-3.71</ele>
        <time>2018-05-08T09:53:01Z</time>
      </trkpt>
      <trkpt lat="43.29248" lon="3.37133">
        <ele>7.35</ele>
        <time>2018-05-08T09:53:40Z</time>
      </trkpt>
      <trkpt lat="43.2924" lon="3.37139">
        <ele>4.46</ele>
        <time>2018-05-08T09:53:56Z</time>
      </trkpt>
      <trkpt lat="43.29219" lon="3.3715">
        <ele>1.58</ele>
        <time>2018-05-08T09:54:07Z</time>
      </trkpt>
      <trkpt lat="43.29186" lon="3.37155">
        <ele>1.1</ele>
        <time>2018-05-08T09:54:20Z</time>
      </trkpt>
      <trkpt lat="43.29145" lon="3.37167">
        <ele>-0.34</ele>
        <time>2018-05-08T09:54:35Z</time>
      </trkpt>
      <trkpt lat="43.2911" lon="3.37176">
        <ele>-1.79</ele>
        <time>2018-05-08T09:54:48Z</time>
      </trkpt>
      <trkpt lat="43.2907" lon="3.3719">
        <ele>-1.79</ele>
        <time>2018-05-08T09:55:02Z</time>
      </trkpt>
      <trkpt lat="43.29048" lon="3.37157">
        <ele>-0.82</ele>
        <time>2018-05-08T09:55:12Z</time>
      </trkpt>
      <trkpt lat="43.29032" lon="3.37121">
        <ele>1.1</ele>
        <time>2018-05-08T09:55:23Z</time>
      </trkpt>
      <trkpt lat="43.29032" lon="3.37118">
        <ele>1.1</ele>
        <time>2018-05-08T09:55:24Z</time>
      </trkpt>
      <trkpt lat="43.29034" lon="3.37115">
        <ele>1.1</ele>
        <time>2018-05-08T09:55:25Z</time>
      </trkpt>
      <trkpt lat="43.29036" lon="3.37112">
        <ele>1.1</ele>
        <time>2018-05-08T09:55:26Z</time>
      </trkpt>
      <trkpt lat="43.29037" lon="3.37109">
        <ele>1.58</ele>
        <time>2018-05-08T09:55:27Z</time>
      </trkpt>
      <trkpt lat="43.29039" lon="3.37108">
        <ele>1.58</ele>
        <time>2018-05-08T09:55:28Z</time>
      </trkpt>
      <trkpt lat="43.29041" lon="3.37107">
        <ele>1.58</ele>
        <time>2018-05-08T09:55:29Z</time>
      </trkpt>
      <trkpt lat="43.29087" lon="3.371">
        <ele>2.54</ele>
        <time>2018-05-08T09:55:47Z</time>
      </trkpt>
      <trkpt lat="43.29125" lon="3.37096">
        <ele>4.94</ele>
        <time>2018-05-08T09:56:02Z</time>
      </trkpt>
      <trkpt lat="43.29156" lon="3.3709">
        <ele>4.94</ele>
        <time>2018-05-08T09:56:14Z</time>
      </trkpt>
      <trkpt lat="43.2918" lon="3.37086">
        <ele>3.98</ele>
        <time>2018-05-08T09:56:24Z</time>
      </trkpt>
      <trkpt lat="43.2922" lon="3.37081">
        <ele>6.87</ele>
        <time>2018-05-08T09:56:38Z</time>
      </trkpt>
      <trkpt lat="43.29232" lon="3.37073">
        <ele>7.83</ele>
        <time>2018-05-08T09:56:50Z</time>
      </trkpt>
      <trkpt lat="43.29232" lon="3.37071">
        <ele>3.98</ele>
        <time>2018-05-08T09:57:17Z</time>
      </trkpt>
      <trkpt lat="43.29234" lon="3.37072">
        <ele>-0.34</ele>
        <time>2018-05-08T09:57:46Z</time>
      </trkpt>
      <trkpt lat="43.29234" lon="3.37069">
        <ele>1.1</ele>
        <time>2018-05-08T09:58:12Z</time>
      </trkpt>
      <trkpt lat="43.29229" lon="3.37066">
        <ele>5.91</ele>
        <time>2018-05-08T09:58:52Z</time>
      </trkpt>
      <trkpt lat="43.2923" lon="3.3707">
        <ele>4.94</ele>
        <time>2018-05-08T09:59:28Z</time>
      </trkpt>
      <trkpt lat="43.29231" lon="3.3707">
        <ele>3.98</ele>
        <time>2018-05-08T10:00:05Z</time>
      </trkpt>
      <trkpt lat="43.29236" lon="3.37072">
        <ele>3.98</ele>
        <time>2018-05-08T10:00:31Z</time>
      </trkpt>
      <trkpt lat="43.29235" lon="3.37069">
        <ele>2.54</ele>
        <time>2018-05-08T10:00:58Z</time>
      </trkpt>
      <trkpt lat="43.29239" lon="3.37061">
        <ele>2.06</ele>
        <time>2018-05-08T10:01:05Z</time>
      </trkpt>
      <trkpt lat="43.2924" lon="3.37059">
        <ele>2.06</ele>
        <time>2018-05-08T10:01:06Z</time>
      </trkpt>
      <trkpt lat="43.29236" lon="3.37014">
        <ele>0.14</ele>
        <time>2018-05-08T10:01:21Z</time>
      </trkpt>
      <trkpt lat="43.29229" lon="3.36969">
        <ele>1.58</ele>
        <time>2018-05-08T10:01:35Z</time>
      </trkpt>
      <trkpt lat="43.29223" lon="3.36921">
        <ele>1.1</ele>
        <time>2018-05-08T10:01:49Z</time>
      </trkpt>
      <trkpt lat="43.29218" lon="3.36884">
        <ele>-1.79</ele>
        <time>2018-05-08T10:02:03Z</time>
      </trkpt>
      <trkpt lat="43.2921" lon="3.36834">
        <ele>-1.3</ele>
        <time>2018-05-08T10:02:17Z</time>
      </trkpt>
      <trkpt lat="43.29201" lon="3.36776">
        <ele>-0.34</ele>
        <time>2018-05-08T10:02:34Z</time>
      </trkpt>
      <trkpt lat="43.29187" lon="3.3672">
        <ele>-0.34</ele>
        <time>2018-05-08T10:02:49Z</time>
      </trkpt>
      <trkpt lat="43.29177" lon="3.36675">
        <ele>0.62</ele>
        <time>2018-05-08T10:03:03Z</time>
      </trkpt>
      <trkpt lat="43.29175" lon="3.36653">
        <ele>0.14</ele>
        <time>2018-05-08T10:03:11Z</time>
      </trkpt>
      <trkpt lat="43.29175" lon="3.3665">
        <ele>0.14</ele>
        <time>2018-05-08T10:03:12Z</time>
      </trkpt>
      <trkpt lat="43.29175" lon="3.36647">
        <ele>-0.34</ele>
        <time>2018-05-08T10:03:13Z</time>
      </trkpt>
      <trkpt lat="43.29171" lon="3.36605">
        <ele>-1.3</ele>
        <time>2018-05-08T10:03:25Z</time>
      </trkpt>
      <trkpt lat="43.29161" lon="3.36551">
        <ele>0.14</ele>
        <time>2018-05-08T10:03:40Z</time>
      </trkpt>
      <trkpt lat="43.29147" lon="3.36496">
        <ele>-1.79</ele>
        <time>2018-05-08T10:03:53Z</time>
      </trkpt>
      <trkpt lat="43.29138" lon="3.36455">
        <ele>-2.75</ele>
        <time>2018-05-08T10:04:05Z</time>
      </trkpt>
      <trkpt lat="43.29134" lon="3.36439">
        <ele>-3.23</ele>
        <time>2018-05-08T10:04:12Z</time>
      </trkpt>
      <trkpt lat="43.29127" lon="3.36404">
        <ele>-4.19</ele>
        <time>2018-05-08T10:04:24Z</time>
      </trkpt>
      <trkpt lat="43.29118" lon="3.3635">
        <ele>-2.75</ele>
        <time>2018-05-08T10:04:38Z</time>
      </trkpt>
      <trkpt lat="43.29109" lon="3.363">
        <ele>-2.75</ele>
        <time>2018-05-08T10:04:51Z</time>
      </trkpt>
      <trkpt lat="43.29096" lon="3.36227">
        <ele>-2.27</ele>
        <time>2018-05-08T10:05:08Z</time>
      </trkpt>
      <trkpt lat="43.29097" lon="3.36223">
        <ele>-2.27</ele>
        <time>2018-05-08T10:05:09Z</time>
      </trkpt>
      <trkpt lat="43.29093" lon="3.36179">
        <ele>-1.3</ele>
        <time>2018-05-08T10:05:19Z</time>
      </trkpt>
      <trkpt lat="43.29082" lon="3.36138">
        <ele>-0.82</ele>
        <time>2018-05-08T10:05:29Z</time>
      </trkpt>
      <trkpt lat="43.29081" lon="3.36129">
        <ele>-0.82</ele>
        <time>2018-05-08T10:05:31Z</time>
      </trkpt>
      <trkpt lat="43.29079" lon="3.36125">
        <ele>-0.82</ele>
        <time>2018-05-08T10:05:32Z</time>
      </trkpt>
      <trkpt lat="43.29071" lon="3.36065">
        <ele>0.14</ele>
        <time>2018-05-08T10:05:44Z</time>
      </trkpt>
      <trkpt lat="43.29065" lon="3.36002">
        <ele>1.58</ele>
        <time>2018-05-08T10:05:58Z</time>
      </trkpt>
      <trkpt lat="43.29059" lon="3.35946">
        <ele>1.1</ele>
        <time>2018-05-08T10:06:12Z</time>
      </trkpt>
      <trkpt lat="43.29053" lon="3.35873">
        <ele>2.06</ele>
        <time>2018-05-08T10:06:26Z</time>
      </trkpt>
      <trkpt lat="43.2905" lon="3.35806">
        <ele>4.46</ele>
        <time>2018-05-08T10:06:38Z</time>
      </trkpt>
      <trkpt lat="43.29049" lon="3.35799">
        <ele>4.46</ele>
        <time>2018-05-08T10:06:39Z</time>
      </trkpt>
      <trkpt lat="43.29049" lon="3.35793">
        <ele>4.46</ele>
        <time>2018-05-08T10:06:40Z</time>
      </trkpt>
      <trkpt lat="43.29049" lon="3.35786">
        <ele>4.46</ele>
        <time>2018-05-08T10:06:41Z</time>
      </trkpt>
      <trkpt lat="43.29049" lon="3.3578">
        <ele>4.46</ele>
        <time>2018-05-08T10:06:42Z</time>
      </trkpt>
      <trkpt lat="43.29049" lon="3.35773">
        <ele>4.46</ele>
        <time>2018-05-08T10:06:43Z</time>
      </trkpt>
      <trkpt lat="43.29047" lon="3.35678">
        <ele>3.5</ele>
        <time>2018-05-08T10:06:59Z</time>
      </trkpt>
      <trkpt lat="43.29046" lon="3.35672">
        <ele>3.5</ele>
        <time>2018-05-08T10:07:02Z</time>
      </trkpt>
      <trkpt lat="43.29039" lon="3.35679">
        <ele>3.98</ele>
        <time>2018-05-08T10:07:12Z</time>
      </trkpt>
      <trkpt lat="43.29039" lon="3.3568">
        <ele>3.02</ele>
        <time>2018-05-08T10:07:43Z</time>
      </trkpt>
      <trkpt lat="43.29039" lon="3.35675">
        <ele>2.06</ele>
        <time>2018-05-08T10:08:07Z</time>
      </trkpt>
      <trkpt lat="43.29043" lon="3.35671">
        <ele>0.14</ele>
        <time>2018-05-08T10:08:23Z</time>
      </trkpt>
      <trkpt lat="43.29046" lon="3.35666">
        <ele>-0.34</ele>
        <time>2018-05-08T10:08:26Z</time>
      </trkpt>
      <trkpt lat="43.29047" lon="3.35663">
        <ele>-0.34</ele>
        <time>2018-05-08T10:08:27Z</time>
      </trkpt>
      <trkpt lat="43.29047" lon="3.3566">
        <ele>-0.34</ele>
        <time>2018-05-08T10:08:28Z</time>
      </trkpt>
      <trkpt lat="43.29047" lon="3.35657">
        <ele>-0.34</ele>
        <time>2018-05-08T10:08:29Z</time>
      </trkpt>
      <trkpt lat="43.29047" lon="3.35602">
        <ele>2.54</ele>
        <time>2018-05-08T10:08:42Z</time>
      </trkpt>
      <trkpt lat="43.29048" lon="3.35553">
        <ele>2.06</ele>
        <time>2018-05-08T10:08:53Z</time>
      </trkpt>
      <trkpt lat="43.29051" lon="3.35465">
        <ele>-2.27</ele>
        <time>2018-05-08T10:09:08Z</time>
      </trkpt>
      <trkpt lat="43.29052" lon="3.35452">
        <ele>-2.27</ele>
        <time>2018-05-08T10:09:10Z</time>
      </trkpt>
      <trkpt lat="43.29056" lon="3.354">
        <ele>-2.27</ele>
        <time>2018-05-08T10:09:18Z</time>
      </trkpt>
      <trkpt lat="43.29057" lon="3.35394">
        <ele>-2.27</ele>
        <time>2018-05-08T10:09:19Z</time>
      </trkpt>
      <trkpt lat="43.29059" lon="3.35366">
        <ele>-2.75</ele>
        <time>2018-05-08T10:09:24Z</time>
      </trkpt>
      <trkpt lat="43.29059" lon="3.3536">
        <ele>-2.75</ele>
        <time>2018-05-08T10:09:25Z</time>
      </trkpt>
      <trkpt lat="43.29067" lon="3.35286">
        <ele>-0.82</ele>
        <time>2018-05-08T10:09:36Z</time>
      </trkpt>
      <trkpt lat="43.2907" lon="3.35265">
        <ele>0.14</ele>
        <time>2018-05-08T10:09:39Z</time>
      </trkpt>
      <trkpt lat="43.29071" lon="3.35259">
        <ele>0.14</ele>
        <time>2018-05-08T10:09:40Z</time>
      </trkpt>
      <trkpt lat="43.29091" lon="3.35149">
        <ele>0.62</ele>
        <time>2018-05-08T10:09:56Z</time>
      </trkpt>
      <trkpt lat="43.29114" lon="3.35071">
        <ele>3.5</ele>
        <time>2018-05-08T10:10:09Z</time>
      </trkpt>
      <trkpt lat="43.29153" lon="3.34966">
        <ele>4.46</ele>
        <time>2018-05-08T10:10:26Z</time>
      </trkpt>
      <trkpt lat="43.29188" lon="3.34873">
        <ele>4.46</ele>
        <time>2018-05-08T10:10:42Z</time>
      </trkpt>
      <trkpt lat="43.29194" lon="3.34858">
        <ele>4.46</ele>
        <time>2018-05-08T10:10:45Z</time>
      </trkpt>
      <trkpt lat="43.29209" lon="3.34816">
        <ele>4.46</ele>
        <time>2018-05-08T10:10:53Z</time>
      </trkpt>
      <trkpt lat="43.29223" lon="3.34778">
        <ele>5.42</ele>
        <time>2018-05-08T10:11:00Z</time>
      </trkpt>
      <trkpt lat="43.29225" lon="3.34773">
        <ele>5.42</ele>
        <time>2018-05-08T10:11:01Z</time>
      </trkpt>
      <trkpt lat="43.29227" lon="3.34768">
        <ele>5.42</ele>
        <time>2018-05-08T10:11:02Z</time>
      </trkpt>
      <trkpt lat="43.29229" lon="3.34763">
        <ele>5.42</ele>
        <time>2018-05-08T10:11:03Z</time>
      </trkpt>
      <trkpt lat="43.2923" lon="3.34758">
        <ele>5.42</ele>
        <time>2018-05-08T10:11:04Z</time>
      </trkpt>
      <trkpt lat="43.29261" lon="3.34676">
        <ele>4.46</ele>
        <time>2018-05-08T10:11:19Z</time>
      </trkpt>
      <trkpt lat="43.29279" lon="3.34618">
        <ele>5.42</ele>
        <time>2018-05-08T10:11:30Z</time>
      </trkpt>
      <trkpt lat="43.29305" lon="3.34547">
        <ele>4.94</ele>
        <time>2018-05-08T10:11:44Z</time>
      </trkpt>
      <trkpt lat="43.29334" lon="3.34477">
        <ele>1.1</ele>
        <time>2018-05-08T10:11:57Z</time>
      </trkpt>
      <trkpt lat="43.29359" lon="3.34426">
        <ele>0.62</ele>
        <time>2018-05-08T10:12:06Z</time>
      </trkpt>
      <trkpt lat="43.29406" lon="3.34329">
        <ele>0.62</ele>
        <time>2018-05-08T10:12:23Z</time>
      </trkpt>
      <trkpt lat="43.29434" lon="3.3426">
        <ele>2.54</ele>
        <time>2018-05-08T10:12:36Z</time>
      </trkpt>
      <trkpt lat="43.29447" lon="3.34228">
        <ele>3.02</ele>
        <time>2018-05-08T10:12:42Z</time>
      </trkpt>
      <trkpt lat="43.29484" lon="3.34135">
        <ele>3.02</ele>
        <time>2018-05-08T10:12:58Z</time>
      </trkpt>
      <trkpt lat="43.29486" lon="3.3413">
        <ele>3.5</ele>
        <time>2018-05-08T10:12:59Z</time>
      </trkpt>
      <trkpt lat="43.29491" lon="3.34119">
        <ele>3.5</ele>
        <time>2018-05-08T10:13:01Z</time>
      </trkpt>
      <trkpt lat="43.29494" lon="3.34113">
        <ele>3.5</ele>
        <time>2018-05-08T10:13:02Z</time>
      </trkpt>
      <trkpt lat="43.29496" lon="3.34107">
        <ele>3.5</ele>
        <time>2018-05-08T10:13:03Z</time>
      </trkpt>
      <trkpt lat="43.29525" lon="3.3403">
        <ele>4.46</ele>
        <time>2018-05-08T10:13:16Z</time>
      </trkpt>
      <trkpt lat="43.29557" lon="3.33936">
        <ele>4.94</ele>
        <time>2018-05-08T10:13:32Z</time>
      </trkpt>
      <trkpt lat="43.29574" lon="3.33862">
        <ele>3.98</ele>
        <time>2018-05-08T10:13:44Z</time>
      </trkpt>
      <trkpt lat="43.29575" lon="3.33856">
        <ele>4.46</ele>
        <time>2018-05-08T10:13:45Z</time>
      </trkpt>
      <trkpt lat="43.29593" lon="3.33757">
        <ele>4.46</ele>
        <time>2018-05-08T10:14:00Z</time>
      </trkpt>
      <trkpt lat="43.29593" lon="3.3375">
        <ele>4.46</ele>
        <time>2018-05-08T10:14:01Z</time>
      </trkpt>
      <trkpt lat="43.29592" lon="3.33737">
        <ele>4.46</ele>
        <time>2018-05-08T10:14:03Z</time>
      </trkpt>
      <trkpt lat="43.29592" lon="3.33731">
        <ele>4.46</ele>
        <time>2018-05-08T10:14:04Z</time>
      </trkpt>
      <trkpt lat="43.29593" lon="3.33726">
        <ele>4.46</ele>
        <time>2018-05-08T10:14:05Z</time>
      </trkpt>
      <trkpt lat="43.29607" lon="3.33635">
        <ele>3.98</ele>
        <time>2018-05-08T10:14:20Z</time>
      </trkpt>
      <trkpt lat="43.29608" lon="3.33629">
        <ele>4.46</ele>
        <time>2018-05-08T10:14:21Z</time>
      </trkpt>
      <trkpt lat="43.29619" lon="3.33588">
        <ele>3.98</ele>
        <time>2018-05-08T10:14:28Z</time>
      </trkpt>
      <trkpt lat="43.29651" lon="3.33497">
        <ele>3.98</ele>
        <time>2018-05-08T10:14:44Z</time>
      </trkpt>
      <trkpt lat="43.29697" lon="3.33414">
        <ele>2.06</ele>
        <time>2018-05-08T10:15:01Z</time>
      </trkpt>
      <trkpt lat="43.2977" lon="3.33347">
        <ele>-0.34</ele>
        <time>2018-05-08T10:15:19Z</time>
      </trkpt>
      <trkpt lat="43.29832" lon="3.33312">
        <ele>-0.34</ele>
        <time>2018-05-08T10:15:34Z</time>
      </trkpt>
      <trkpt lat="43.29915" lon="3.33273">
        <ele>-0.34</ele>
        <time>2018-05-08T10:15:53Z</time>
      </trkpt>
      <trkpt lat="43.2994" lon="3.33263">
        <ele>-0.34</ele>
        <time>2018-05-08T10:15:59Z</time>
      </trkpt>
      <trkpt lat="43.29948" lon="3.33259">
        <ele>-0.34</ele>
        <time>2018-05-08T10:16:01Z</time>
      </trkpt>
      <trkpt lat="43.29953" lon="3.33258">
        <ele>-0.34</ele>
        <time>2018-05-08T10:16:02Z</time>
      </trkpt>
      <trkpt lat="43.30021" lon="3.33232">
        <ele>-0.34</ele>
        <time>2018-05-08T10:16:18Z</time>
      </trkpt>
      <trkpt lat="43.301" lon="3.33201">
        <ele>-0.34</ele>
        <time>2018-05-08T10:16:36Z</time>
      </trkpt>
      <trkpt lat="43.30142" lon="3.33185">
        <ele>0.62</ele>
        <time>2018-05-08T10:16:46Z</time>
      </trkpt>
      <trkpt lat="43.30146" lon="3.33183">
        <ele>0.62</ele>
        <time>2018-05-08T10:16:47Z</time>
      </trkpt>
      <trkpt lat="43.30178" lon="3.3317">
        <ele>1.58</ele>
        <time>2018-05-08T10:16:55Z</time>
      </trkpt>
      <trkpt lat="43.30198" lon="3.3316">
        <ele>1.1</ele>
        <time>2018-05-08T10:17:00Z</time>
      </trkpt>
      <trkpt lat="43.30202" lon="3.33159">
        <ele>1.58</ele>
        <time>2018-05-08T10:17:01Z</time>
      </trkpt>
      <trkpt lat="43.3021" lon="3.33155">
        <ele>1.58</ele>
        <time>2018-05-08T10:17:03Z</time>
      </trkpt>
      <trkpt lat="43.30214" lon="3.33154">
        <ele>1.58</ele>
        <time>2018-05-08T10:17:04Z</time>
      </trkpt>
      <trkpt lat="43.30218" lon="3.33152">
        <ele>1.58</ele>
        <time>2018-05-08T10:17:05Z</time>
      </trkpt>
      <trkpt lat="43.30222" lon="3.3315">
        <ele>1.58</ele>
        <time>2018-05-08T10:17:06Z</time>
      </trkpt>
      <trkpt lat="43.30226" lon="3.33148">
        <ele>1.58</ele>
        <time>2018-05-08T10:17:07Z</time>
      </trkpt>
      <trkpt lat="43.30242" lon="3.33138">
        <ele>2.06</ele>
        <time>2018-05-08T10:17:11Z</time>
      </trkpt>
      <trkpt lat="43.30246" lon="3.33136">
        <ele>2.06</ele>
        <time>2018-05-08T10:17:12Z</time>
      </trkpt>
      <trkpt lat="43.30298" lon="3.33102">
        <ele>3.02</ele>
        <time>2018-05-08T10:17:26Z</time>
      </trkpt>
      <trkpt lat="43.30346" lon="3.33065">
        <ele>3.98</ele>
        <time>2018-05-08T10:17:42Z</time>
      </trkpt>
      <trkpt lat="43.30384" lon="3.33029">
        <ele>3.98</ele>
        <time>2018-05-08T10:17:56Z</time>
      </trkpt>
      <trkpt lat="43.30411" lon="3.32989">
        <ele>3.02</ele>
        <time>2018-05-08T10:18:10Z</time>
      </trkpt>
      <trkpt lat="43.3043" lon="3.32959">
        <ele>3.5</ele>
        <time>2018-05-08T10:18:23Z</time>
      </trkpt>
      <trkpt lat="43.30433" lon="3.32955">
        <ele>3.5</ele>
        <time>2018-05-08T10:18:26Z</time>
      </trkpt>
      <trkpt lat="43.30435" lon="3.32954">
        <ele>3.5</ele>
        <time>2018-05-08T10:18:27Z</time>
      </trkpt>
      <trkpt lat="43.30437" lon="3.32953">
        <ele>3.98</ele>
        <time>2018-05-08T10:18:28Z</time>
      </trkpt>
      <trkpt lat="43.30439" lon="3.32953">
        <ele>3.98</ele>
        <time>2018-05-08T10:18:29Z</time>
      </trkpt>
      <trkpt lat="43.3044" lon="3.32954">
        <ele>3.98</ele>
        <time>2018-05-08T10:18:30Z</time>
      </trkpt>
      <trkpt lat="43.30441" lon="3.32956">
        <ele>4.46</ele>
        <time>2018-05-08T10:18:31Z</time>
      </trkpt>
      <trkpt lat="43.30442" lon="3.32958">
        <ele>4.46</ele>
        <time>2018-05-08T10:18:32Z</time>
      </trkpt>
      <trkpt lat="43.30443" lon="3.32961">
        <ele>4.46</ele>
        <time>2018-05-08T10:18:33Z</time>
      </trkpt>
      <trkpt lat="43.30447" lon="3.32969">
        <ele>5.42</ele>
        <time>2018-05-08T10:18:37Z</time>
      </trkpt>
      <trkpt lat="43.30449" lon="3.32971">
        <ele>6.39</ele>
        <time>2018-05-08T10:18:51Z</time>
      </trkpt>
      <trkpt lat="43.30453" lon="3.32966">
        <ele>4.94</ele>
        <time>2018-05-08T10:19:03Z</time>
      </trkpt>
      <trkpt lat="43.30451" lon="3.32962">
        <ele>5.91</ele>
        <time>2018-05-08T10:19:32Z</time>
      </trkpt>
      <trkpt lat="43.30449" lon="3.32958">
        <ele>5.91</ele>
        <time>2018-05-08T10:19:35Z</time>
      </trkpt>
      <trkpt lat="43.30447" lon="3.32956">
        <ele>5.91</ele>
        <time>2018-05-08T10:19:36Z</time>
      </trkpt>
      <trkpt lat="43.30444" lon="3.32942">
        <ele>5.42</ele>
        <time>2018-05-08T10:19:40Z</time>
      </trkpt>
      <trkpt lat="43.30445" lon="3.32937">
        <ele>5.42</ele>
        <time>2018-05-08T10:19:41Z</time>
      </trkpt>
      <trkpt lat="43.30462" lon="3.32909">
        <ele>4.46</ele>
        <time>2018-05-08T10:19:52Z</time>
      </trkpt>
      <trkpt lat="43.30478" lon="3.32882">
        <ele>4.46</ele>
        <time>2018-05-08T10:20:03Z</time>
      </trkpt>
      <trkpt lat="43.30506" lon="3.32837">
        <ele>3.98</ele>
        <time>2018-05-08T10:20:19Z</time>
      </trkpt>
      <trkpt lat="43.30538" lon="3.32786">
        <ele>2.06</ele>
        <time>2018-05-08T10:20:36Z</time>
      </trkpt>
      <trkpt lat="43.30571" lon="3.32732">
        <ele>1.58</ele>
        <time>2018-05-08T10:20:53Z</time>
      </trkpt>
      <trkpt lat="43.30608" lon="3.32676">
        <ele>1.1</ele>
        <time>2018-05-08T10:21:09Z</time>
      </trkpt>
      <trkpt lat="43.30646" lon="3.32624">
        <ele>0.62</ele>
        <time>2018-05-08T10:21:23Z</time>
      </trkpt>
      <trkpt lat="43.30699" lon="3.32549">
        <ele>0.62</ele>
        <time>2018-05-08T10:21:41Z</time>
      </trkpt>
      <trkpt lat="43.30719" lon="3.32519">
        <ele>1.58</ele>
        <time>2018-05-08T10:21:48Z</time>
      </trkpt>
      <trkpt lat="43.30753" lon="3.32467">
        <ele>4.94</ele>
        <time>2018-05-08T10:22:02Z</time>
      </trkpt>
      <trkpt lat="43.30783" lon="3.32418">
        <ele>8.31</ele>
        <time>2018-05-08T10:22:16Z</time>
      </trkpt>
      <trkpt lat="43.30789" lon="3.32408">
        <ele>8.31</ele>
        <time>2018-05-08T10:22:18Z</time>
      </trkpt>
      <trkpt lat="43.30798" lon="3.32398">
        <ele>7.35</ele>
        <time>2018-05-08T10:22:20Z</time>
      </trkpt>
      <trkpt lat="43.30802" lon="3.32392">
        <ele>6.87</ele>
        <time>2018-05-08T10:22:21Z</time>
      </trkpt>
      <trkpt lat="43.30806" lon="3.32386">
        <ele>6.39</ele>
        <time>2018-05-08T10:22:22Z</time>
      </trkpt>
      <trkpt lat="43.30809" lon="3.3238">
        <ele>5.91</ele>
        <time>2018-05-08T10:22:23Z</time>
      </trkpt>
      <trkpt lat="43.30812" lon="3.32375">
        <ele>5.42</ele>
        <time>2018-05-08T10:22:24Z</time>
      </trkpt>
      <trkpt lat="43.30814" lon="3.32369">
        <ele>5.42</ele>
        <time>2018-05-08T10:22:25Z</time>
      </trkpt>
      <trkpt lat="43.30817" lon="3.32364">
        <ele>4.94</ele>
        <time>2018-05-08T10:22:26Z</time>
      </trkpt>
      <trkpt lat="43.30834" lon="3.32339">
        <ele>5.91</ele>
        <time>2018-05-08T10:22:32Z</time>
      </trkpt>
      <trkpt lat="43.30837" lon="3.32334">
        <ele>5.91</ele>
        <time>2018-05-08T10:22:33Z</time>
      </trkpt>
      <trkpt lat="43.30851" lon="3.32312">
        <ele>7.35</ele>
        <time>2018-05-08T10:22:38Z</time>
      </trkpt>
      <trkpt lat="43.30855" lon="3.32308">
        <ele>7.83</ele>
        <time>2018-05-08T10:22:39Z</time>
      </trkpt>
      <trkpt lat="43.30857" lon="3.32303">
        <ele>7.83</ele>
        <time>2018-05-08T10:22:40Z</time>
      </trkpt>
      <trkpt lat="43.3086" lon="3.32299">
        <ele>8.31</ele>
        <time>2018-05-08T10:22:41Z</time>
      </trkpt>
      <trkpt lat="43.30863" lon="3.32295">
        <ele>8.31</ele>
        <time>2018-05-08T10:22:42Z</time>
      </trkpt>
      <trkpt lat="43.30898" lon="3.32235">
        <ele>5.42</ele>
        <time>2018-05-08T10:22:56Z</time>
      </trkpt>
      <trkpt lat="43.30919" lon="3.32199">
        <ele>4.94</ele>
        <time>2018-05-08T10:23:04Z</time>
      </trkpt>
      <trkpt lat="43.30954" lon="3.32136">
        <ele>4.94</ele>
        <time>2018-05-08T10:23:18Z</time>
      </trkpt>
      <trkpt lat="43.30981" lon="3.32082">
        <ele>1.58</ele>
        <time>2018-05-08T10:23:31Z</time>
      </trkpt>
      <trkpt lat="43.3102" lon="3.32015">
        <ele>0.62</ele>
        <time>2018-05-08T10:23:45Z</time>
      </trkpt>
      <trkpt lat="43.31064" lon="3.31941">
        <ele>1.1</ele>
        <time>2018-05-08T10:24:00Z</time>
      </trkpt>
      <trkpt lat="43.3108" lon="3.3191">
        <ele>1.1</ele>
        <time>2018-05-08T10:24:07Z</time>
      </trkpt>
      <trkpt lat="43.31083" lon="3.31906">
        <ele>1.1</ele>
        <time>2018-05-08T10:24:08Z</time>
      </trkpt>
      <trkpt lat="43.31116" lon="3.31844">
        <ele>-0.82</ele>
        <time>2018-05-08T10:24:22Z</time>
      </trkpt>
      <trkpt lat="43.31164" lon="3.31766">
        <ele>1.1</ele>
        <time>2018-05-08T10:24:38Z</time>
      </trkpt>
      <trkpt lat="43.3119" lon="3.31722">
        <ele>0.62</ele>
        <time>2018-05-08T10:24:47Z</time>
      </trkpt>
      <trkpt lat="43.31232" lon="3.31653">
        <ele>1.1</ele>
        <time>2018-05-08T10:25:01Z</time>
      </trkpt>
      <trkpt lat="43.31282" lon="3.31569">
        <ele>3.02</ele>
        <time>2018-05-08T10:25:17Z</time>
      </trkpt>
      <trkpt lat="43.31319" lon="3.31504">
        <ele>2.54</ele>
        <time>2018-05-08T10:25:32Z</time>
      </trkpt>
      <trkpt lat="43.31352" lon="3.31446">
        <ele>2.54</ele>
        <time>2018-05-08T10:25:45Z</time>
      </trkpt>
      <trkpt lat="43.31378" lon="3.31401">
        <ele>2.54</ele>
        <time>2018-05-08T10:25:56Z</time>
      </trkpt>
      <trkpt lat="43.31408" lon="3.3135">
        <ele>2.06</ele>
        <time>2018-05-08T10:26:09Z</time>
      </trkpt>
      <trkpt lat="43.31446" lon="3.31289">
        <ele>3.98</ele>
        <time>2018-05-08T10:26:25Z</time>
      </trkpt>
      <trkpt lat="43.31461" lon="3.31267">
        <ele>4.46</ele>
        <time>2018-05-08T10:26:31Z</time>
      </trkpt>
      <trkpt lat="43.31507" lon="3.31179">
        <ele>4.46</ele>
        <time>2018-05-08T10:26:48Z</time>
      </trkpt>
      <trkpt lat="43.31539" lon="3.31114">
        <ele>4.94</ele>
        <time>2018-05-08T10:27:03Z</time>
      </trkpt>
      <trkpt lat="43.31557" lon="3.31064">
        <ele>5.42</ele>
        <time>2018-05-08T10:27:14Z</time>
      </trkpt>
      <trkpt lat="43.31577" lon="3.30989">
        <ele>7.83</ele>
        <time>2018-05-08T10:27:28Z</time>
      </trkpt>
      <trkpt lat="43.31595" lon="3.30916">
        <ele>9.27</ele>
        <time>2018-05-08T10:27:41Z</time>
      </trkpt>
      <trkpt lat="43.31614" lon="3.30826">
        <ele>14.56</ele>
        <time>2018-05-08T10:27:57Z</time>
      </trkpt>
      <trkpt lat="43.31625" lon="3.30771">
        <ele>15.52</ele>
        <time>2018-05-08T10:28:07Z</time>
      </trkpt>
      <trkpt lat="43.3164" lon="3.30705">
        <ele>16.48</ele>
        <time>2018-05-08T10:28:19Z</time>
      </trkpt>
      <trkpt lat="43.31649" lon="3.3065">
        <ele>14.56</ele>
        <time>2018-05-08T10:28:30Z</time>
      </trkpt>
      <trkpt lat="43.31663" lon="3.30584">
        <ele>12.63</ele>
        <time>2018-05-08T10:28:42Z</time>
      </trkpt>
      <trkpt lat="43.31679" lon="3.30519">
        <ele>16</ele>
        <time>2018-05-08T10:28:53Z</time>
      </trkpt>
      <trkpt lat="43.31689" lon="3.30458">
        <ele>16.48</ele>
        <time>2018-05-08T10:29:04Z</time>
      </trkpt>
      <trkpt lat="43.31691" lon="3.30376">
        <ele>15.04</ele>
        <time>2018-05-08T10:29:18Z</time>
      </trkpt>
      <trkpt lat="43.31689" lon="3.30352">
        <ele>13.6</ele>
        <time>2018-05-08T10:29:22Z</time>
      </trkpt>
      <trkpt lat="43.31675" lon="3.30275">
        <ele>9.75</ele>
        <time>2018-05-08T10:29:36Z</time>
      </trkpt>
      <trkpt lat="43.31661" lon="3.30206">
        <ele>3.98</ele>
        <time>2018-05-08T10:29:50Z</time>
      </trkpt>
      <trkpt lat="43.31658" lon="3.30184">
        <ele>2.54</ele>
        <time>2018-05-08T10:29:55Z</time>
      </trkpt>
      <trkpt lat="43.31656" lon="3.30135">
        <ele>1.1</ele>
        <time>2018-05-08T10:30:07Z</time>
      </trkpt>
      <trkpt lat="43.31643" lon="3.30094">
        <ele>0.62</ele>
        <time>2018-05-08T10:30:19Z</time>
      </trkpt>
      <trkpt lat="43.3164" lon="3.30083">
        <ele>1.1</ele>
        <time>2018-05-08T10:30:22Z</time>
      </trkpt>
      <trkpt lat="43.31639" lon="3.3008">
        <ele>1.1</ele>
        <time>2018-05-08T10:30:23Z</time>
      </trkpt>
      <trkpt lat="43.31637" lon="3.30079">
        <ele>1.58</ele>
        <time>2018-05-08T10:30:24Z</time>
      </trkpt>
      <trkpt lat="43.31634" lon="3.30071">
        <ele>3.02</ele>
        <time>2018-05-08T10:30:33Z</time>
      </trkpt>
      <trkpt lat="43.31635" lon="3.30069">
        <ele>2.06</ele>
        <time>2018-05-08T10:30:59Z</time>
      </trkpt>
      <trkpt lat="43.31635" lon="3.30068">
        <ele>3.5</ele>
        <time>2018-05-08T10:31:38Z</time>
      </trkpt>
      <trkpt lat="43.31636" lon="3.30067">
        <ele>3.5</ele>
        <time>2018-05-08T10:31:44Z</time>
      </trkpt>
      <trkpt lat="43.31637" lon="3.30066">
        <ele>3.5</ele>
        <time>2018-05-08T10:31:45Z</time>
      </trkpt>
      <trkpt lat="43.31637" lon="3.30064">
        <ele>3.5</ele>
        <time>2018-05-08T10:31:46Z</time>
      </trkpt>
      <trkpt lat="43.31633" lon="3.30016">
        <ele>1.58</ele>
        <time>2018-05-08T10:32:00Z</time>
      </trkpt>
      <trkpt lat="43.31624" lon="3.29957">
        <ele>2.54</ele>
        <time>2018-05-08T10:32:14Z</time>
      </trkpt>
      <trkpt lat="43.31611" lon="3.29876">
        <ele>2.54</ele>
        <time>2018-05-08T10:32:32Z</time>
      </trkpt>
      <trkpt lat="43.31598" lon="3.29797">
        <ele>2.06</ele>
        <time>2018-05-08T10:32:48Z</time>
      </trkpt>
      <trkpt lat="43.31579" lon="3.29694">
        <ele>1.58</ele>
        <time>2018-05-08T10:33:07Z</time>
      </trkpt>
      <trkpt lat="43.31561" lon="3.29598">
        <ele>2.06</ele>
        <time>2018-05-08T10:33:24Z</time>
      </trkpt>
      <trkpt lat="43.31551" lon="3.2953">
        <ele>2.54</ele>
        <time>2018-05-08T10:33:36Z</time>
      </trkpt>
      <trkpt lat="43.3155" lon="3.29524">
        <ele>2.54</ele>
        <time>2018-05-08T10:33:37Z</time>
      </trkpt>
      <trkpt lat="43.31549" lon="3.29519">
        <ele>2.54</ele>
        <time>2018-05-08T10:33:38Z</time>
      </trkpt>
      <trkpt lat="43.31533" lon="3.2942">
        <ele>3.02</ele>
        <time>2018-05-08T10:33:56Z</time>
      </trkpt>
      <trkpt lat="43.31527" lon="3.29374">
        <ele>3.02</ele>
        <time>2018-05-08T10:34:04Z</time>
      </trkpt>
      <trkpt lat="43.31527" lon="3.29368">
        <ele>3.02</ele>
        <time>2018-05-08T10:34:05Z</time>
      </trkpt>
      <trkpt lat="43.31528" lon="3.29356">
        <ele>3.02</ele>
        <time>2018-05-08T10:34:07Z</time>
      </trkpt>
      <trkpt lat="43.31528" lon="3.2935">
        <ele>3.5</ele>
        <time>2018-05-08T10:34:08Z</time>
      </trkpt>
      <trkpt lat="43.31527" lon="3.29344">
        <ele>3.5</ele>
        <time>2018-05-08T10:34:09Z</time>
      </trkpt>
      <trkpt lat="43.31525" lon="3.29339">
        <ele>3.5</ele>
        <time>2018-05-08T10:34:10Z</time>
      </trkpt>
      <trkpt lat="43.31524" lon="3.29334">
        <ele>3.98</ele>
        <time>2018-05-08T10:34:11Z</time>
      </trkpt>
      <trkpt lat="43.31522" lon="3.29329">
        <ele>3.98</ele>
        <time>2018-05-08T10:34:12Z</time>
      </trkpt>
      <trkpt lat="43.3152" lon="3.29324">
        <ele>4.46</ele>
        <time>2018-05-08T10:34:13Z</time>
      </trkpt>
      <trkpt lat="43.31519" lon="3.29319">
        <ele>4.46</ele>
        <time>2018-05-08T10:34:14Z</time>
      </trkpt>
      <trkpt lat="43.31519" lon="3.29314">
        <ele>4.46</ele>
        <time>2018-05-08T10:34:15Z</time>
      </trkpt>
      <trkpt lat="43.31518" lon="3.29308">
        <ele>4.46</ele>
        <time>2018-05-08T10:34:16Z</time>
      </trkpt>
      <trkpt lat="43.31518" lon="3.29303">
        <ele>4.46</ele>
        <time>2018-05-08T10:34:17Z</time>
      </trkpt>
      <trkpt lat="43.31514" lon="3.29199">
        <ele>2.54</ele>
        <time>2018-05-08T10:34:35Z</time>
      </trkpt>
      <trkpt lat="43.31515" lon="3.29194">
        <ele>2.54</ele>
        <time>2018-05-08T10:34:36Z</time>
      </trkpt>
      <trkpt lat="43.31517" lon="3.29091">
        <ele>2.54</ele>
        <time>2018-05-08T10:34:55Z</time>
      </trkpt>
      <trkpt lat="43.31524" lon="3.29005">
        <ele>3.02</ele>
        <time>2018-05-08T10:35:11Z</time>
      </trkpt>
      <trkpt lat="43.31533" lon="3.28906">
        <ele>3.02</ele>
        <time>2018-05-08T10:35:29Z</time>
      </trkpt>
      <trkpt lat="43.31545" lon="3.2883">
        <ele>3.02</ele>
        <time>2018-05-08T10:35:43Z</time>
      </trkpt>
      <trkpt lat="43.31552" lon="3.28793">
        <ele>2.54</ele>
        <time>2018-05-08T10:35:50Z</time>
      </trkpt>
      <trkpt lat="43.31568" lon="3.28707">
        <ele>3.5</ele>
        <time>2018-05-08T10:36:06Z</time>
      </trkpt>
      <trkpt lat="43.31586" lon="3.28617">
        <ele>3.02</ele>
        <time>2018-05-08T10:36:23Z</time>
      </trkpt>
      <trkpt lat="43.31607" lon="3.28528">
        <ele>2.06</ele>
        <time>2018-05-08T10:36:40Z</time>
      </trkpt>
      <trkpt lat="43.31626" lon="3.28452">
        <ele>1.58</ele>
        <time>2018-05-08T10:36:55Z</time>
      </trkpt>
      <trkpt lat="43.3164" lon="3.28399">
        <ele>1.58</ele>
        <time>2018-05-08T10:37:05Z</time>
      </trkpt>
      <trkpt lat="43.31661" lon="3.28324">
        <ele>1.1</ele>
        <time>2018-05-08T10:37:20Z</time>
      </trkpt>
      <trkpt lat="43.31686" lon="3.28235">
        <ele>0.62</ele>
        <time>2018-05-08T10:37:38Z</time>
      </trkpt>
      <trkpt lat="43.31709" lon="3.28167">
        <ele>-0.82</ele>
        <time>2018-05-08T10:37:54Z</time>
      </trkpt>
      <trkpt lat="43.3172" lon="3.28137">
        <ele>0.14</ele>
        <time>2018-05-08T10:38:10Z</time>
      </trkpt>
      <trkpt lat="43.31722" lon="3.28135">
        <ele>3.02</ele>
        <time>2018-05-08T10:38:25Z</time>
      </trkpt>
      <trkpt lat="43.31723" lon="3.28131">
        <ele>1.1</ele>
        <time>2018-05-08T10:38:40Z</time>
      </trkpt>
      <trkpt lat="43.31719" lon="3.28136">
        <ele>2.06</ele>
        <time>2018-05-08T10:38:56Z</time>
      </trkpt>
      <trkpt lat="43.3172" lon="3.28133">
        <ele>0.14</ele>
        <time>2018-05-08T10:39:14Z</time>
      </trkpt>
      <trkpt lat="43.31722" lon="3.28135">
        <ele>-2.27</ele>
        <time>2018-05-08T10:39:48Z</time>
      </trkpt>
      <trkpt lat="43.31722" lon="3.28134">
        <ele>-0.34</ele>
        <time>2018-05-08T10:40:14Z</time>
      </trkpt>
      <trkpt lat="43.31731" lon="3.28141">
        <ele>-0.34</ele>
        <time>2018-05-08T10:40:47Z</time>
      </trkpt>
      <trkpt lat="43.31727" lon="3.28135">
        <ele>0.14</ele>
        <time>2018-05-08T10:41:16Z</time>
      </trkpt>
      <trkpt lat="43.31728" lon="3.28132">
        <ele>0.62</ele>
        <time>2018-05-08T10:41:45Z</time>
      </trkpt>
      <trkpt lat="43.31725" lon="3.28134">
        <ele>3.02</ele>
        <time>2018-05-08T10:42:14Z</time>
      </trkpt>
      <trkpt lat="43.31727" lon="3.2813">
        <ele>1.1</ele>
        <time>2018-05-08T10:42:50Z</time>
      </trkpt>
      <trkpt lat="43.31725" lon="3.28132">
        <ele>0.62</ele>
        <time>2018-05-08T10:43:11Z</time>
      </trkpt>
      <trkpt lat="43.31725" lon="3.28133">
        <ele>2.06</ele>
        <time>2018-05-08T10:43:40Z</time>
      </trkpt>
      <trkpt lat="43.31726" lon="3.28133">
        <ele>2.54</ele>
        <time>2018-05-08T10:44:06Z</time>
      </trkpt>
      <trkpt lat="43.31726" lon="3.28134">
        <ele>-0.34</ele>
        <time>2018-05-08T10:44:34Z</time>
      </trkpt>
      <trkpt lat="43.31727" lon="3.28134">
        <ele>6.87</ele>
        <time>2018-05-08T10:44:56Z</time>
      </trkpt>
      <trkpt lat="43.31726" lon="3.28134">
        <ele>9.75</ele>
        <time>2018-05-08T10:45:14Z</time>
      </trkpt>
      <trkpt lat="43.31731" lon="3.28131">
        <ele>4.46</ele>
        <time>2018-05-08T11:11:22Z</time>
      </trkpt>
      <trkpt lat="43.31728" lon="3.28126">
        <ele>3.98</ele>
        <time>2018-05-08T11:11:41Z</time>
      </trkpt>
      <trkpt lat="43.31729" lon="3.28129">
        <ele>3.5</ele>
        <time>2018-05-08T11:11:46Z</time>
      </trkpt>
      <trkpt lat="43.31726" lon="3.28113">
        <ele>3.02</ele>
        <time>2018-05-08T11:11:59Z</time>
      </trkpt>
      <trkpt lat="43.31724" lon="3.28112">
        <ele>3.02</ele>
        <time>2018-05-08T11:12:01Z</time>
      </trkpt>
      <trkpt lat="43.31695" lon="3.28108">
        <ele>-1.79</ele>
        <time>2018-05-08T11:12:16Z</time>
      </trkpt>
      <trkpt lat="43.31663" lon="3.28104">
        <ele>-9.96</ele>
        <time>2018-05-08T11:12:30Z</time>
      </trkpt>
      <trkpt lat="43.31643" lon="3.28096">
        <ele>-10.92</ele>
        <time>2018-05-08T11:12:40Z</time>
      </trkpt>
      <trkpt lat="43.31641" lon="3.28096">
        <ele>-10.92</ele>
        <time>2018-05-08T11:12:41Z</time>
      </trkpt>
      <trkpt lat="43.31639" lon="3.28096">
        <ele>-10.92</ele>
        <time>2018-05-08T11:12:42Z</time>
      </trkpt>
      <trkpt lat="43.31637" lon="3.28096">
        <ele>-10.92</ele>
        <time>2018-05-08T11:12:43Z</time>
      </trkpt>
      <trkpt lat="43.31634" lon="3.28096">
        <ele>-10.92</ele>
        <time>2018-05-08T11:12:44Z</time>
      </trkpt>
      <trkpt lat="43.31632" lon="3.28096">
        <ele>-11.4</ele>
        <time>2018-05-08T11:12:45Z</time>
      </trkpt>
      <trkpt lat="43.31614" lon="3.28104">
        <ele>-6.59</ele>
        <time>2018-05-08T11:12:54Z</time>
      </trkpt>
      <trkpt lat="43.31604" lon="3.28106">
        <ele>-6.11</ele>
        <time>2018-05-08T11:12:59Z</time>
      </trkpt>
      <trkpt lat="43.31592" lon="3.28098">
        <ele>-3.23</ele>
        <time>2018-05-08T11:13:12Z</time>
      </trkpt>
      <trkpt lat="43.31588" lon="3.28094">
        <ele>0.14</ele>
        <time>2018-05-08T11:13:28Z</time>
      </trkpt>
      <trkpt lat="43.31585" lon="3.28091">
        <ele>-0.34</ele>
        <time>2018-05-08T11:13:43Z</time>
      </trkpt>
      <trkpt lat="43.31591" lon="3.28085">
        <ele>1.1</ele>
        <time>2018-05-08T11:14:03Z</time>
      </trkpt>
      <trkpt lat="43.31593" lon="3.28085">
        <ele>2.06</ele>
        <time>2018-05-08T11:14:23Z</time>
      </trkpt>
      <trkpt lat="43.31595" lon="3.28086">
        <ele>2.54</ele>
        <time>2018-05-08T11:14:25Z</time>
      </trkpt>
      <trkpt lat="43.31592" lon="3.28091">
        <ele>1.1</ele>
        <time>2018-05-08T11:14:45Z</time>
      </trkpt>
      <trkpt lat="43.31589" lon="3.28092">
        <ele>-7.07</ele>
        <time>2018-05-08T11:18:33Z</time>
      </trkpt>
      <trkpt lat="43.31596" lon="3.28109">
        <ele>16.48</ele>
        <time>2018-05-08T11:18:52Z</time>
      </trkpt>
      <trkpt lat="43.31593" lon="3.28107">
        <ele>13.6</ele>
        <time>2018-05-08T11:19:15Z</time>
      </trkpt>
      <trkpt lat="43.31587" lon="3.28097">
        <ele>8.79</ele>
        <time>2018-05-08T11:19:39Z</time>
      </trkpt>
      <trkpt lat="43.31588" lon="3.28093">
        <ele>6.39</ele>
        <time>2018-05-08T11:20:04Z</time>
      </trkpt>
      <trkpt lat="43.31589" lon="3.28093">
        <ele>5.91</ele>
        <time>2018-05-08T11:20:32Z</time>
      </trkpt>
      <trkpt lat="43.31591" lon="3.28094">
        <ele>5.91</ele>
        <time>2018-05-08T11:20:58Z</time>
      </trkpt>
      <trkpt lat="43.3159" lon="3.28097">
        <ele>4.94</ele>
        <time>2018-05-08T11:21:22Z</time>
      </trkpt>
      <trkpt lat="43.31591" lon="3.28102">
        <ele>5.91</ele>
        <time>2018-05-08T11:21:44Z</time>
      </trkpt>
      <trkpt lat="43.3159" lon="3.281">
        <ele>4.94</ele>
        <time>2018-05-08T11:22:04Z</time>
      </trkpt>
      <trkpt lat="43.31589" lon="3.28099">
        <ele>5.91</ele>
        <time>2018-05-08T11:22:21Z</time>
      </trkpt>
      <trkpt lat="43.31589" lon="3.281">
        <ele>5.42</ele>
        <time>2018-05-08T11:22:24Z</time>
      </trkpt>
      <trkpt lat="43.3159" lon="3.28107">
        <ele>4.46</ele>
        <time>2018-05-08T11:22:28Z</time>
      </trkpt>
      <trkpt lat="43.31593" lon="3.28108">
        <ele>3.98</ele>
        <time>2018-05-08T11:22:31Z</time>
      </trkpt>
      <trkpt lat="43.316" lon="3.28112">
        <ele>3.02</ele>
        <time>2018-05-08T11:22:35Z</time>
      </trkpt>
      <trkpt lat="43.31619" lon="3.28107">
        <ele>3.02</ele>
        <time>2018-05-08T11:22:46Z</time>
      </trkpt>
      <trkpt lat="43.31647" lon="3.28099">
        <ele>2.06</ele>
        <time>2018-05-08T11:22:59Z</time>
      </trkpt>
      <trkpt lat="43.31654" lon="3.28102">
        <ele>0.14</ele>
        <time>2018-05-08T11:23:08Z</time>
      </trkpt>
      <trkpt lat="43.31653" lon="3.28097">
        <ele>-0.82</ele>
        <time>2018-05-08T11:23:12Z</time>
      </trkpt>
      <trkpt lat="43.31654" lon="3.28095">
        <ele>-0.82</ele>
        <time>2018-05-08T11:23:13Z</time>
      </trkpt>
      <trkpt lat="43.31668" lon="3.28034">
        <ele>-3.71</ele>
        <time>2018-05-08T11:23:30Z</time>
      </trkpt>
      <trkpt lat="43.31672" lon="3.27987">
        <ele>-3.71</ele>
        <time>2018-05-08T11:23:43Z</time>
      </trkpt>
      <trkpt lat="43.31671" lon="3.27984">
        <ele>-3.23</ele>
        <time>2018-05-08T11:23:44Z</time>
      </trkpt>
      <trkpt lat="43.31671" lon="3.27982">
        <ele>-2.75</ele>
        <time>2018-05-08T11:23:45Z</time>
      </trkpt>
      <trkpt lat="43.31671" lon="3.2798">
        <ele>-2.27</ele>
        <time>2018-05-08T11:23:46Z</time>
      </trkpt>
      <trkpt lat="43.31671" lon="3.27978">
        <ele>-2.27</ele>
        <time>2018-05-08T11:23:47Z</time>
      </trkpt>
      <trkpt lat="43.31672" lon="3.27976">
        <ele>-2.27</ele>
        <time>2018-05-08T11:23:48Z</time>
      </trkpt>
      <trkpt lat="43.31672" lon="3.27973">
        <ele>-1.79</ele>
        <time>2018-05-08T11:23:49Z</time>
      </trkpt>
      <trkpt lat="43.31673" lon="3.27971">
        <ele>-1.3</ele>
        <time>2018-05-08T11:23:50Z</time>
      </trkpt>
      <trkpt lat="43.31677" lon="3.27949">
        <ele>0.14</ele>
        <time>2018-05-08T11:23:58Z</time>
      </trkpt>
      <trkpt lat="43.31683" lon="3.27946">
        <ele>0.62</ele>
        <time>2018-05-08T11:24:01Z</time>
      </trkpt>
      <trkpt lat="43.31685" lon="3.27944">
        <ele>0.62</ele>
        <time>2018-05-08T11:24:02Z</time>
      </trkpt>
      <trkpt lat="43.31687" lon="3.27942">
        <ele>0.62</ele>
        <time>2018-05-08T11:24:03Z</time>
      </trkpt>
      <trkpt lat="43.31693" lon="3.27939">
        <ele>1.1</ele>
        <time>2018-05-08T11:24:06Z</time>
      </trkpt>
      <trkpt lat="43.31695" lon="3.27939">
        <ele>1.1</ele>
        <time>2018-05-08T11:24:07Z</time>
      </trkpt>
      <trkpt lat="43.31698" lon="3.27939">
        <ele>1.1</ele>
        <time>2018-05-08T11:24:08Z</time>
      </trkpt>
      <trkpt lat="43.31731" lon="3.27941">
        <ele>-0.34</ele>
        <time>2018-05-08T11:24:20Z</time>
      </trkpt>
      <trkpt lat="43.3177" lon="3.2795">
        <ele>2.54</ele>
        <time>2018-05-08T11:24:33Z</time>
      </trkpt>
      <trkpt lat="43.31787" lon="3.27925">
        <ele>3.98</ele>
        <time>2018-05-08T11:24:44Z</time>
      </trkpt>
      <trkpt lat="43.31801" lon="3.27874">
        <ele>3.02</ele>
        <time>2018-05-08T11:25:02Z</time>
      </trkpt>
      <trkpt lat="43.31801" lon="3.2786">
        <ele>1.1</ele>
        <time>2018-05-08T11:25:13Z</time>
      </trkpt>
      <trkpt lat="43.31803" lon="3.27854">
        <ele>5.42</ele>
        <time>2018-05-08T11:25:56Z</time>
      </trkpt>
      <trkpt lat="43.31801" lon="3.27855">
        <ele>5.42</ele>
        <time>2018-05-08T11:26:05Z</time>
      </trkpt>
      <trkpt lat="43.31801" lon="3.27857">
        <ele>5.91</ele>
        <time>2018-05-08T11:26:06Z</time>
      </trkpt>
      <trkpt lat="43.31802" lon="3.27859">
        <ele>5.91</ele>
        <time>2018-05-08T11:26:07Z</time>
      </trkpt>
      <trkpt lat="43.31803" lon="3.2786">
        <ele>5.91</ele>
        <time>2018-05-08T11:26:08Z</time>
      </trkpt>
      <trkpt lat="43.31805" lon="3.27861">
        <ele>5.91</ele>
        <time>2018-05-08T11:26:09Z</time>
      </trkpt>
      <trkpt lat="43.31806" lon="3.27861">
        <ele>5.91</ele>
        <time>2018-05-08T11:26:10Z</time>
      </trkpt>
      <trkpt lat="43.31808" lon="3.27861">
        <ele>5.91</ele>
        <time>2018-05-08T11:26:11Z</time>
      </trkpt>
      <trkpt lat="43.31809" lon="3.27859">
        <ele>5.91</ele>
        <time>2018-05-08T11:26:12Z</time>
      </trkpt>
      <trkpt lat="43.3181" lon="3.27858">
        <ele>5.91</ele>
        <time>2018-05-08T11:26:13Z</time>
      </trkpt>
      <trkpt lat="43.31811" lon="3.27855">
        <ele>5.91</ele>
        <time>2018-05-08T11:26:14Z</time>
      </trkpt>
      <trkpt lat="43.31812" lon="3.27853">
        <ele>5.91</ele>
        <time>2018-05-08T11:26:15Z</time>
      </trkpt>
      <trkpt lat="43.31825" lon="3.27815">
        <ele>6.87</ele>
        <time>2018-05-08T11:26:28Z</time>
      </trkpt>
      <trkpt lat="43.31838" lon="3.27774">
        <ele>6.39</ele>
        <time>2018-05-08T11:26:43Z</time>
      </trkpt>
      <trkpt lat="43.31853" lon="3.27728">
        <ele>6.39</ele>
        <time>2018-05-08T11:26:57Z</time>
      </trkpt>
      <trkpt lat="43.31875" lon="3.27665">
        <ele>5.42</ele>
        <time>2018-05-08T11:27:15Z</time>
      </trkpt>
      <trkpt lat="43.31899" lon="3.276">
        <ele>4.94</ele>
        <time>2018-05-08T11:27:33Z</time>
      </trkpt>
      <trkpt lat="43.31922" lon="3.27539">
        <ele>2.06</ele>
        <time>2018-05-08T11:27:49Z</time>
      </trkpt>
      <trkpt lat="43.31948" lon="3.27465">
        <ele>2.06</ele>
        <time>2018-05-08T11:28:07Z</time>
      </trkpt>
      <trkpt lat="43.31976" lon="3.27388">
        <ele>1.58</ele>
        <time>2018-05-08T11:28:26Z</time>
      </trkpt>
      <trkpt lat="43.32002" lon="3.27315">
        <ele>1.1</ele>
        <time>2018-05-08T11:28:43Z</time>
      </trkpt>
      <trkpt lat="43.3203" lon="3.27237">
        <ele>-0.82</ele>
        <time>2018-05-08T11:29:01Z</time>
      </trkpt>
      <trkpt lat="43.3206" lon="3.27153">
        <ele>-2.27</ele>
        <time>2018-05-08T11:29:20Z</time>
      </trkpt>
      <trkpt lat="43.3209" lon="3.27072">
        <ele>-1.3</ele>
        <time>2018-05-08T11:29:38Z</time>
      </trkpt>
      <trkpt lat="43.32125" lon="3.26971">
        <ele>1.1</ele>
        <time>2018-05-08T11:29:59Z</time>
      </trkpt>
      <trkpt lat="43.32155" lon="3.26886">
        <ele>2.54</ele>
        <time>2018-05-08T11:30:17Z</time>
      </trkpt>
      <trkpt lat="43.32184" lon="3.26809">
        <ele>4.46</ele>
        <time>2018-05-08T11:30:34Z</time>
      </trkpt>
      <trkpt lat="43.32198" lon="3.26748">
        <ele>5.91</ele>
        <time>2018-05-08T11:30:51Z</time>
      </trkpt>
      <trkpt lat="43.3222" lon="3.26663">
        <ele>4.94</ele>
        <time>2018-05-08T11:31:07Z</time>
      </trkpt>
      <trkpt lat="43.32231" lon="3.26589">
        <ele>3.98</ele>
        <time>2018-05-08T11:31:24Z</time>
      </trkpt>
      <trkpt lat="43.32242" lon="3.26515">
        <ele>3.02</ele>
        <time>2018-05-08T11:31:43Z</time>
      </trkpt>
      <trkpt lat="43.32252" lon="3.26447">
        <ele>2.06</ele>
        <time>2018-05-08T11:32:00Z</time>
      </trkpt>
      <trkpt lat="43.32262" lon="3.26364">
        <ele>2.06</ele>
        <time>2018-05-08T11:32:18Z</time>
      </trkpt>
      <trkpt lat="43.32271" lon="3.2629">
        <ele>3.02</ele>
        <time>2018-05-08T11:32:34Z</time>
      </trkpt>
      <trkpt lat="43.32283" lon="3.26223">
        <ele>1.58</ele>
        <time>2018-05-08T11:32:48Z</time>
      </trkpt>
      <trkpt lat="43.32287" lon="3.2617">
        <ele>-1.79</ele>
        <time>2018-05-08T11:33:01Z</time>
      </trkpt>
      <trkpt lat="43.32293" lon="3.26091">
        <ele>-1.3</ele>
        <time>2018-05-08T11:33:15Z</time>
      </trkpt>
      <trkpt lat="43.32299" lon="3.26028">
        <ele>0.62</ele>
        <time>2018-05-08T11:33:26Z</time>
      </trkpt>
      <trkpt lat="43.32301" lon="3.26023">
        <ele>0.14</ele>
        <time>2018-05-08T11:33:27Z</time>
      </trkpt>
      <trkpt lat="43.32302" lon="3.26017">
        <ele>0.14</ele>
        <time>2018-05-08T11:33:28Z</time>
      </trkpt>
      <trkpt lat="43.32303" lon="3.26011">
        <ele>0.14</ele>
        <time>2018-05-08T11:33:29Z</time>
      </trkpt>
      <trkpt lat="43.32304" lon="3.26005">
        <ele>0.14</ele>
        <time>2018-05-08T11:33:30Z</time>
      </trkpt>
      <trkpt lat="43.32317" lon="3.25931">
        <ele>-3.23</ele>
        <time>2018-05-08T11:33:43Z</time>
      </trkpt>
      <trkpt lat="43.32325" lon="3.25852">
        <ele>-0.34</ele>
        <time>2018-05-08T11:33:58Z</time>
      </trkpt>
      <trkpt lat="43.32332" lon="3.25778">
        <ele>0.62</ele>
        <time>2018-05-08T11:34:11Z</time>
      </trkpt>
      <trkpt lat="43.32337" lon="3.25712">
        <ele>2.54</ele>
        <time>2018-05-08T11:34:21Z</time>
      </trkpt>
      <trkpt lat="43.32336" lon="3.25605">
        <ele>5.91</ele>
        <time>2018-05-08T11:34:38Z</time>
      </trkpt>
      <trkpt lat="43.32333" lon="3.25533">
        <ele>3.98</ele>
        <time>2018-05-08T11:34:51Z</time>
      </trkpt>
      <trkpt lat="43.32334" lon="3.25448">
        <ele>3.02</ele>
        <time>2018-05-08T11:35:05Z</time>
      </trkpt>
      <trkpt lat="43.32329" lon="3.25351">
        <ele>3.5</ele>
        <time>2018-05-08T11:35:22Z</time>
      </trkpt>
      <trkpt lat="43.32326" lon="3.25285">
        <ele>2.06</ele>
        <time>2018-05-08T11:35:34Z</time>
      </trkpt>
      <trkpt lat="43.32324" lon="3.25184">
        <ele>1.1</ele>
        <time>2018-05-08T11:35:50Z</time>
      </trkpt>
      <trkpt lat="43.32322" lon="3.25123">
        <ele>-0.82</ele>
        <time>2018-05-08T11:36:02Z</time>
      </trkpt>
      <trkpt lat="43.32322" lon="3.25022">
        <ele>0.14</ele>
        <time>2018-05-08T11:36:18Z</time>
      </trkpt>
      <trkpt lat="43.32321" lon="3.24921">
        <ele>3.02</ele>
        <time>2018-05-08T11:36:34Z</time>
      </trkpt>
      <trkpt lat="43.32326" lon="3.24859">
        <ele>4.94</ele>
        <time>2018-05-08T11:36:44Z</time>
      </trkpt>
      <trkpt lat="43.32327" lon="3.24853">
        <ele>5.42</ele>
        <time>2018-05-08T11:36:45Z</time>
      </trkpt>
      <trkpt lat="43.32331" lon="3.24841">
        <ele>5.42</ele>
        <time>2018-05-08T11:36:47Z</time>
      </trkpt>
      <trkpt lat="43.32343" lon="3.24787">
        <ele>3.5</ele>
        <time>2018-05-08T11:36:56Z</time>
      </trkpt>
      <trkpt lat="43.32345" lon="3.24782">
        <ele>3.02</ele>
        <time>2018-05-08T11:36:57Z</time>
      </trkpt>
      <trkpt lat="43.32347" lon="3.24776">
        <ele>3.02</ele>
        <time>2018-05-08T11:36:58Z</time>
      </trkpt>
      <trkpt lat="43.32371" lon="3.2472">
        <ele>2.54</ele>
        <time>2018-05-08T11:37:10Z</time>
      </trkpt>
      <trkpt lat="43.32379" lon="3.247">
        <ele>2.54</ele>
        <time>2018-05-08T11:37:14Z</time>
      </trkpt>
      <trkpt lat="43.32381" lon="3.24696">
        <ele>2.54</ele>
        <time>2018-05-08T11:37:15Z</time>
      </trkpt>
      <trkpt lat="43.32432" lon="3.24624">
        <ele>2.54</ele>
        <time>2018-05-08T11:37:31Z</time>
      </trkpt>
      <trkpt lat="43.32473" lon="3.24582">
        <ele>1.58</ele>
        <time>2018-05-08T11:37:42Z</time>
      </trkpt>
      <trkpt lat="43.32485" lon="3.24572">
        <ele>1.58</ele>
        <time>2018-05-08T11:37:45Z</time>
      </trkpt>
      <trkpt lat="43.32493" lon="3.24565">
        <ele>1.58</ele>
        <time>2018-05-08T11:37:47Z</time>
      </trkpt>
      <trkpt lat="43.3254" lon="3.2452">
        <ele>0.62</ele>
        <time>2018-05-08T11:38:00Z</time>
      </trkpt>
      <trkpt lat="43.32593" lon="3.24467">
        <ele>-0.34</ele>
        <time>2018-05-08T11:38:15Z</time>
      </trkpt>
      <trkpt lat="43.3264" lon="3.2441">
        <ele>-0.82</ele>
        <time>2018-05-08T11:38:28Z</time>
      </trkpt>
      <trkpt lat="43.32647" lon="3.24402">
        <ele>-1.3</ele>
        <time>2018-05-08T11:38:30Z</time>
      </trkpt>
      <trkpt lat="43.32657" lon="3.24388">
        <ele>-1.3</ele>
        <time>2018-05-08T11:38:33Z</time>
      </trkpt>
      <trkpt lat="43.3266" lon="3.24384">
        <ele>-1.3</ele>
        <time>2018-05-08T11:38:34Z</time>
      </trkpt>
      <trkpt lat="43.32664" lon="3.24379">
        <ele>-1.3</ele>
        <time>2018-05-08T11:38:35Z</time>
      </trkpt>
      <trkpt lat="43.32668" lon="3.24374">
        <ele>-1.3</ele>
        <time>2018-05-08T11:38:36Z</time>
      </trkpt>
      <trkpt lat="43.32671" lon="3.24369">
        <ele>-1.3</ele>
        <time>2018-05-08T11:38:37Z</time>
      </trkpt>
      <trkpt lat="43.32675" lon="3.24364">
        <ele>-1.3</ele>
        <time>2018-05-08T11:38:38Z</time>
      </trkpt>
      <trkpt lat="43.32679" lon="3.24358">
        <ele>-1.3</ele>
        <time>2018-05-08T11:38:39Z</time>
      </trkpt>
      <trkpt lat="43.32693" lon="3.24334">
        <ele>-1.79</ele>
        <time>2018-05-08T11:38:43Z</time>
      </trkpt>
      <trkpt lat="43.32718" lon="3.24279">
        <ele>-5.15</ele>
        <time>2018-05-08T11:38:54Z</time>
      </trkpt>
      <trkpt lat="43.32736" lon="3.24228">
        <ele>-8.03</ele>
        <time>2018-05-08T11:39:05Z</time>
      </trkpt>
      <trkpt lat="43.32758" lon="3.24161">
        <ele>-9.96</ele>
        <time>2018-05-08T11:39:18Z</time>
      </trkpt>
      <trkpt lat="43.32778" lon="3.2409">
        <ele>-10.44</ele>
        <time>2018-05-08T11:39:30Z</time>
      </trkpt>
      <trkpt lat="43.32799" lon="3.23997">
        <ele>-8.03</ele>
        <time>2018-05-08T11:39:45Z</time>
      </trkpt>
      <trkpt lat="43.32815" lon="3.23894">
        <ele>-7.55</ele>
        <time>2018-05-08T11:40:03Z</time>
      </trkpt>
      <trkpt lat="43.32825" lon="3.23818">
        <ele>-5.63</ele>
        <time>2018-05-08T11:40:18Z</time>
      </trkpt>
      <trkpt lat="43.32835" lon="3.2374">
        <ele>-7.55</ele>
        <time>2018-05-08T11:40:32Z</time>
      </trkpt>
      <trkpt lat="43.32836" lon="3.23664">
        <ele>-8.51</ele>
        <time>2018-05-08T11:40:46Z</time>
      </trkpt>
      <trkpt lat="43.32839" lon="3.23601">
        <ele>-8.03</ele>
        <time>2018-05-08T11:40:58Z</time>
      </trkpt>
      <trkpt lat="43.32836" lon="3.23552">
        <ele>-9.96</ele>
        <time>2018-05-08T11:41:07Z</time>
      </trkpt>
      <trkpt lat="43.32836" lon="3.23546">
        <ele>-9.96</ele>
        <time>2018-05-08T11:41:08Z</time>
      </trkpt>
      <trkpt lat="43.32836" lon="3.2354">
        <ele>-9.96</ele>
        <time>2018-05-08T11:41:09Z</time>
      </trkpt>
      <trkpt lat="43.32833" lon="3.2347">
        <ele>-8.03</ele>
        <time>2018-05-08T11:41:21Z</time>
      </trkpt>
      <trkpt lat="43.32839" lon="3.23412">
        <ele>-6.11</ele>
        <time>2018-05-08T11:41:33Z</time>
      </trkpt>
      <trkpt lat="43.32842" lon="3.23395">
        <ele>-6.59</ele>
        <time>2018-05-08T11:41:37Z</time>
      </trkpt>
      <trkpt lat="43.32844" lon="3.23391">
        <ele>-6.11</ele>
        <time>2018-05-08T11:41:38Z</time>
      </trkpt>
      <trkpt lat="43.32845" lon="3.23387">
        <ele>-6.11</ele>
        <time>2018-05-08T11:41:39Z</time>
      </trkpt>
      <trkpt lat="43.32865" lon="3.23315">
        <ele>-0.34</ele>
        <time>2018-05-08T11:41:54Z</time>
      </trkpt>
      <trkpt lat="43.32889" lon="3.23248">
        <ele>0.62</ele>
        <time>2018-05-08T11:42:10Z</time>
      </trkpt>
      <trkpt lat="43.32912" lon="3.23187">
        <ele>1.1</ele>
        <time>2018-05-08T11:42:25Z</time>
      </trkpt>
      <trkpt lat="43.32916" lon="3.23178">
        <ele>3.5</ele>
        <time>2018-05-08T11:42:35Z</time>
      </trkpt>
      <trkpt lat="43.32915" lon="3.23172">
        <ele>7.35</ele>
        <time>2018-05-08T11:42:53Z</time>
      </trkpt>
      <trkpt lat="43.32919" lon="3.23173">
        <ele>10.71</ele>
        <time>2018-05-08T11:43:34Z</time>
      </trkpt>
      <trkpt lat="43.32919" lon="3.23172">
        <ele>11.19</ele>
        <time>2018-05-08T11:44:03Z</time>
      </trkpt>
      <trkpt lat="43.3292" lon="3.23172">
        <ele>11.67</ele>
        <time>2018-05-08T11:44:38Z</time>
      </trkpt>
      <trkpt lat="43.32919" lon="3.23171">
        <ele>11.19</ele>
        <time>2018-05-08T11:45:09Z</time>
      </trkpt>
      <trkpt lat="43.32919" lon="3.23174">
        <ele>11.67</ele>
        <time>2018-05-08T11:45:41Z</time>
      </trkpt>
      <trkpt lat="43.32926" lon="3.23165">
        <ele>10.71</ele>
        <time>2018-05-08T11:45:56Z</time>
      </trkpt>
      <trkpt lat="43.32935" lon="3.23148">
        <ele>10.23</ele>
        <time>2018-05-08T11:46:08Z</time>
      </trkpt>
      <trkpt lat="43.32957" lon="3.23113">
        <ele>9.27</ele>
        <time>2018-05-08T11:46:21Z</time>
      </trkpt>
      <trkpt lat="43.32987" lon="3.23064">
        <ele>7.83</ele>
        <time>2018-05-08T11:46:37Z</time>
      </trkpt>
      <trkpt lat="43.33031" lon="3.22997">
        <ele>8.79</ele>
        <time>2018-05-08T11:46:56Z</time>
      </trkpt>
      <trkpt lat="43.33062" lon="3.22949">
        <ele>8.79</ele>
        <time>2018-05-08T11:47:09Z</time>
      </trkpt>
      <trkpt lat="43.33114" lon="3.22871">
        <ele>8.79</ele>
        <time>2018-05-08T11:47:29Z</time>
      </trkpt>
      <trkpt lat="43.33152" lon="3.22804">
        <ele>8.79</ele>
        <time>2018-05-08T11:47:45Z</time>
      </trkpt>
      <trkpt lat="43.33195" lon="3.22714">
        <ele>8.31</ele>
        <time>2018-05-08T11:48:04Z</time>
      </trkpt>
      <trkpt lat="43.33223" lon="3.22623">
        <ele>6.87</ele>
        <time>2018-05-08T11:48:22Z</time>
      </trkpt>
      <trkpt lat="43.33238" lon="3.22559">
        <ele>6.39</ele>
        <time>2018-05-08T11:48:35Z</time>
      </trkpt>
      <trkpt lat="43.33253" lon="3.22471">
        <ele>5.91</ele>
        <time>2018-05-08T11:48:53Z</time>
      </trkpt>
      <trkpt lat="43.33257" lon="3.22447">
        <ele>6.39</ele>
        <time>2018-05-08T11:48:59Z</time>
      </trkpt>
      <trkpt lat="43.33259" lon="3.22445">
        <ele>6.39</ele>
        <time>2018-05-08T11:49:00Z</time>
      </trkpt>
      <trkpt lat="43.33261" lon="3.22442">
        <ele>6.39</ele>
        <time>2018-05-08T11:49:01Z</time>
      </trkpt>
      <trkpt lat="43.33263" lon="3.22438">
        <ele>6.39</ele>
        <time>2018-05-08T11:49:03Z</time>
      </trkpt>
      <trkpt lat="43.33265" lon="3.22437">
        <ele>6.39</ele>
        <time>2018-05-08T11:49:04Z</time>
      </trkpt>
      <trkpt lat="43.33267" lon="3.22437">
        <ele>6.87</ele>
        <time>2018-05-08T11:49:05Z</time>
      </trkpt>
      <trkpt lat="43.33269" lon="3.22437">
        <ele>6.87</ele>
        <time>2018-05-08T11:49:06Z</time>
      </trkpt>
      <trkpt lat="43.33272" lon="3.22438">
        <ele>6.87</ele>
        <time>2018-05-08T11:49:07Z</time>
      </trkpt>
      <trkpt lat="43.33275" lon="3.22439">
        <ele>6.87</ele>
        <time>2018-05-08T11:49:08Z</time>
      </trkpt>
      <trkpt lat="43.33277" lon="3.2244">
        <ele>6.87</ele>
        <time>2018-05-08T11:49:09Z</time>
      </trkpt>
      <trkpt lat="43.33279" lon="3.2244">
        <ele>6.87</ele>
        <time>2018-05-08T11:49:10Z</time>
      </trkpt>
      <trkpt lat="43.33281" lon="3.22441">
        <ele>6.87</ele>
        <time>2018-05-08T11:49:11Z</time>
      </trkpt>
      <trkpt lat="43.33284" lon="3.22442">
        <ele>6.87</ele>
        <time>2018-05-08T11:49:12Z</time>
      </trkpt>
      <trkpt lat="43.33303" lon="3.22449">
        <ele>6.87</ele>
        <time>2018-05-08T11:49:21Z</time>
      </trkpt>
      <trkpt lat="43.33304" lon="3.22448">
        <ele>6.87</ele>
        <time>2018-05-08T11:49:22Z</time>
      </trkpt>
      <trkpt lat="43.33316" lon="3.2243">
        <ele>6.39</ele>
        <time>2018-05-08T11:49:31Z</time>
      </trkpt>
      <trkpt lat="43.33316" lon="3.22428">
        <ele>6.39</ele>
        <time>2018-05-08T11:49:32Z</time>
      </trkpt>
      <trkpt lat="43.33317" lon="3.22427">
        <ele>5.91</ele>
        <time>2018-05-08T11:49:33Z</time>
      </trkpt>
      <trkpt lat="43.33318" lon="3.22425">
        <ele>5.91</ele>
        <time>2018-05-08T11:49:34Z</time>
      </trkpt>
      <trkpt lat="43.33319" lon="3.22423">
        <ele>5.42</ele>
        <time>2018-05-08T11:49:35Z</time>
      </trkpt>
      <trkpt lat="43.3332" lon="3.2242">
        <ele>5.42</ele>
        <time>2018-05-08T11:49:36Z</time>
      </trkpt>
      <trkpt lat="43.3332" lon="3.22418">
        <ele>5.42</ele>
        <time>2018-05-08T11:49:37Z</time>
      </trkpt>
      <trkpt lat="43.33321" lon="3.22415">
        <ele>5.42</ele>
        <time>2018-05-08T11:49:38Z</time>
      </trkpt>
      <trkpt lat="43.33327" lon="3.22397">
        <ele>7.35</ele>
        <time>2018-05-08T11:49:50Z</time>
      </trkpt>
      <trkpt lat="43.33326" lon="3.22397">
        <ele>10.23</ele>
        <time>2018-05-08T11:50:09Z</time>
      </trkpt>
      <trkpt lat="43.33325" lon="3.22395">
        <ele>10.71</ele>
        <time>2018-05-08T11:50:40Z</time>
      </trkpt>
      <trkpt lat="43.33326" lon="3.22396">
        <ele>8.79</ele>
        <time>2018-05-08T11:51:08Z</time>
      </trkpt>
      <trkpt lat="43.33325" lon="3.22398">
        <ele>9.75</ele>
        <time>2018-05-08T11:51:31Z</time>
      </trkpt>
      <trkpt lat="43.33327" lon="3.22396">
        <ele>10.71</ele>
        <time>2018-05-08T11:52:04Z</time>
      </trkpt>
      <trkpt lat="43.33326" lon="3.22393">
        <ele>10.71</ele>
        <time>2018-05-08T11:52:08Z</time>
      </trkpt>
      <trkpt lat="43.33325" lon="3.22392">
        <ele>10.71</ele>
        <time>2018-05-08T11:52:09Z</time>
      </trkpt>
      <trkpt lat="43.33322" lon="3.22391">
        <ele>10.23</ele>
        <time>2018-05-08T11:52:11Z</time>
      </trkpt>
      <trkpt lat="43.33321" lon="3.2239">
        <ele>10.23</ele>
        <time>2018-05-08T11:52:12Z</time>
      </trkpt>
      <trkpt lat="43.3332" lon="3.22389">
        <ele>10.23</ele>
        <time>2018-05-08T11:52:13Z</time>
      </trkpt>
      <trkpt lat="43.33319" lon="3.22387">
        <ele>9.75</ele>
        <time>2018-05-08T11:52:14Z</time>
      </trkpt>
      <trkpt lat="43.33319" lon="3.22385">
        <ele>9.27</ele>
        <time>2018-05-08T11:52:15Z</time>
      </trkpt>
      <trkpt lat="43.33319" lon="3.22382">
        <ele>9.27</ele>
        <time>2018-05-08T11:52:16Z</time>
      </trkpt>
      <trkpt lat="43.33319" lon="3.2238">
        <ele>8.79</ele>
        <time>2018-05-08T11:52:17Z</time>
      </trkpt>
      <trkpt lat="43.33319" lon="3.22377">
        <ele>8.79</ele>
        <time>2018-05-08T11:52:18Z</time>
      </trkpt>
      <trkpt lat="43.33323" lon="3.22323">
        <ele>4.46</ele>
        <time>2018-05-08T11:52:32Z</time>
      </trkpt>
      <trkpt lat="43.33336" lon="3.22246">
        <ele>3.02</ele>
        <time>2018-05-08T11:52:50Z</time>
      </trkpt>
      <trkpt lat="43.33351" lon="3.22204">
        <ele>3.02</ele>
        <time>2018-05-08T11:53:03Z</time>
      </trkpt>
      <trkpt lat="43.33354" lon="3.2218">
        <ele>4.46</ele>
        <time>2018-05-08T11:53:15Z</time>
      </trkpt>
      <trkpt lat="43.33353" lon="3.22179">
        <ele>4.46</ele>
        <time>2018-05-08T11:53:16Z</time>
      </trkpt>
      <trkpt lat="43.33351" lon="3.22179">
        <ele>4.46</ele>
        <time>2018-05-08T11:53:17Z</time>
      </trkpt>
      <trkpt lat="43.3335" lon="3.22179">
        <ele>4.94</ele>
        <time>2018-05-08T11:53:18Z</time>
      </trkpt>
      <trkpt lat="43.3335" lon="3.22179">
        <ele>4.94</ele>
        <time>2018-05-08T11:53:19Z</time>
      </trkpt>
      <trkpt lat="43.33345" lon="3.22182">
        <ele>2.54</ele>
        <time>2018-05-08T11:53:35Z</time>
      </trkpt>
      <trkpt lat="43.33342" lon="3.2218">
        <ele>2.54</ele>
        <time>2018-05-08T11:53:43Z</time>
      </trkpt>
      <trkpt lat="43.33341" lon="3.22179">
        <ele>2.54</ele>
        <time>2018-05-08T11:53:44Z</time>
      </trkpt>
      <trkpt lat="43.3334" lon="3.22178">
        <ele>2.06</ele>
        <time>2018-05-08T11:53:45Z</time>
      </trkpt>
      <trkpt lat="43.33323" lon="3.22156">
        <ele>2.54</ele>
        <time>2018-05-08T11:53:57Z</time>
      </trkpt>
      <trkpt lat="43.33328" lon="3.22108">
        <ele>2.06</ele>
        <time>2018-05-08T11:54:13Z</time>
      </trkpt>
      <trkpt lat="43.3334" lon="3.22063">
        <ele>-1.3</ele>
        <time>2018-05-08T11:54:27Z</time>
      </trkpt>
      <trkpt lat="43.3334" lon="3.2206">
        <ele>-1.79</ele>
        <time>2018-05-08T11:54:28Z</time>
      </trkpt>
      <trkpt lat="43.3335" lon="3.22007">
        <ele>-1.79</ele>
        <time>2018-05-08T11:54:42Z</time>
      </trkpt>
      <trkpt lat="43.33368" lon="3.21949">
        <ele>-0.82</ele>
        <time>2018-05-08T11:54:57Z</time>
      </trkpt>
      <trkpt lat="43.33379" lon="3.21912">
        <ele>0.62</ele>
        <time>2018-05-08T11:55:08Z</time>
      </trkpt>
      <trkpt lat="43.3338" lon="3.21909">
        <ele>1.1</ele>
        <time>2018-05-08T11:55:09Z</time>
      </trkpt>
      <trkpt lat="43.33381" lon="3.21906">
        <ele>1.1</ele>
        <time>2018-05-08T11:55:10Z</time>
      </trkpt>
      <trkpt lat="43.33395" lon="3.21859">
        <ele>2.06</ele>
        <time>2018-05-08T11:55:24Z</time>
      </trkpt>
      <trkpt lat="43.33409" lon="3.21811">
        <ele>2.06</ele>
        <time>2018-05-08T11:55:37Z</time>
      </trkpt>
      <trkpt lat="43.33423" lon="3.21768">
        <ele>1.58</ele>
        <time>2018-05-08T11:55:48Z</time>
      </trkpt>
      <trkpt lat="43.33445" lon="3.21701">
        <ele>2.54</ele>
        <time>2018-05-08T11:56:05Z</time>
      </trkpt>
      <trkpt lat="43.33459" lon="3.21654">
        <ele>1.58</ele>
        <time>2018-05-08T11:56:17Z</time>
      </trkpt>
      <trkpt lat="43.33472" lon="3.21607">
        <ele>0.62</ele>
        <time>2018-05-08T11:56:31Z</time>
      </trkpt>
      <trkpt lat="43.33473" lon="3.21607">
        <ele>0.62</ele>
        <time>2018-05-08T11:56:32Z</time>
      </trkpt>
      <trkpt lat="43.33482" lon="3.21602">
        <ele>1.1</ele>
        <time>2018-05-08T11:56:39Z</time>
      </trkpt>
      <trkpt lat="43.33496" lon="3.21603">
        <ele>4.46</ele>
        <time>2018-05-08T11:56:53Z</time>
      </trkpt>
      <trkpt lat="43.33504" lon="3.21606">
        <ele>5.91</ele>
        <time>2018-05-08T11:57:09Z</time>
      </trkpt>
      <trkpt lat="43.33515" lon="3.21609">
        <ele>5.42</ele>
        <time>2018-05-08T11:57:21Z</time>
      </trkpt>
      <trkpt lat="43.33511" lon="3.21606">
        <ele>2.06</ele>
        <time>2018-05-08T11:57:32Z</time>
      </trkpt>
      <trkpt lat="43.33511" lon="3.21605">
        <ele>3.5</ele>
        <time>2018-05-08T11:57:45Z</time>
      </trkpt>
      <trkpt lat="43.33504" lon="3.21605">
        <ele>3.02</ele>
        <time>2018-05-08T11:57:59Z</time>
      </trkpt>
      <trkpt lat="43.33504" lon="3.21603">
        <ele>3.98</ele>
        <time>2018-05-08T11:58:24Z</time>
      </trkpt>
      <trkpt lat="43.33503" lon="3.21605">
        <ele>11.67</ele>
        <time>2018-05-08T11:58:46Z</time>
      </trkpt>
      <trkpt lat="43.33505" lon="3.21602">
        <ele>14.08</ele>
        <time>2018-05-08T11:59:14Z</time>
      </trkpt>
      <trkpt lat="43.33504" lon="3.21602">
        <ele>14.08</ele>
        <time>2018-05-08T11:59:46Z</time>
      </trkpt>
      <trkpt lat="43.33498" lon="3.21602">
        <ele>12.63</ele>
        <time>2018-05-08T12:00:02Z</time>
      </trkpt>
      <trkpt lat="43.33493" lon="3.21601">
        <ele>11.67</ele>
        <time>2018-05-08T12:00:20Z</time>
      </trkpt>
      <trkpt lat="43.33492" lon="3.21598">
        <ele>11.19</ele>
        <time>2018-05-08T12:00:28Z</time>
      </trkpt>
      <trkpt lat="43.33492" lon="3.21596">
        <ele>11.19</ele>
        <time>2018-05-08T12:00:29Z</time>
      </trkpt>
      <trkpt lat="43.33492" lon="3.21594">
        <ele>10.71</ele>
        <time>2018-05-08T12:00:30Z</time>
      </trkpt>
      <trkpt lat="43.33492" lon="3.21592">
        <ele>10.23</ele>
        <time>2018-05-08T12:00:31Z</time>
      </trkpt>
      <trkpt lat="43.33493" lon="3.2159">
        <ele>10.23</ele>
        <time>2018-05-08T12:00:32Z</time>
      </trkpt>
      <trkpt lat="43.33494" lon="3.21588">
        <ele>10.23</ele>
        <time>2018-05-08T12:00:33Z</time>
      </trkpt>
      <trkpt lat="43.33494" lon="3.21586">
        <ele>10.23</ele>
        <time>2018-05-08T12:00:34Z</time>
      </trkpt>
      <trkpt lat="43.33495" lon="3.21584">
        <ele>9.75</ele>
        <time>2018-05-08T12:00:35Z</time>
      </trkpt>
      <trkpt lat="43.33496" lon="3.21582">
        <ele>9.75</ele>
        <time>2018-05-08T12:00:36Z</time>
      </trkpt>
      <trkpt lat="43.33512" lon="3.21557">
        <ele>8.79</ele>
        <time>2018-05-08T12:00:51Z</time>
      </trkpt>
      <trkpt lat="43.33522" lon="3.21531">
        <ele>8.31</ele>
        <time>2018-05-08T12:01:07Z</time>
      </trkpt>
      <trkpt lat="43.33523" lon="3.21523">
        <ele>7.83</ele>
        <time>2018-05-08T12:01:11Z</time>
      </trkpt>
      <trkpt lat="43.33524" lon="3.21521">
        <ele>7.35</ele>
        <time>2018-05-08T12:01:12Z</time>
      </trkpt>
      <trkpt lat="43.33524" lon="3.21519">
        <ele>7.35</ele>
        <time>2018-05-08T12:01:13Z</time>
      </trkpt>
      <trkpt lat="43.3353" lon="3.21473">
        <ele>7.83</ele>
        <time>2018-05-08T12:01:29Z</time>
      </trkpt>
      <trkpt lat="43.33527" lon="3.2142">
        <ele>8.79</ele>
        <time>2018-05-08T12:01:45Z</time>
      </trkpt>
      <trkpt lat="43.33508" lon="3.21374">
        <ele>11.67</ele>
        <time>2018-05-08T12:01:59Z</time>
      </trkpt>
      <trkpt lat="43.335" lon="3.21349">
        <ele>13.12</ele>
        <time>2018-05-08T12:02:08Z</time>
      </trkpt>
      <trkpt lat="43.33498" lon="3.21347">
        <ele>13.12</ele>
        <time>2018-05-08T12:02:09Z</time>
      </trkpt>
      <trkpt lat="43.33497" lon="3.21345">
        <ele>13.12</ele>
        <time>2018-05-08T12:02:10Z</time>
      </trkpt>
      <trkpt lat="43.33496" lon="3.21343">
        <ele>13.12</ele>
        <time>2018-05-08T12:02:11Z</time>
      </trkpt>
      <trkpt lat="43.33494" lon="3.21341">
        <ele>13.12</ele>
        <time>2018-05-08T12:02:12Z</time>
      </trkpt>
      <trkpt lat="43.33493" lon="3.21338">
        <ele>13.12</ele>
        <time>2018-05-08T12:02:13Z</time>
      </trkpt>
      <trkpt lat="43.33491" lon="3.21336">
        <ele>13.12</ele>
        <time>2018-05-08T12:02:14Z</time>
      </trkpt>
      <trkpt lat="43.3349" lon="3.21334">
        <ele>13.12</ele>
        <time>2018-05-08T12:02:15Z</time>
      </trkpt>
      <trkpt lat="43.33488" lon="3.21332">
        <ele>13.12</ele>
        <time>2018-05-08T12:02:16Z</time>
      </trkpt>
      <trkpt lat="43.33467" lon="3.21298">
        <ele>16</ele>
        <time>2018-05-08T12:02:30Z</time>
      </trkpt>
      <trkpt lat="43.33447" lon="3.21267">
        <ele>18.4</ele>
        <time>2018-05-08T12:02:43Z</time>
      </trkpt>
      <trkpt lat="43.33413" lon="3.21218">
        <ele>17.92</ele>
        <time>2018-05-08T12:03:03Z</time>
      </trkpt>
      <trkpt lat="43.33407" lon="3.21216">
        <ele>17.92</ele>
        <time>2018-05-08T12:03:06Z</time>
      </trkpt>
      <trkpt lat="43.33406" lon="3.21218">
        <ele>17.92</ele>
        <time>2018-05-08T12:03:07Z</time>
      </trkpt>
      <trkpt lat="43.33405" lon="3.2122">
        <ele>17.44</ele>
        <time>2018-05-08T12:03:08Z</time>
      </trkpt>
      <trkpt lat="43.33405" lon="3.21222">
        <ele>17.44</ele>
        <time>2018-05-08T12:03:09Z</time>
      </trkpt>
      <trkpt lat="43.33408" lon="3.21224">
        <ele>13.12</ele>
        <time>2018-05-08T12:03:25Z</time>
      </trkpt>
      <trkpt lat="43.33408" lon="3.21225">
        <ele>11.19</ele>
        <time>2018-05-08T12:03:51Z</time>
      </trkpt>
      <trkpt lat="43.33408" lon="3.21225">
        <ele>10.23</ele>
        <time>2018-05-08T12:04:10Z</time>
      </trkpt>
      <trkpt lat="43.3341" lon="3.21226">
        <ele>8.31</ele>
        <time>2018-05-08T12:04:30Z</time>
      </trkpt>
      <trkpt lat="43.33409" lon="3.21229">
        <ele>10.71</ele>
        <time>2018-05-08T12:04:47Z</time>
      </trkpt>
      <trkpt lat="43.33407" lon="3.21228">
        <ele>12.15</ele>
        <time>2018-05-08T12:05:06Z</time>
      </trkpt>
      <trkpt lat="43.33408" lon="3.2123">
        <ele>11.67</ele>
        <time>2018-05-08T12:05:25Z</time>
      </trkpt>
      <trkpt lat="43.33409" lon="3.21226">
        <ele>11.67</ele>
        <time>2018-05-08T12:05:47Z</time>
      </trkpt>
      <trkpt lat="43.33409" lon="3.21226">
        <ele>11.19</ele>
        <time>2018-05-08T12:06:10Z</time>
      </trkpt>
      <trkpt lat="43.33406" lon="3.21224">
        <ele>13.12</ele>
        <time>2018-05-08T12:06:30Z</time>
      </trkpt>
      <trkpt lat="43.33409" lon="3.21224">
        <ele>10.71</ele>
        <time>2018-05-08T12:06:38Z</time>
      </trkpt>
      <trkpt lat="43.3341" lon="3.21223">
        <ele>10.71</ele>
        <time>2018-05-08T12:06:39Z</time>
      </trkpt>
      <trkpt lat="43.33411" lon="3.21221">
        <ele>10.71</ele>
        <time>2018-05-08T12:06:40Z</time>
      </trkpt>
      <trkpt lat="43.3341" lon="3.21219">
        <ele>10.71</ele>
        <time>2018-05-08T12:06:41Z</time>
      </trkpt>
      <trkpt lat="43.33408" lon="3.21218">
        <ele>10.71</ele>
        <time>2018-05-08T12:06:42Z</time>
      </trkpt>
      <trkpt lat="43.33406" lon="3.21216">
        <ele>10.71</ele>
        <time>2018-05-08T12:06:43Z</time>
      </trkpt>
      <trkpt lat="43.33405" lon="3.21215">
        <ele>10.23</ele>
        <time>2018-05-08T12:06:44Z</time>
      </trkpt>
      <trkpt lat="43.33382" lon="3.21187">
        <ele>9.75</ele>
        <time>2018-05-08T12:06:56Z</time>
      </trkpt>
      <trkpt lat="43.33357" lon="3.21152">
        <ele>10.23</ele>
        <time>2018-05-08T12:07:11Z</time>
      </trkpt>
      <trkpt lat="43.33332" lon="3.21114">
        <ele>10.23</ele>
        <time>2018-05-08T12:07:24Z</time>
      </trkpt>
      <trkpt lat="43.333" lon="3.21065">
        <ele>11.67</ele>
        <time>2018-05-08T12:07:39Z</time>
      </trkpt>
      <trkpt lat="43.3327" lon="3.21019">
        <ele>13.12</ele>
        <time>2018-05-08T12:07:53Z</time>
      </trkpt>
      <trkpt lat="43.33233" lon="3.20963">
        <ele>12.15</ele>
        <time>2018-05-08T12:08:09Z</time>
      </trkpt>
      <trkpt lat="43.33206" lon="3.20915">
        <ele>11.19</ele>
        <time>2018-05-08T12:08:22Z</time>
      </trkpt>
      <trkpt lat="43.3318" lon="3.20863">
        <ele>9.75</ele>
        <time>2018-05-08T12:08:35Z</time>
      </trkpt>
      <trkpt lat="43.3315" lon="3.20793">
        <ele>9.27</ele>
        <time>2018-05-08T12:08:51Z</time>
      </trkpt>
      <trkpt lat="43.33124" lon="3.20725">
        <ele>8.79</ele>
        <time>2018-05-08T12:09:06Z</time>
      </trkpt>
      <trkpt lat="43.331" lon="3.20651">
        <ele>9.75</ele>
        <time>2018-05-08T12:09:23Z</time>
      </trkpt>
      <trkpt lat="43.33078" lon="3.2058">
        <ele>9.75</ele>
        <time>2018-05-08T12:09:39Z</time>
      </trkpt>
      <trkpt lat="43.33061" lon="3.20513">
        <ele>9.75</ele>
        <time>2018-05-08T12:09:54Z</time>
      </trkpt>
      <trkpt lat="43.33049" lon="3.20439">
        <ele>10.71</ele>
        <time>2018-05-08T12:10:10Z</time>
      </trkpt>
      <trkpt lat="43.33045" lon="3.20372">
        <ele>10.71</ele>
        <time>2018-05-08T12:10:25Z</time>
      </trkpt>
      <trkpt lat="43.33034" lon="3.2032">
        <ele>13.12</ele>
        <time>2018-05-08T12:10:39Z</time>
      </trkpt>
      <trkpt lat="43.33033" lon="3.20289">
        <ele>14.08</ele>
        <time>2018-05-08T12:10:49Z</time>
      </trkpt>
      <trkpt lat="43.33033" lon="3.20286">
        <ele>14.08</ele>
        <time>2018-05-08T12:10:50Z</time>
      </trkpt>
      <trkpt lat="43.33034" lon="3.20283">
        <ele>14.08</ele>
        <time>2018-05-08T12:10:51Z</time>
      </trkpt>
      <trkpt lat="43.33034" lon="3.20281">
        <ele>14.08</ele>
        <time>2018-05-08T12:10:52Z</time>
      </trkpt>
      <trkpt lat="43.33034" lon="3.20278">
        <ele>14.08</ele>
        <time>2018-05-08T12:10:53Z</time>
      </trkpt>
      <trkpt lat="43.33034" lon="3.20276">
        <ele>13.6</ele>
        <time>2018-05-08T12:10:54Z</time>
      </trkpt>
      <trkpt lat="43.33034" lon="3.20265">
        <ele>13.12</ele>
        <time>2018-05-08T12:10:58Z</time>
      </trkpt>
      <trkpt lat="43.33044" lon="3.2026">
        <ele>12.63</ele>
        <time>2018-05-08T12:11:05Z</time>
      </trkpt>
      <trkpt lat="43.33052" lon="3.2024">
        <ele>11.67</ele>
        <time>2018-05-08T12:11:16Z</time>
      </trkpt>
      <trkpt lat="43.3306" lon="3.20194">
        <ele>10.71</ele>
        <time>2018-05-08T12:11:32Z</time>
      </trkpt>
      <trkpt lat="43.33078" lon="3.20135">
        <ele>13.12</ele>
        <time>2018-05-08T12:11:49Z</time>
      </trkpt>
      <trkpt lat="43.33085" lon="3.20094">
        <ele>13.6</ele>
        <time>2018-05-08T12:12:02Z</time>
      </trkpt>
      <trkpt lat="43.33085" lon="3.20084">
        <ele>12.63</ele>
        <time>2018-05-08T12:12:16Z</time>
      </trkpt>
      <trkpt lat="43.33086" lon="3.20082">
        <ele>14.08</ele>
        <time>2018-05-08T12:12:41Z</time>
      </trkpt>
      <trkpt lat="43.33085" lon="3.20081">
        <ele>15.04</ele>
        <time>2018-05-08T12:12:48Z</time>
      </trkpt>
      <trkpt lat="43.33071" lon="3.20054">
        <ele>15.52</ele>
        <time>2018-05-08T12:13:01Z</time>
      </trkpt>
      <trkpt lat="43.33067" lon="3.20016">
        <ele>16.96</ele>
        <time>2018-05-08T12:13:14Z</time>
      </trkpt>
      <trkpt lat="43.33062" lon="3.20003">
        <ele>17.44</ele>
        <time>2018-05-08T12:13:22Z</time>
      </trkpt>
      <trkpt lat="43.3306" lon="3.20004">
        <ele>16.48</ele>
        <time>2018-05-08T12:13:35Z</time>
      </trkpt>
      <trkpt lat="43.33061" lon="3.19998">
        <ele>16</ele>
        <time>2018-05-08T12:13:45Z</time>
      </trkpt>
      <trkpt lat="43.33063" lon="3.19996">
        <ele>16.96</ele>
        <time>2018-05-08T12:14:22Z</time>
      </trkpt>
      <trkpt lat="43.33061" lon="3.19993">
        <ele>18.88</ele>
        <time>2018-05-08T12:14:52Z</time>
      </trkpt>
      <trkpt lat="43.33058" lon="3.19999">
        <ele>17.92</ele>
        <time>2018-05-08T12:14:57Z</time>
      </trkpt>
      <trkpt lat="43.33046" lon="3.20011">
        <ele>16</ele>
        <time>2018-05-08T12:15:05Z</time>
      </trkpt>
      <trkpt lat="43.33043" lon="3.20023">
        <ele>16.48</ele>
        <time>2018-05-08T12:15:10Z</time>
      </trkpt>
      <trkpt lat="43.33055" lon="3.20086">
        <ele>15.52</ele>
        <time>2018-05-08T12:15:28Z</time>
      </trkpt>
      <trkpt lat="43.33054" lon="3.2012">
        <ele>18.4</ele>
        <time>2018-05-08T12:15:41Z</time>
      </trkpt>
      <trkpt lat="43.33051" lon="3.20136">
        <ele>19.84</ele>
        <time>2018-05-08T12:15:46Z</time>
      </trkpt>
      <trkpt lat="43.33034" lon="3.20144">
        <ele>23.21</ele>
        <time>2018-05-08T12:15:57Z</time>
      </trkpt>
      <trkpt lat="43.3303" lon="3.20144">
        <ele>23.69</ele>
        <time>2018-05-08T12:16:12Z</time>
      </trkpt>
      <trkpt lat="43.33035" lon="3.20143">
        <ele>22.73</ele>
        <time>2018-05-08T12:16:28Z</time>
      </trkpt>
      <trkpt lat="43.33037" lon="3.20143">
        <ele>22.25</ele>
        <time>2018-05-08T12:16:29Z</time>
      </trkpt>
      <trkpt lat="43.33041" lon="3.20145">
        <ele>22.73</ele>
        <time>2018-05-08T12:16:45Z</time>
      </trkpt>
      <trkpt lat="43.33043" lon="3.20145">
        <ele>22.73</ele>
        <time>2018-05-08T12:17:17Z</time>
      </trkpt>
      <trkpt lat="43.33053" lon="3.20137">
        <ele>21.77</ele>
        <time>2018-05-08T12:17:43Z</time>
      </trkpt>
      <trkpt lat="43.33055" lon="3.20132">
        <ele>21.29</ele>
        <time>2018-05-08T12:17:44Z</time>
      </trkpt>
      <trkpt lat="43.33054" lon="3.20075">
        <ele>17.44</ele>
        <time>2018-05-08T12:17:52Z</time>
      </trkpt>
      <trkpt lat="43.33042" lon="3.20026">
        <ele>15.52</ele>
        <time>2018-05-08T12:18:03Z</time>
      </trkpt>
      <trkpt lat="43.3305" lon="3.20026">
        <ele>15.04</ele>
        <time>2018-05-08T12:18:11Z</time>
      </trkpt>
      <trkpt lat="43.33067" lon="3.20082">
        <ele>13.6</ele>
        <time>2018-05-08T12:18:27Z</time>
      </trkpt>
      <trkpt lat="43.33072" lon="3.20111">
        <ele>12.63</ele>
        <time>2018-05-08T12:18:38Z</time>
      </trkpt>
      <trkpt lat="43.3307" lon="3.20115">
        <ele>18.88</ele>
        <time>2018-05-08T12:19:13Z</time>
      </trkpt>
      <trkpt lat="43.33072" lon="3.20114">
        <ele>23.21</ele>
        <time>2018-05-08T12:19:50Z</time>
      </trkpt>
      <trkpt lat="43.33071" lon="3.20118">
        <ele>22.73</ele>
        <time>2018-05-08T12:19:55Z</time>
      </trkpt>
      <trkpt lat="43.33072" lon="3.2012">
        <ele>21.77</ele>
        <time>2018-05-08T12:20:04Z</time>
      </trkpt>
      <trkpt lat="43.33073" lon="3.20117">
        <ele>19.84</ele>
        <time>2018-05-08T12:20:23Z</time>
      </trkpt>
      <trkpt lat="43.33073" lon="3.20115">
        <ele>18.4</ele>
        <time>2018-05-08T12:20:47Z</time>
      </trkpt>
      <trkpt lat="43.33073" lon="3.20116">
        <ele>16.96</ele>
        <time>2018-05-08T12:21:19Z</time>
      </trkpt>
      <trkpt lat="43.33073" lon="3.20117">
        <ele>16</ele>
        <time>2018-05-08T12:21:53Z</time>
      </trkpt>
      <trkpt lat="43.33072" lon="3.20115">
        <ele>16.96</ele>
        <time>2018-05-08T12:22:30Z</time>
      </trkpt>
      <trkpt lat="43.33072" lon="3.20116">
        <ele>16.96</ele>
        <time>2018-05-08T12:22:55Z</time>
      </trkpt>
      <trkpt lat="43.3307" lon="3.20112">
        <ele>16.96</ele>
        <time>2018-05-08T12:23:01Z</time>
      </trkpt>
      <trkpt lat="43.33072" lon="3.20119">
        <ele>16.96</ele>
        <time>2018-05-08T12:23:13Z</time>
      </trkpt>
      <trkpt lat="43.3307" lon="3.20121">
        <ele>20.81</ele>
        <time>2018-05-08T12:23:46Z</time>
      </trkpt>
      <trkpt lat="43.33071" lon="3.20124">
        <ele>21.29</ele>
        <time>2018-05-08T12:24:25Z</time>
      </trkpt>
      <trkpt lat="43.33072" lon="3.20123">
        <ele>22.25</ele>
        <time>2018-05-08T12:24:53Z</time>
      </trkpt>
      <trkpt lat="43.33071" lon="3.20126">
        <ele>23.69</ele>
        <time>2018-05-08T12:25:18Z</time>
      </trkpt>
      <trkpt lat="43.33071" lon="3.20124">
        <ele>24.65</ele>
        <time>2018-05-08T12:25:42Z</time>
      </trkpt>
      <trkpt lat="43.3307" lon="3.20125">
        <ele>25.13</ele>
        <time>2018-05-08T12:25:49Z</time>
      </trkpt>
      <trkpt lat="43.33066" lon="3.20138">
        <ele>24.65</ele>
        <time>2018-05-08T12:25:56Z</time>
      </trkpt>
      <trkpt lat="43.33048" lon="3.20178">
        <ele>22.25</ele>
        <time>2018-05-08T12:26:08Z</time>
      </trkpt>
      <trkpt lat="43.33053" lon="3.20176">
        <ele>21.29</ele>
        <time>2018-05-08T12:26:16Z</time>
      </trkpt>
      <trkpt lat="43.33065" lon="3.20141">
        <ele>18.88</ele>
        <time>2018-05-08T12:26:29Z</time>
      </trkpt>
      <trkpt lat="43.33069" lon="3.20103">
        <ele>18.4</ele>
        <time>2018-05-08T12:26:41Z</time>
      </trkpt>
      <trkpt lat="43.3306" lon="3.20065">
        <ele>18.4</ele>
        <time>2018-05-08T12:26:55Z</time>
      </trkpt>
      <trkpt lat="43.33048" lon="3.20022">
        <ele>17.92</ele>
        <time>2018-05-08T12:27:08Z</time>
      </trkpt>
      <trkpt lat="43.3306" lon="3.20004">
        <ele>17.44</ele>
        <time>2018-05-08T12:27:20Z</time>
      </trkpt>
      <trkpt lat="43.33069" lon="3.20033">
        <ele>16.96</ele>
        <time>2018-05-08T12:27:34Z</time>
      </trkpt>
      <trkpt lat="43.3308" lon="3.20078">
        <ele>16</ele>
        <time>2018-05-08T12:27:47Z</time>
      </trkpt>
      <trkpt lat="43.33078" lon="3.20128">
        <ele>14.56</ele>
        <time>2018-05-08T12:27:59Z</time>
      </trkpt>
      <trkpt lat="43.33076" lon="3.20133">
        <ele>14.56</ele>
        <time>2018-05-08T12:28:00Z</time>
      </trkpt>
      <trkpt lat="43.33059" lon="3.20186">
        <ele>13.6</ele>
        <time>2018-05-08T12:28:12Z</time>
      </trkpt>
      <trkpt lat="43.33056" lon="3.20185">
        <ele>14.08</ele>
        <time>2018-05-08T12:28:27Z</time>
      </trkpt>
      <trkpt lat="43.33051" lon="3.2018">
        <ele>13.12</ele>
        <time>2018-05-08T12:28:40Z</time>
      </trkpt>
      <trkpt lat="43.33054" lon="3.20179">
        <ele>13.6</ele>
        <time>2018-05-08T12:28:43Z</time>
      </trkpt>
      <trkpt lat="43.33061" lon="3.20183">
        <ele>14.56</ele>
        <time>2018-05-08T12:28:49Z</time>
      </trkpt>
      <trkpt lat="43.33086" lon="3.20195">
        <ele>14.08</ele>
        <time>2018-05-08T12:29:05Z</time>
      </trkpt>
      <trkpt lat="43.33086" lon="3.20196">
        <ele>16</ele>
        <time>2018-05-08T12:29:26Z</time>
      </trkpt>
      <trkpt lat="43.33087" lon="3.20204">
        <ele>16.96</ele>
        <time>2018-05-08T12:29:44Z</time>
      </trkpt>
      <trkpt lat="43.33085" lon="3.20211">
        <ele>15.04</ele>
        <time>2018-05-08T12:30:00Z</time>
      </trkpt>
      <trkpt lat="43.33082" lon="3.20207">
        <ele>12.63</ele>
        <time>2018-05-08T12:30:14Z</time>
      </trkpt>
      <trkpt lat="43.33081" lon="3.20209">
        <ele>15.04</ele>
        <time>2018-05-08T12:30:50Z</time>
      </trkpt>
      <trkpt lat="43.3308" lon="3.20208">
        <ele>16.48</ele>
        <time>2018-05-08T12:31:19Z</time>
      </trkpt>
      <trkpt lat="43.33081" lon="3.20202">
        <ele>15.52</ele>
        <time>2018-05-08T12:31:30Z</time>
      </trkpt>
      <trkpt lat="43.33093" lon="3.20161">
        <ele>11.19</ele>
        <time>2018-05-08T12:31:44Z</time>
      </trkpt>
      <trkpt lat="43.33104" lon="3.20121">
        <ele>10.23</ele>
        <time>2018-05-08T12:31:58Z</time>
      </trkpt>
      <trkpt lat="43.3311" lon="3.20114">
        <ele>10.23</ele>
        <time>2018-05-08T12:32:10Z</time>
      </trkpt>
      <trkpt lat="43.33113" lon="3.20114">
        <ele>14.08</ele>
        <time>2018-05-08T12:32:39Z</time>
      </trkpt>
      <trkpt lat="43.33113" lon="3.20113">
        <ele>11.19</ele>
        <time>2018-05-08T12:33:07Z</time>
      </trkpt>
      <trkpt lat="43.33111" lon="3.20113">
        <ele>10.71</ele>
        <time>2018-05-08T12:33:22Z</time>
      </trkpt>
      <trkpt lat="43.3311" lon="3.20115">
        <ele>10.71</ele>
        <time>2018-05-08T12:33:23Z</time>
      </trkpt>
      <trkpt lat="43.33109" lon="3.20117">
        <ele>10.71</ele>
        <time>2018-05-08T12:33:24Z</time>
      </trkpt>
      <trkpt lat="43.33109" lon="3.2012">
        <ele>10.71</ele>
        <time>2018-05-08T12:33:25Z</time>
      </trkpt>
      <trkpt lat="43.33108" lon="3.20123">
        <ele>10.71</ele>
        <time>2018-05-08T12:33:26Z</time>
      </trkpt>
      <trkpt lat="43.33109" lon="3.20126">
        <ele>10.23</ele>
        <time>2018-05-08T12:33:27Z</time>
      </trkpt>
      <trkpt lat="43.3311" lon="3.20129">
        <ele>10.23</ele>
        <time>2018-05-08T12:33:28Z</time>
      </trkpt>
      <trkpt lat="43.33111" lon="3.20133">
        <ele>9.75</ele>
        <time>2018-05-08T12:33:29Z</time>
      </trkpt>
      <trkpt lat="43.33113" lon="3.20136">
        <ele>9.27</ele>
        <time>2018-05-08T12:33:30Z</time>
      </trkpt>
      <trkpt lat="43.3312" lon="3.20152">
        <ele>6.87</ele>
        <time>2018-05-08T12:33:36Z</time>
      </trkpt>
      <trkpt lat="43.33122" lon="3.20153">
        <ele>6.39</ele>
        <time>2018-05-08T12:33:37Z</time>
      </trkpt>
      <trkpt lat="43.33129" lon="3.20149">
        <ele>6.39</ele>
        <time>2018-05-08T12:33:40Z</time>
      </trkpt>
      <trkpt lat="43.3314" lon="3.2014">
        <ele>6.39</ele>
        <time>2018-05-08T12:33:47Z</time>
      </trkpt>
      <trkpt lat="43.33134" lon="3.20111">
        <ele>7.35</ele>
        <time>2018-05-08T12:34:01Z</time>
      </trkpt>
      <trkpt lat="43.33122" lon="3.20077">
        <ele>7.83</ele>
        <time>2018-05-08T12:34:17Z</time>
      </trkpt>
      <trkpt lat="43.3312" lon="3.20068">
        <ele>9.75</ele>
        <time>2018-05-08T12:34:33Z</time>
      </trkpt>
      <trkpt lat="43.33118" lon="3.20067">
        <ele>12.63</ele>
        <time>2018-05-08T12:35:00Z</time>
      </trkpt>
      <trkpt lat="43.33118" lon="3.20068">
        <ele>12.15</ele>
        <time>2018-05-08T12:35:28Z</time>
      </trkpt>
      <trkpt lat="43.3312" lon="3.20064">
        <ele>14.08</ele>
        <time>2018-05-08T12:35:43Z</time>
      </trkpt>
      <trkpt lat="43.33119" lon="3.2006">
        <ele>14.08</ele>
        <time>2018-05-08T12:35:56Z</time>
      </trkpt>
      <trkpt lat="43.33118" lon="3.20051">
        <ele>11.67</ele>
        <time>2018-05-08T12:36:16Z</time>
      </trkpt>
      <trkpt lat="43.3312" lon="3.20054">
        <ele>-1.3</ele>
        <time>2018-05-08T12:37:23Z</time>
      </trkpt>
      <trkpt lat="43.3312" lon="3.20065">
        <ele>14.08</ele>
        <time>2018-05-08T12:37:46Z</time>
      </trkpt>
      <trkpt lat="43.3312" lon="3.20066">
        <ele>16.48</ele>
        <time>2018-05-08T12:37:50Z</time>
      </trkpt>
      <trkpt lat="43.33118" lon="3.20069">
        <ele>16.96</ele>
        <time>2018-05-08T12:37:52Z</time>
      </trkpt>
      <trkpt lat="43.33112" lon="3.2006">
        <ele>16.48</ele>
        <time>2018-05-08T12:37:59Z</time>
      </trkpt>
      <trkpt lat="43.33101" lon="3.20031">
        <ele>16.96</ele>
        <time>2018-05-08T12:38:14Z</time>
      </trkpt>
      <trkpt lat="43.33096" lon="3.20023">
        <ele>16.96</ele>
        <time>2018-05-08T12:38:18Z</time>
      </trkpt>
      <trkpt lat="43.33093" lon="3.20015">
        <ele>16.96</ele>
        <time>2018-05-08T12:38:22Z</time>
      </trkpt>
      <trkpt lat="43.3308" lon="3.19975">
        <ele>17.92</ele>
        <time>2018-05-08T12:38:39Z</time>
      </trkpt>
      <trkpt lat="43.33067" lon="3.19942">
        <ele>19.84</ele>
        <time>2018-05-08T12:38:54Z</time>
      </trkpt>
      <trkpt lat="43.33055" lon="3.19912">
        <ele>22.73</ele>
        <time>2018-05-08T12:39:07Z</time>
      </trkpt>
      <trkpt lat="43.33041" lon="3.19876">
        <ele>22.25</ele>
        <time>2018-05-08T12:39:23Z</time>
      </trkpt>
      <trkpt lat="43.33031" lon="3.19863">
        <ele>22.25</ele>
        <time>2018-05-08T12:39:31Z</time>
      </trkpt>
      <trkpt lat="43.33022" lon="3.19831">
        <ele>22.25</ele>
        <time>2018-05-08T12:39:47Z</time>
      </trkpt>
      <trkpt lat="43.33014" lon="3.19788">
        <ele>23.69</ele>
        <time>2018-05-08T12:40:04Z</time>
      </trkpt>
      <trkpt lat="43.33012" lon="3.19768">
        <ele>26.09</ele>
        <time>2018-05-08T12:40:12Z</time>
      </trkpt>
      <trkpt lat="43.33018" lon="3.19733">
        <ele>27.05</ele>
        <time>2018-05-08T12:40:27Z</time>
      </trkpt>
      <trkpt lat="43.33029" lon="3.19712">
        <ele>27.05</ele>
        <time>2018-05-08T12:40:41Z</time>
      </trkpt>
      <trkpt lat="43.3303" lon="3.1971">
        <ele>26.57</ele>
        <time>2018-05-08T12:41:03Z</time>
      </trkpt>
      <trkpt lat="43.3303" lon="3.1971">
        <ele>27.05</ele>
        <time>2018-05-08T12:41:32Z</time>
      </trkpt>
      <trkpt lat="43.3304" lon="3.19685">
        <ele>26.57</ele>
        <time>2018-05-08T12:41:46Z</time>
      </trkpt>
      <trkpt lat="43.33052" lon="3.19648">
        <ele>26.57</ele>
        <time>2018-05-08T12:42:01Z</time>
      </trkpt>
      <trkpt lat="43.33054" lon="3.19604">
        <ele>26.57</ele>
        <time>2018-05-08T12:42:15Z</time>
      </trkpt>
      <trkpt lat="43.33055" lon="3.19601">
        <ele>27.05</ele>
        <time>2018-05-08T12:42:16Z</time>
      </trkpt>
      <trkpt lat="43.33058" lon="3.19592">
        <ele>27.53</ele>
        <time>2018-05-08T12:42:21Z</time>
      </trkpt>
      <trkpt lat="43.33058" lon="3.1959">
        <ele>27.53</ele>
        <time>2018-05-08T12:42:22Z</time>
      </trkpt>
      <trkpt lat="43.33058" lon="3.19587">
        <ele>27.53</ele>
        <time>2018-05-08T12:42:23Z</time>
      </trkpt>
      <trkpt lat="43.33062" lon="3.19554">
        <ele>26.09</ele>
        <time>2018-05-08T12:42:38Z</time>
      </trkpt>
      <trkpt lat="43.33066" lon="3.19499">
        <ele>24.65</ele>
        <time>2018-05-08T12:42:55Z</time>
      </trkpt>
      <trkpt lat="43.33071" lon="3.19474">
        <ele>22.73</ele>
        <time>2018-05-08T12:43:09Z</time>
      </trkpt>
      <trkpt lat="43.33073" lon="3.1947">
        <ele>22.25</ele>
        <time>2018-05-08T12:43:16Z</time>
      </trkpt>
      <trkpt lat="43.33078" lon="3.19463">
        <ele>21.77</ele>
        <time>2018-05-08T12:43:22Z</time>
      </trkpt>
      <trkpt lat="43.33083" lon="3.1946">
        <ele>23.21</ele>
        <time>2018-05-08T12:43:34Z</time>
      </trkpt>
      <trkpt lat="43.33081" lon="3.19457">
        <ele>23.21</ele>
        <time>2018-05-08T12:43:52Z</time>
      </trkpt>
      <trkpt lat="43.33078" lon="3.19457">
        <ele>25.61</ele>
        <time>2018-05-08T12:44:13Z</time>
      </trkpt>
      <trkpt lat="43.33079" lon="3.19458">
        <ele>28.5</ele>
        <time>2018-05-08T12:44:41Z</time>
      </trkpt>
      <trkpt lat="43.33078" lon="3.19457">
        <ele>28.5</ele>
        <time>2018-05-08T12:45:03Z</time>
      </trkpt>
      <trkpt lat="43.33078" lon="3.1946">
        <ele>28.5</ele>
        <time>2018-05-08T12:45:24Z</time>
      </trkpt>
      <trkpt lat="43.33078" lon="3.19458">
        <ele>27.53</ele>
        <time>2018-05-08T12:45:46Z</time>
      </trkpt>
      <trkpt lat="43.33077" lon="3.19457">
        <ele>27.05</ele>
        <time>2018-05-08T12:46:04Z</time>
      </trkpt>
      <trkpt lat="43.33077" lon="3.19457">
        <ele>27.05</ele>
        <time>2018-05-08T12:46:20Z</time>
      </trkpt>
      <trkpt lat="43.33082" lon="3.19458">
        <ele>25.13</ele>
        <time>2018-05-08T12:46:34Z</time>
      </trkpt>
      <trkpt lat="43.33083" lon="3.19466">
        <ele>26.09</ele>
        <time>2018-05-08T12:46:48Z</time>
      </trkpt>
      <trkpt lat="43.33084" lon="3.19474">
        <ele>24.17</ele>
        <time>2018-05-08T12:47:04Z</time>
      </trkpt>
      <trkpt lat="43.33082" lon="3.19484">
        <ele>23.69</ele>
        <time>2018-05-08T12:47:20Z</time>
      </trkpt>
      <trkpt lat="43.33082" lon="3.19486">
        <ele>24.65</ele>
        <time>2018-05-08T12:47:38Z</time>
      </trkpt>
      <trkpt lat="43.33082" lon="3.19486">
        <ele>24.65</ele>
        <time>2018-05-08T12:48:13Z</time>
      </trkpt>
      <trkpt lat="43.33084" lon="3.19483">
        <ele>23.21</ele>
        <time>2018-05-08T12:48:34Z</time>
      </trkpt>
      <trkpt lat="43.33083" lon="3.19478">
        <ele>24.17</ele>
        <time>2018-05-08T12:48:47Z</time>
      </trkpt>
      <trkpt lat="43.33083" lon="3.19468">
        <ele>24.17</ele>
        <time>2018-05-08T12:48:52Z</time>
      </trkpt>
      <trkpt lat="43.33073" lon="3.19468">
        <ele>23.69</ele>
        <time>2018-05-08T12:48:59Z</time>
      </trkpt>
      <trkpt lat="43.33064" lon="3.19509">
        <ele>26.57</ele>
        <time>2018-05-08T12:49:15Z</time>
      </trkpt>
      <trkpt lat="43.33062" lon="3.19553">
        <ele>28.5</ele>
        <time>2018-05-08T12:49:30Z</time>
      </trkpt>
      <trkpt lat="43.3306" lon="3.19584">
        <ele>28.5</ele>
        <time>2018-05-08T12:49:46Z</time>
      </trkpt>
      <trkpt lat="43.33061" lon="3.19622">
        <ele>28.98</ele>
        <time>2018-05-08T12:50:02Z</time>
      </trkpt>
      <trkpt lat="43.33057" lon="3.19649">
        <ele>29.46</ele>
        <time>2018-05-08T12:50:13Z</time>
      </trkpt>
      <trkpt lat="43.3305" lon="3.1968">
        <ele>30.9</ele>
        <time>2018-05-08T12:50:27Z</time>
      </trkpt>
      <trkpt lat="43.33052" lon="3.19683">
        <ele>31.86</ele>
        <time>2018-05-08T12:50:42Z</time>
      </trkpt>
      <trkpt lat="43.3305" lon="3.19686">
        <ele>31.38</ele>
        <time>2018-05-08T12:50:59Z</time>
      </trkpt>
      <trkpt lat="43.33049" lon="3.19682">
        <ele>30.42</ele>
        <time>2018-05-08T12:51:19Z</time>
      </trkpt>
      <trkpt lat="43.33051" lon="3.19683">
        <ele>27.05</ele>
        <time>2018-05-08T12:51:49Z</time>
      </trkpt>
      <trkpt lat="43.33048" lon="3.19682">
        <ele>26.57</ele>
        <time>2018-05-08T12:51:56Z</time>
      </trkpt>
      <trkpt lat="43.33036" lon="3.19712">
        <ele>26.57</ele>
        <time>2018-05-08T12:52:09Z</time>
      </trkpt>
      <trkpt lat="43.33022" lon="3.19755">
        <ele>26.57</ele>
        <time>2018-05-08T12:52:24Z</time>
      </trkpt>
      <trkpt lat="43.33018" lon="3.19761">
        <ele>26.09</ele>
        <time>2018-05-08T12:52:27Z</time>
      </trkpt>
      <trkpt lat="43.33017" lon="3.19763">
        <ele>26.09</ele>
        <time>2018-05-08T12:52:28Z</time>
      </trkpt>
      <trkpt lat="43.33016" lon="3.19765">
        <ele>26.09</ele>
        <time>2018-05-08T12:52:29Z</time>
      </trkpt>
      <trkpt lat="43.33015" lon="3.19775">
        <ele>26.09</ele>
        <time>2018-05-08T12:52:37Z</time>
      </trkpt>
      <trkpt lat="43.33015" lon="3.19777">
        <ele>26.09</ele>
        <time>2018-05-08T12:52:38Z</time>
      </trkpt>
      <trkpt lat="43.33015" lon="3.19779">
        <ele>26.57</ele>
        <time>2018-05-08T12:52:39Z</time>
      </trkpt>
      <trkpt lat="43.33015" lon="3.19781">
        <ele>26.57</ele>
        <time>2018-05-08T12:52:40Z</time>
      </trkpt>
      <trkpt lat="43.33014" lon="3.19783">
        <ele>26.57</ele>
        <time>2018-05-08T12:52:41Z</time>
      </trkpt>
      <trkpt lat="43.33014" lon="3.19785">
        <ele>26.57</ele>
        <time>2018-05-08T12:52:42Z</time>
      </trkpt>
      <trkpt lat="43.33017" lon="3.19801">
        <ele>28.02</ele>
        <time>2018-05-08T12:52:54Z</time>
      </trkpt>
      <trkpt lat="43.33015" lon="3.19804">
        <ele>29.94</ele>
        <time>2018-05-08T12:53:07Z</time>
      </trkpt>
      <trkpt lat="43.33017" lon="3.19802">
        <ele>24.65</ele>
        <time>2018-05-08T12:53:18Z</time>
      </trkpt>
      <trkpt lat="43.33031" lon="3.19809">
        <ele>24.65</ele>
        <time>2018-05-08T12:53:43Z</time>
      </trkpt>
      <trkpt lat="43.32992" lon="3.19814">
        <ele>47.72</ele>
        <time>2018-05-08T12:59:46Z</time>
      </trkpt>
      <trkpt lat="43.33009" lon="3.19809">
        <ele>40.03</ele>
        <time>2018-05-08T13:00:03Z</time>
      </trkpt>
      <trkpt lat="43.33013" lon="3.19816">
        <ele>38.59</ele>
        <time>2018-05-08T13:00:35Z</time>
      </trkpt>
      <trkpt lat="43.33014" lon="3.19818">
        <ele>37.63</ele>
        <time>2018-05-08T13:00:38Z</time>
      </trkpt>
      <trkpt lat="43.33027" lon="3.19858">
        <ele>34.74</ele>
        <time>2018-05-08T13:00:53Z</time>
      </trkpt>
      <trkpt lat="43.33038" lon="3.19879">
        <ele>32.34</ele>
        <time>2018-05-08T13:01:08Z</time>
      </trkpt>
      <trkpt lat="43.33053" lon="3.19909">
        <ele>29.94</ele>
        <time>2018-05-08T13:01:22Z</time>
      </trkpt>
      <trkpt lat="43.33069" lon="3.19949">
        <ele>27.53</ele>
        <time>2018-05-08T13:01:35Z</time>
      </trkpt>
      <trkpt lat="43.33089" lon="3.20001">
        <ele>26.09</ele>
        <time>2018-05-08T13:01:48Z</time>
      </trkpt>
      <trkpt lat="43.33115" lon="3.20069">
        <ele>22.73</ele>
        <time>2018-05-08T13:02:01Z</time>
      </trkpt>
      <trkpt lat="43.33138" lon="3.20125">
        <ele>20.32</ele>
        <time>2018-05-08T13:02:12Z</time>
      </trkpt>
      <trkpt lat="43.33139" lon="3.20131">
        <ele>20.32</ele>
        <time>2018-05-08T13:02:13Z</time>
      </trkpt>
      <trkpt lat="43.33139" lon="3.20135">
        <ele>20.32</ele>
        <time>2018-05-08T13:02:14Z</time>
      </trkpt>
      <trkpt lat="43.33138" lon="3.20139">
        <ele>20.81</ele>
        <time>2018-05-08T13:02:15Z</time>
      </trkpt>
      <trkpt lat="43.33131" lon="3.20147">
        <ele>20.32</ele>
        <time>2018-05-08T13:02:18Z</time>
      </trkpt>
      <trkpt lat="43.33125" lon="3.20152">
        <ele>19.84</ele>
        <time>2018-05-08T13:02:20Z</time>
      </trkpt>
      <trkpt lat="43.33131" lon="3.2018">
        <ele>15.04</ele>
        <time>2018-05-08T13:02:28Z</time>
      </trkpt>
      <trkpt lat="43.33161" lon="3.20251">
        <ele>10.71</ele>
        <time>2018-05-08T13:02:42Z</time>
      </trkpt>
      <trkpt lat="43.33177" lon="3.20295">
        <ele>7.35</ele>
        <time>2018-05-08T13:02:54Z</time>
      </trkpt>
      <trkpt lat="43.33201" lon="3.20356">
        <ele>2.06</ele>
        <time>2018-05-08T13:03:09Z</time>
      </trkpt>
      <trkpt lat="43.33223" lon="3.20405">
        <ele>0.14</ele>
        <time>2018-05-08T13:03:22Z</time>
      </trkpt>
      <trkpt lat="43.33249" lon="3.20447">
        <ele>2.06</ele>
        <time>2018-05-08T13:03:35Z</time>
      </trkpt>
      <trkpt lat="43.33279" lon="3.20501">
        <ele>3.5</ele>
        <time>2018-05-08T13:03:50Z</time>
      </trkpt>
      <trkpt lat="43.33313" lon="3.20551">
        <ele>4.46</ele>
        <time>2018-05-08T13:04:05Z</time>
      </trkpt>
      <trkpt lat="43.33351" lon="3.20601">
        <ele>6.39</ele>
        <time>2018-05-08T13:04:20Z</time>
      </trkpt>
      <trkpt lat="43.33385" lon="3.20644">
        <ele>8.79</ele>
        <time>2018-05-08T13:04:33Z</time>
      </trkpt>
      <trkpt lat="43.33418" lon="3.20695">
        <ele>6.87</ele>
        <time>2018-05-08T13:04:46Z</time>
      </trkpt>
      <trkpt lat="43.33436" lon="3.20726">
        <ele>3.98</ele>
        <time>2018-05-08T13:04:58Z</time>
      </trkpt>
      <trkpt lat="43.33448" lon="3.20738">
        <ele>2.06</ele>
        <time>2018-05-08T13:05:10Z</time>
      </trkpt>
      <trkpt lat="43.33476" lon="3.20773">
        <ele>2.06</ele>
        <time>2018-05-08T13:05:24Z</time>
      </trkpt>
      <trkpt lat="43.33517" lon="3.2082">
        <ele>3.98</ele>
        <time>2018-05-08T13:05:38Z</time>
      </trkpt>
      <trkpt lat="43.33553" lon="3.20869">
        <ele>4.94</ele>
        <time>2018-05-08T13:05:53Z</time>
      </trkpt>
      <trkpt lat="43.33565" lon="3.20881">
        <ele>6.39</ele>
        <time>2018-05-08T13:06:00Z</time>
      </trkpt>
      <trkpt lat="43.33571" lon="3.20879">
        <ele>6.39</ele>
        <time>2018-05-08T13:06:04Z</time>
      </trkpt>
      <trkpt lat="43.33574" lon="3.20877">
        <ele>5.91</ele>
        <time>2018-05-08T13:06:05Z</time>
      </trkpt>
      <trkpt lat="43.33576" lon="3.20874">
        <ele>4.94</ele>
        <time>2018-05-08T13:06:06Z</time>
      </trkpt>
      <trkpt lat="43.33591" lon="3.20855">
        <ele>3.98</ele>
        <time>2018-05-08T13:06:14Z</time>
      </trkpt>
      <trkpt lat="43.33592" lon="3.20855">
        <ele>3.98</ele>
        <time>2018-05-08T13:06:15Z</time>
      </trkpt>
      <trkpt lat="43.33594" lon="3.20855">
        <ele>3.98</ele>
        <time>2018-05-08T13:06:16Z</time>
      </trkpt>
      <trkpt lat="43.33596" lon="3.20849">
        <ele>2.54</ele>
        <time>2018-05-08T13:06:26Z</time>
      </trkpt>
      <trkpt lat="43.33596" lon="3.20847">
        <ele>2.54</ele>
        <time>2018-05-08T13:06:27Z</time>
      </trkpt>
      <trkpt lat="43.33598" lon="3.20846">
        <ele>2.54</ele>
        <time>2018-05-08T13:06:28Z</time>
      </trkpt>
      <trkpt lat="43.336" lon="3.20843">
        <ele>2.54</ele>
        <time>2018-05-08T13:06:29Z</time>
      </trkpt>
      <trkpt lat="43.33602" lon="3.20841">
        <ele>2.54</ele>
        <time>2018-05-08T13:06:30Z</time>
      </trkpt>
      <trkpt lat="43.33636" lon="3.2081">
        <ele>1.58</ele>
        <time>2018-05-08T13:06:43Z</time>
      </trkpt>
      <trkpt lat="43.33659" lon="3.2079">
        <ele>0.62</ele>
        <time>2018-05-08T13:06:57Z</time>
      </trkpt>
      <trkpt lat="43.33694" lon="3.2076">
        <ele>-0.34</ele>
        <time>2018-05-08T13:07:11Z</time>
      </trkpt>
      <trkpt lat="43.33725" lon="3.2074">
        <ele>-1.3</ele>
        <time>2018-05-08T13:07:23Z</time>
      </trkpt>
      <trkpt lat="43.33751" lon="3.20727">
        <ele>-4.67</ele>
        <time>2018-05-08T13:07:39Z</time>
      </trkpt>
      <trkpt lat="43.33757" lon="3.20714">
        <ele>-5.63</ele>
        <time>2018-05-08T13:07:53Z</time>
      </trkpt>
      <trkpt lat="43.33757" lon="3.20703">
        <ele>-1.79</ele>
        <time>2018-05-08T13:08:15Z</time>
      </trkpt>
      <trkpt lat="43.33756" lon="3.20698">
        <ele>2.54</ele>
        <time>2018-05-08T13:08:37Z</time>
      </trkpt>
      <trkpt lat="43.33757" lon="3.20695">
        <ele>1.58</ele>
        <time>2018-05-08T13:08:40Z</time>
      </trkpt>
      <trkpt lat="43.33758" lon="3.20694">
        <ele>1.58</ele>
        <time>2018-05-08T13:08:41Z</time>
      </trkpt>
      <trkpt lat="43.33759" lon="3.20694">
        <ele>0.62</ele>
        <time>2018-05-08T13:08:42Z</time>
      </trkpt>
      <trkpt lat="43.33761" lon="3.20692">
        <ele>0.14</ele>
        <time>2018-05-08T13:08:43Z</time>
      </trkpt>
      <trkpt lat="43.33762" lon="3.20691">
        <ele>0.14</ele>
        <time>2018-05-08T13:08:44Z</time>
      </trkpt>
      <trkpt lat="43.33764" lon="3.20689">
        <ele>-0.34</ele>
        <time>2018-05-08T13:08:45Z</time>
      </trkpt>
      <trkpt lat="43.33767" lon="3.20688">
        <ele>-0.34</ele>
        <time>2018-05-08T13:08:46Z</time>
      </trkpt>
      <trkpt lat="43.33795" lon="3.20672">
        <ele>-1.79</ele>
        <time>2018-05-08T13:08:57Z</time>
      </trkpt>
      <trkpt lat="43.33796" lon="3.20669">
        <ele>-1.79</ele>
        <time>2018-05-08T13:08:58Z</time>
      </trkpt>
      <trkpt lat="43.33797" lon="3.20666">
        <ele>-1.79</ele>
        <time>2018-05-08T13:08:59Z</time>
      </trkpt>
      <trkpt lat="43.33799" lon="3.20664">
        <ele>-1.79</ele>
        <time>2018-05-08T13:09:00Z</time>
      </trkpt>
      <trkpt lat="43.33801" lon="3.20662">
        <ele>-1.3</ele>
        <time>2018-05-08T13:09:01Z</time>
      </trkpt>
      <trkpt lat="43.33804" lon="3.20658">
        <ele>-0.82</ele>
        <time>2018-05-08T13:09:03Z</time>
      </trkpt>
      <trkpt lat="43.33805" lon="3.20655">
        <ele>-0.82</ele>
        <time>2018-05-08T13:09:04Z</time>
      </trkpt>
      <trkpt lat="43.33809" lon="3.20649">
        <ele>-0.34</ele>
        <time>2018-05-08T13:09:07Z</time>
      </trkpt>
      <trkpt lat="43.33811" lon="3.20648">
        <ele>-0.34</ele>
        <time>2018-05-08T13:09:08Z</time>
      </trkpt>
      <trkpt lat="43.33818" lon="3.20647">
        <ele>0.62</ele>
        <time>2018-05-08T13:09:20Z</time>
      </trkpt>
      <trkpt lat="43.33823" lon="3.20646">
        <ele>1.1</ele>
        <time>2018-05-08T13:09:22Z</time>
      </trkpt>
      <trkpt lat="43.33826" lon="3.20645">
        <ele>1.58</ele>
        <time>2018-05-08T13:09:23Z</time>
      </trkpt>
      <trkpt lat="43.33852" lon="3.20632">
        <ele>-1.79</ele>
        <time>2018-05-08T13:09:34Z</time>
      </trkpt>
      <trkpt lat="43.33867" lon="3.20636">
        <ele>-1.3</ele>
        <time>2018-05-08T13:09:43Z</time>
      </trkpt>
      <trkpt lat="43.33871" lon="3.20633">
        <ele>-1.3</ele>
        <time>2018-05-08T13:09:46Z</time>
      </trkpt>
      <trkpt lat="43.33874" lon="3.20633">
        <ele>-1.3</ele>
        <time>2018-05-08T13:09:47Z</time>
      </trkpt>
      <trkpt lat="43.33889" lon="3.20634">
        <ele>-0.82</ele>
        <time>2018-05-08T13:09:57Z</time>
      </trkpt>
      <trkpt lat="43.33893" lon="3.20636">
        <ele>-0.82</ele>
        <time>2018-05-08T13:10:13Z</time>
      </trkpt>
      <trkpt lat="43.33893" lon="3.20634">
        <ele>-3.71</ele>
        <time>2018-05-08T13:10:30Z</time>
      </trkpt>
      <trkpt lat="43.33894" lon="3.20638">
        <ele>-1.79</ele>
        <time>2018-05-08T13:10:58Z</time>
      </trkpt>
      <trkpt lat="43.33896" lon="3.20636">
        <ele>0.62</ele>
        <time>2018-05-08T13:11:20Z</time>
      </trkpt>
      <trkpt lat="43.33896" lon="3.20635">
        <ele>2.54</ele>
        <time>2018-05-08T13:11:33Z</time>
      </trkpt>
      <trkpt lat="43.33894" lon="3.20636">
        <ele>6.87</ele>
        <time>2018-05-08T13:12:05Z</time>
      </trkpt>
      <trkpt lat="43.33897" lon="3.20634">
        <ele>5.42</ele>
        <time>2018-05-08T13:12:39Z</time>
      </trkpt>
      <trkpt lat="43.33897" lon="3.20634">
        <ele>4.94</ele>
        <time>2018-05-08T13:13:08Z</time>
      </trkpt>
      <trkpt lat="43.33896" lon="3.20635">
        <ele>4.94</ele>
        <time>2018-05-08T13:13:38Z</time>
      </trkpt>
      <trkpt lat="43.33895" lon="3.20636">
        <ele>6.87</ele>
        <time>2018-05-08T13:14:01Z</time>
      </trkpt>
      <trkpt lat="43.33893" lon="3.20635">
        <ele>5.91</ele>
        <time>2018-05-08T13:14:20Z</time>
      </trkpt>
      <trkpt lat="43.33892" lon="3.20632">
        <ele>6.39</ele>
        <time>2018-05-08T13:14:29Z</time>
      </trkpt>
      <trkpt lat="43.33891" lon="3.20632">
        <ele>6.39</ele>
        <time>2018-05-08T13:14:30Z</time>
      </trkpt>
      <trkpt lat="43.33883" lon="3.20636">
        <ele>5.42</ele>
        <time>2018-05-08T13:14:36Z</time>
      </trkpt>
      <trkpt lat="43.3388" lon="3.20636">
        <ele>4.46</ele>
        <time>2018-05-08T13:14:39Z</time>
      </trkpt>
      <trkpt lat="43.33879" lon="3.20637">
        <ele>3.98</ele>
        <time>2018-05-08T13:14:40Z</time>
      </trkpt>
      <trkpt lat="43.33878" lon="3.20638">
        <ele>3.5</ele>
        <time>2018-05-08T13:14:41Z</time>
      </trkpt>
      <trkpt lat="43.33878" lon="3.20649">
        <ele>2.54</ele>
        <time>2018-05-08T13:14:52Z</time>
      </trkpt>
      <trkpt lat="43.3389" lon="3.20689">
        <ele>2.54</ele>
        <time>2018-05-08T13:15:05Z</time>
      </trkpt>
      <trkpt lat="43.33904" lon="3.2074">
        <ele>6.39</ele>
        <time>2018-05-08T13:15:22Z</time>
      </trkpt>
      <trkpt lat="43.3392" lon="3.20783">
        <ele>8.79</ele>
        <time>2018-05-08T13:15:39Z</time>
      </trkpt>
      <trkpt lat="43.33944" lon="3.20835">
        <ele>11.19</ele>
        <time>2018-05-08T13:15:58Z</time>
      </trkpt>
      <trkpt lat="43.33964" lon="3.20895">
        <ele>10.23</ele>
        <time>2018-05-08T13:16:13Z</time>
      </trkpt>
      <trkpt lat="43.3397" lon="3.20937">
        <ele>9.75</ele>
        <time>2018-05-08T13:16:24Z</time>
      </trkpt>
      <trkpt lat="43.33968" lon="3.2095">
        <ele>8.31</ele>
        <time>2018-05-08T13:16:29Z</time>
      </trkpt>
      <trkpt lat="43.3397" lon="3.20951">
        <ele>8.31</ele>
        <time>2018-05-08T13:16:30Z</time>
      </trkpt>
      <trkpt lat="43.3397" lon="3.2095">
        <ele>7.83</ele>
        <time>2018-05-08T13:16:31Z</time>
      </trkpt>
      <trkpt lat="43.33971" lon="3.20949">
        <ele>7.83</ele>
        <time>2018-05-08T13:16:32Z</time>
      </trkpt>
      <trkpt lat="43.33971" lon="3.20946">
        <ele>6.87</ele>
        <time>2018-05-08T13:16:33Z</time>
      </trkpt>
      <trkpt lat="43.3397" lon="3.20944">
        <ele>6.39</ele>
        <time>2018-05-08T13:16:34Z</time>
      </trkpt>
      <trkpt lat="43.3397" lon="3.20941">
        <ele>5.91</ele>
        <time>2018-05-08T13:16:35Z</time>
      </trkpt>
      <trkpt lat="43.3397" lon="3.20938">
        <ele>5.42</ele>
        <time>2018-05-08T13:16:36Z</time>
      </trkpt>
      <trkpt lat="43.33972" lon="3.20916">
        <ele>2.06</ele>
        <time>2018-05-08T13:16:45Z</time>
      </trkpt>
      <trkpt lat="43.33958" lon="3.2087">
        <ele>3.5</ele>
        <time>2018-05-08T13:17:00Z</time>
      </trkpt>
      <trkpt lat="43.33938" lon="3.2082">
        <ele>6.87</ele>
        <time>2018-05-08T13:17:16Z</time>
      </trkpt>
      <trkpt lat="43.33914" lon="3.20764">
        <ele>9.75</ele>
        <time>2018-05-08T13:17:33Z</time>
      </trkpt>
      <trkpt lat="43.33895" lon="3.20692">
        <ele>9.75</ele>
        <time>2018-05-08T13:17:47Z</time>
      </trkpt>
      <trkpt lat="43.33877" lon="3.20637">
        <ele>9.27</ele>
        <time>2018-05-08T13:17:58Z</time>
      </trkpt>
      <trkpt lat="43.33876" lon="3.20635">
        <ele>8.79</ele>
        <time>2018-05-08T13:17:59Z</time>
      </trkpt>
      <trkpt lat="43.33876" lon="3.20633">
        <ele>8.79</ele>
        <time>2018-05-08T13:18:00Z</time>
      </trkpt>
      <trkpt lat="43.33876" lon="3.20631">
        <ele>8.31</ele>
        <time>2018-05-08T13:18:01Z</time>
      </trkpt>
      <trkpt lat="43.33878" lon="3.20631">
        <ele>8.31</ele>
        <time>2018-05-08T13:18:02Z</time>
      </trkpt>
      <trkpt lat="43.3388" lon="3.20631">
        <ele>7.83</ele>
        <time>2018-05-08T13:18:03Z</time>
      </trkpt>
      <trkpt lat="43.33882" lon="3.2063">
        <ele>7.83</ele>
        <time>2018-05-08T13:18:04Z</time>
      </trkpt>
      <trkpt lat="43.33885" lon="3.20629">
        <ele>7.83</ele>
        <time>2018-05-08T13:18:05Z</time>
      </trkpt>
      <trkpt lat="43.33887" lon="3.20629">
        <ele>7.83</ele>
        <time>2018-05-08T13:18:06Z</time>
      </trkpt>
      <trkpt lat="43.33923" lon="3.2063">
        <ele>7.83</ele>
        <time>2018-05-08T13:18:18Z</time>
      </trkpt>
      <trkpt lat="43.33928" lon="3.20632">
        <ele>7.83</ele>
        <time>2018-05-08T13:18:20Z</time>
      </trkpt>
      <trkpt lat="43.33929" lon="3.20634">
        <ele>7.35</ele>
        <time>2018-05-08T13:18:21Z</time>
      </trkpt>
      <trkpt lat="43.33934" lon="3.2066">
        <ele>6.39</ele>
        <time>2018-05-08T13:18:26Z</time>
      </trkpt>
      <trkpt lat="43.3393" lon="3.20687">
        <ele>4.94</ele>
        <time>2018-05-08T13:18:30Z</time>
      </trkpt>
      <trkpt lat="43.33915" lon="3.20716">
        <ele>3.98</ele>
        <time>2018-05-08T13:18:35Z</time>
      </trkpt>
      <trkpt lat="43.33909" lon="3.20726">
        <ele>3.98</ele>
        <time>2018-05-08T13:18:37Z</time>
      </trkpt>
      <trkpt lat="43.33905" lon="3.2073">
        <ele>3.98</ele>
        <time>2018-05-08T13:18:38Z</time>
      </trkpt>
      <trkpt lat="43.33902" lon="3.20733">
        <ele>3.5</ele>
        <time>2018-05-08T13:18:39Z</time>
      </trkpt>
      <trkpt lat="43.33898" lon="3.20737">
        <ele>3.5</ele>
        <time>2018-05-08T13:18:40Z</time>
      </trkpt>
      <trkpt lat="43.33896" lon="3.20742">
        <ele>3.02</ele>
        <time>2018-05-08T13:18:41Z</time>
      </trkpt>
      <trkpt lat="43.33894" lon="3.20747">
        <ele>3.02</ele>
        <time>2018-05-08T13:18:42Z</time>
      </trkpt>
      <trkpt lat="43.33892" lon="3.20752">
        <ele>3.02</ele>
        <time>2018-05-08T13:18:43Z</time>
      </trkpt>
      <trkpt lat="43.33889" lon="3.20756">
        <ele>3.02</ele>
        <time>2018-05-08T13:18:44Z</time>
      </trkpt>
      <trkpt lat="43.33887" lon="3.2076">
        <ele>3.02</ele>
        <time>2018-05-08T13:18:45Z</time>
      </trkpt>
      <trkpt lat="43.33872" lon="3.20776">
        <ele>3.02</ele>
        <time>2018-05-08T13:18:54Z</time>
      </trkpt>
      <trkpt lat="43.33872" lon="3.20779">
        <ele>2.06</ele>
        <time>2018-05-08T13:19:09Z</time>
      </trkpt>
      <trkpt lat="43.33869" lon="3.20778">
        <ele>6.39</ele>
        <time>2018-05-08T13:19:47Z</time>
      </trkpt>
      <trkpt lat="43.33867" lon="3.20782">
        <ele>6.39</ele>
        <time>2018-05-08T13:19:56Z</time>
      </trkpt>
      <trkpt lat="43.33867" lon="3.20784">
        <ele>6.39</ele>
        <time>2018-05-08T13:19:57Z</time>
      </trkpt>
      <trkpt lat="43.33866" lon="3.20786">
        <ele>5.91</ele>
        <time>2018-05-08T13:19:58Z</time>
      </trkpt>
      <trkpt lat="43.33865" lon="3.20788">
        <ele>5.91</ele>
        <time>2018-05-08T13:19:59Z</time>
      </trkpt>
      <trkpt lat="43.33863" lon="3.2079">
        <ele>5.91</ele>
        <time>2018-05-08T13:20:00Z</time>
      </trkpt>
      <trkpt lat="43.33833" lon="3.20814">
        <ele>5.91</ele>
        <time>2018-05-08T13:20:14Z</time>
      </trkpt>
      <trkpt lat="43.33822" lon="3.20825">
        <ele>4.94</ele>
        <time>2018-05-08T13:20:21Z</time>
      </trkpt>
      <trkpt lat="43.33821" lon="3.20827">
        <ele>4.46</ele>
        <time>2018-05-08T13:20:22Z</time>
      </trkpt>
      <trkpt lat="43.3382" lon="3.2083">
        <ele>4.46</ele>
        <time>2018-05-08T13:20:23Z</time>
      </trkpt>
      <trkpt lat="43.33817" lon="3.20832">
        <ele>4.46</ele>
        <time>2018-05-08T13:20:24Z</time>
      </trkpt>
      <trkpt lat="43.33814" lon="3.20834">
        <ele>4.46</ele>
        <time>2018-05-08T13:20:25Z</time>
      </trkpt>
      <trkpt lat="43.33767" lon="3.20874">
        <ele>4.46</ele>
        <time>2018-05-08T13:20:41Z</time>
      </trkpt>
      <trkpt lat="43.33731" lon="3.20911">
        <ele>6.39</ele>
        <time>2018-05-08T13:20:55Z</time>
      </trkpt>
      <trkpt lat="43.33691" lon="3.20959">
        <ele>7.83</ele>
        <time>2018-05-08T13:21:11Z</time>
      </trkpt>
      <trkpt lat="43.33649" lon="3.20999">
        <ele>5.42</ele>
        <time>2018-05-08T13:21:26Z</time>
      </trkpt>
      <trkpt lat="43.33619" lon="3.21032">
        <ele>6.39</ele>
        <time>2018-05-08T13:21:39Z</time>
      </trkpt>
      <trkpt lat="43.33582" lon="3.21073">
        <ele>7.35</ele>
        <time>2018-05-08T13:21:53Z</time>
      </trkpt>
      <trkpt lat="43.33543" lon="3.21103">
        <ele>6.39</ele>
        <time>2018-05-08T13:22:06Z</time>
      </trkpt>
      <trkpt lat="43.33488" lon="3.21164">
        <ele>6.87</ele>
        <time>2018-05-08T13:22:26Z</time>
      </trkpt>
      <trkpt lat="43.33466" lon="3.21173">
        <ele>7.35</ele>
        <time>2018-05-08T13:22:38Z</time>
      </trkpt>
      <trkpt lat="43.33464" lon="3.21173">
        <ele>7.35</ele>
        <time>2018-05-08T13:22:40Z</time>
      </trkpt>
      <trkpt lat="43.33471" lon="3.21173">
        <ele>7.35</ele>
        <time>2018-05-08T13:22:48Z</time>
      </trkpt>
      <trkpt lat="43.33473" lon="3.21173">
        <ele>7.83</ele>
        <time>2018-05-08T13:22:49Z</time>
      </trkpt>
      <trkpt lat="43.33475" lon="3.21172">
        <ele>7.35</ele>
        <time>2018-05-08T13:22:50Z</time>
      </trkpt>
      <trkpt lat="43.3348" lon="3.21169">
        <ele>6.87</ele>
        <time>2018-05-08T13:22:52Z</time>
      </trkpt>
      <trkpt lat="43.33475" lon="3.21163">
        <ele>7.35</ele>
        <time>2018-05-08T13:22:58Z</time>
      </trkpt>
      <trkpt lat="43.33444" lon="3.2116">
        <ele>6.87</ele>
        <time>2018-05-08T13:23:13Z</time>
      </trkpt>
      <trkpt lat="43.33437" lon="3.21162">
        <ele>6.87</ele>
        <time>2018-05-08T13:23:24Z</time>
      </trkpt>
      <trkpt lat="43.33435" lon="3.21165">
        <ele>6.87</ele>
        <time>2018-05-08T13:23:55Z</time>
      </trkpt>
      <trkpt lat="43.33434" lon="3.21165">
        <ele>6.87</ele>
        <time>2018-05-08T13:24:04Z</time>
      </trkpt>
      <trkpt lat="43.33427" lon="3.21164">
        <ele>6.87</ele>
        <time>2018-05-08T13:24:09Z</time>
      </trkpt>
      <trkpt lat="43.33419" lon="3.21168">
        <ele>8.31</ele>
        <time>2018-05-08T13:24:24Z</time>
      </trkpt>
      <trkpt lat="43.33414" lon="3.21175">
        <ele>9.27</ele>
        <time>2018-05-08T13:24:43Z</time>
      </trkpt>
      <trkpt lat="43.33413" lon="3.21176">
        <ele>11.19</ele>
        <time>2018-05-08T13:24:58Z</time>
      </trkpt>
      <trkpt lat="43.3341" lon="3.21179">
        <ele>11.67</ele>
        <time>2018-05-08T13:25:15Z</time>
      </trkpt>
      <trkpt lat="43.33409" lon="3.21181">
        <ele>12.63</ele>
        <time>2018-05-08T13:25:27Z</time>
      </trkpt>
      <trkpt lat="43.33414" lon="3.21186">
        <ele>13.6</ele>
        <time>2018-05-08T13:25:41Z</time>
      </trkpt>
      <trkpt lat="43.33416" lon="3.21188">
        <ele>14.08</ele>
        <time>2018-05-08T13:25:52Z</time>
      </trkpt>
      <trkpt lat="43.33418" lon="3.21194">
        <ele>14.08</ele>
        <time>2018-05-08T13:25:56Z</time>
      </trkpt>
      <trkpt lat="43.33421" lon="3.21209">
        <ele>14.08</ele>
        <time>2018-05-08T13:26:03Z</time>
      </trkpt>
      <trkpt lat="43.33425" lon="3.21216">
        <ele>14.08</ele>
        <time>2018-05-08T13:26:07Z</time>
      </trkpt>
      <trkpt lat="43.33448" lon="3.21251">
        <ele>12.63</ele>
        <time>2018-05-08T13:26:24Z</time>
      </trkpt>
      <trkpt lat="43.33478" lon="3.21298">
        <ele>13.6</ele>
        <time>2018-05-08T13:26:42Z</time>
      </trkpt>
      <trkpt lat="43.33511" lon="3.21342">
        <ele>13.6</ele>
        <time>2018-05-08T13:26:59Z</time>
      </trkpt>
      <trkpt lat="43.33538" lon="3.21372">
        <ele>14.08</ele>
        <time>2018-05-08T13:27:12Z</time>
      </trkpt>
      <trkpt lat="43.33556" lon="3.2142">
        <ele>15.04</ele>
        <time>2018-05-08T13:27:25Z</time>
      </trkpt>
      <trkpt lat="43.33557" lon="3.21474">
        <ele>16.48</ele>
        <time>2018-05-08T13:27:39Z</time>
      </trkpt>
      <trkpt lat="43.33538" lon="3.21522">
        <ele>17.44</ele>
        <time>2018-05-08T13:27:54Z</time>
      </trkpt>
      <trkpt lat="43.33522" lon="3.21557">
        <ele>16.96</ele>
        <time>2018-05-08T13:28:09Z</time>
      </trkpt>
      <trkpt lat="43.33518" lon="3.21569">
        <ele>16.96</ele>
        <time>2018-05-08T13:28:22Z</time>
      </trkpt>
      <trkpt lat="43.33518" lon="3.21575">
        <ele>16.96</ele>
        <time>2018-05-08T13:28:34Z</time>
      </trkpt>
      <trkpt lat="43.3351" lon="3.21601">
        <ele>16.48</ele>
        <time>2018-05-08T13:28:48Z</time>
      </trkpt>
      <trkpt lat="43.33512" lon="3.216">
        <ele>16.96</ele>
        <time>2018-05-08T13:28:52Z</time>
      </trkpt>
      <trkpt lat="43.33512" lon="3.21598">
        <ele>16.96</ele>
        <time>2018-05-08T13:28:53Z</time>
      </trkpt>
      <trkpt lat="43.33512" lon="3.21596">
        <ele>16.96</ele>
        <time>2018-05-08T13:28:54Z</time>
      </trkpt>
      <trkpt lat="43.33513" lon="3.21594">
        <ele>16.96</ele>
        <time>2018-05-08T13:28:55Z</time>
      </trkpt>
      <trkpt lat="43.33513" lon="3.21592">
        <ele>16.96</ele>
        <time>2018-05-08T13:28:56Z</time>
      </trkpt>
      <trkpt lat="43.33514" lon="3.2159">
        <ele>16.96</ele>
        <time>2018-05-08T13:28:57Z</time>
      </trkpt>
      <trkpt lat="43.33515" lon="3.21588">
        <ele>16.96</ele>
        <time>2018-05-08T13:28:58Z</time>
      </trkpt>
      <trkpt lat="43.33516" lon="3.21586">
        <ele>16.96</ele>
        <time>2018-05-08T13:28:59Z</time>
      </trkpt>
      <trkpt lat="43.33527" lon="3.21557">
        <ele>14.56</ele>
        <time>2018-05-08T13:29:11Z</time>
      </trkpt>
      <trkpt lat="43.33529" lon="3.21556">
        <ele>14.56</ele>
        <time>2018-05-08T13:29:12Z</time>
      </trkpt>
      <trkpt lat="43.33532" lon="3.21559">
        <ele>13.6</ele>
        <time>2018-05-08T13:29:15Z</time>
      </trkpt>
      <trkpt lat="43.33532" lon="3.21561">
        <ele>13.12</ele>
        <time>2018-05-08T13:29:16Z</time>
      </trkpt>
      <trkpt lat="43.33532" lon="3.21564">
        <ele>13.12</ele>
        <time>2018-05-08T13:29:17Z</time>
      </trkpt>
      <trkpt lat="43.3353" lon="3.21568">
        <ele>12.63</ele>
        <time>2018-05-08T13:29:18Z</time>
      </trkpt>
      <trkpt lat="43.33528" lon="3.21575">
        <ele>12.15</ele>
        <time>2018-05-08T13:29:19Z</time>
      </trkpt>
      <trkpt lat="43.33522" lon="3.21628">
        <ele>8.31</ele>
        <time>2018-05-08T13:29:30Z</time>
      </trkpt>
      <trkpt lat="43.33513" lon="3.21668">
        <ele>7.35</ele>
        <time>2018-05-08T13:29:42Z</time>
      </trkpt>
      <trkpt lat="43.33508" lon="3.21689">
        <ele>5.42</ele>
        <time>2018-05-08T13:29:52Z</time>
      </trkpt>
      <trkpt lat="43.33504" lon="3.21689">
        <ele>6.39</ele>
        <time>2018-05-08T13:29:55Z</time>
      </trkpt>
      <trkpt lat="43.33498" lon="3.21694">
        <ele>5.91</ele>
        <time>2018-05-08T13:29:59Z</time>
      </trkpt>
      <trkpt lat="43.33484" lon="3.21741">
        <ele>9.27</ele>
        <time>2018-05-08T13:30:15Z</time>
      </trkpt>
      <trkpt lat="43.33467" lon="3.21793">
        <ele>10.23</ele>
        <time>2018-05-08T13:30:31Z</time>
      </trkpt>
      <trkpt lat="43.33447" lon="3.21855">
        <ele>13.12</ele>
        <time>2018-05-08T13:30:49Z</time>
      </trkpt>
      <trkpt lat="43.33432" lon="3.219">
        <ele>15.04</ele>
        <time>2018-05-08T13:31:02Z</time>
      </trkpt>
      <trkpt lat="43.33417" lon="3.21948">
        <ele>14.08</ele>
        <time>2018-05-08T13:31:17Z</time>
      </trkpt>
      <trkpt lat="43.334" lon="3.21998">
        <ele>16</ele>
        <time>2018-05-08T13:31:34Z</time>
      </trkpt>
      <trkpt lat="43.33384" lon="3.22048">
        <ele>15.52</ele>
        <time>2018-05-08T13:31:49Z</time>
      </trkpt>
      <trkpt lat="43.33363" lon="3.22083">
        <ele>13.6</ele>
        <time>2018-05-08T13:32:03Z</time>
      </trkpt>
      <trkpt lat="43.33351" lon="3.2212">
        <ele>13.12</ele>
        <time>2018-05-08T13:32:19Z</time>
      </trkpt>
      <trkpt lat="43.33344" lon="3.22136">
        <ele>13.6</ele>
        <time>2018-05-08T13:32:33Z</time>
      </trkpt>
      <trkpt lat="43.33343" lon="3.22141">
        <ele>15.04</ele>
        <time>2018-05-08T13:32:55Z</time>
      </trkpt>
      <trkpt lat="43.33342" lon="3.22145">
        <ele>15.04</ele>
        <time>2018-05-08T13:32:58Z</time>
      </trkpt>
      <trkpt lat="43.33343" lon="3.22149">
        <ele>14.56</ele>
        <time>2018-05-08T13:33:01Z</time>
      </trkpt>
      <trkpt lat="43.33339" lon="3.22165">
        <ele>13.6</ele>
        <time>2018-05-08T13:33:12Z</time>
      </trkpt>
      <trkpt lat="43.33344" lon="3.22168">
        <ele>12.15</ele>
        <time>2018-05-08T13:33:34Z</time>
      </trkpt>
      <trkpt lat="43.33347" lon="3.22172">
        <ele>12.15</ele>
        <time>2018-05-08T13:33:40Z</time>
      </trkpt>
      <trkpt lat="43.33348" lon="3.22174">
        <ele>12.15</ele>
        <time>2018-05-08T13:33:41Z</time>
      </trkpt>
      <trkpt lat="43.33349" lon="3.22176">
        <ele>12.15</ele>
        <time>2018-05-08T13:33:43Z</time>
      </trkpt>
      <trkpt lat="43.33352" lon="3.22179">
        <ele>10.23</ele>
        <time>2018-05-08T13:33:47Z</time>
      </trkpt>
      <trkpt lat="43.33352" lon="3.22181">
        <ele>9.75</ele>
        <time>2018-05-08T13:33:48Z</time>
      </trkpt>
      <trkpt lat="43.33351" lon="3.22183">
        <ele>9.75</ele>
        <time>2018-05-08T13:33:49Z</time>
      </trkpt>
      <trkpt lat="43.33351" lon="3.22185">
        <ele>9.27</ele>
        <time>2018-05-08T13:33:50Z</time>
      </trkpt>
      <trkpt lat="43.33351" lon="3.22188">
        <ele>9.27</ele>
        <time>2018-05-08T13:33:51Z</time>
      </trkpt>
      <trkpt lat="43.33353" lon="3.22191">
        <ele>6.39</ele>
        <time>2018-05-08T13:34:01Z</time>
      </trkpt>
      <trkpt lat="43.33353" lon="3.22189">
        <ele>6.39</ele>
        <time>2018-05-08T13:34:02Z</time>
      </trkpt>
      <trkpt lat="43.33354" lon="3.22188">
        <ele>5.91</ele>
        <time>2018-05-08T13:34:03Z</time>
      </trkpt>
      <trkpt lat="43.33355" lon="3.22187">
        <ele>5.91</ele>
        <time>2018-05-08T13:34:04Z</time>
      </trkpt>
      <trkpt lat="43.33356" lon="3.22179">
        <ele>4.94</ele>
        <time>2018-05-08T13:34:18Z</time>
      </trkpt>
      <trkpt lat="43.33354" lon="3.22176">
        <ele>4.46</ele>
        <time>2018-05-08T13:34:44Z</time>
      </trkpt>
      <trkpt lat="43.33352" lon="3.22173">
        <ele>6.87</ele>
        <time>2018-05-08T13:35:02Z</time>
      </trkpt>
      <trkpt lat="43.3335" lon="3.22172">
        <ele>6.87</ele>
        <time>2018-05-08T13:35:03Z</time>
      </trkpt>
      <trkpt lat="43.33325" lon="3.2216">
        <ele>5.42</ele>
        <time>2018-05-08T13:35:16Z</time>
      </trkpt>
      <trkpt lat="43.33322" lon="3.22122">
        <ele>5.42</ele>
        <time>2018-05-08T13:35:27Z</time>
      </trkpt>
      <trkpt lat="43.33312" lon="3.2206">
        <ele>5.91</ele>
        <time>2018-05-08T13:35:42Z</time>
      </trkpt>
      <trkpt lat="43.33288" lon="3.21962">
        <ele>3.5</ele>
        <time>2018-05-08T13:36:00Z</time>
      </trkpt>
      <trkpt lat="43.33264" lon="3.21887">
        <ele>0.14</ele>
        <time>2018-05-08T13:36:16Z</time>
      </trkpt>
      <trkpt lat="43.33245" lon="3.2183">
        <ele>-4.19</ele>
        <time>2018-05-08T13:36:30Z</time>
      </trkpt>
      <trkpt lat="43.33242" lon="3.21824">
        <ele>-4.19</ele>
        <time>2018-05-08T13:36:33Z</time>
      </trkpt>
      <trkpt lat="43.3324" lon="3.21819">
        <ele>-2.27</ele>
        <time>2018-05-08T13:36:34Z</time>
      </trkpt>
      <trkpt lat="43.33238" lon="3.2182">
        <ele>-2.75</ele>
        <time>2018-05-08T13:36:35Z</time>
      </trkpt>
      <trkpt lat="43.33218" lon="3.21824">
        <ele>0.62</ele>
        <time>2018-05-08T13:36:43Z</time>
      </trkpt>
      <trkpt lat="43.33216" lon="3.21827">
        <ele>0.62</ele>
        <time>2018-05-08T13:36:44Z</time>
      </trkpt>
      <trkpt lat="43.33214" lon="3.2183">
        <ele>1.58</ele>
        <time>2018-05-08T13:36:45Z</time>
      </trkpt>
      <trkpt lat="43.33212" lon="3.21833">
        <ele>2.06</ele>
        <time>2018-05-08T13:36:46Z</time>
      </trkpt>
      <trkpt lat="43.3321" lon="3.21835">
        <ele>2.06</ele>
        <time>2018-05-08T13:36:47Z</time>
      </trkpt>
      <trkpt lat="43.33209" lon="3.21837">
        <ele>2.06</ele>
        <time>2018-05-08T13:36:48Z</time>
      </trkpt>
      <trkpt lat="43.33206" lon="3.21838">
        <ele>2.54</ele>
        <time>2018-05-08T13:37:02Z</time>
      </trkpt>
      <trkpt lat="43.33205" lon="3.2184">
        <ele>3.02</ele>
        <time>2018-05-08T13:37:16Z</time>
      </trkpt>
      <trkpt lat="43.33205" lon="3.21842">
        <ele>3.02</ele>
        <time>2018-05-08T13:37:17Z</time>
      </trkpt>
      <trkpt lat="43.33206" lon="3.21844">
        <ele>3.02</ele>
        <time>2018-05-08T13:37:18Z</time>
      </trkpt>
      <trkpt lat="43.33216" lon="3.21877">
        <ele>1.58</ele>
        <time>2018-05-08T13:37:32Z</time>
      </trkpt>
      <trkpt lat="43.33224" lon="3.2191">
        <ele>-2.27</ele>
        <time>2018-05-08T13:37:43Z</time>
      </trkpt>
      <trkpt lat="43.3323" lon="3.21921">
        <ele>-4.19</ele>
        <time>2018-05-08T13:37:47Z</time>
      </trkpt>
      <trkpt lat="43.33231" lon="3.21925">
        <ele>-4.67</ele>
        <time>2018-05-08T13:37:48Z</time>
      </trkpt>
      <trkpt lat="43.33246" lon="3.21982">
        <ele>-2.75</ele>
        <time>2018-05-08T13:38:02Z</time>
      </trkpt>
      <trkpt lat="43.33259" lon="3.22046">
        <ele>1.1</ele>
        <time>2018-05-08T13:38:17Z</time>
      </trkpt>
      <trkpt lat="43.33273" lon="3.22124">
        <ele>8.31</ele>
        <time>2018-05-08T13:38:33Z</time>
      </trkpt>
      <trkpt lat="43.33281" lon="3.22209">
        <ele>9.27</ele>
        <time>2018-05-08T13:38:49Z</time>
      </trkpt>
      <trkpt lat="43.33277" lon="3.22302">
        <ele>9.27</ele>
        <time>2018-05-08T13:39:05Z</time>
      </trkpt>
      <trkpt lat="43.33273" lon="3.22341">
        <ele>9.75</ele>
        <time>2018-05-08T13:39:12Z</time>
      </trkpt>
      <trkpt lat="43.33272" lon="3.22347">
        <ele>9.75</ele>
        <time>2018-05-08T13:39:13Z</time>
      </trkpt>
      <trkpt lat="43.33272" lon="3.22353">
        <ele>9.75</ele>
        <time>2018-05-08T13:39:14Z</time>
      </trkpt>
      <trkpt lat="43.33271" lon="3.22358">
        <ele>10.23</ele>
        <time>2018-05-08T13:39:15Z</time>
      </trkpt>
      <trkpt lat="43.3327" lon="3.22364">
        <ele>10.23</ele>
        <time>2018-05-08T13:39:16Z</time>
      </trkpt>
      <trkpt lat="43.33268" lon="3.22376">
        <ele>10.71</ele>
        <time>2018-05-08T13:39:18Z</time>
      </trkpt>
      <trkpt lat="43.33255" lon="3.22434">
        <ele>11.19</ele>
        <time>2018-05-08T13:39:31Z</time>
      </trkpt>
      <trkpt lat="43.33244" lon="3.22501">
        <ele>12.63</ele>
        <time>2018-05-08T13:39:44Z</time>
      </trkpt>
      <trkpt lat="43.33222" lon="3.22607">
        <ele>12.15</ele>
        <time>2018-05-08T13:40:04Z</time>
      </trkpt>
      <trkpt lat="43.33207" lon="3.2266">
        <ele>11.19</ele>
        <time>2018-05-08T13:40:14Z</time>
      </trkpt>
      <trkpt lat="43.33205" lon="3.22665">
        <ele>11.19</ele>
        <time>2018-05-08T13:40:15Z</time>
      </trkpt>
      <trkpt lat="43.33171" lon="3.22758">
        <ele>9.75</ele>
        <time>2018-05-08T13:40:32Z</time>
      </trkpt>
      <trkpt lat="43.33121" lon="3.22851">
        <ele>8.31</ele>
        <time>2018-05-08T13:40:51Z</time>
      </trkpt>
      <trkpt lat="43.33104" lon="3.22878">
        <ele>8.31</ele>
        <time>2018-05-08T13:40:57Z</time>
      </trkpt>
      <trkpt lat="43.33061" lon="3.22945">
        <ele>8.79</ele>
        <time>2018-05-08T13:41:13Z</time>
      </trkpt>
      <trkpt lat="43.33047" lon="3.22965">
        <ele>9.27</ele>
        <time>2018-05-08T13:41:18Z</time>
      </trkpt>
      <trkpt lat="43.33001" lon="3.23035">
        <ele>9.75</ele>
        <time>2018-05-08T13:41:35Z</time>
      </trkpt>
      <trkpt lat="43.32966" lon="3.23088">
        <ele>9.75</ele>
        <time>2018-05-08T13:41:47Z</time>
      </trkpt>
      <trkpt lat="43.32926" lon="3.23157">
        <ele>10.23</ele>
        <time>2018-05-08T13:42:03Z</time>
      </trkpt>
      <trkpt lat="43.32903" lon="3.23204">
        <ele>9.27</ele>
        <time>2018-05-08T13:42:15Z</time>
      </trkpt>
      <trkpt lat="43.32885" lon="3.23255">
        <ele>9.27</ele>
        <time>2018-05-08T13:42:27Z</time>
      </trkpt>
      <trkpt lat="43.32861" lon="3.23322">
        <ele>7.35</ele>
        <time>2018-05-08T13:42:39Z</time>
      </trkpt>
      <trkpt lat="43.32843" lon="3.23376">
        <ele>4.94</ele>
        <time>2018-05-08T13:42:48Z</time>
      </trkpt>
      <trkpt lat="43.32838" lon="3.23415">
        <ele>3.02</ele>
        <time>2018-05-08T13:42:54Z</time>
      </trkpt>
      <trkpt lat="43.32837" lon="3.23426">
        <ele>2.54</ele>
        <time>2018-05-08T13:42:56Z</time>
      </trkpt>
      <trkpt lat="43.32841" lon="3.23485">
        <ele>4.46</ele>
        <time>2018-05-08T13:43:06Z</time>
      </trkpt>
      <trkpt lat="43.32845" lon="3.23556">
        <ele>11.67</ele>
        <time>2018-05-08T13:43:18Z</time>
      </trkpt>
      <trkpt lat="43.32847" lon="3.23602">
        <ele>16</ele>
        <time>2018-05-08T13:43:28Z</time>
      </trkpt>
      <trkpt lat="43.32846" lon="3.23636">
        <ele>19.84</ele>
        <time>2018-05-08T13:43:35Z</time>
      </trkpt>
      <trkpt lat="43.32842" lon="3.23701">
        <ele>21.29</ele>
        <time>2018-05-08T13:43:46Z</time>
      </trkpt>
      <trkpt lat="43.32836" lon="3.23751">
        <ele>20.81</ele>
        <time>2018-05-08T13:43:54Z</time>
      </trkpt>
      <trkpt lat="43.32835" lon="3.23764">
        <ele>20.32</ele>
        <time>2018-05-08T13:43:56Z</time>
      </trkpt>
      <trkpt lat="43.32834" lon="3.23771">
        <ele>20.32</ele>
        <time>2018-05-08T13:43:57Z</time>
      </trkpt>
      <trkpt lat="43.32833" lon="3.23778">
        <ele>20.32</ele>
        <time>2018-05-08T13:43:58Z</time>
      </trkpt>
      <trkpt lat="43.32832" lon="3.23784">
        <ele>19.84</ele>
        <time>2018-05-08T13:43:59Z</time>
      </trkpt>
      <trkpt lat="43.32831" lon="3.23791">
        <ele>19.84</ele>
        <time>2018-05-08T13:44:00Z</time>
      </trkpt>
      <trkpt lat="43.32824" lon="3.23844">
        <ele>18.4</ele>
        <time>2018-05-08T13:44:09Z</time>
      </trkpt>
      <trkpt lat="43.32806" lon="3.23947">
        <ele>13.12</ele>
        <time>2018-05-08T13:44:26Z</time>
      </trkpt>
      <trkpt lat="43.32788" lon="3.24051">
        <ele>11.67</ele>
        <time>2018-05-08T13:44:43Z</time>
      </trkpt>
      <trkpt lat="43.32773" lon="3.24131">
        <ele>16</ele>
        <time>2018-05-08T13:44:57Z</time>
      </trkpt>
      <trkpt lat="43.32765" lon="3.24161">
        <ele>17.92</ele>
        <time>2018-05-08T13:45:02Z</time>
      </trkpt>
      <trkpt lat="43.32763" lon="3.24167">
        <ele>18.4</ele>
        <time>2018-05-08T13:45:03Z</time>
      </trkpt>
      <trkpt lat="43.32756" lon="3.2419">
        <ele>20.32</ele>
        <time>2018-05-08T13:45:07Z</time>
      </trkpt>
      <trkpt lat="43.32745" lon="3.24218">
        <ele>20.81</ele>
        <time>2018-05-08T13:45:12Z</time>
      </trkpt>
      <trkpt lat="43.32733" lon="3.2425">
        <ele>21.29</ele>
        <time>2018-05-08T13:45:17Z</time>
      </trkpt>
      <trkpt lat="43.32731" lon="3.24257">
        <ele>21.29</ele>
        <time>2018-05-08T13:45:18Z</time>
      </trkpt>
      <trkpt lat="43.32728" lon="3.24263">
        <ele>21.77</ele>
        <time>2018-05-08T13:45:19Z</time>
      </trkpt>
      <trkpt lat="43.32725" lon="3.2427">
        <ele>21.77</ele>
        <time>2018-05-08T13:45:20Z</time>
      </trkpt>
      <trkpt lat="43.32722" lon="3.24278">
        <ele>21.29</ele>
        <time>2018-05-08T13:45:21Z</time>
      </trkpt>
      <trkpt lat="43.32709" lon="3.24307">
        <ele>20.81</ele>
        <time>2018-05-08T13:45:25Z</time>
      </trkpt>
      <trkpt lat="43.32705" lon="3.24313">
        <ele>20.81</ele>
        <time>2018-05-08T13:45:26Z</time>
      </trkpt>
      <trkpt lat="43.32701" lon="3.2432">
        <ele>20.32</ele>
        <time>2018-05-08T13:45:27Z</time>
      </trkpt>
      <trkpt lat="43.32667" lon="3.24373">
        <ele>18.4</ele>
        <time>2018-05-08T13:45:38Z</time>
      </trkpt>
      <trkpt lat="43.32634" lon="3.24419">
        <ele>23.21</ele>
        <time>2018-05-08T13:45:48Z</time>
      </trkpt>
      <trkpt lat="43.32572" lon="3.24483">
        <ele>30.9</ele>
        <time>2018-05-08T13:46:03Z</time>
      </trkpt>
      <trkpt lat="43.32493" lon="3.24558">
        <ele>35.23</ele>
        <time>2018-05-08T13:46:21Z</time>
      </trkpt>
      <trkpt lat="43.32455" lon="3.2459">
        <ele>28.02</ele>
        <time>2018-05-08T13:46:29Z</time>
      </trkpt>
      <trkpt lat="43.32408" lon="3.24644">
        <ele>26.09</ele>
        <time>2018-05-08T13:46:41Z</time>
      </trkpt>
      <trkpt lat="43.32368" lon="3.24716">
        <ele>30.9</ele>
        <time>2018-05-08T13:46:54Z</time>
      </trkpt>
      <trkpt lat="43.32361" lon="3.24733">
        <ele>31.38</ele>
        <time>2018-05-08T13:46:57Z</time>
      </trkpt>
      <trkpt lat="43.32359" lon="3.24739">
        <ele>31.38</ele>
        <time>2018-05-08T13:46:58Z</time>
      </trkpt>
      <trkpt lat="43.32356" lon="3.24745">
        <ele>30.9</ele>
        <time>2018-05-08T13:46:59Z</time>
      </trkpt>
      <trkpt lat="43.32353" lon="3.24752">
        <ele>29.94</ele>
        <time>2018-05-08T13:47:00Z</time>
      </trkpt>
      <trkpt lat="43.32349" lon="3.24759">
        <ele>28.98</ele>
        <time>2018-05-08T13:47:01Z</time>
      </trkpt>
      <trkpt lat="43.32346" lon="3.24767">
        <ele>27.53</ele>
        <time>2018-05-08T13:47:02Z</time>
      </trkpt>
      <trkpt lat="43.32344" lon="3.24775">
        <ele>26.09</ele>
        <time>2018-05-08T13:47:03Z</time>
      </trkpt>
      <trkpt lat="43.32341" lon="3.24783">
        <ele>24.65</ele>
        <time>2018-05-08T13:47:04Z</time>
      </trkpt>
      <trkpt lat="43.3234" lon="3.2479">
        <ele>23.69</ele>
        <time>2018-05-08T13:47:05Z</time>
      </trkpt>
      <trkpt lat="43.32321" lon="3.24897">
        <ele>14.08</ele>
        <time>2018-05-08T13:47:20Z</time>
      </trkpt>
      <trkpt lat="43.32322" lon="3.25038">
        <ele>9.75</ele>
        <time>2018-05-08T13:47:40Z</time>
      </trkpt>
      <trkpt lat="43.32328" lon="3.25156">
        <ele>9.75</ele>
        <time>2018-05-08T13:47:57Z</time>
      </trkpt>
      <trkpt lat="43.32333" lon="3.25268">
        <ele>9.75</ele>
        <time>2018-05-08T13:48:13Z</time>
      </trkpt>
      <trkpt lat="43.32334" lon="3.25295">
        <ele>10.71</ele>
        <time>2018-05-08T13:48:17Z</time>
      </trkpt>
      <trkpt lat="43.32336" lon="3.25401">
        <ele>13.6</ele>
        <time>2018-05-08T13:48:31Z</time>
      </trkpt>
      <trkpt lat="43.32339" lon="3.25533">
        <ele>13.12</ele>
        <time>2018-05-08T13:48:47Z</time>
      </trkpt>
      <trkpt lat="43.3234" lon="3.25663">
        <ele>10.23</ele>
        <time>2018-05-08T13:49:03Z</time>
      </trkpt>
      <trkpt lat="43.32339" lon="3.2569">
        <ele>9.27</ele>
        <time>2018-05-08T13:49:07Z</time>
      </trkpt>
      <trkpt lat="43.32339" lon="3.25696">
        <ele>9.27</ele>
        <time>2018-05-08T13:49:08Z</time>
      </trkpt>
      <trkpt lat="43.32339" lon="3.25702">
        <ele>9.27</ele>
        <time>2018-05-08T13:49:09Z</time>
      </trkpt>
      <trkpt lat="43.32339" lon="3.25708">
        <ele>9.27</ele>
        <time>2018-05-08T13:49:10Z</time>
      </trkpt>
      <trkpt lat="43.32339" lon="3.25713">
        <ele>8.79</ele>
        <time>2018-05-08T13:49:11Z</time>
      </trkpt>
      <trkpt lat="43.32338" lon="3.25766">
        <ele>8.31</ele>
        <time>2018-05-08T13:49:21Z</time>
      </trkpt>
      <trkpt lat="43.32338" lon="3.25771">
        <ele>8.31</ele>
        <time>2018-05-08T13:49:22Z</time>
      </trkpt>
      <trkpt lat="43.32329" lon="3.25869">
        <ele>12.63</ele>
        <time>2018-05-08T13:49:36Z</time>
      </trkpt>
      <trkpt lat="43.32327" lon="3.25876">
        <ele>13.12</ele>
        <time>2018-05-08T13:49:37Z</time>
      </trkpt>
      <trkpt lat="43.32326" lon="3.25884">
        <ele>13.6</ele>
        <time>2018-05-08T13:49:38Z</time>
      </trkpt>
      <trkpt lat="43.32309" lon="3.26011">
        <ele>15.04</ele>
        <time>2018-05-08T13:49:55Z</time>
      </trkpt>
      <trkpt lat="43.32308" lon="3.26023">
        <ele>14.08</ele>
        <time>2018-05-08T13:49:57Z</time>
      </trkpt>
      <trkpt lat="43.32306" lon="3.26035">
        <ele>13.12</ele>
        <time>2018-05-08T13:49:59Z</time>
      </trkpt>
      <trkpt lat="43.32304" lon="3.26041">
        <ele>12.63</ele>
        <time>2018-05-08T13:50:00Z</time>
      </trkpt>
      <trkpt lat="43.32303" lon="3.26048">
        <ele>11.67</ele>
        <time>2018-05-08T13:50:01Z</time>
      </trkpt>
      <trkpt lat="43.32299" lon="3.2608">
        <ele>10.23</ele>
        <time>2018-05-08T13:50:06Z</time>
      </trkpt>
      <trkpt lat="43.32299" lon="3.26086">
        <ele>9.75</ele>
        <time>2018-05-08T13:50:07Z</time>
      </trkpt>
      <trkpt lat="43.32298" lon="3.26092">
        <ele>9.75</ele>
        <time>2018-05-08T13:50:08Z</time>
      </trkpt>
      <trkpt lat="43.32298" lon="3.26098">
        <ele>10.23</ele>
        <time>2018-05-08T13:50:09Z</time>
      </trkpt>
      <trkpt lat="43.32296" lon="3.26104">
        <ele>10.23</ele>
        <time>2018-05-08T13:50:10Z</time>
      </trkpt>
      <trkpt lat="43.32295" lon="3.2611">
        <ele>10.23</ele>
        <time>2018-05-08T13:50:11Z</time>
      </trkpt>
      <trkpt lat="43.32294" lon="3.26128">
        <ele>10.23</ele>
        <time>2018-05-08T13:50:14Z</time>
      </trkpt>
      <trkpt lat="43.32293" lon="3.26135">
        <ele>10.71</ele>
        <time>2018-05-08T13:50:15Z</time>
      </trkpt>
      <trkpt lat="43.32292" lon="3.26141">
        <ele>11.19</ele>
        <time>2018-05-08T13:50:16Z</time>
      </trkpt>
      <trkpt lat="43.32285" lon="3.26195">
        <ele>9.75</ele>
        <time>2018-05-08T13:50:23Z</time>
      </trkpt>
      <trkpt lat="43.32285" lon="3.26203">
        <ele>9.27</ele>
        <time>2018-05-08T13:50:24Z</time>
      </trkpt>
      <trkpt lat="43.32285" lon="3.26212">
        <ele>8.79</ele>
        <time>2018-05-08T13:50:25Z</time>
      </trkpt>
      <trkpt lat="43.32285" lon="3.2622">
        <ele>8.31</ele>
        <time>2018-05-08T13:50:26Z</time>
      </trkpt>
      <trkpt lat="43.32282" lon="3.26229">
        <ele>7.83</ele>
        <time>2018-05-08T13:50:27Z</time>
      </trkpt>
      <trkpt lat="43.3228" lon="3.26236">
        <ele>7.35</ele>
        <time>2018-05-08T13:50:28Z</time>
      </trkpt>
      <trkpt lat="43.32278" lon="3.26244">
        <ele>6.87</ele>
        <time>2018-05-08T13:50:29Z</time>
      </trkpt>
      <trkpt lat="43.32277" lon="3.26253">
        <ele>6.39</ele>
        <time>2018-05-08T13:50:30Z</time>
      </trkpt>
      <trkpt lat="43.32259" lon="3.26387">
        <ele>4.94</ele>
        <time>2018-05-08T13:50:48Z</time>
      </trkpt>
      <trkpt lat="43.3224" lon="3.26531">
        <ele>4.94</ele>
        <time>2018-05-08T13:51:08Z</time>
      </trkpt>
      <trkpt lat="43.32221" lon="3.26651">
        <ele>2.54</ele>
        <time>2018-05-08T13:51:24Z</time>
      </trkpt>
      <trkpt lat="43.32219" lon="3.26659">
        <ele>2.54</ele>
        <time>2018-05-08T13:51:25Z</time>
      </trkpt>
      <trkpt lat="43.32197" lon="3.26753">
        <ele>3.5</ele>
        <time>2018-05-08T13:51:38Z</time>
      </trkpt>
      <trkpt lat="43.32192" lon="3.26771">
        <ele>3.98</ele>
        <time>2018-05-08T13:51:41Z</time>
      </trkpt>
      <trkpt lat="43.3219" lon="3.26777">
        <ele>4.46</ele>
        <time>2018-05-08T13:51:42Z</time>
      </trkpt>
      <trkpt lat="43.32189" lon="3.26785">
        <ele>4.46</ele>
        <time>2018-05-08T13:51:43Z</time>
      </trkpt>
      <trkpt lat="43.32187" lon="3.26793">
        <ele>4.46</ele>
        <time>2018-05-08T13:51:44Z</time>
      </trkpt>
      <trkpt lat="43.32184" lon="3.26801">
        <ele>4.46</ele>
        <time>2018-05-08T13:51:45Z</time>
      </trkpt>
      <trkpt lat="43.32138" lon="3.26931">
        <ele>4.46</ele>
        <time>2018-05-08T13:52:00Z</time>
      </trkpt>
      <trkpt lat="43.32101" lon="3.27036">
        <ele>3.98</ele>
        <time>2018-05-08T13:52:14Z</time>
      </trkpt>
      <trkpt lat="43.3206" lon="3.27156">
        <ele>3.5</ele>
        <time>2018-05-08T13:52:32Z</time>
      </trkpt>
      <trkpt lat="43.32014" lon="3.27281">
        <ele>3.5</ele>
        <time>2018-05-08T13:52:51Z</time>
      </trkpt>
      <trkpt lat="43.31997" lon="3.27331">
        <ele>3.02</ele>
        <time>2018-05-08T13:52:59Z</time>
      </trkpt>
      <trkpt lat="43.3196" lon="3.27433">
        <ele>1.58</ele>
        <time>2018-05-08T13:53:16Z</time>
      </trkpt>
      <trkpt lat="43.31954" lon="3.2745">
        <ele>1.58</ele>
        <time>2018-05-08T13:53:19Z</time>
      </trkpt>
      <trkpt lat="43.31924" lon="3.27533">
        <ele>1.58</ele>
        <time>2018-05-08T13:53:34Z</time>
      </trkpt>
      <trkpt lat="43.31922" lon="3.27539">
        <ele>1.58</ele>
        <time>2018-05-08T13:53:35Z</time>
      </trkpt>
      <trkpt lat="43.31912" lon="3.27567">
        <ele>1.58</ele>
        <time>2018-05-08T13:53:40Z</time>
      </trkpt>
      <trkpt lat="43.31911" lon="3.27572">
        <ele>1.58</ele>
        <time>2018-05-08T13:53:41Z</time>
      </trkpt>
      <trkpt lat="43.31884" lon="3.27645">
        <ele>1.58</ele>
        <time>2018-05-08T13:53:54Z</time>
      </trkpt>
      <trkpt lat="43.31882" lon="3.27651">
        <ele>1.58</ele>
        <time>2018-05-08T13:53:55Z</time>
      </trkpt>
      <trkpt lat="43.3188" lon="3.27657">
        <ele>1.58</ele>
        <time>2018-05-08T13:53:56Z</time>
      </trkpt>
      <trkpt lat="43.31878" lon="3.27664">
        <ele>1.58</ele>
        <time>2018-05-08T13:53:57Z</time>
      </trkpt>
      <trkpt lat="43.31876" lon="3.27668">
        <ele>1.58</ele>
        <time>2018-05-08T13:53:58Z</time>
      </trkpt>
      <trkpt lat="43.31838" lon="3.27774">
        <ele>1.58</ele>
        <time>2018-05-08T13:54:17Z</time>
      </trkpt>
      <trkpt lat="43.31816" lon="3.27838">
        <ele>1.58</ele>
        <time>2018-05-08T13:54:29Z</time>
      </trkpt>
      <trkpt lat="43.31807" lon="3.2786">
        <ele>0.14</ele>
        <time>2018-05-08T13:54:38Z</time>
      </trkpt>
      <trkpt lat="43.31806" lon="3.27864">
        <ele>2.06</ele>
        <time>2018-05-08T13:55:01Z</time>
      </trkpt>
      <trkpt lat="43.31802" lon="3.27869">
        <ele>3.5</ele>
        <time>2018-05-08T13:55:25Z</time>
      </trkpt>
      <trkpt lat="43.31785" lon="3.27923">
        <ele>3.02</ele>
        <time>2018-05-08T13:55:37Z</time>
      </trkpt>
      <trkpt lat="43.31779" lon="3.27941">
        <ele>2.54</ele>
        <time>2018-05-08T13:55:40Z</time>
      </trkpt>
      <trkpt lat="43.31748" lon="3.28049">
        <ele>1.58</ele>
        <time>2018-05-08T13:55:57Z</time>
      </trkpt>
      <trkpt lat="43.31734" lon="3.28085">
        <ele>3.02</ele>
        <time>2018-05-08T13:56:06Z</time>
      </trkpt>
      <trkpt lat="43.31726" lon="3.28105">
        <ele>3.02</ele>
        <time>2018-05-08T13:56:10Z</time>
      </trkpt>
      <trkpt lat="43.31726" lon="3.28112">
        <ele>3.02</ele>
        <time>2018-05-08T13:56:11Z</time>
      </trkpt>
      <trkpt lat="43.31726" lon="3.2812">
        <ele>3.02</ele>
        <time>2018-05-08T13:56:12Z</time>
      </trkpt>
      <trkpt lat="43.31726" lon="3.28127">
        <ele>3.5</ele>
        <time>2018-05-08T13:56:13Z</time>
      </trkpt>
      <trkpt lat="43.31724" lon="3.28133">
        <ele>3.5</ele>
        <time>2018-05-08T13:56:14Z</time>
      </trkpt>
      <trkpt lat="43.31722" lon="3.28139">
        <ele>3.98</ele>
        <time>2018-05-08T13:56:15Z</time>
      </trkpt>
      <trkpt lat="43.3172" lon="3.28146">
        <ele>3.98</ele>
        <time>2018-05-08T13:56:16Z</time>
      </trkpt>
      <trkpt lat="43.31713" lon="3.28167">
        <ele>4.94</ele>
        <time>2018-05-08T13:56:19Z</time>
      </trkpt>
      <trkpt lat="43.3171" lon="3.28173">
        <ele>4.94</ele>
        <time>2018-05-08T13:56:20Z</time>
      </trkpt>
      <trkpt lat="43.31706" lon="3.2818">
        <ele>4.94</ele>
        <time>2018-05-08T13:56:21Z</time>
      </trkpt>
      <trkpt lat="43.31703" lon="3.28186">
        <ele>5.42</ele>
        <time>2018-05-08T13:56:22Z</time>
      </trkpt>
      <trkpt lat="43.31701" lon="3.28192">
        <ele>4.94</ele>
        <time>2018-05-08T13:56:23Z</time>
      </trkpt>
      <trkpt lat="43.31699" lon="3.28198">
        <ele>4.94</ele>
        <time>2018-05-08T13:56:24Z</time>
      </trkpt>
      <trkpt lat="43.31697" lon="3.28204">
        <ele>4.94</ele>
        <time>2018-05-08T13:56:25Z</time>
      </trkpt>
      <trkpt lat="43.31695" lon="3.28211">
        <ele>4.46</ele>
        <time>2018-05-08T13:56:26Z</time>
      </trkpt>
      <trkpt lat="43.31665" lon="3.28319">
        <ele>3.98</ele>
        <time>2018-05-08T13:56:43Z</time>
      </trkpt>
      <trkpt lat="43.31635" lon="3.28427">
        <ele>2.54</ele>
        <time>2018-05-08T13:57:00Z</time>
      </trkpt>
      <trkpt lat="43.31608" lon="3.28536">
        <ele>2.54</ele>
        <time>2018-05-08T13:57:16Z</time>
      </trkpt>
      <trkpt lat="43.31607" lon="3.28542">
        <ele>2.54</ele>
        <time>2018-05-08T13:57:17Z</time>
      </trkpt>
      <trkpt lat="43.31579" lon="3.2866">
        <ele>2.06</ele>
        <time>2018-05-08T13:57:34Z</time>
      </trkpt>
      <trkpt lat="43.31554" lon="3.28794">
        <ele>-0.34</ele>
        <time>2018-05-08T13:57:51Z</time>
      </trkpt>
      <trkpt lat="43.31533" lon="3.28923">
        <ele>-0.34</ele>
        <time>2018-05-08T13:58:06Z</time>
      </trkpt>
      <trkpt lat="43.31518" lon="3.29083">
        <ele>-1.79</ele>
        <time>2018-05-08T13:58:24Z</time>
      </trkpt>
      <trkpt lat="43.31514" lon="3.29262">
        <ele>-1.3</ele>
        <time>2018-05-08T13:58:42Z</time>
      </trkpt>
      <trkpt lat="43.31519" lon="3.29332">
        <ele>-1.3</ele>
        <time>2018-05-08T13:58:49Z</time>
      </trkpt>
      <trkpt lat="43.31522" lon="3.29341">
        <ele>-1.3</ele>
        <time>2018-05-08T13:58:50Z</time>
      </trkpt>
      <trkpt lat="43.31525" lon="3.2935">
        <ele>-1.3</ele>
        <time>2018-05-08T13:58:51Z</time>
      </trkpt>
      <trkpt lat="43.31528" lon="3.2936">
        <ele>-1.3</ele>
        <time>2018-05-08T13:58:52Z</time>
      </trkpt>
      <trkpt lat="43.31528" lon="3.2937">
        <ele>-1.3</ele>
        <time>2018-05-08T13:58:53Z</time>
      </trkpt>
      <trkpt lat="43.31527" lon="3.2938">
        <ele>-1.3</ele>
        <time>2018-05-08T13:58:54Z</time>
      </trkpt>
      <trkpt lat="43.31528" lon="3.29389">
        <ele>-0.82</ele>
        <time>2018-05-08T13:58:55Z</time>
      </trkpt>
      <trkpt lat="43.31529" lon="3.29399">
        <ele>-0.82</ele>
        <time>2018-05-08T13:58:56Z</time>
      </trkpt>
      <trkpt lat="43.3153" lon="3.29409">
        <ele>-0.82</ele>
        <time>2018-05-08T13:58:57Z</time>
      </trkpt>
      <trkpt lat="43.31558" lon="3.2958">
        <ele>0.14</ele>
        <time>2018-05-08T13:59:15Z</time>
      </trkpt>
      <trkpt lat="43.31586" lon="3.2975">
        <ele>0.62</ele>
        <time>2018-05-08T13:59:33Z</time>
      </trkpt>
      <trkpt lat="43.31609" lon="3.29879">
        <ele>2.06</ele>
        <time>2018-05-08T13:59:48Z</time>
      </trkpt>
      <trkpt lat="43.31629" lon="3.29985">
        <ele>2.06</ele>
        <time>2018-05-08T14:00:01Z</time>
      </trkpt>
      <trkpt lat="43.31641" lon="3.30066">
        <ele>1.58</ele>
        <time>2018-05-08T14:00:11Z</time>
      </trkpt>
      <trkpt lat="43.31643" lon="3.30074">
        <ele>1.58</ele>
        <time>2018-05-08T14:00:12Z</time>
      </trkpt>
      <trkpt lat="43.31652" lon="3.301">
        <ele>1.1</ele>
        <time>2018-05-08T14:00:20Z</time>
      </trkpt>
      <trkpt lat="43.31663" lon="3.30133">
        <ele>-1.3</ele>
        <time>2018-05-08T14:00:34Z</time>
      </trkpt>
      <trkpt lat="43.31666" lon="3.30171">
        <ele>-2.75</ele>
        <time>2018-05-08T14:00:47Z</time>
      </trkpt>
      <trkpt lat="43.31669" lon="3.30212">
        <ele>-0.82</ele>
        <time>2018-05-08T14:00:59Z</time>
      </trkpt>
      <trkpt lat="43.3167" lon="3.30213">
        <ele>-0.82</ele>
        <time>2018-05-08T14:01:23Z</time>
      </trkpt>
      <trkpt lat="43.31669" lon="3.30216">
        <ele>0.62</ele>
        <time>2018-05-08T14:01:44Z</time>
      </trkpt>
      <trkpt lat="43.31669" lon="3.30218">
        <ele>0.62</ele>
        <time>2018-05-08T14:01:45Z</time>
      </trkpt>
      <trkpt lat="43.3167" lon="3.3022">
        <ele>0.62</ele>
        <time>2018-05-08T14:01:46Z</time>
      </trkpt>
      <trkpt lat="43.31679" lon="3.30272">
        <ele>0.14</ele>
        <time>2018-05-08T14:01:58Z</time>
      </trkpt>
      <trkpt lat="43.31692" lon="3.30368">
        <ele>1.1</ele>
        <time>2018-05-08T14:02:14Z</time>
      </trkpt>
      <trkpt lat="43.3169" lon="3.30488">
        <ele>3.5</ele>
        <time>2018-05-08T14:02:31Z</time>
      </trkpt>
      <trkpt lat="43.31662" lon="3.30628">
        <ele>4.94</ele>
        <time>2018-05-08T14:02:49Z</time>
      </trkpt>
      <trkpt lat="43.31629" lon="3.30775">
        <ele>6.39</ele>
        <time>2018-05-08T14:03:07Z</time>
      </trkpt>
      <trkpt lat="43.31602" lon="3.30899">
        <ele>7.83</ele>
        <time>2018-05-08T14:03:22Z</time>
      </trkpt>
      <trkpt lat="43.31571" lon="3.31026">
        <ele>7.83</ele>
        <time>2018-05-08T14:03:38Z</time>
      </trkpt>
      <trkpt lat="43.31523" lon="3.31152">
        <ele>7.35</ele>
        <time>2018-05-08T14:03:55Z</time>
      </trkpt>
      <trkpt lat="43.31469" lon="3.31257">
        <ele>6.87</ele>
        <time>2018-05-08T14:04:12Z</time>
      </trkpt>
      <trkpt lat="43.31438" lon="3.31305">
        <ele>6.39</ele>
        <time>2018-05-08T14:04:25Z</time>
      </trkpt>
      <trkpt lat="43.3142" lon="3.31336">
        <ele>4.46</ele>
        <time>2018-05-08T14:04:31Z</time>
      </trkpt>
      <trkpt lat="43.31371" lon="3.31421">
        <ele>1.58</ele>
        <time>2018-05-08T14:04:47Z</time>
      </trkpt>
      <trkpt lat="43.31346" lon="3.31463">
        <ele>2.06</ele>
        <time>2018-05-08T14:04:55Z</time>
      </trkpt>
      <trkpt lat="43.31297" lon="3.31548">
        <ele>1.58</ele>
        <time>2018-05-08T14:05:11Z</time>
      </trkpt>
      <trkpt lat="43.3126" lon="3.3161">
        <ele>2.06</ele>
        <time>2018-05-08T14:05:23Z</time>
      </trkpt>
      <trkpt lat="43.31258" lon="3.31615">
        <ele>2.06</ele>
        <time>2018-05-08T14:05:24Z</time>
      </trkpt>
      <trkpt lat="43.3124" lon="3.31647">
        <ele>2.54</ele>
        <time>2018-05-08T14:05:30Z</time>
      </trkpt>
      <trkpt lat="43.31193" lon="3.31728">
        <ele>1.1</ele>
        <time>2018-05-08T14:05:46Z</time>
      </trkpt>
      <trkpt lat="43.31148" lon="3.31805">
        <ele>1.58</ele>
        <time>2018-05-08T14:06:02Z</time>
      </trkpt>
      <trkpt lat="43.31109" lon="3.31874">
        <ele>2.06</ele>
        <time>2018-05-08T14:06:15Z</time>
      </trkpt>
      <trkpt lat="43.31104" lon="3.31884">
        <ele>2.06</ele>
        <time>2018-05-08T14:06:17Z</time>
      </trkpt>
      <trkpt lat="43.31045" lon="3.3199">
        <ele>1.58</ele>
        <time>2018-05-08T14:06:36Z</time>
      </trkpt>
      <trkpt lat="43.30994" lon="3.32082">
        <ele>3.02</ele>
        <time>2018-05-08T14:06:53Z</time>
      </trkpt>
      <trkpt lat="43.30966" lon="3.3213">
        <ele>4.46</ele>
        <time>2018-05-08T14:07:05Z</time>
      </trkpt>
      <trkpt lat="43.30928" lon="3.32195">
        <ele>3.5</ele>
        <time>2018-05-08T14:07:18Z</time>
      </trkpt>
      <trkpt lat="43.30883" lon="3.32271">
        <ele>3.5</ele>
        <time>2018-05-08T14:07:33Z</time>
      </trkpt>
      <trkpt lat="43.30827" lon="3.32357">
        <ele>5.42</ele>
        <time>2018-05-08T14:07:51Z</time>
      </trkpt>
      <trkpt lat="43.30815" lon="3.3238">
        <ele>4.94</ele>
        <time>2018-05-08T14:07:55Z</time>
      </trkpt>
      <trkpt lat="43.30811" lon="3.32385">
        <ele>4.94</ele>
        <time>2018-05-08T14:07:56Z</time>
      </trkpt>
      <trkpt lat="43.30803" lon="3.32395">
        <ele>4.46</ele>
        <time>2018-05-08T14:07:58Z</time>
      </trkpt>
      <trkpt lat="43.30799" lon="3.32399">
        <ele>4.46</ele>
        <time>2018-05-08T14:07:59Z</time>
      </trkpt>
      <trkpt lat="43.30796" lon="3.32403">
        <ele>3.98</ele>
        <time>2018-05-08T14:08:00Z</time>
      </trkpt>
      <trkpt lat="43.30768" lon="3.32447">
        <ele>3.98</ele>
        <time>2018-05-08T14:08:11Z</time>
      </trkpt>
      <trkpt lat="43.30763" lon="3.32457">
        <ele>3.98</ele>
        <time>2018-05-08T14:08:13Z</time>
      </trkpt>
      <trkpt lat="43.3076" lon="3.32462">
        <ele>4.46</ele>
        <time>2018-05-08T14:08:14Z</time>
      </trkpt>
      <trkpt lat="43.30715" lon="3.32528">
        <ele>3.5</ele>
        <time>2018-05-08T14:08:26Z</time>
      </trkpt>
      <trkpt lat="43.30707" lon="3.32537">
        <ele>3.02</ele>
        <time>2018-05-08T14:08:28Z</time>
      </trkpt>
      <trkpt lat="43.30654" lon="3.32612">
        <ele>0.14</ele>
        <time>2018-05-08T14:08:43Z</time>
      </trkpt>
      <trkpt lat="43.30585" lon="3.32712">
        <ele>-1.79</ele>
        <time>2018-05-08T14:09:03Z</time>
      </trkpt>
      <trkpt lat="43.30535" lon="3.32793">
        <ele>-1.79</ele>
        <time>2018-05-08T14:09:18Z</time>
      </trkpt>
      <trkpt lat="43.30473" lon="3.3289">
        <ele>0.14</ele>
        <time>2018-05-08T14:09:37Z</time>
      </trkpt>
      <trkpt lat="43.30454" lon="3.32922">
        <ele>-1.3</ele>
        <time>2018-05-08T14:09:49Z</time>
      </trkpt>
      <trkpt lat="43.30443" lon="3.32932">
        <ele>-1.79</ele>
        <time>2018-05-08T14:10:00Z</time>
      </trkpt>
      <trkpt lat="43.30443" lon="3.32933">
        <ele>-0.82</ele>
        <time>2018-05-08T14:10:25Z</time>
      </trkpt>
      <trkpt lat="43.30442" lon="3.32932">
        <ele>1.1</ele>
        <time>2018-05-08T14:10:51Z</time>
      </trkpt>
      <trkpt lat="43.30442" lon="3.32931">
        <ele>1.1</ele>
        <time>2018-05-08T14:11:16Z</time>
      </trkpt>
      <trkpt lat="43.3044" lon="3.32934">
        <ele>0.62</ele>
        <time>2018-05-08T14:11:29Z</time>
      </trkpt>
      <trkpt lat="43.30438" lon="3.32937">
        <ele>1.1</ele>
        <time>2018-05-08T14:11:31Z</time>
      </trkpt>
      <trkpt lat="43.30438" lon="3.32939">
        <ele>1.1</ele>
        <time>2018-05-08T14:11:32Z</time>
      </trkpt>
      <trkpt lat="43.30439" lon="3.3294">
        <ele>1.58</ele>
        <time>2018-05-08T14:11:33Z</time>
      </trkpt>
      <trkpt lat="43.30441" lon="3.32941">
        <ele>1.58</ele>
        <time>2018-05-08T14:11:34Z</time>
      </trkpt>
      <trkpt lat="43.30442" lon="3.3294">
        <ele>1.58</ele>
        <time>2018-05-08T14:11:35Z</time>
      </trkpt>
      <trkpt lat="43.30443" lon="3.3294">
        <ele>1.58</ele>
        <time>2018-05-08T14:11:36Z</time>
      </trkpt>
      <trkpt lat="43.30445" lon="3.32939">
        <ele>1.1</ele>
        <time>2018-05-08T14:11:37Z</time>
      </trkpt>
      <trkpt lat="43.30455" lon="3.32943">
        <ele>-0.82</ele>
        <time>2018-05-08T14:11:50Z</time>
      </trkpt>
      <trkpt lat="43.30455" lon="3.32945">
        <ele>-0.82</ele>
        <time>2018-05-08T14:12:19Z</time>
      </trkpt>
      <trkpt lat="43.30455" lon="3.32946">
        <ele>0.62</ele>
        <time>2018-05-08T14:12:47Z</time>
      </trkpt>
      <trkpt lat="43.30459" lon="3.32943">
        <ele>0.14</ele>
        <time>2018-05-08T14:13:01Z</time>
      </trkpt>
      <trkpt lat="43.30462" lon="3.32934">
        <ele>0.62</ele>
        <time>2018-05-08T14:13:14Z</time>
      </trkpt>
      <trkpt lat="43.3047" lon="3.32926">
        <ele>0.14</ele>
        <time>2018-05-08T14:13:27Z</time>
      </trkpt>
      <trkpt lat="43.3047" lon="3.32927">
        <ele>0.14</ele>
        <time>2018-05-08T14:13:46Z</time>
      </trkpt>
      <trkpt lat="43.30471" lon="3.3293">
        <ele>0.62</ele>
        <time>2018-05-08T14:14:19Z</time>
      </trkpt>
      <trkpt lat="43.30474" lon="3.32927">
        <ele>1.1</ele>
        <time>2018-05-08T14:14:35Z</time>
      </trkpt>
      <trkpt lat="43.30481" lon="3.32916">
        <ele>-0.34</ele>
        <time>2018-05-08T14:14:50Z</time>
      </trkpt>
      <trkpt lat="43.30484" lon="3.32913">
        <ele>-0.34</ele>
        <time>2018-05-08T14:15:07Z</time>
      </trkpt>
      <trkpt lat="43.30484" lon="3.32906">
        <ele>-1.3</ele>
        <time>2018-05-08T14:15:27Z</time>
      </trkpt>
      <trkpt lat="43.30478" lon="3.32909">
        <ele>-2.27</ele>
        <time>2018-05-08T14:15:40Z</time>
      </trkpt>
      <trkpt lat="43.30472" lon="3.32919">
        <ele>-1.79</ele>
        <time>2018-05-08T14:15:55Z</time>
      </trkpt>
      <trkpt lat="43.30469" lon="3.32926">
        <ele>-0.34</ele>
        <time>2018-05-08T14:16:09Z</time>
      </trkpt>
      <trkpt lat="43.30468" lon="3.32931">
        <ele>2.54</ele>
        <time>2018-05-08T14:16:35Z</time>
      </trkpt>
      <trkpt lat="43.30465" lon="3.32934">
        <ele>2.54</ele>
        <time>2018-05-08T14:16:55Z</time>
      </trkpt>
      <trkpt lat="43.3046" lon="3.32941">
        <ele>2.54</ele>
        <time>2018-05-08T14:17:10Z</time>
      </trkpt>
      <trkpt lat="43.30458" lon="3.32944">
        <ele>1.58</ele>
        <time>2018-05-08T14:17:24Z</time>
      </trkpt>
      <trkpt lat="43.30453" lon="3.32942">
        <ele>1.58</ele>
        <time>2018-05-08T14:17:39Z</time>
      </trkpt>
      <trkpt lat="43.30453" lon="3.32941">
        <ele>2.54</ele>
        <time>2018-05-08T14:18:09Z</time>
      </trkpt>
      <trkpt lat="43.30454" lon="3.32941">
        <ele>2.54</ele>
        <time>2018-05-08T14:18:45Z</time>
      </trkpt>
      <trkpt lat="43.30455" lon="3.3294">
        <ele>3.5</ele>
        <time>2018-05-08T14:19:06Z</time>
      </trkpt>
      <trkpt lat="43.30454" lon="3.32939">
        <ele>3.98</ele>
        <time>2018-05-08T14:19:38Z</time>
      </trkpt>
      <trkpt lat="43.30456" lon="3.32938">
        <ele>4.94</ele>
        <time>2018-05-08T14:20:14Z</time>
      </trkpt>
      <trkpt lat="43.30457" lon="3.32939">
        <ele>4.94</ele>
        <time>2018-05-08T14:20:47Z</time>
      </trkpt>
      <trkpt lat="43.30459" lon="3.32945">
        <ele>5.42</ele>
        <time>2018-05-08T14:21:01Z</time>
      </trkpt>
      <trkpt lat="43.30459" lon="3.32943">
        <ele>5.42</ele>
        <time>2018-05-08T14:21:19Z</time>
      </trkpt>
      <trkpt lat="43.30459" lon="3.32941">
        <ele>5.42</ele>
        <time>2018-05-08T14:21:20Z</time>
      </trkpt>
      <trkpt lat="43.30458" lon="3.3294">
        <ele>5.42</ele>
        <time>2018-05-08T14:21:21Z</time>
      </trkpt>
      <trkpt lat="43.30457" lon="3.32939">
        <ele>5.42</ele>
        <time>2018-05-08T14:21:22Z</time>
      </trkpt>
      <trkpt lat="43.30456" lon="3.32938">
        <ele>5.42</ele>
        <time>2018-05-08T14:21:23Z</time>
      </trkpt>
      <trkpt lat="43.30453" lon="3.32937">
        <ele>4.94</ele>
        <time>2018-05-08T14:21:25Z</time>
      </trkpt>
      <trkpt lat="43.30452" lon="3.32936">
        <ele>4.46</ele>
        <time>2018-05-08T14:21:26Z</time>
      </trkpt>
      <trkpt lat="43.30441" lon="3.32931">
        <ele>3.02</ele>
        <time>2018-05-08T14:21:33Z</time>
      </trkpt>
      <trkpt lat="43.30432" lon="3.32917">
        <ele>2.06</ele>
        <time>2018-05-08T14:21:37Z</time>
      </trkpt>
      <trkpt lat="43.3043" lon="3.32912">
        <ele>2.06</ele>
        <time>2018-05-08T14:21:38Z</time>
      </trkpt>
      <trkpt lat="43.3042" lon="3.32888">
        <ele>1.1</ele>
        <time>2018-05-08T14:21:42Z</time>
      </trkpt>
      <trkpt lat="43.30403" lon="3.32855">
        <ele>0.62</ele>
        <time>2018-05-08T14:21:48Z</time>
      </trkpt>
      <trkpt lat="43.30396" lon="3.32846">
        <ele>0.62</ele>
        <time>2018-05-08T14:21:50Z</time>
      </trkpt>
      <trkpt lat="43.30393" lon="3.32843">
        <ele>0.62</ele>
        <time>2018-05-08T14:21:51Z</time>
      </trkpt>
      <trkpt lat="43.3039" lon="3.3284">
        <ele>0.62</ele>
        <time>2018-05-08T14:21:52Z</time>
      </trkpt>
      <trkpt lat="43.30387" lon="3.32837">
        <ele>0.62</ele>
        <time>2018-05-08T14:21:53Z</time>
      </trkpt>
      <trkpt lat="43.30384" lon="3.32835">
        <ele>0.62</ele>
        <time>2018-05-08T14:21:54Z</time>
      </trkpt>
      <trkpt lat="43.30381" lon="3.32832">
        <ele>0.62</ele>
        <time>2018-05-08T14:21:55Z</time>
      </trkpt>
      <trkpt lat="43.30378" lon="3.32831">
        <ele>0.14</ele>
        <time>2018-05-08T14:21:56Z</time>
      </trkpt>
      <trkpt lat="43.30375" lon="3.32829">
        <ele>0.14</ele>
        <time>2018-05-08T14:21:57Z</time>
      </trkpt>
      <trkpt lat="43.30371" lon="3.32827">
        <ele>-0.34</ele>
        <time>2018-05-08T14:21:58Z</time>
      </trkpt>
      <trkpt lat="43.30368" lon="3.32826">
        <ele>-0.82</ele>
        <time>2018-05-08T14:21:59Z</time>
      </trkpt>
      <trkpt lat="43.30324" lon="3.32829">
        <ele>1.1</ele>
        <time>2018-05-08T14:22:10Z</time>
      </trkpt>
      <trkpt lat="43.3032" lon="3.3283">
        <ele>1.1</ele>
        <time>2018-05-08T14:22:11Z</time>
      </trkpt>
      <trkpt lat="43.30257" lon="3.32848">
        <ele>1.1</ele>
        <time>2018-05-08T14:22:27Z</time>
      </trkpt>
      <trkpt lat="43.30203" lon="3.32865">
        <ele>2.06</ele>
        <time>2018-05-08T14:22:41Z</time>
      </trkpt>
      <trkpt lat="43.30133" lon="3.32888">
        <ele>0.62</ele>
        <time>2018-05-08T14:22:56Z</time>
      </trkpt>
      <trkpt lat="43.30066" lon="3.32908">
        <ele>2.06</ele>
        <time>2018-05-08T14:23:11Z</time>
      </trkpt>
      <trkpt lat="43.30061" lon="3.32909">
        <ele>2.06</ele>
        <time>2018-05-08T14:23:12Z</time>
      </trkpt>
      <trkpt lat="43.30005" lon="3.32926">
        <ele>1.1</ele>
        <time>2018-05-08T14:23:25Z</time>
      </trkpt>
      <trkpt lat="43.29955" lon="3.32938">
        <ele>0.14</ele>
        <time>2018-05-08T14:23:38Z</time>
      </trkpt>
      <trkpt lat="43.29953" lon="3.32935">
        <ele>0.14</ele>
        <time>2018-05-08T14:23:39Z</time>
      </trkpt>
      <trkpt lat="43.29935" lon="3.32893">
        <ele>-0.82</ele>
        <time>2018-05-08T14:23:48Z</time>
      </trkpt>
      <trkpt lat="43.29883" lon="3.32813">
        <ele>0.62</ele>
        <time>2018-05-08T14:24:06Z</time>
      </trkpt>
      <trkpt lat="43.29848" lon="3.3277">
        <ele>1.1</ele>
        <time>2018-05-08T14:24:17Z</time>
      </trkpt>
      <trkpt lat="43.29782" lon="3.32683">
        <ele>2.54</ele>
        <time>2018-05-08T14:24:38Z</time>
      </trkpt>
      <trkpt lat="43.29776" lon="3.32675">
        <ele>2.54</ele>
        <time>2018-05-08T14:24:40Z</time>
      </trkpt>
      <trkpt lat="43.29773" lon="3.32671">
        <ele>2.54</ele>
        <time>2018-05-08T14:24:41Z</time>
      </trkpt>
      <trkpt lat="43.29726" lon="3.32616">
        <ele>1.58</ele>
        <time>2018-05-08T14:24:56Z</time>
      </trkpt>
      <trkpt lat="43.29696" lon="3.32596">
        <ele>1.1</ele>
        <time>2018-05-08T14:25:08Z</time>
      </trkpt>
      <trkpt lat="43.2966" lon="3.32578">
        <ele>2.06</ele>
        <time>2018-05-08T14:25:19Z</time>
      </trkpt>
      <trkpt lat="43.2961" lon="3.32553">
        <ele>1.58</ele>
        <time>2018-05-08T14:25:33Z</time>
      </trkpt>
      <trkpt lat="43.29564" lon="3.32531">
        <ele>1.1</ele>
        <time>2018-05-08T14:25:46Z</time>
      </trkpt>
      <trkpt lat="43.2956" lon="3.32531">
        <ele>1.1</ele>
        <time>2018-05-08T14:25:47Z</time>
      </trkpt>
      <trkpt lat="43.29556" lon="3.32533">
        <ele>1.1</ele>
        <time>2018-05-08T14:25:48Z</time>
      </trkpt>
      <trkpt lat="43.29553" lon="3.32536">
        <ele>1.1</ele>
        <time>2018-05-08T14:25:49Z</time>
      </trkpt>
      <trkpt lat="43.29551" lon="3.32539">
        <ele>1.1</ele>
        <time>2018-05-08T14:25:50Z</time>
      </trkpt>
      <trkpt lat="43.29549" lon="3.32544">
        <ele>1.1</ele>
        <time>2018-05-08T14:25:51Z</time>
      </trkpt>
      <trkpt lat="43.29529" lon="3.32584">
        <ele>1.58</ele>
        <time>2018-05-08T14:26:00Z</time>
      </trkpt>
      <trkpt lat="43.2952" lon="3.32605">
        <ele>2.06</ele>
        <time>2018-05-08T14:26:04Z</time>
      </trkpt>
      <trkpt lat="43.29516" lon="3.32613">
        <ele>1.58</ele>
        <time>2018-05-08T14:26:06Z</time>
      </trkpt>
      <trkpt lat="43.29504" lon="3.32643">
        <ele>1.1</ele>
        <time>2018-05-08T14:26:12Z</time>
      </trkpt>
      <trkpt lat="43.29502" lon="3.32649">
        <ele>1.1</ele>
        <time>2018-05-08T14:26:13Z</time>
      </trkpt>
      <trkpt lat="43.29501" lon="3.32655">
        <ele>1.1</ele>
        <time>2018-05-08T14:26:14Z</time>
      </trkpt>
      <trkpt lat="43.29501" lon="3.3266">
        <ele>1.1</ele>
        <time>2018-05-08T14:26:15Z</time>
      </trkpt>
      <trkpt lat="43.295" lon="3.32666">
        <ele>1.1</ele>
        <time>2018-05-08T14:26:16Z</time>
      </trkpt>
      <trkpt lat="43.29499" lon="3.32671">
        <ele>1.1</ele>
        <time>2018-05-08T14:26:17Z</time>
      </trkpt>
      <trkpt lat="43.29498" lon="3.32677">
        <ele>1.1</ele>
        <time>2018-05-08T14:26:18Z</time>
      </trkpt>
      <trkpt lat="43.29497" lon="3.32682">
        <ele>0.62</ele>
        <time>2018-05-08T14:26:19Z</time>
      </trkpt>
      <trkpt lat="43.29495" lon="3.32693">
        <ele>0.62</ele>
        <time>2018-05-08T14:26:21Z</time>
      </trkpt>
      <trkpt lat="43.29493" lon="3.32699">
        <ele>0.62</ele>
        <time>2018-05-08T14:26:22Z</time>
      </trkpt>
      <trkpt lat="43.29491" lon="3.32704">
        <ele>0.62</ele>
        <time>2018-05-08T14:26:23Z</time>
      </trkpt>
      <trkpt lat="43.29485" lon="3.32725">
        <ele>0.62</ele>
        <time>2018-05-08T14:26:27Z</time>
      </trkpt>
      <trkpt lat="43.29476" lon="3.32752">
        <ele>1.1</ele>
        <time>2018-05-08T14:26:32Z</time>
      </trkpt>
      <trkpt lat="43.2946" lon="3.328">
        <ele>2.06</ele>
        <time>2018-05-08T14:26:41Z</time>
      </trkpt>
      <trkpt lat="43.29458" lon="3.32804">
        <ele>2.06</ele>
        <time>2018-05-08T14:26:42Z</time>
      </trkpt>
      <trkpt lat="43.29443" lon="3.32826">
        <ele>2.06</ele>
        <time>2018-05-08T14:26:47Z</time>
      </trkpt>
      <trkpt lat="43.29438" lon="3.32833">
        <ele>2.06</ele>
        <time>2018-05-08T14:26:49Z</time>
      </trkpt>
      <trkpt lat="43.29435" lon="3.32837">
        <ele>1.58</ele>
        <time>2018-05-08T14:26:50Z</time>
      </trkpt>
      <trkpt lat="43.29433" lon="3.32841">
        <ele>1.58</ele>
        <time>2018-05-08T14:26:51Z</time>
      </trkpt>
      <trkpt lat="43.29407" lon="3.3288">
        <ele>1.58</ele>
        <time>2018-05-08T14:27:00Z</time>
      </trkpt>
      <trkpt lat="43.29404" lon="3.32884">
        <ele>1.58</ele>
        <time>2018-05-08T14:27:01Z</time>
      </trkpt>
      <trkpt lat="43.29396" lon="3.32898">
        <ele>2.06</ele>
        <time>2018-05-08T14:27:04Z</time>
      </trkpt>
      <trkpt lat="43.29384" lon="3.32914">
        <ele>2.54</ele>
        <time>2018-05-08T14:27:08Z</time>
      </trkpt>
      <trkpt lat="43.29376" lon="3.32926">
        <ele>2.54</ele>
        <time>2018-05-08T14:27:11Z</time>
      </trkpt>
      <trkpt lat="43.29373" lon="3.32929">
        <ele>2.54</ele>
        <time>2018-05-08T14:27:12Z</time>
      </trkpt>
      <trkpt lat="43.2937" lon="3.32934">
        <ele>2.54</ele>
        <time>2018-05-08T14:27:13Z</time>
      </trkpt>
      <trkpt lat="43.29359" lon="3.32951">
        <ele>3.02</ele>
        <time>2018-05-08T14:27:17Z</time>
      </trkpt>
      <trkpt lat="43.29347" lon="3.32969">
        <ele>3.02</ele>
        <time>2018-05-08T14:27:21Z</time>
      </trkpt>
      <trkpt lat="43.29344" lon="3.32973">
        <ele>3.02</ele>
        <time>2018-05-08T14:27:22Z</time>
      </trkpt>
      <trkpt lat="43.29297" lon="3.33045">
        <ele>2.54</ele>
        <time>2018-05-08T14:27:38Z</time>
      </trkpt>
      <trkpt lat="43.29294" lon="3.33049">
        <ele>2.54</ele>
        <time>2018-05-08T14:27:39Z</time>
      </trkpt>
      <trkpt lat="43.29279" lon="3.33061">
        <ele>3.02</ele>
        <time>2018-05-08T14:27:43Z</time>
      </trkpt>
      <trkpt lat="43.29241" lon="3.33097">
        <ele>2.54</ele>
        <time>2018-05-08T14:27:54Z</time>
      </trkpt>
      <trkpt lat="43.29181" lon="3.33143">
        <ele>3.02</ele>
        <time>2018-05-08T14:28:10Z</time>
      </trkpt>
      <trkpt lat="43.29132" lon="3.33176">
        <ele>3.02</ele>
        <time>2018-05-08T14:28:23Z</time>
      </trkpt>
      <trkpt lat="43.29088" lon="3.33209">
        <ele>3.02</ele>
        <time>2018-05-08T14:28:36Z</time>
      </trkpt>
      <trkpt lat="43.29024" lon="3.33241">
        <ele>2.06</ele>
        <time>2018-05-08T14:28:53Z</time>
      </trkpt>
      <trkpt lat="43.29016" lon="3.33245">
        <ele>2.54</ele>
        <time>2018-05-08T14:28:55Z</time>
      </trkpt>
      <trkpt lat="43.28979" lon="3.33259">
        <ele>2.06</ele>
        <time>2018-05-08T14:29:04Z</time>
      </trkpt>
      <trkpt lat="43.28975" lon="3.3326">
        <ele>2.06</ele>
        <time>2018-05-08T14:29:05Z</time>
      </trkpt>
      <trkpt lat="43.28953" lon="3.33265">
        <ele>2.06</ele>
        <time>2018-05-08T14:29:10Z</time>
      </trkpt>
      <trkpt lat="43.28937" lon="3.33269">
        <ele>2.06</ele>
        <time>2018-05-08T14:29:14Z</time>
      </trkpt>
      <trkpt lat="43.28882" lon="3.33283">
        <ele>1.58</ele>
        <time>2018-05-08T14:29:27Z</time>
      </trkpt>
      <trkpt lat="43.28849" lon="3.33295">
        <ele>1.58</ele>
        <time>2018-05-08T14:29:35Z</time>
      </trkpt>
      <trkpt lat="43.2884" lon="3.33299">
        <ele>1.58</ele>
        <time>2018-05-08T14:29:37Z</time>
      </trkpt>
      <trkpt lat="43.28827" lon="3.33302">
        <ele>1.58</ele>
        <time>2018-05-08T14:29:40Z</time>
      </trkpt>
      <trkpt lat="43.28818" lon="3.33303">
        <ele>1.1</ele>
        <time>2018-05-08T14:29:42Z</time>
      </trkpt>
      <trkpt lat="43.28814" lon="3.33304">
        <ele>1.1</ele>
        <time>2018-05-08T14:29:43Z</time>
      </trkpt>
      <trkpt lat="43.28738" lon="3.33327">
        <ele>0.62</ele>
        <time>2018-05-08T14:30:01Z</time>
      </trkpt>
      <trkpt lat="43.28667" lon="3.3335">
        <ele>0.14</ele>
        <time>2018-05-08T14:30:18Z</time>
      </trkpt>
      <trkpt lat="43.28645" lon="3.33357">
        <ele>0.62</ele>
        <time>2018-05-08T14:30:23Z</time>
      </trkpt>
      <trkpt lat="43.28578" lon="3.33376">
        <ele>0.14</ele>
        <time>2018-05-08T14:30:39Z</time>
      </trkpt>
      <trkpt lat="43.28569" lon="3.3338">
        <ele>0.14</ele>
        <time>2018-05-08T14:30:41Z</time>
      </trkpt>
      <trkpt lat="43.28505" lon="3.33398">
        <ele>0.14</ele>
        <time>2018-05-08T14:30:57Z</time>
      </trkpt>
      <trkpt lat="43.28468" lon="3.33409">
        <ele>0.62</ele>
        <time>2018-05-08T14:31:06Z</time>
      </trkpt>
      <trkpt lat="43.28403" lon="3.33448">
        <ele>0.62</ele>
        <time>2018-05-08T14:31:22Z</time>
      </trkpt>
      <trkpt lat="43.28354" lon="3.33492">
        <ele>-0.82</ele>
        <time>2018-05-08T14:31:35Z</time>
      </trkpt>
      <trkpt lat="43.28343" lon="3.33503">
        <ele>-0.82</ele>
        <time>2018-05-08T14:31:38Z</time>
      </trkpt>
      <trkpt lat="43.28324" lon="3.3352">
        <ele>-0.82</ele>
        <time>2018-05-08T14:31:43Z</time>
      </trkpt>
      <trkpt lat="43.2832" lon="3.33523">
        <ele>-0.82</ele>
        <time>2018-05-08T14:31:44Z</time>
      </trkpt>
      <trkpt lat="43.28316" lon="3.33526">
        <ele>-0.82</ele>
        <time>2018-05-08T14:31:45Z</time>
      </trkpt>
      <trkpt lat="43.28261" lon="3.33583">
        <ele>-1.3</ele>
        <time>2018-05-08T14:32:01Z</time>
      </trkpt>
      <trkpt lat="43.28247" lon="3.33598">
        <ele>-1.3</ele>
        <time>2018-05-08T14:32:05Z</time>
      </trkpt>
      <trkpt lat="43.28244" lon="3.33602">
        <ele>-1.3</ele>
        <time>2018-05-08T14:32:06Z</time>
      </trkpt>
      <trkpt lat="43.28236" lon="3.33608">
        <ele>-1.3</ele>
        <time>2018-05-08T14:32:08Z</time>
      </trkpt>
      <trkpt lat="43.28187" lon="3.33667">
        <ele>-2.27</ele>
        <time>2018-05-08T14:32:23Z</time>
      </trkpt>
      <trkpt lat="43.28147" lon="3.33725">
        <ele>-1.79</ele>
        <time>2018-05-08T14:32:36Z</time>
      </trkpt>
      <trkpt lat="43.28144" lon="3.3373">
        <ele>-1.79</ele>
        <time>2018-05-08T14:32:37Z</time>
      </trkpt>
      <trkpt lat="43.28141" lon="3.33735">
        <ele>-1.79</ele>
        <time>2018-05-08T14:32:38Z</time>
      </trkpt>
      <trkpt lat="43.28124" lon="3.3376">
        <ele>-1.3</ele>
        <time>2018-05-08T14:32:44Z</time>
      </trkpt>
      <trkpt lat="43.28121" lon="3.33764">
        <ele>-1.3</ele>
        <time>2018-05-08T14:32:45Z</time>
      </trkpt>
      <trkpt lat="43.28075" lon="3.33829">
        <ele>-0.34</ele>
        <time>2018-05-08T14:33:02Z</time>
      </trkpt>
      <trkpt lat="43.28049" lon="3.33865">
        <ele>-1.3</ele>
        <time>2018-05-08T14:33:16Z</time>
      </trkpt>
      <trkpt lat="43.28049" lon="3.33865">
        <ele>-0.34</ele>
        <time>2018-05-08T14:33:36Z</time>
      </trkpt>
      <trkpt lat="43.28048" lon="3.33865">
        <ele>1.1</ele>
        <time>2018-05-08T14:34:01Z</time>
      </trkpt>
      <trkpt lat="43.28048" lon="3.33866">
        <ele>0.14</ele>
        <time>2018-05-08T14:34:20Z</time>
      </trkpt>
      <trkpt lat="43.28048" lon="3.33868">
        <ele>-0.82</ele>
        <time>2018-05-08T14:34:40Z</time>
      </trkpt>
      <trkpt lat="43.28048" lon="3.33869">
        <ele>2.54</ele>
        <time>2018-05-08T14:35:07Z</time>
      </trkpt>
      <trkpt lat="43.28048" lon="3.33869">
        <ele>3.5</ele>
        <time>2018-05-08T14:35:26Z</time>
      </trkpt>
      <trkpt lat="43.28049" lon="3.33873">
        <ele>4.46</ele>
        <time>2018-05-08T14:35:38Z</time>
      </trkpt>
      <trkpt lat="43.28062" lon="3.33895">
        <ele>4.94</ele>
        <time>2018-05-08T14:35:50Z</time>
      </trkpt>
      <trkpt lat="43.2809" lon="3.33949">
        <ele>4.46</ele>
        <time>2018-05-08T14:36:07Z</time>
      </trkpt>
      <trkpt lat="43.28116" lon="3.34012">
        <ele>4.46</ele>
        <time>2018-05-08T14:36:22Z</time>
      </trkpt>
      <trkpt lat="43.28138" lon="3.34059">
        <ele>3.5</ele>
        <time>2018-05-08T14:36:36Z</time>
      </trkpt>
      <trkpt lat="43.28141" lon="3.34074">
        <ele>1.58</ele>
        <time>2018-05-08T14:36:46Z</time>
      </trkpt>
      <trkpt lat="43.28157" lon="3.34117">
        <ele>1.1</ele>
        <time>2018-05-08T14:36:59Z</time>
      </trkpt>
      <trkpt lat="43.28181" lon="3.34169">
        <ele>1.58</ele>
        <time>2018-05-08T14:37:14Z</time>
      </trkpt>
      <trkpt lat="43.28181" lon="3.34172">
        <ele>1.58</ele>
        <time>2018-05-08T14:37:15Z</time>
      </trkpt>
      <trkpt lat="43.28181" lon="3.34175">
        <ele>1.58</ele>
        <time>2018-05-08T14:37:16Z</time>
      </trkpt>
      <trkpt lat="43.28181" lon="3.34178">
        <ele>1.58</ele>
        <time>2018-05-08T14:37:17Z</time>
      </trkpt>
      <trkpt lat="43.2818" lon="3.3418">
        <ele>1.58</ele>
        <time>2018-05-08T14:37:18Z</time>
      </trkpt>
      <trkpt lat="43.2818" lon="3.34183">
        <ele>1.58</ele>
        <time>2018-05-08T14:37:19Z</time>
      </trkpt>
      <trkpt lat="43.2818" lon="3.34185">
        <ele>2.06</ele>
        <time>2018-05-08T14:37:20Z</time>
      </trkpt>
      <trkpt lat="43.2818" lon="3.34188">
        <ele>2.06</ele>
        <time>2018-05-08T14:37:21Z</time>
      </trkpt>
      <trkpt lat="43.28181" lon="3.34191">
        <ele>2.54</ele>
        <time>2018-05-08T14:37:22Z</time>
      </trkpt>
      <trkpt lat="43.28182" lon="3.34194">
        <ele>2.54</ele>
        <time>2018-05-08T14:37:23Z</time>
      </trkpt>
      <trkpt lat="43.282" lon="3.34236">
        <ele>2.54</ele>
        <time>2018-05-08T14:37:34Z</time>
      </trkpt>
      <trkpt lat="43.28215" lon="3.34288">
        <ele>2.54</ele>
        <time>2018-05-08T14:37:46Z</time>
      </trkpt>
      <trkpt lat="43.2821" lon="3.34361">
        <ele>2.06</ele>
        <time>2018-05-08T14:38:01Z</time>
      </trkpt>
      <trkpt lat="43.28201" lon="3.34438">
        <ele>1.58</ele>
        <time>2018-05-08T14:38:16Z</time>
      </trkpt>
      <trkpt lat="43.28194" lon="3.34508">
        <ele>2.06</ele>
        <time>2018-05-08T14:38:28Z</time>
      </trkpt>
      <trkpt lat="43.28194" lon="3.34515">
        <ele>1.58</ele>
        <time>2018-05-08T14:38:29Z</time>
      </trkpt>
      <trkpt lat="43.28194" lon="3.34553">
        <ele>1.58</ele>
        <time>2018-05-08T14:38:35Z</time>
      </trkpt>
      <trkpt lat="43.28193" lon="3.34559">
        <ele>2.06</ele>
        <time>2018-05-08T14:38:36Z</time>
      </trkpt>
      <trkpt lat="43.2819" lon="3.34584">
        <ele>2.06</ele>
        <time>2018-05-08T14:38:40Z</time>
      </trkpt>
      <trkpt lat="43.28189" lon="3.3459">
        <ele>2.06</ele>
        <time>2018-05-08T14:38:41Z</time>
      </trkpt>
      <trkpt lat="43.28186" lon="3.34607">
        <ele>2.54</ele>
        <time>2018-05-08T14:38:44Z</time>
      </trkpt>
      <trkpt lat="43.28185" lon="3.34618">
        <ele>2.54</ele>
        <time>2018-05-08T14:38:46Z</time>
      </trkpt>
      <trkpt lat="43.28183" lon="3.34647">
        <ele>2.54</ele>
        <time>2018-05-08T14:38:51Z</time>
      </trkpt>
      <trkpt lat="43.28182" lon="3.34659">
        <ele>2.06</ele>
        <time>2018-05-08T14:38:53Z</time>
      </trkpt>
      <trkpt lat="43.28163" lon="3.34702">
        <ele>2.06</ele>
        <time>2018-05-08T14:39:03Z</time>
      </trkpt>
      <trkpt lat="43.28155" lon="3.34705">
        <ele>1.58</ele>
        <time>2018-05-08T14:39:05Z</time>
      </trkpt>
      <trkpt lat="43.28151" lon="3.34708">
        <ele>1.58</ele>
        <time>2018-05-08T14:39:06Z</time>
      </trkpt>
      <trkpt lat="43.28148" lon="3.34712">
        <ele>1.58</ele>
        <time>2018-05-08T14:39:07Z</time>
      </trkpt>
      <trkpt lat="43.28145" lon="3.34716">
        <ele>1.58</ele>
        <time>2018-05-08T14:39:08Z</time>
      </trkpt>
      <trkpt lat="43.28142" lon="3.3472">
        <ele>1.58</ele>
        <time>2018-05-08T14:39:09Z</time>
      </trkpt>
      <trkpt lat="43.28139" lon="3.34724">
        <ele>1.58</ele>
        <time>2018-05-08T14:39:10Z</time>
      </trkpt>
      <trkpt lat="43.28135" lon="3.34727">
        <ele>1.58</ele>
        <time>2018-05-08T14:39:11Z</time>
      </trkpt>
      <trkpt lat="43.28131" lon="3.34729">
        <ele>1.58</ele>
        <time>2018-05-08T14:39:12Z</time>
      </trkpt>
      <trkpt lat="43.28118" lon="3.34734">
        <ele>1.1</ele>
        <time>2018-05-08T14:39:15Z</time>
      </trkpt>
      <trkpt lat="43.28114" lon="3.34734">
        <ele>1.1</ele>
        <time>2018-05-08T14:39:16Z</time>
      </trkpt>
      <trkpt lat="43.28111" lon="3.34734">
        <ele>1.1</ele>
        <time>2018-05-08T14:39:17Z</time>
      </trkpt>
      <trkpt lat="43.28108" lon="3.34733">
        <ele>1.1</ele>
        <time>2018-05-08T14:39:18Z</time>
      </trkpt>
      <trkpt lat="43.28105" lon="3.34733">
        <ele>1.58</ele>
        <time>2018-05-08T14:39:19Z</time>
      </trkpt>
      <trkpt lat="43.28102" lon="3.34734">
        <ele>1.58</ele>
        <time>2018-05-08T14:39:20Z</time>
      </trkpt>
      <trkpt lat="43.28099" lon="3.34735">
        <ele>1.58</ele>
        <time>2018-05-08T14:39:21Z</time>
      </trkpt>
      <trkpt lat="43.28096" lon="3.34737">
        <ele>2.06</ele>
        <time>2018-05-08T14:39:22Z</time>
      </trkpt>
      <trkpt lat="43.28069" lon="3.34753">
        <ele>2.54</ele>
        <time>2018-05-08T14:39:30Z</time>
      </trkpt>
      <trkpt lat="43.28065" lon="3.34756">
        <ele>2.54</ele>
        <time>2018-05-08T14:39:31Z</time>
      </trkpt>
      <trkpt lat="43.28062" lon="3.34759">
        <ele>2.54</ele>
        <time>2018-05-08T14:39:32Z</time>
      </trkpt>
      <trkpt lat="43.28058" lon="3.3476">
        <ele>2.54</ele>
        <time>2018-05-08T14:39:33Z</time>
      </trkpt>
      <trkpt lat="43.28054" lon="3.34761">
        <ele>2.06</ele>
        <time>2018-05-08T14:39:34Z</time>
      </trkpt>
      <trkpt lat="43.2805" lon="3.34762">
        <ele>2.06</ele>
        <time>2018-05-08T14:39:35Z</time>
      </trkpt>
      <trkpt lat="43.28015" lon="3.34782">
        <ele>2.54</ele>
        <time>2018-05-08T14:39:45Z</time>
      </trkpt>
      <trkpt lat="43.28012" lon="3.34784">
        <ele>2.54</ele>
        <time>2018-05-08T14:39:46Z</time>
      </trkpt>
      <trkpt lat="43.27968" lon="3.34809">
        <ele>2.06</ele>
        <time>2018-05-08T14:39:59Z</time>
      </trkpt>
      <trkpt lat="43.27967" lon="3.34809">
        <ele>2.06</ele>
        <time>2018-05-08T14:40:00Z</time>
      </trkpt>
      <trkpt lat="43.27963" lon="3.34807">
        <ele>2.06</ele>
        <time>2018-05-08T14:40:04Z</time>
      </trkpt>
      <trkpt lat="43.27962" lon="3.34809">
        <ele>2.06</ele>
        <time>2018-05-08T14:40:05Z</time>
      </trkpt>
      <trkpt lat="43.2796" lon="3.3481">
        <ele>2.06</ele>
        <time>2018-05-08T14:40:06Z</time>
      </trkpt>
      <trkpt lat="43.27957" lon="3.34812">
        <ele>1.58</ele>
        <time>2018-05-08T14:40:07Z</time>
      </trkpt>
      <trkpt lat="43.27955" lon="3.34813">
        <ele>1.58</ele>
        <time>2018-05-08T14:40:08Z</time>
      </trkpt>
      <trkpt lat="43.27952" lon="3.34815">
        <ele>1.58</ele>
        <time>2018-05-08T14:40:09Z</time>
      </trkpt>
      <trkpt lat="43.2792" lon="3.34851">
        <ele>2.06</ele>
        <time>2018-05-08T14:40:21Z</time>
      </trkpt>
      <trkpt lat="43.27897" lon="3.34891">
        <ele>2.06</ele>
        <time>2018-05-08T14:40:31Z</time>
      </trkpt>
      <trkpt lat="43.27867" lon="3.34938">
        <ele>2.06</ele>
        <time>2018-05-08T14:40:43Z</time>
      </trkpt>
      <trkpt lat="43.27837" lon="3.34993">
        <ele>0.62</ele>
        <time>2018-05-08T14:40:56Z</time>
      </trkpt>
      <trkpt lat="43.27807" lon="3.35049">
        <ele>1.1</ele>
        <time>2018-05-08T14:41:09Z</time>
      </trkpt>
      <trkpt lat="43.27805" lon="3.35071">
        <ele>0.62</ele>
        <time>2018-05-08T14:41:13Z</time>
      </trkpt>
      <trkpt lat="43.27804" lon="3.35076">
        <ele>1.1</ele>
        <time>2018-05-08T14:41:14Z</time>
      </trkpt>
      <trkpt lat="43.27802" lon="3.35081">
        <ele>1.1</ele>
        <time>2018-05-08T14:41:15Z</time>
      </trkpt>
      <trkpt lat="43.27801" lon="3.35086">
        <ele>0.62</ele>
        <time>2018-05-08T14:41:16Z</time>
      </trkpt>
      <trkpt lat="43.278" lon="3.35091">
        <ele>0.62</ele>
        <time>2018-05-08T14:41:17Z</time>
      </trkpt>
      <trkpt lat="43.27799" lon="3.35095">
        <ele>0.62</ele>
        <time>2018-05-08T14:41:18Z</time>
      </trkpt>
      <trkpt lat="43.27787" lon="3.35155">
        <ele>1.58</ele>
        <time>2018-05-08T14:41:31Z</time>
      </trkpt>
      <trkpt lat="43.27774" lon="3.35169">
        <ele>1.58</ele>
        <time>2018-05-08T14:41:37Z</time>
      </trkpt>
      <trkpt lat="43.27771" lon="3.35168">
        <ele>1.58</ele>
        <time>2018-05-08T14:41:38Z</time>
      </trkpt>
      <trkpt lat="43.2777" lon="3.35166">
        <ele>1.58</ele>
        <time>2018-05-08T14:41:39Z</time>
      </trkpt>
      <trkpt lat="43.27768" lon="3.35156">
        <ele>0.62</ele>
        <time>2018-05-08T14:41:43Z</time>
      </trkpt>
      <trkpt lat="43.27767" lon="3.35147">
        <ele>0.62</ele>
        <time>2018-05-08T14:41:47Z</time>
      </trkpt>
      <trkpt lat="43.27764" lon="3.35144">
        <ele>1.1</ele>
        <time>2018-05-08T14:42:00Z</time>
      </trkpt>
      <trkpt lat="43.27764" lon="3.35144">
        <ele>2.06</ele>
        <time>2018-05-08T14:42:34Z</time>
      </trkpt>
      <trkpt lat="43.27766" lon="3.35146">
        <ele>2.06</ele>
        <time>2018-05-08T14:42:51Z</time>
      </trkpt>
      <trkpt lat="43.27766" lon="3.35144">
        <ele>1.58</ele>
        <time>2018-05-08T14:43:30Z</time>
      </trkpt>
      <trkpt lat="43.27765" lon="3.35145">
        <ele>2.54</ele>
        <time>2018-05-08T14:44:15Z</time>
      </trkpt>
      <trkpt lat="43.27765" lon="3.35146">
        <ele>3.98</ele>
        <time>2018-05-08T14:44:43Z</time>
      </trkpt>
      <trkpt lat="43.27766" lon="3.35147">
        <ele>2.06</ele>
        <time>2018-05-08T14:45:08Z</time>
      </trkpt>
      <trkpt lat="43.27767" lon="3.35181">
        <ele>1.58</ele>
        <time>2018-05-08T14:45:17Z</time>
      </trkpt>
      <trkpt lat="43.27765" lon="3.35184">
        <ele>1.58</ele>
        <time>2018-05-08T14:45:18Z</time>
      </trkpt>
      <trkpt lat="43.27762" lon="3.35185">
        <ele>1.58</ele>
        <time>2018-05-08T14:45:19Z</time>
      </trkpt>
      <trkpt lat="43.27759" lon="3.35185">
        <ele>1.58</ele>
        <time>2018-05-08T14:45:20Z</time>
      </trkpt>
      <trkpt lat="43.27756" lon="3.35186">
        <ele>1.58</ele>
        <time>2018-05-08T14:45:21Z</time>
      </trkpt>
      <trkpt lat="43.27753" lon="3.35187">
        <ele>1.58</ele>
        <time>2018-05-08T14:45:22Z</time>
      </trkpt>
      <trkpt lat="43.2775" lon="3.35186">
        <ele>1.58</ele>
        <time>2018-05-08T14:45:23Z</time>
      </trkpt>
      <trkpt lat="43.27746" lon="3.35186">
        <ele>1.58</ele>
        <time>2018-05-08T14:45:24Z</time>
      </trkpt>
      <trkpt lat="43.27744" lon="3.35184">
        <ele>1.58</ele>
        <time>2018-05-08T14:45:25Z</time>
      </trkpt>
      <trkpt lat="43.27741" lon="3.35182">
        <ele>1.58</ele>
        <time>2018-05-08T14:45:26Z</time>
      </trkpt>
      <trkpt lat="43.27739" lon="3.3518">
        <ele>1.58</ele>
        <time>2018-05-08T14:45:27Z</time>
      </trkpt>
      <trkpt lat="43.27737" lon="3.35176">
        <ele>1.58</ele>
        <time>2018-05-08T14:45:28Z</time>
      </trkpt>
      <trkpt lat="43.27736" lon="3.35172">
        <ele>2.06</ele>
        <time>2018-05-08T14:45:29Z</time>
      </trkpt>
      <trkpt lat="43.27734" lon="3.35168">
        <ele>2.06</ele>
        <time>2018-05-08T14:45:30Z</time>
      </trkpt>
      <trkpt lat="43.27725" lon="3.35155">
        <ele>3.5</ele>
        <time>2018-05-08T14:45:34Z</time>
      </trkpt>
      <trkpt lat="43.27722" lon="3.35154">
        <ele>3.5</ele>
        <time>2018-05-08T14:45:35Z</time>
      </trkpt>
      <trkpt lat="43.27719" lon="3.35152">
        <ele>3.5</ele>
        <time>2018-05-08T14:45:36Z</time>
      </trkpt>
      <trkpt lat="43.27716" lon="3.35151">
        <ele>3.5</ele>
        <time>2018-05-08T14:45:37Z</time>
      </trkpt>
      <trkpt lat="43.27713" lon="3.35148">
        <ele>3.5</ele>
        <time>2018-05-08T14:45:38Z</time>
      </trkpt>
      <trkpt lat="43.27711" lon="3.35145">
        <ele>3.5</ele>
        <time>2018-05-08T14:45:39Z</time>
      </trkpt>
      <trkpt lat="43.27708" lon="3.35141">
        <ele>3.5</ele>
        <time>2018-05-08T14:45:40Z</time>
      </trkpt>
      <trkpt lat="43.27705" lon="3.35137">
        <ele>3.5</ele>
        <time>2018-05-08T14:45:41Z</time>
      </trkpt>
      <trkpt lat="43.27702" lon="3.35134">
        <ele>3.5</ele>
        <time>2018-05-08T14:45:42Z</time>
      </trkpt>
      <trkpt lat="43.27698" lon="3.35131">
        <ele>3.5</ele>
        <time>2018-05-08T14:45:43Z</time>
      </trkpt>
      <trkpt lat="43.27694" lon="3.35129">
        <ele>3.5</ele>
        <time>2018-05-08T14:45:44Z</time>
      </trkpt>
      <trkpt lat="43.2769" lon="3.35128">
        <ele>3.5</ele>
        <time>2018-05-08T14:45:45Z</time>
      </trkpt>
      <trkpt lat="43.27686" lon="3.35127">
        <ele>3.5</ele>
        <time>2018-05-08T14:45:46Z</time>
      </trkpt>
      <trkpt lat="43.27681" lon="3.35128">
        <ele>3.5</ele>
        <time>2018-05-08T14:45:47Z</time>
      </trkpt>
      <trkpt lat="43.2766" lon="3.35131">
        <ele>3.5</ele>
        <time>2018-05-08T14:45:52Z</time>
      </trkpt>
      <trkpt lat="43.27657" lon="3.35132">
        <ele>3.5</ele>
        <time>2018-05-08T14:45:53Z</time>
      </trkpt>
      <trkpt lat="43.27652" lon="3.35133">
        <ele>3.02</ele>
        <time>2018-05-08T14:45:54Z</time>
      </trkpt>
      <trkpt lat="43.27606" lon="3.35141">
        <ele>3.5</ele>
        <time>2018-05-08T14:46:07Z</time>
      </trkpt>
      <trkpt lat="43.2755" lon="3.35151">
        <ele>2.54</ele>
        <time>2018-05-08T14:46:21Z</time>
      </trkpt>
      <trkpt lat="43.27483" lon="3.35165">
        <ele>2.06</ele>
        <time>2018-05-08T14:46:37Z</time>
      </trkpt>
      <trkpt lat="43.27454" lon="3.35171">
        <ele>2.06</ele>
        <time>2018-05-08T14:46:44Z</time>
      </trkpt>
      <trkpt lat="43.2744" lon="3.35177">
        <ele>2.06</ele>
        <time>2018-05-08T14:46:48Z</time>
      </trkpt>
      <trkpt lat="43.27409" lon="3.35192">
        <ele>2.06</ele>
        <time>2018-05-08T14:46:59Z</time>
      </trkpt>
      <trkpt lat="43.27375" lon="3.35192">
        <ele>2.06</ele>
        <time>2018-05-08T14:47:12Z</time>
      </trkpt>
      <trkpt lat="43.27348" lon="3.35184">
        <ele>2.06</ele>
        <time>2018-05-08T14:47:25Z</time>
      </trkpt>
      <trkpt lat="43.27346" lon="3.3518">
        <ele>2.54</ele>
        <time>2018-05-08T14:47:37Z</time>
      </trkpt>
      <trkpt lat="43.27337" lon="3.35181">
        <ele>3.02</ele>
        <time>2018-05-08T14:47:49Z</time>
      </trkpt>
      <trkpt lat="43.2733" lon="3.35181">
        <ele>3.02</ele>
        <time>2018-05-08T14:48:00Z</time>
      </trkpt>
      <trkpt lat="43.27325" lon="3.35179">
        <ele>2.54</ele>
        <time>2018-05-08T14:48:06Z</time>
      </trkpt>
      <trkpt lat="43.2731" lon="3.35177">
        <ele>3.02</ele>
        <time>2018-05-08T14:48:24Z</time>
      </trkpt>
      <trkpt lat="43.27299" lon="3.35175">
        <ele>2.54</ele>
        <time>2018-05-08T14:48:40Z</time>
      </trkpt>
      <trkpt lat="43.27294" lon="3.35172">
        <ele>3.02</ele>
        <time>2018-05-08T14:48:55Z</time>
      </trkpt>
      <trkpt lat="43.27294" lon="3.3517">
        <ele>2.06</ele>
        <time>2018-05-08T14:49:15Z</time>
      </trkpt>
      <trkpt lat="43.27301" lon="3.3517">
        <ele>1.58</ele>
        <time>2018-05-08T14:49:27Z</time>
      </trkpt>
      <trkpt lat="43.27311" lon="3.35173">
        <ele>1.1</ele>
        <time>2018-05-08T14:49:40Z</time>
      </trkpt>
      <trkpt lat="43.27328" lon="3.35178">
        <ele>2.06</ele>
        <time>2018-05-08T14:49:57Z</time>
      </trkpt>
      <trkpt lat="43.27336" lon="3.35177">
        <ele>2.54</ele>
        <time>2018-05-08T14:50:05Z</time>
      </trkpt>
      <trkpt lat="43.27345" lon="3.35177">
        <ele>1.1</ele>
        <time>2018-05-08T14:50:20Z</time>
      </trkpt>
      <trkpt lat="43.27344" lon="3.35178">
        <ele>0.62</ele>
        <time>2018-05-08T14:50:46Z</time>
      </trkpt>
      <trkpt lat="43.27345" lon="3.35179">
        <ele>0.14</ele>
        <time>2018-05-08T14:51:15Z</time>
      </trkpt>
      <trkpt lat="43.27345" lon="3.35179">
        <ele>0.14</ele>
        <time>2018-05-08T14:51:35Z</time>
      </trkpt>
      <trkpt lat="43.27355" lon="3.35185">
        <ele>1.58</ele>
        <time>2018-05-08T14:51:51Z</time>
      </trkpt>
      <trkpt lat="43.27361" lon="3.35187">
        <ele>2.06</ele>
        <time>2018-05-08T14:52:06Z</time>
      </trkpt>
      <trkpt lat="43.2736" lon="3.35187">
        <ele>2.06</ele>
        <time>2018-05-08T14:52:26Z</time>
      </trkpt>
      <trkpt lat="43.27371" lon="3.35192">
        <ele>1.1</ele>
        <time>2018-05-08T14:52:47Z</time>
      </trkpt>
      <trkpt lat="43.27385" lon="3.35228">
        <ele>2.54</ele>
        <time>2018-05-08T14:52:59Z</time>
      </trkpt>
      <trkpt lat="43.27401" lon="3.35279">
        <ele>2.06</ele>
        <time>2018-05-08T14:53:14Z</time>
      </trkpt>
      <trkpt lat="43.27419" lon="3.35338">
        <ele>2.06</ele>
        <time>2018-05-08T14:53:28Z</time>
      </trkpt>
      <trkpt lat="43.27437" lon="3.35393">
        <ele>2.06</ele>
        <time>2018-05-08T14:53:43Z</time>
      </trkpt>
      <trkpt lat="43.27446" lon="3.35423">
        <ele>2.06</ele>
        <time>2018-05-08T14:53:51Z</time>
      </trkpt>
      <trkpt lat="43.27447" lon="3.35432">
        <ele>1.1</ele>
        <time>2018-05-08T14:54:02Z</time>
      </trkpt>
      <trkpt lat="43.27447" lon="3.35433">
        <ele>1.1</ele>
        <time>2018-05-08T14:54:03Z</time>
      </trkpt>
      <trkpt lat="43.27451" lon="3.35446">
        <ele>1.1</ele>
        <time>2018-05-08T14:54:14Z</time>
      </trkpt>
      <trkpt lat="43.27452" lon="3.35448">
        <ele>1.1</ele>
        <time>2018-05-08T14:54:15Z</time>
      </trkpt>
      <trkpt lat="43.27453" lon="3.3545">
        <ele>1.1</ele>
        <time>2018-05-08T14:54:16Z</time>
      </trkpt>
      <trkpt lat="43.27455" lon="3.35452">
        <ele>1.1</ele>
        <time>2018-05-08T14:54:17Z</time>
      </trkpt>
      <trkpt lat="43.27456" lon="3.35455">
        <ele>1.1</ele>
        <time>2018-05-08T14:54:18Z</time>
      </trkpt>
      <trkpt lat="43.27457" lon="3.35458">
        <ele>1.58</ele>
        <time>2018-05-08T14:54:19Z</time>
      </trkpt>
      <trkpt lat="43.27458" lon="3.3546">
        <ele>1.58</ele>
        <time>2018-05-08T14:54:20Z</time>
      </trkpt>
      <trkpt lat="43.27459" lon="3.35462">
        <ele>1.58</ele>
        <time>2018-05-08T14:54:21Z</time>
      </trkpt>
      <trkpt lat="43.27461" lon="3.35466">
        <ele>2.06</ele>
        <time>2018-05-08T14:54:24Z</time>
      </trkpt>
      <trkpt lat="43.27461" lon="3.35469">
        <ele>2.06</ele>
        <time>2018-05-08T14:54:25Z</time>
      </trkpt>
      <trkpt lat="43.27462" lon="3.35471">
        <ele>2.54</ele>
        <time>2018-05-08T14:54:26Z</time>
      </trkpt>
      <trkpt lat="43.27465" lon="3.35475">
        <ele>2.54</ele>
        <time>2018-05-08T14:54:28Z</time>
      </trkpt>
      <trkpt lat="43.27466" lon="3.35477">
        <ele>2.54</ele>
        <time>2018-05-08T14:54:29Z</time>
      </trkpt>
      <trkpt lat="43.27468" lon="3.35478">
        <ele>3.02</ele>
        <time>2018-05-08T14:54:30Z</time>
      </trkpt>
      <trkpt lat="43.27469" lon="3.35478">
        <ele>3.02</ele>
        <time>2018-05-08T14:54:31Z</time>
      </trkpt>
      <trkpt lat="43.2747" lon="3.35477">
        <ele>3.02</ele>
        <time>2018-05-08T14:54:32Z</time>
      </trkpt>
      <trkpt lat="43.2747" lon="3.35475">
        <ele>3.02</ele>
        <time>2018-05-08T14:54:33Z</time>
      </trkpt>
      <trkpt lat="43.27468" lon="3.35474">
        <ele>3.02</ele>
        <time>2018-05-08T14:54:34Z</time>
      </trkpt>
      <trkpt lat="43.27466" lon="3.35474">
        <ele>3.02</ele>
        <time>2018-05-08T14:54:35Z</time>
      </trkpt>
      <trkpt lat="43.27464" lon="3.35474">
        <ele>3.02</ele>
        <time>2018-05-08T14:54:36Z</time>
      </trkpt>
      <trkpt lat="43.27461" lon="3.35475">
        <ele>3.02</ele>
        <time>2018-05-08T14:54:37Z</time>
      </trkpt>
      <trkpt lat="43.27459" lon="3.35475">
        <ele>3.02</ele>
        <time>2018-05-08T14:54:38Z</time>
      </trkpt>
      <trkpt lat="43.27423" lon="3.35486">
        <ele>3.98</ele>
        <time>2018-05-08T14:54:52Z</time>
      </trkpt>
      <trkpt lat="43.274" lon="3.35503">
        <ele>3.5</ele>
        <time>2018-05-08T14:55:06Z</time>
      </trkpt>
      <trkpt lat="43.274" lon="3.35505">
        <ele>3.02</ele>
        <time>2018-05-08T14:55:24Z</time>
      </trkpt>
      <trkpt lat="43.27404" lon="3.35504">
        <ele>3.5</ele>
        <time>2018-05-08T14:55:35Z</time>
      </trkpt>
      <trkpt lat="43.27427" lon="3.35486">
        <ele>3.5</ele>
        <time>2018-05-08T14:55:45Z</time>
      </trkpt>
      <trkpt lat="43.27462" lon="3.35477">
        <ele>2.54</ele>
        <time>2018-05-08T14:55:55Z</time>
      </trkpt>
      <trkpt lat="43.27513" lon="3.35478">
        <ele>0.14</ele>
        <time>2018-05-08T14:56:09Z</time>
      </trkpt>
      <trkpt lat="43.27537" lon="3.35485">
        <ele>0.62</ele>
        <time>2018-05-08T14:56:20Z</time>
      </trkpt>
      <trkpt lat="43.27537" lon="3.35487">
        <ele>1.1</ele>
        <time>2018-05-08T14:56:21Z</time>
      </trkpt>
      <trkpt lat="43.27538" lon="3.35489">
        <ele>1.1</ele>
        <time>2018-05-08T14:56:22Z</time>
      </trkpt>
      <trkpt lat="43.27545" lon="3.35549">
        <ele>3.02</ele>
        <time>2018-05-08T14:56:39Z</time>
      </trkpt>
      <trkpt lat="43.27549" lon="3.35583">
        <ele>2.06</ele>
        <time>2018-05-08T14:56:50Z</time>
      </trkpt>
      <trkpt lat="43.2756" lon="3.35632">
        <ele>1.1</ele>
        <time>2018-05-08T14:57:03Z</time>
      </trkpt>
      <trkpt lat="43.27571" lon="3.35693">
        <ele>1.58</ele>
        <time>2018-05-08T14:57:17Z</time>
      </trkpt>
      <trkpt lat="43.27584" lon="3.35753">
        <ele>2.54</ele>
        <time>2018-05-08T14:57:33Z</time>
      </trkpt>
      <trkpt lat="43.27606" lon="3.35766">
        <ele>3.02</ele>
        <time>2018-05-08T14:57:42Z</time>
      </trkpt>
      <trkpt lat="43.27637" lon="3.35761">
        <ele>3.5</ele>
        <time>2018-05-08T14:57:54Z</time>
      </trkpt>
      <trkpt lat="43.27638" lon="3.35762">
        <ele>3.5</ele>
        <time>2018-05-08T14:57:55Z</time>
      </trkpt>
      <trkpt lat="43.27639" lon="3.35774">
        <ele>2.54</ele>
        <time>2018-05-08T14:58:00Z</time>
      </trkpt>
      <trkpt lat="43.27642" lon="3.35824">
        <ele>3.02</ele>
        <time>2018-05-08T14:58:14Z</time>
      </trkpt>
      <trkpt lat="43.27646" lon="3.3584">
        <ele>3.02</ele>
        <time>2018-05-08T14:58:19Z</time>
      </trkpt>
      <trkpt lat="43.27648" lon="3.35841">
        <ele>3.02</ele>
        <time>2018-05-08T14:58:20Z</time>
      </trkpt>
      <trkpt lat="43.27651" lon="3.35842">
        <ele>3.02</ele>
        <time>2018-05-08T14:58:21Z</time>
      </trkpt>
      <trkpt lat="43.27653" lon="3.35842">
        <ele>3.02</ele>
        <time>2018-05-08T14:58:22Z</time>
      </trkpt>
      <trkpt lat="43.27656" lon="3.35842">
        <ele>3.02</ele>
        <time>2018-05-08T14:58:23Z</time>
      </trkpt>
      <trkpt lat="43.27659" lon="3.35841">
        <ele>3.02</ele>
        <time>2018-05-08T14:58:24Z</time>
      </trkpt>
      <trkpt lat="43.27662" lon="3.35841">
        <ele>3.02</ele>
        <time>2018-05-08T14:58:25Z</time>
      </trkpt>
      <trkpt lat="43.27716" lon="3.35832">
        <ele>6.39</ele>
        <time>2018-05-08T14:58:43Z</time>
      </trkpt>
      <trkpt lat="43.27773" lon="3.35822">
        <ele>9.75</ele>
        <time>2018-05-08T14:59:01Z</time>
      </trkpt>
      <trkpt lat="43.27822" lon="3.35815">
        <ele>11.67</ele>
        <time>2018-05-08T14:59:17Z</time>
      </trkpt>
      <trkpt lat="43.2788" lon="3.35807">
        <ele>10.23</ele>
        <time>2018-05-08T14:59:35Z</time>
      </trkpt>
      <trkpt lat="43.27926" lon="3.358">
        <ele>6.87</ele>
        <time>2018-05-08T14:59:49Z</time>
      </trkpt>
      <trkpt lat="43.27969" lon="3.35796">
        <ele>3.02</ele>
        <time>2018-05-08T15:00:02Z</time>
      </trkpt>
      <trkpt lat="43.28017" lon="3.35789">
        <ele>1.1</ele>
        <time>2018-05-08T15:00:18Z</time>
      </trkpt>
      <trkpt lat="43.28034" lon="3.35784">
        <ele>0.62</ele>
        <time>2018-05-08T15:00:25Z</time>
      </trkpt>
      <trkpt lat="43.28034" lon="3.35782">
        <ele>0.62</ele>
        <time>2018-05-08T15:00:26Z</time>
      </trkpt>
      <trkpt lat="43.28033" lon="3.35779">
        <ele>0.14</ele>
        <time>2018-05-08T15:00:27Z</time>
      </trkpt>
      <trkpt lat="43.28032" lon="3.35777">
        <ele>-0.34</ele>
        <time>2018-05-08T15:00:28Z</time>
      </trkpt>
      <trkpt lat="43.28031" lon="3.35774">
        <ele>-1.3</ele>
        <time>2018-05-08T15:00:29Z</time>
      </trkpt>
      <trkpt lat="43.2803" lon="3.35771">
        <ele>-1.79</ele>
        <time>2018-05-08T15:00:30Z</time>
      </trkpt>
      <trkpt lat="43.28029" lon="3.35767">
        <ele>-1.79</ele>
        <time>2018-05-08T15:00:31Z</time>
      </trkpt>
      <trkpt lat="43.28028" lon="3.35764">
        <ele>-2.27</ele>
        <time>2018-05-08T15:00:32Z</time>
      </trkpt>
      <trkpt lat="43.28028" lon="3.3576">
        <ele>-2.75</ele>
        <time>2018-05-08T15:00:33Z</time>
      </trkpt>
      <trkpt lat="43.28027" lon="3.35746">
        <ele>-3.71</ele>
        <time>2018-05-08T15:00:37Z</time>
      </trkpt>
      <trkpt lat="43.28028" lon="3.35745">
        <ele>-3.71</ele>
        <time>2018-05-08T15:00:38Z</time>
      </trkpt>
      <trkpt lat="43.28029" lon="3.35745">
        <ele>-4.19</ele>
        <time>2018-05-08T15:00:39Z</time>
      </trkpt>
      <trkpt lat="43.2803" lon="3.35747">
        <ele>-4.19</ele>
        <time>2018-05-08T15:00:40Z</time>
      </trkpt>
      <trkpt lat="43.2803" lon="3.35749">
        <ele>-4.67</ele>
        <time>2018-05-08T15:00:41Z</time>
      </trkpt>
      <trkpt lat="43.28035" lon="3.35765">
        <ele>-4.67</ele>
        <time>2018-05-08T15:00:46Z</time>
      </trkpt>
      <trkpt lat="43.28039" lon="3.35771">
        <ele>-4.19</ele>
        <time>2018-05-08T15:00:48Z</time>
      </trkpt>
      <trkpt lat="43.28042" lon="3.35772">
        <ele>-4.19</ele>
        <time>2018-05-08T15:00:49Z</time>
      </trkpt>
      <trkpt lat="43.28045" lon="3.35772">
        <ele>-4.19</ele>
        <time>2018-05-08T15:00:50Z</time>
      </trkpt>
      <trkpt lat="43.28087" lon="3.35768">
        <ele>-4.19</ele>
        <time>2018-05-08T15:01:04Z</time>
      </trkpt>
      <trkpt lat="43.28136" lon="3.35759">
        <ele>-3.71</ele>
        <time>2018-05-08T15:01:19Z</time>
      </trkpt>
      <trkpt lat="43.28176" lon="3.35752">
        <ele>0.14</ele>
        <time>2018-05-08T15:01:32Z</time>
      </trkpt>
      <trkpt lat="43.28219" lon="3.35741">
        <ele>2.06</ele>
        <time>2018-05-08T15:01:47Z</time>
      </trkpt>
      <trkpt lat="43.28256" lon="3.35734">
        <ele>0.14</ele>
        <time>2018-05-08T15:02:02Z</time>
      </trkpt>
      <trkpt lat="43.28281" lon="3.35734">
        <ele>-0.34</ele>
        <time>2018-05-08T15:02:13Z</time>
      </trkpt>
      <trkpt lat="43.28285" lon="3.35727">
        <ele>0.62</ele>
        <time>2018-05-08T15:02:21Z</time>
      </trkpt>
      <trkpt lat="43.28304" lon="3.35719">
        <ele>1.58</ele>
        <time>2018-05-08T15:02:34Z</time>
      </trkpt>
      <trkpt lat="43.28347" lon="3.3571">
        <ele>3.02</ele>
        <time>2018-05-08T15:02:49Z</time>
      </trkpt>
      <trkpt lat="43.28349" lon="3.35707">
        <ele>3.02</ele>
        <time>2018-05-08T15:02:50Z</time>
      </trkpt>
      <trkpt lat="43.2835" lon="3.35704">
        <ele>3.02</ele>
        <time>2018-05-08T15:02:51Z</time>
      </trkpt>
      <trkpt lat="43.28351" lon="3.35701">
        <ele>2.54</ele>
        <time>2018-05-08T15:02:52Z</time>
      </trkpt>
      <trkpt lat="43.28351" lon="3.35697">
        <ele>2.54</ele>
        <time>2018-05-08T15:02:53Z</time>
      </trkpt>
      <trkpt lat="43.28351" lon="3.35693">
        <ele>2.54</ele>
        <time>2018-05-08T15:02:54Z</time>
      </trkpt>
      <trkpt lat="43.2835" lon="3.35689">
        <ele>2.54</ele>
        <time>2018-05-08T15:02:55Z</time>
      </trkpt>
      <trkpt lat="43.28348" lon="3.35654">
        <ele>2.54</ele>
        <time>2018-05-08T15:03:10Z</time>
      </trkpt>
      <trkpt lat="43.28348" lon="3.35652">
        <ele>3.98</ele>
        <time>2018-05-08T15:03:31Z</time>
      </trkpt>
      <trkpt lat="43.28347" lon="3.35648">
        <ele>3.98</ele>
        <time>2018-05-08T15:03:49Z</time>
      </trkpt>
      <trkpt lat="43.28347" lon="3.35646">
        <ele>3.98</ele>
        <time>2018-05-08T15:03:50Z</time>
      </trkpt>
      <trkpt lat="43.28347" lon="3.35644">
        <ele>3.98</ele>
        <time>2018-05-08T15:03:51Z</time>
      </trkpt>
      <trkpt lat="43.28342" lon="3.35599">
        <ele>1.58</ele>
        <time>2018-05-08T15:04:02Z</time>
      </trkpt>
      <trkpt lat="43.28337" lon="3.35582">
        <ele>1.58</ele>
        <time>2018-05-08T15:04:06Z</time>
      </trkpt>
      <trkpt lat="43.28334" lon="3.3558">
        <ele>1.58</ele>
        <time>2018-05-08T15:04:07Z</time>
      </trkpt>
      <trkpt lat="43.28331" lon="3.35579">
        <ele>1.58</ele>
        <time>2018-05-08T15:04:08Z</time>
      </trkpt>
      <trkpt lat="43.28328" lon="3.35579">
        <ele>1.58</ele>
        <time>2018-05-08T15:04:09Z</time>
      </trkpt>
      <trkpt lat="43.28324" lon="3.35579">
        <ele>1.1</ele>
        <time>2018-05-08T15:04:10Z</time>
      </trkpt>
      <trkpt lat="43.28263" lon="3.35589">
        <ele>0.14</ele>
        <time>2018-05-08T15:04:26Z</time>
      </trkpt>
      <trkpt lat="43.28245" lon="3.35588">
        <ele>-0.82</ele>
        <time>2018-05-08T15:04:35Z</time>
      </trkpt>
      <trkpt lat="43.28244" lon="3.35586">
        <ele>-0.82</ele>
        <time>2018-05-08T15:04:36Z</time>
      </trkpt>
      <trkpt lat="43.28243" lon="3.35584">
        <ele>-0.82</ele>
        <time>2018-05-08T15:04:37Z</time>
      </trkpt>
      <trkpt lat="43.28242" lon="3.35582">
        <ele>-0.82</ele>
        <time>2018-05-08T15:04:38Z</time>
      </trkpt>
      <trkpt lat="43.28241" lon="3.3558">
        <ele>-1.3</ele>
        <time>2018-05-08T15:04:39Z</time>
      </trkpt>
      <trkpt lat="43.28241" lon="3.35578">
        <ele>-1.3</ele>
        <time>2018-05-08T15:04:40Z</time>
      </trkpt>
      <trkpt lat="43.28241" lon="3.35575">
        <ele>-1.3</ele>
        <time>2018-05-08T15:04:41Z</time>
      </trkpt>
      <trkpt lat="43.28236" lon="3.35556">
        <ele>-2.75</ele>
        <time>2018-05-08T15:04:55Z</time>
      </trkpt>
      <trkpt lat="43.28237" lon="3.35558">
        <ele>-3.23</ele>
        <time>2018-05-08T15:04:57Z</time>
      </trkpt>
      <trkpt lat="43.28237" lon="3.35561">
        <ele>-3.71</ele>
        <time>2018-05-08T15:04:58Z</time>
      </trkpt>
      <trkpt lat="43.28238" lon="3.35567">
        <ele>-4.19</ele>
        <time>2018-05-08T15:05:00Z</time>
      </trkpt>
      <trkpt lat="43.28239" lon="3.3557">
        <ele>-4.19</ele>
        <time>2018-05-08T15:05:01Z</time>
      </trkpt>
      <trkpt lat="43.28247" lon="3.35586">
        <ele>-6.11</ele>
        <time>2018-05-08T15:05:10Z</time>
      </trkpt>
      <trkpt lat="43.28248" lon="3.35586">
        <ele>-6.11</ele>
        <time>2018-05-08T15:05:11Z</time>
      </trkpt>
      <trkpt lat="43.2825" lon="3.35586">
        <ele>-6.11</ele>
        <time>2018-05-08T15:05:12Z</time>
      </trkpt>
      <trkpt lat="43.28281" lon="3.35583">
        <ele>-6.59</ele>
        <time>2018-05-08T15:05:25Z</time>
      </trkpt>
      <trkpt lat="43.2833" lon="3.35577">
        <ele>-4.19</ele>
        <time>2018-05-08T15:05:40Z</time>
      </trkpt>
      <trkpt lat="43.28336" lon="3.3558">
        <ele>-4.19</ele>
        <time>2018-05-08T15:05:42Z</time>
      </trkpt>
      <trkpt lat="43.28338" lon="3.35584">
        <ele>-4.19</ele>
        <time>2018-05-08T15:05:43Z</time>
      </trkpt>
      <trkpt lat="43.2834" lon="3.35588">
        <ele>-3.71</ele>
        <time>2018-05-08T15:05:44Z</time>
      </trkpt>
      <trkpt lat="43.28341" lon="3.35593">
        <ele>-3.71</ele>
        <time>2018-05-08T15:05:45Z</time>
      </trkpt>
      <trkpt lat="43.28342" lon="3.35598">
        <ele>-3.71</ele>
        <time>2018-05-08T15:05:46Z</time>
      </trkpt>
      <trkpt lat="43.28349" lon="3.35653">
        <ele>-3.23</ele>
        <time>2018-05-08T15:05:57Z</time>
      </trkpt>
      <trkpt lat="43.28351" lon="3.35703">
        <ele>-2.27</ele>
        <time>2018-05-08T15:06:07Z</time>
      </trkpt>
      <trkpt lat="43.28351" lon="3.35706">
        <ele>-2.27</ele>
        <time>2018-05-08T15:06:08Z</time>
      </trkpt>
      <trkpt lat="43.28353" lon="3.35708">
        <ele>-2.27</ele>
        <time>2018-05-08T15:06:09Z</time>
      </trkpt>
      <trkpt lat="43.28353" lon="3.35711">
        <ele>-2.27</ele>
        <time>2018-05-08T15:06:10Z</time>
      </trkpt>
      <trkpt lat="43.28353" lon="3.35714">
        <ele>-2.27</ele>
        <time>2018-05-08T15:06:11Z</time>
      </trkpt>
      <trkpt lat="43.28351" lon="3.35716">
        <ele>-2.75</ele>
        <time>2018-05-08T15:06:12Z</time>
      </trkpt>
      <trkpt lat="43.28349" lon="3.35718">
        <ele>-2.27</ele>
        <time>2018-05-08T15:06:13Z</time>
      </trkpt>
      <trkpt lat="43.28346" lon="3.35719">
        <ele>-2.27</ele>
        <time>2018-05-08T15:06:14Z</time>
      </trkpt>
      <trkpt lat="43.28295" lon="3.35731">
        <ele>-2.27</ele>
        <time>2018-05-08T15:06:28Z</time>
      </trkpt>
      <trkpt lat="43.28289" lon="3.35734">
        <ele>-2.75</ele>
        <time>2018-05-08T15:06:31Z</time>
      </trkpt>
      <trkpt lat="43.28287" lon="3.35737">
        <ele>-2.75</ele>
        <time>2018-05-08T15:06:32Z</time>
      </trkpt>
      <trkpt lat="43.28287" lon="3.3574">
        <ele>-2.75</ele>
        <time>2018-05-08T15:06:33Z</time>
      </trkpt>
      <trkpt lat="43.28292" lon="3.35799">
        <ele>-1.79</ele>
        <time>2018-05-08T15:06:46Z</time>
      </trkpt>
      <trkpt lat="43.28301" lon="3.35864">
        <ele>-0.34</ele>
        <time>2018-05-08T15:07:00Z</time>
      </trkpt>
      <trkpt lat="43.28311" lon="3.35941">
        <ele>2.06</ele>
        <time>2018-05-08T15:07:15Z</time>
      </trkpt>
      <trkpt lat="43.28321" lon="3.36008">
        <ele>5.42</ele>
        <time>2018-05-08T15:07:29Z</time>
      </trkpt>
      <trkpt lat="43.28329" lon="3.36083">
        <ele>4.46</ele>
        <time>2018-05-08T15:07:45Z</time>
      </trkpt>
      <trkpt lat="43.28334" lon="3.36145">
        <ele>4.46</ele>
        <time>2018-05-08T15:07:59Z</time>
      </trkpt>
      <trkpt lat="43.28354" lon="3.36194">
        <ele>3.98</ele>
        <time>2018-05-08T15:08:11Z</time>
      </trkpt>
      <trkpt lat="43.28385" lon="3.36228">
        <ele>2.54</ele>
        <time>2018-05-08T15:08:22Z</time>
      </trkpt>
      <trkpt lat="43.28415" lon="3.36245">
        <ele>1.1</ele>
        <time>2018-05-08T15:08:32Z</time>
      </trkpt>
      <trkpt lat="43.28461" lon="3.36247">
        <ele>2.54</ele>
        <time>2018-05-08T15:08:46Z</time>
      </trkpt>
      <trkpt lat="43.28503" lon="3.36246">
        <ele>6.39</ele>
        <time>2018-05-08T15:08:59Z</time>
      </trkpt>
      <trkpt lat="43.28545" lon="3.36246">
        <ele>7.83</ele>
        <time>2018-05-08T15:09:11Z</time>
      </trkpt>
      <trkpt lat="43.28582" lon="3.36238">
        <ele>4.94</ele>
        <time>2018-05-08T15:09:23Z</time>
      </trkpt>
      <trkpt lat="43.28616" lon="3.36223">
        <ele>2.54</ele>
        <time>2018-05-08T15:09:33Z</time>
      </trkpt>
      <trkpt lat="43.28647" lon="3.36197">
        <ele>1.1</ele>
        <time>2018-05-08T15:09:43Z</time>
      </trkpt>
      <trkpt lat="43.28677" lon="3.36171">
        <ele>0.62</ele>
        <time>2018-05-08T15:09:52Z</time>
      </trkpt>
      <trkpt lat="43.28681" lon="3.36169">
        <ele>0.62</ele>
        <time>2018-05-08T15:09:53Z</time>
      </trkpt>
      <trkpt lat="43.28685" lon="3.36168">
        <ele>0.62</ele>
        <time>2018-05-08T15:09:54Z</time>
      </trkpt>
      <trkpt lat="43.28689" lon="3.36167">
        <ele>0.62</ele>
        <time>2018-05-08T15:09:55Z</time>
      </trkpt>
      <trkpt lat="43.28693" lon="3.36168">
        <ele>1.1</ele>
        <time>2018-05-08T15:09:56Z</time>
      </trkpt>
      <trkpt lat="43.28697" lon="3.3617">
        <ele>1.1</ele>
        <time>2018-05-08T15:09:57Z</time>
      </trkpt>
      <trkpt lat="43.287" lon="3.36172">
        <ele>1.1</ele>
        <time>2018-05-08T15:09:58Z</time>
      </trkpt>
      <trkpt lat="43.28703" lon="3.36176">
        <ele>1.1</ele>
        <time>2018-05-08T15:09:59Z</time>
      </trkpt>
      <trkpt lat="43.28707" lon="3.3618">
        <ele>0.62</ele>
        <time>2018-05-08T15:10:00Z</time>
      </trkpt>
      <trkpt lat="43.2871" lon="3.36183">
        <ele>0.62</ele>
        <time>2018-05-08T15:10:01Z</time>
      </trkpt>
      <trkpt lat="43.28759" lon="3.36237">
        <ele>-1.3</ele>
        <time>2018-05-08T15:10:17Z</time>
      </trkpt>
      <trkpt lat="43.2879" lon="3.36243">
        <ele>-2.75</ele>
        <time>2018-05-08T15:10:26Z</time>
      </trkpt>
      <trkpt lat="43.28836" lon="3.36243">
        <ele>-1.79</ele>
        <time>2018-05-08T15:10:38Z</time>
      </trkpt>
      <trkpt lat="43.28891" lon="3.36241">
        <ele>-0.82</ele>
        <time>2018-05-08T15:10:53Z</time>
      </trkpt>
      <trkpt lat="43.28924" lon="3.36241">
        <ele>-0.34</ele>
        <time>2018-05-08T15:11:06Z</time>
      </trkpt>
      <trkpt lat="43.28925" lon="3.36242">
        <ele>-0.34</ele>
        <time>2018-05-08T15:11:07Z</time>
      </trkpt>
      <trkpt lat="43.28926" lon="3.36245">
        <ele>-1.3</ele>
        <time>2018-05-08T15:11:18Z</time>
      </trkpt>
      <trkpt lat="43.28927" lon="3.36248">
        <ele>-1.3</ele>
        <time>2018-05-08T15:11:34Z</time>
      </trkpt>
      <trkpt lat="43.28927" lon="3.3625">
        <ele>-1.3</ele>
        <time>2018-05-08T15:11:35Z</time>
      </trkpt>
      <trkpt lat="43.28927" lon="3.36252">
        <ele>-1.3</ele>
        <time>2018-05-08T15:11:36Z</time>
      </trkpt>
      <trkpt lat="43.28938" lon="3.3629">
        <ele>-1.79</ele>
        <time>2018-05-08T15:11:47Z</time>
      </trkpt>
      <trkpt lat="43.28968" lon="3.36338">
        <ele>0.62</ele>
        <time>2018-05-08T15:12:01Z</time>
      </trkpt>
      <trkpt lat="43.28968" lon="3.36354">
        <ele>1.1</ele>
        <time>2018-05-08T15:12:04Z</time>
      </trkpt>
      <trkpt lat="43.28966" lon="3.3636">
        <ele>1.1</ele>
        <time>2018-05-08T15:12:05Z</time>
      </trkpt>
      <trkpt lat="43.28965" lon="3.36365">
        <ele>1.1</ele>
        <time>2018-05-08T15:12:06Z</time>
      </trkpt>
      <trkpt lat="43.28963" lon="3.36371">
        <ele>1.1</ele>
        <time>2018-05-08T15:12:07Z</time>
      </trkpt>
      <trkpt lat="43.28961" lon="3.36376">
        <ele>1.1</ele>
        <time>2018-05-08T15:12:08Z</time>
      </trkpt>
      <trkpt lat="43.28931" lon="3.36448">
        <ele>1.1</ele>
        <time>2018-05-08T15:12:22Z</time>
      </trkpt>
      <trkpt lat="43.28912" lon="3.36499">
        <ele>0.14</ele>
        <time>2018-05-08T15:12:32Z</time>
      </trkpt>
      <trkpt lat="43.28908" lon="3.36509">
        <ele>0.14</ele>
        <time>2018-05-08T15:12:34Z</time>
      </trkpt>
      <trkpt lat="43.28879" lon="3.36586">
        <ele>-2.27</ele>
        <time>2018-05-08T15:12:49Z</time>
      </trkpt>
      <trkpt lat="43.28867" lon="3.36616">
        <ele>-2.75</ele>
        <time>2018-05-08T15:12:55Z</time>
      </trkpt>
      <trkpt lat="43.28865" lon="3.36621">
        <ele>-2.75</ele>
        <time>2018-05-08T15:12:56Z</time>
      </trkpt>
      <trkpt lat="43.28839" lon="3.367">
        <ele>-3.23</ele>
        <time>2018-05-08T15:13:12Z</time>
      </trkpt>
      <trkpt lat="43.28816" lon="3.36804">
        <ele>-3.23</ele>
        <time>2018-05-08T15:13:31Z</time>
      </trkpt>
      <trkpt lat="43.28792" lon="3.369">
        <ele>-0.82</ele>
        <time>2018-05-08T15:13:48Z</time>
      </trkpt>
      <trkpt lat="43.28788" lon="3.36916">
        <ele>-0.82</ele>
        <time>2018-05-08T15:13:51Z</time>
      </trkpt>
      <trkpt lat="43.28769" lon="3.36995">
        <ele>-1.3</ele>
        <time>2018-05-08T15:14:05Z</time>
      </trkpt>
      <trkpt lat="43.28751" lon="3.3706">
        <ele>-0.34</ele>
        <time>2018-05-08T15:14:18Z</time>
      </trkpt>
      <trkpt lat="43.28721" lon="3.37139">
        <ele>-0.34</ele>
        <time>2018-05-08T15:14:34Z</time>
      </trkpt>
      <trkpt lat="43.28712" lon="3.37201">
        <ele>-2.27</ele>
        <time>2018-05-08T15:14:45Z</time>
      </trkpt>
      <trkpt lat="43.28708" lon="3.37228">
        <ele>-2.27</ele>
        <time>2018-05-08T15:14:49Z</time>
      </trkpt>
      <trkpt lat="43.28702" lon="3.37246">
        <ele>-2.75</ele>
        <time>2018-05-08T15:14:52Z</time>
      </trkpt>
      <trkpt lat="43.28698" lon="3.37252">
        <ele>-2.75</ele>
        <time>2018-05-08T15:14:53Z</time>
      </trkpt>
      <trkpt lat="43.28675" lon="3.37279">
        <ele>-3.71</ele>
        <time>2018-05-08T15:15:01Z</time>
      </trkpt>
      <trkpt lat="43.28626" lon="3.37337">
        <ele>-5.15</ele>
        <time>2018-05-08T15:15:17Z</time>
      </trkpt>
      <trkpt lat="43.2862" lon="3.37378">
        <ele>-4.19</ele>
        <time>2018-05-08T15:15:25Z</time>
      </trkpt>
      <trkpt lat="43.2862" lon="3.37384">
        <ele>-3.71</ele>
        <time>2018-05-08T15:15:26Z</time>
      </trkpt>
      <trkpt lat="43.28621" lon="3.37391">
        <ele>-3.71</ele>
        <time>2018-05-08T15:15:27Z</time>
      </trkpt>
      <trkpt lat="43.28623" lon="3.37396">
        <ele>-3.71</ele>
        <time>2018-05-08T15:15:28Z</time>
      </trkpt>
      <trkpt lat="43.28625" lon="3.37402">
        <ele>-3.71</ele>
        <time>2018-05-08T15:15:29Z</time>
      </trkpt>
      <trkpt lat="43.28658" lon="3.37459">
        <ele>-2.75</ele>
        <time>2018-05-08T15:15:42Z</time>
      </trkpt>
      <trkpt lat="43.28696" lon="3.37501">
        <ele>-1.3</ele>
        <time>2018-05-08T15:15:56Z</time>
      </trkpt>
      <trkpt lat="43.28707" lon="3.37517">
        <ele>-1.3</ele>
        <time>2018-05-08T15:16:00Z</time>
      </trkpt>
      <trkpt lat="43.28747" lon="3.37553">
        <ele>-0.34</ele>
        <time>2018-05-08T15:16:11Z</time>
      </trkpt>
      <trkpt lat="43.28776" lon="3.37574">
        <ele>-0.82</ele>
        <time>2018-05-08T15:16:19Z</time>
      </trkpt>
      <trkpt lat="43.28779" lon="3.37578">
        <ele>-0.82</ele>
        <time>2018-05-08T15:16:20Z</time>
      </trkpt>
      <trkpt lat="43.28782" lon="3.37582">
        <ele>-0.82</ele>
        <time>2018-05-08T15:16:21Z</time>
      </trkpt>
      <trkpt lat="43.28785" lon="3.37587">
        <ele>-0.82</ele>
        <time>2018-05-08T15:16:22Z</time>
      </trkpt>
      <trkpt lat="43.28787" lon="3.37592">
        <ele>-0.82</ele>
        <time>2018-05-08T15:16:23Z</time>
      </trkpt>
      <trkpt lat="43.28789" lon="3.37598">
        <ele>-1.3</ele>
        <time>2018-05-08T15:16:24Z</time>
      </trkpt>
      <trkpt lat="43.28793" lon="3.3761">
        <ele>-1.3</ele>
        <time>2018-05-08T15:16:26Z</time>
      </trkpt>
      <trkpt lat="43.28795" lon="3.37617">
        <ele>-1.3</ele>
        <time>2018-05-08T15:16:27Z</time>
      </trkpt>
      <trkpt lat="43.28798" lon="3.37637">
        <ele>-1.3</ele>
        <time>2018-05-08T15:16:30Z</time>
      </trkpt>
      <trkpt lat="43.28815" lon="3.37722">
        <ele>0.14</ele>
        <time>2018-05-08T15:16:44Z</time>
      </trkpt>
      <trkpt lat="43.28842" lon="3.37811">
        <ele>0.14</ele>
        <time>2018-05-08T15:17:00Z</time>
      </trkpt>
      <trkpt lat="43.2886" lon="3.37861">
        <ele>-0.34</ele>
        <time>2018-05-08T15:17:09Z</time>
      </trkpt>
      <trkpt lat="43.28867" lon="3.37879">
        <ele>-0.34</ele>
        <time>2018-05-08T15:17:12Z</time>
      </trkpt>
      <trkpt lat="43.2887" lon="3.37884">
        <ele>-0.34</ele>
        <time>2018-05-08T15:17:13Z</time>
      </trkpt>
      <trkpt lat="43.28873" lon="3.37889">
        <ele>-0.82</ele>
        <time>2018-05-08T15:17:14Z</time>
      </trkpt>
      <trkpt lat="43.28876" lon="3.37892">
        <ele>-0.82</ele>
        <time>2018-05-08T15:17:15Z</time>
      </trkpt>
      <trkpt lat="43.2888" lon="3.37896">
        <ele>-0.82</ele>
        <time>2018-05-08T15:17:16Z</time>
      </trkpt>
      <trkpt lat="43.28883" lon="3.37899">
        <ele>-0.82</ele>
        <time>2018-05-08T15:17:17Z</time>
      </trkpt>
      <trkpt lat="43.28935" lon="3.37935">
        <ele>-2.27</ele>
        <time>2018-05-08T15:17:32Z</time>
      </trkpt>
      <trkpt lat="43.28954" lon="3.3795">
        <ele>-2.75</ele>
        <time>2018-05-08T15:17:37Z</time>
      </trkpt>
      <trkpt lat="43.28957" lon="3.37954">
        <ele>-2.75</ele>
        <time>2018-05-08T15:17:38Z</time>
      </trkpt>
      <trkpt lat="43.28959" lon="3.37959">
        <ele>-2.27</ele>
        <time>2018-05-08T15:17:39Z</time>
      </trkpt>
      <trkpt lat="43.28961" lon="3.37964">
        <ele>-2.27</ele>
        <time>2018-05-08T15:17:40Z</time>
      </trkpt>
      <trkpt lat="43.28962" lon="3.37969">
        <ele>-1.79</ele>
        <time>2018-05-08T15:17:41Z</time>
      </trkpt>
      <trkpt lat="43.28966" lon="3.37986">
        <ele>-1.79</ele>
        <time>2018-05-08T15:17:44Z</time>
      </trkpt>
      <trkpt lat="43.28972" lon="3.38007">
        <ele>-1.79</ele>
        <time>2018-05-08T15:17:48Z</time>
      </trkpt>
      <trkpt lat="43.28999" lon="3.3806">
        <ele>-4.19</ele>
        <time>2018-05-08T15:18:00Z</time>
      </trkpt>
      <trkpt lat="43.29007" lon="3.38074">
        <ele>-4.19</ele>
        <time>2018-05-08T15:18:03Z</time>
      </trkpt>
      <trkpt lat="43.29022" lon="3.38145">
        <ele>-2.75</ele>
        <time>2018-05-08T15:18:16Z</time>
      </trkpt>
      <trkpt lat="43.29047" lon="3.38161">
        <ele>0.14</ele>
        <time>2018-05-08T15:18:24Z</time>
      </trkpt>
      <trkpt lat="43.29083" lon="3.38153">
        <ele>-1.3</ele>
        <time>2018-05-08T15:18:33Z</time>
      </trkpt>
      <trkpt lat="43.29086" lon="3.38157">
        <ele>-1.79</ele>
        <time>2018-05-08T15:18:34Z</time>
      </trkpt>
      <trkpt lat="43.29089" lon="3.38163">
        <ele>-1.79</ele>
        <time>2018-05-08T15:18:35Z</time>
      </trkpt>
      <trkpt lat="43.2909" lon="3.38168">
        <ele>-2.27</ele>
        <time>2018-05-08T15:18:36Z</time>
      </trkpt>
      <trkpt lat="43.29091" lon="3.38174">
        <ele>-2.27</ele>
        <time>2018-05-08T15:18:37Z</time>
      </trkpt>
      <trkpt lat="43.29092" lon="3.3818">
        <ele>-2.27</ele>
        <time>2018-05-08T15:18:38Z</time>
      </trkpt>
      <trkpt lat="43.29096" lon="3.38232">
        <ele>-2.27</ele>
        <time>2018-05-08T15:18:46Z</time>
      </trkpt>
      <trkpt lat="43.29101" lon="3.38334">
        <ele>-1.3</ele>
        <time>2018-05-08T15:19:03Z</time>
      </trkpt>
      <trkpt lat="43.29107" lon="3.38457">
        <ele>-1.3</ele>
        <time>2018-05-08T15:19:22Z</time>
      </trkpt>
      <trkpt lat="43.2911" lon="3.38591">
        <ele>-1.79</ele>
        <time>2018-05-08T15:19:41Z</time>
      </trkpt>
      <trkpt lat="43.29105" lon="3.38715">
        <ele>-2.27</ele>
        <time>2018-05-08T15:19:58Z</time>
      </trkpt>
      <trkpt lat="43.29098" lon="3.38821">
        <ele>-2.27</ele>
        <time>2018-05-08T15:20:13Z</time>
      </trkpt>
      <trkpt lat="43.29092" lon="3.38913">
        <ele>-0.82</ele>
        <time>2018-05-08T15:20:28Z</time>
      </trkpt>
      <trkpt lat="43.29092" lon="3.38919">
        <ele>-0.82</ele>
        <time>2018-05-08T15:20:29Z</time>
      </trkpt>
      <trkpt lat="43.29086" lon="3.38991">
        <ele>-0.34</ele>
        <time>2018-05-08T15:20:40Z</time>
      </trkpt>
      <trkpt lat="43.29087" lon="3.38998">
        <ele>-0.34</ele>
        <time>2018-05-08T15:20:41Z</time>
      </trkpt>
      <trkpt lat="43.29088" lon="3.39004">
        <ele>-0.34</ele>
        <time>2018-05-08T15:20:42Z</time>
      </trkpt>
      <trkpt lat="43.2909" lon="3.3901">
        <ele>-0.34</ele>
        <time>2018-05-08T15:20:43Z</time>
      </trkpt>
      <trkpt lat="43.29093" lon="3.39016">
        <ele>-0.34</ele>
        <time>2018-05-08T15:20:44Z</time>
      </trkpt>
      <trkpt lat="43.29096" lon="3.39021">
        <ele>-0.34</ele>
        <time>2018-05-08T15:20:45Z</time>
      </trkpt>
      <trkpt lat="43.29099" lon="3.39026">
        <ele>-0.34</ele>
        <time>2018-05-08T15:20:46Z</time>
      </trkpt>
      <trkpt lat="43.29103" lon="3.39031">
        <ele>-0.34</ele>
        <time>2018-05-08T15:20:47Z</time>
      </trkpt>
      <trkpt lat="43.29106" lon="3.39035">
        <ele>-0.82</ele>
        <time>2018-05-08T15:20:48Z</time>
      </trkpt>
      <trkpt lat="43.29118" lon="3.39048">
        <ele>-0.82</ele>
        <time>2018-05-08T15:20:51Z</time>
      </trkpt>
      <trkpt lat="43.29149" lon="3.39085">
        <ele>-0.82</ele>
        <time>2018-05-08T15:21:00Z</time>
      </trkpt>
      <trkpt lat="43.29152" lon="3.39089">
        <ele>-1.3</ele>
        <time>2018-05-08T15:21:01Z</time>
      </trkpt>
      <trkpt lat="43.29154" lon="3.39093">
        <ele>-1.3</ele>
        <time>2018-05-08T15:21:02Z</time>
      </trkpt>
      <trkpt lat="43.29153" lon="3.39097">
        <ele>-1.3</ele>
        <time>2018-05-08T15:21:03Z</time>
      </trkpt>
      <trkpt lat="43.29151" lon="3.39101">
        <ele>-1.79</ele>
        <time>2018-05-08T15:21:04Z</time>
      </trkpt>
      <trkpt lat="43.29149" lon="3.39103">
        <ele>-1.79</ele>
        <time>2018-05-08T15:21:05Z</time>
      </trkpt>
      <trkpt lat="43.29146" lon="3.39106">
        <ele>-2.27</ele>
        <time>2018-05-08T15:21:06Z</time>
      </trkpt>
      <trkpt lat="43.29142" lon="3.39108">
        <ele>-2.27</ele>
        <time>2018-05-08T15:21:07Z</time>
      </trkpt>
      <trkpt lat="43.29138" lon="3.3911">
        <ele>-2.27</ele>
        <time>2018-05-08T15:21:08Z</time>
      </trkpt>
      <trkpt lat="43.29135" lon="3.39112">
        <ele>-2.27</ele>
        <time>2018-05-08T15:21:09Z</time>
      </trkpt>
      <trkpt lat="43.29123" lon="3.39124">
        <ele>-2.27</ele>
        <time>2018-05-08T15:21:13Z</time>
      </trkpt>
      <trkpt lat="43.29122" lon="3.39129">
        <ele>-2.27</ele>
        <time>2018-05-08T15:21:14Z</time>
      </trkpt>
      <trkpt lat="43.29112" lon="3.39186">
        <ele>-2.75</ele>
        <time>2018-05-08T15:21:24Z</time>
      </trkpt>
      <trkpt lat="43.29111" lon="3.39192">
        <ele>-2.27</ele>
        <time>2018-05-08T15:21:25Z</time>
      </trkpt>
      <trkpt lat="43.29094" lon="3.39271">
        <ele>-1.79</ele>
        <time>2018-05-08T15:21:38Z</time>
      </trkpt>
      <trkpt lat="43.29064" lon="3.39354">
        <ele>-3.23</ele>
        <time>2018-05-08T15:21:54Z</time>
      </trkpt>
      <trkpt lat="43.29057" lon="3.39369">
        <ele>-3.71</ele>
        <time>2018-05-08T15:21:57Z</time>
      </trkpt>
      <trkpt lat="43.29028" lon="3.39419">
        <ele>-4.19</ele>
        <time>2018-05-08T15:22:08Z</time>
      </trkpt>
      <trkpt lat="43.29027" lon="3.39424">
        <ele>-3.71</ele>
        <time>2018-05-08T15:22:09Z</time>
      </trkpt>
      <trkpt lat="43.29026" lon="3.3943">
        <ele>-3.71</ele>
        <time>2018-05-08T15:22:10Z</time>
      </trkpt>
      <trkpt lat="43.29025" lon="3.39436">
        <ele>-3.71</ele>
        <time>2018-05-08T15:22:11Z</time>
      </trkpt>
      <trkpt lat="43.29025" lon="3.39441">
        <ele>-3.71</ele>
        <time>2018-05-08T15:22:12Z</time>
      </trkpt>
      <trkpt lat="43.29026" lon="3.39447">
        <ele>-3.23</ele>
        <time>2018-05-08T15:22:13Z</time>
      </trkpt>
      <trkpt lat="43.29027" lon="3.39453">
        <ele>-3.23</ele>
        <time>2018-05-08T15:22:14Z</time>
      </trkpt>
      <trkpt lat="43.29028" lon="3.3946">
        <ele>-2.75</ele>
        <time>2018-05-08T15:22:15Z</time>
      </trkpt>
      <trkpt lat="43.2903" lon="3.39465">
        <ele>-2.75</ele>
        <time>2018-05-08T15:22:16Z</time>
      </trkpt>
      <trkpt lat="43.29032" lon="3.39471">
        <ele>-2.75</ele>
        <time>2018-05-08T15:22:17Z</time>
      </trkpt>
      <trkpt lat="43.29041" lon="3.3949">
        <ele>-3.23</ele>
        <time>2018-05-08T15:22:21Z</time>
      </trkpt>
      <trkpt lat="43.29068" lon="3.39559">
        <ele>-4.67</ele>
        <time>2018-05-08T15:22:34Z</time>
      </trkpt>
      <trkpt lat="43.29077" lon="3.39647">
        <ele>-4.19</ele>
        <time>2018-05-08T15:22:49Z</time>
      </trkpt>
      <trkpt lat="43.29075" lon="3.39667">
        <ele>-3.23</ele>
        <time>2018-05-08T15:22:52Z</time>
      </trkpt>
      <trkpt lat="43.29086" lon="3.39742">
        <ele>-1.3</ele>
        <time>2018-05-08T15:23:06Z</time>
      </trkpt>
      <trkpt lat="43.29086" lon="3.39749">
        <ele>-1.3</ele>
        <time>2018-05-08T15:23:07Z</time>
      </trkpt>
      <trkpt lat="43.29086" lon="3.39754">
        <ele>-1.3</ele>
        <time>2018-05-08T15:23:08Z</time>
      </trkpt>
      <trkpt lat="43.29085" lon="3.39759">
        <ele>-1.3</ele>
        <time>2018-05-08T15:23:09Z</time>
      </trkpt>
      <trkpt lat="43.29084" lon="3.39765">
        <ele>-1.3</ele>
        <time>2018-05-08T15:23:10Z</time>
      </trkpt>
      <trkpt lat="43.2908" lon="3.39781">
        <ele>-0.82</ele>
        <time>2018-05-08T15:23:13Z</time>
      </trkpt>
      <trkpt lat="43.29068" lon="3.39848">
        <ele>-0.34</ele>
        <time>2018-05-08T15:23:28Z</time>
      </trkpt>
      <trkpt lat="43.2907" lon="3.39851">
        <ele>-0.82</ele>
        <time>2018-05-08T15:23:29Z</time>
      </trkpt>
      <trkpt lat="43.29072" lon="3.39853">
        <ele>-0.82</ele>
        <time>2018-05-08T15:23:30Z</time>
      </trkpt>
      <trkpt lat="43.29075" lon="3.39855">
        <ele>-0.82</ele>
        <time>2018-05-08T15:23:31Z</time>
      </trkpt>
      <trkpt lat="43.29078" lon="3.39857">
        <ele>-0.82</ele>
        <time>2018-05-08T15:23:32Z</time>
      </trkpt>
      <trkpt lat="43.29081" lon="3.39858">
        <ele>-0.82</ele>
        <time>2018-05-08T15:23:33Z</time>
      </trkpt>
      <trkpt lat="43.29084" lon="3.3986">
        <ele>-0.82</ele>
        <time>2018-05-08T15:23:34Z</time>
      </trkpt>
      <trkpt lat="43.29133" lon="3.39892">
        <ele>-0.82</ele>
        <time>2018-05-08T15:23:50Z</time>
      </trkpt>
      <trkpt lat="43.29185" lon="3.39922">
        <ele>-2.27</ele>
        <time>2018-05-08T15:24:05Z</time>
      </trkpt>
      <trkpt lat="43.29229" lon="3.39948">
        <ele>-1.3</ele>
        <time>2018-05-08T15:24:18Z</time>
      </trkpt>
      <trkpt lat="43.2926" lon="3.39998">
        <ele>-1.3</ele>
        <time>2018-05-08T15:24:31Z</time>
      </trkpt>
      <trkpt lat="43.29268" lon="3.40069">
        <ele>0.62</ele>
        <time>2018-05-08T15:24:45Z</time>
      </trkpt>
      <trkpt lat="43.29265" lon="3.40143">
        <ele>2.54</ele>
        <time>2018-05-08T15:24:58Z</time>
      </trkpt>
      <trkpt lat="43.29265" lon="3.40155">
        <ele>3.02</ele>
        <time>2018-05-08T15:25:00Z</time>
      </trkpt>
      <trkpt lat="43.29256" lon="3.40255">
        <ele>1.58</ele>
        <time>2018-05-08T15:25:17Z</time>
      </trkpt>
      <trkpt lat="43.29253" lon="3.40341">
        <ele>2.54</ele>
        <time>2018-05-08T15:25:32Z</time>
      </trkpt>
      <trkpt lat="43.29253" lon="3.40427">
        <ele>1.1</ele>
        <time>2018-05-08T15:25:47Z</time>
      </trkpt>
      <trkpt lat="43.29251" lon="3.40486">
        <ele>1.58</ele>
        <time>2018-05-08T15:25:58Z</time>
      </trkpt>
      <trkpt lat="43.29254" lon="3.4049">
        <ele>1.58</ele>
        <time>2018-05-08T15:25:59Z</time>
      </trkpt>
      <trkpt lat="43.29257" lon="3.40493">
        <ele>1.58</ele>
        <time>2018-05-08T15:26:00Z</time>
      </trkpt>
      <trkpt lat="43.29261" lon="3.40495">
        <ele>1.58</ele>
        <time>2018-05-08T15:26:01Z</time>
      </trkpt>
      <trkpt lat="43.29264" lon="3.40497">
        <ele>1.58</ele>
        <time>2018-05-08T15:26:02Z</time>
      </trkpt>
      <trkpt lat="43.29268" lon="3.40498">
        <ele>1.58</ele>
        <time>2018-05-08T15:26:03Z</time>
      </trkpt>
      <trkpt lat="43.29272" lon="3.40499">
        <ele>1.58</ele>
        <time>2018-05-08T15:26:04Z</time>
      </trkpt>
      <trkpt lat="43.29276" lon="3.405">
        <ele>1.58</ele>
        <time>2018-05-08T15:26:05Z</time>
      </trkpt>
      <trkpt lat="43.29323" lon="3.40493">
        <ele>1.58</ele>
        <time>2018-05-08T15:26:18Z</time>
      </trkpt>
      <trkpt lat="43.29324" lon="3.40494">
        <ele>1.58</ele>
        <time>2018-05-08T15:26:19Z</time>
      </trkpt>
      <trkpt lat="43.29325" lon="3.40496">
        <ele>1.58</ele>
        <time>2018-05-08T15:26:20Z</time>
      </trkpt>
      <trkpt lat="43.29325" lon="3.40498">
        <ele>1.58</ele>
        <time>2018-05-08T15:26:21Z</time>
      </trkpt>
      <trkpt lat="43.29325" lon="3.40501">
        <ele>1.58</ele>
        <time>2018-05-08T15:26:22Z</time>
      </trkpt>
      <trkpt lat="43.29329" lon="3.40535">
        <ele>1.58</ele>
        <time>2018-05-08T15:26:34Z</time>
      </trkpt>
      <trkpt lat="43.29334" lon="3.40584">
        <ele>0.62</ele>
        <time>2018-05-08T15:26:48Z</time>
      </trkpt>
      <trkpt lat="43.2934" lon="3.40626">
        <ele>-0.34</ele>
        <time>2018-05-08T15:27:00Z</time>
      </trkpt>
      <trkpt lat="43.29343" lon="3.40648">
        <ele>-1.79</ele>
        <time>2018-05-08T15:27:11Z</time>
      </trkpt>
      <trkpt lat="43.29345" lon="3.40675">
        <ele>-2.27</ele>
        <time>2018-05-08T15:27:23Z</time>
      </trkpt>
      <trkpt lat="43.29345" lon="3.40687">
        <ele>-1.79</ele>
        <time>2018-05-08T15:27:35Z</time>
      </trkpt>
      <trkpt lat="43.29345" lon="3.40691">
        <ele>-0.34</ele>
        <time>2018-05-08T15:28:03Z</time>
      </trkpt>
      <trkpt lat="43.29345" lon="3.40691">
        <ele>0.62</ele>
        <time>2018-05-08T15:28:15Z</time>
      </trkpt>
      <trkpt lat="43.29344" lon="3.40692">
        <ele>0.62</ele>
        <time>2018-05-08T15:28:16Z</time>
      </trkpt>
      <trkpt lat="43.29344" lon="3.40694">
        <ele>0.62</ele>
        <time>2018-05-08T15:28:17Z</time>
      </trkpt>
      <trkpt lat="43.29343" lon="3.40697">
        <ele>0.62</ele>
        <time>2018-05-08T15:28:18Z</time>
      </trkpt>
      <trkpt lat="43.29344" lon="3.407">
        <ele>0.62</ele>
        <time>2018-05-08T15:28:19Z</time>
      </trkpt>
      <trkpt lat="43.29345" lon="3.40703">
        <ele>0.62</ele>
        <time>2018-05-08T15:28:20Z</time>
      </trkpt>
      <trkpt lat="43.29347" lon="3.40705">
        <ele>0.62</ele>
        <time>2018-05-08T15:28:21Z</time>
      </trkpt>
      <trkpt lat="43.29349" lon="3.40707">
        <ele>0.62</ele>
        <time>2018-05-08T15:28:22Z</time>
      </trkpt>
      <trkpt lat="43.29352" lon="3.40709">
        <ele>0.14</ele>
        <time>2018-05-08T15:28:23Z</time>
      </trkpt>
      <trkpt lat="43.2938" lon="3.40732">
        <ele>-1.3</ele>
        <time>2018-05-08T15:28:32Z</time>
      </trkpt>
      <trkpt lat="43.29426" lon="3.40774">
        <ele>0.62</ele>
        <time>2018-05-08T15:28:46Z</time>
      </trkpt>
      <trkpt lat="43.29425" lon="3.40779">
        <ele>0.62</ele>
        <time>2018-05-08T15:28:47Z</time>
      </trkpt>
      <trkpt lat="43.29424" lon="3.40784">
        <ele>0.62</ele>
        <time>2018-05-08T15:28:48Z</time>
      </trkpt>
      <trkpt lat="43.29423" lon="3.40788">
        <ele>0.62</ele>
        <time>2018-05-08T15:28:49Z</time>
      </trkpt>
      <trkpt lat="43.29421" lon="3.40793">
        <ele>0.62</ele>
        <time>2018-05-08T15:28:50Z</time>
      </trkpt>
      <trkpt lat="43.29401" lon="3.40867">
        <ele>1.1</ele>
        <time>2018-05-08T15:29:05Z</time>
      </trkpt>
      <trkpt lat="43.29377" lon="3.40941">
        <ele>3.02</ele>
        <time>2018-05-08T15:29:19Z</time>
      </trkpt>
      <trkpt lat="43.29368" lon="3.4097">
        <ele>3.98</ele>
        <time>2018-05-08T15:29:24Z</time>
      </trkpt>
      <trkpt lat="43.29362" lon="3.40991">
        <ele>3.98</ele>
        <time>2018-05-08T15:29:28Z</time>
      </trkpt>
      <trkpt lat="43.29359" lon="3.41003">
        <ele>4.46</ele>
        <time>2018-05-08T15:29:30Z</time>
      </trkpt>
      <trkpt lat="43.29346" lon="3.4105">
        <ele>3.5</ele>
        <time>2018-05-08T15:29:39Z</time>
      </trkpt>
      <trkpt lat="43.29345" lon="3.41056">
        <ele>3.5</ele>
        <time>2018-05-08T15:29:40Z</time>
      </trkpt>
      <trkpt lat="43.29332" lon="3.41097">
        <ele>3.02</ele>
        <time>2018-05-08T15:29:48Z</time>
      </trkpt>
      <trkpt lat="43.29313" lon="3.41141">
        <ele>2.06</ele>
        <time>2018-05-08T15:29:57Z</time>
      </trkpt>
      <trkpt lat="43.29312" lon="3.41147">
        <ele>2.06</ele>
        <time>2018-05-08T15:29:58Z</time>
      </trkpt>
      <trkpt lat="43.29313" lon="3.41152">
        <ele>1.58</ele>
        <time>2018-05-08T15:29:59Z</time>
      </trkpt>
      <trkpt lat="43.29315" lon="3.41158">
        <ele>1.58</ele>
        <time>2018-05-08T15:30:00Z</time>
      </trkpt>
      <trkpt lat="43.29319" lon="3.41162">
        <ele>1.58</ele>
        <time>2018-05-08T15:30:01Z</time>
      </trkpt>
      <trkpt lat="43.29322" lon="3.41164">
        <ele>1.58</ele>
        <time>2018-05-08T15:30:02Z</time>
      </trkpt>
      <trkpt lat="43.29326" lon="3.41166">
        <ele>1.58</ele>
        <time>2018-05-08T15:30:03Z</time>
      </trkpt>
      <trkpt lat="43.2933" lon="3.41168">
        <ele>2.06</ele>
        <time>2018-05-08T15:30:04Z</time>
      </trkpt>
      <trkpt lat="43.29335" lon="3.41169">
        <ele>2.06</ele>
        <time>2018-05-08T15:30:05Z</time>
      </trkpt>
      <trkpt lat="43.2938" lon="3.41188">
        <ele>3.02</ele>
        <time>2018-05-08T15:30:18Z</time>
      </trkpt>
      <trkpt lat="43.29415" lon="3.41212">
        <ele>3.02</ele>
        <time>2018-05-08T15:30:29Z</time>
      </trkpt>
      <trkpt lat="43.29415" lon="3.41219">
        <ele>3.5</ele>
        <time>2018-05-08T15:30:30Z</time>
      </trkpt>
      <trkpt lat="43.29415" lon="3.41225">
        <ele>3.5</ele>
        <time>2018-05-08T15:30:31Z</time>
      </trkpt>
      <trkpt lat="43.29414" lon="3.41244">
        <ele>4.46</ele>
        <time>2018-05-08T15:30:34Z</time>
      </trkpt>
      <trkpt lat="43.29413" lon="3.4125">
        <ele>4.46</ele>
        <time>2018-05-08T15:30:35Z</time>
      </trkpt>
      <trkpt lat="43.29408" lon="3.41344">
        <ele>6.39</ele>
        <time>2018-05-08T15:30:51Z</time>
      </trkpt>
      <trkpt lat="43.29408" lon="3.41361">
        <ele>6.39</ele>
        <time>2018-05-08T15:30:54Z</time>
      </trkpt>
      <trkpt lat="43.29403" lon="3.41399">
        <ele>6.39</ele>
        <time>2018-05-08T15:31:01Z</time>
      </trkpt>
      <trkpt lat="43.29403" lon="3.41405">
        <ele>6.39</ele>
        <time>2018-05-08T15:31:02Z</time>
      </trkpt>
      <trkpt lat="43.29403" lon="3.41411">
        <ele>6.39</ele>
        <time>2018-05-08T15:31:03Z</time>
      </trkpt>
      <trkpt lat="43.29402" lon="3.41415">
        <ele>6.39</ele>
        <time>2018-05-08T15:31:04Z</time>
      </trkpt>
      <trkpt lat="43.29401" lon="3.4142">
        <ele>5.91</ele>
        <time>2018-05-08T15:31:05Z</time>
      </trkpt>
      <trkpt lat="43.294" lon="3.41425">
        <ele>5.91</ele>
        <time>2018-05-08T15:31:06Z</time>
      </trkpt>
      <trkpt lat="43.29377" lon="3.41519">
        <ele>2.06</ele>
        <time>2018-05-08T15:31:23Z</time>
      </trkpt>
      <trkpt lat="43.29377" lon="3.41525">
        <ele>2.06</ele>
        <time>2018-05-08T15:31:24Z</time>
      </trkpt>
      <trkpt lat="43.29377" lon="3.41531">
        <ele>2.06</ele>
        <time>2018-05-08T15:31:25Z</time>
      </trkpt>
      <trkpt lat="43.29378" lon="3.41537">
        <ele>2.54</ele>
        <time>2018-05-08T15:31:26Z</time>
      </trkpt>
      <trkpt lat="43.29379" lon="3.41543">
        <ele>2.54</ele>
        <time>2018-05-08T15:31:27Z</time>
      </trkpt>
      <trkpt lat="43.2938" lon="3.41549">
        <ele>2.54</ele>
        <time>2018-05-08T15:31:28Z</time>
      </trkpt>
      <trkpt lat="43.29381" lon="3.41555">
        <ele>2.54</ele>
        <time>2018-05-08T15:31:29Z</time>
      </trkpt>
      <trkpt lat="43.29382" lon="3.41561">
        <ele>3.02</ele>
        <time>2018-05-08T15:31:30Z</time>
      </trkpt>
      <trkpt lat="43.29384" lon="3.41566">
        <ele>3.02</ele>
        <time>2018-05-08T15:31:31Z</time>
      </trkpt>
      <trkpt lat="43.29386" lon="3.4157">
        <ele>3.02</ele>
        <time>2018-05-08T15:31:32Z</time>
      </trkpt>
      <trkpt lat="43.29417" lon="3.41613">
        <ele>3.02</ele>
        <time>2018-05-08T15:31:44Z</time>
      </trkpt>
      <trkpt lat="43.29423" lon="3.41621">
        <ele>2.54</ele>
        <time>2018-05-08T15:31:46Z</time>
      </trkpt>
      <trkpt lat="43.29426" lon="3.41626">
        <ele>2.54</ele>
        <time>2018-05-08T15:31:47Z</time>
      </trkpt>
      <trkpt lat="43.29428" lon="3.41631">
        <ele>2.54</ele>
        <time>2018-05-08T15:31:48Z</time>
      </trkpt>
      <trkpt lat="43.29429" lon="3.41637">
        <ele>2.54</ele>
        <time>2018-05-08T15:31:49Z</time>
      </trkpt>
      <trkpt lat="43.2943" lon="3.41643">
        <ele>2.54</ele>
        <time>2018-05-08T15:31:50Z</time>
      </trkpt>
      <trkpt lat="43.2943" lon="3.4165">
        <ele>2.06</ele>
        <time>2018-05-08T15:31:51Z</time>
      </trkpt>
      <trkpt lat="43.29431" lon="3.41656">
        <ele>2.06</ele>
        <time>2018-05-08T15:31:52Z</time>
      </trkpt>
      <trkpt lat="43.29431" lon="3.41662">
        <ele>2.06</ele>
        <time>2018-05-08T15:31:53Z</time>
      </trkpt>
      <trkpt lat="43.29431" lon="3.41668">
        <ele>2.06</ele>
        <time>2018-05-08T15:31:54Z</time>
      </trkpt>
      <trkpt lat="43.29431" lon="3.41673">
        <ele>2.06</ele>
        <time>2018-05-08T15:31:55Z</time>
      </trkpt>
      <trkpt lat="43.2943" lon="3.41678">
        <ele>2.06</ele>
        <time>2018-05-08T15:31:56Z</time>
      </trkpt>
      <trkpt lat="43.2943" lon="3.41683">
        <ele>1.58</ele>
        <time>2018-05-08T15:31:57Z</time>
      </trkpt>
      <trkpt lat="43.29433" lon="3.41705">
        <ele>1.1</ele>
        <time>2018-05-08T15:32:05Z</time>
      </trkpt>
      <trkpt lat="43.29444" lon="3.41713">
        <ele>0.62</ele>
        <time>2018-05-08T15:32:10Z</time>
      </trkpt>
      <trkpt lat="43.29471" lon="3.41736">
        <ele>-0.34</ele>
        <time>2018-05-08T15:32:20Z</time>
      </trkpt>
      <trkpt lat="43.29474" lon="3.41738">
        <ele>-0.34</ele>
        <time>2018-05-08T15:32:22Z</time>
      </trkpt>
      <trkpt lat="43.29475" lon="3.41739">
        <ele>-0.34</ele>
        <time>2018-05-08T15:32:23Z</time>
      </trkpt>
      <trkpt lat="43.29475" lon="3.4174">
        <ele>-0.34</ele>
        <time>2018-05-08T15:32:24Z</time>
      </trkpt>
      <trkpt lat="43.29475" lon="3.41748">
        <ele>-0.34</ele>
        <time>2018-05-08T15:32:27Z</time>
      </trkpt>
      <trkpt lat="43.29476" lon="3.41751">
        <ele>-0.34</ele>
        <time>2018-05-08T15:32:28Z</time>
      </trkpt>
      <trkpt lat="43.29477" lon="3.41754">
        <ele>0.14</ele>
        <time>2018-05-08T15:32:29Z</time>
      </trkpt>
      <trkpt lat="43.29479" lon="3.41756">
        <ele>0.14</ele>
        <time>2018-05-08T15:32:30Z</time>
      </trkpt>
      <trkpt lat="43.29482" lon="3.41757">
        <ele>0.14</ele>
        <time>2018-05-08T15:32:31Z</time>
      </trkpt>
      <trkpt lat="43.29484" lon="3.41758">
        <ele>0.14</ele>
        <time>2018-05-08T15:32:32Z</time>
      </trkpt>
      <trkpt lat="43.29487" lon="3.41759">
        <ele>0.14</ele>
        <time>2018-05-08T15:32:33Z</time>
      </trkpt>
      <trkpt lat="43.2949" lon="3.4176">
        <ele>0.62</ele>
        <time>2018-05-08T15:32:34Z</time>
      </trkpt>
      <trkpt lat="43.29539" lon="3.41773">
        <ele>1.1</ele>
        <time>2018-05-08T15:32:47Z</time>
      </trkpt>
      <trkpt lat="43.29577" lon="3.41782">
        <ele>0.62</ele>
        <time>2018-05-08T15:32:59Z</time>
      </trkpt>
      <trkpt lat="43.29588" lon="3.41783">
        <ele>0.62</ele>
        <time>2018-05-08T15:33:02Z</time>
      </trkpt>
      <trkpt lat="43.29597" lon="3.41781">
        <ele>1.1</ele>
        <time>2018-05-08T15:33:04Z</time>
      </trkpt>
      <trkpt lat="43.29605" lon="3.41778">
        <ele>1.1</ele>
        <time>2018-05-08T15:33:06Z</time>
      </trkpt>
      <trkpt lat="43.29677" lon="3.41779">
        <ele>3.5</ele>
        <time>2018-05-08T15:33:23Z</time>
      </trkpt>
      <trkpt lat="43.29734" lon="3.41781">
        <ele>2.06</ele>
        <time>2018-05-08T15:33:37Z</time>
      </trkpt>
      <trkpt lat="43.29789" lon="3.41781">
        <ele>2.54</ele>
        <time>2018-05-08T15:33:51Z</time>
      </trkpt>
      <trkpt lat="43.29852" lon="3.4178">
        <ele>2.06</ele>
        <time>2018-05-08T15:34:08Z</time>
      </trkpt>
      <trkpt lat="43.29913" lon="3.41781">
        <ele>-0.34</ele>
        <time>2018-05-08T15:34:25Z</time>
      </trkpt>
      <trkpt lat="43.29964" lon="3.41784">
        <ele>1.1</ele>
        <time>2018-05-08T15:34:39Z</time>
      </trkpt>
      <trkpt lat="43.30005" lon="3.41788">
        <ele>2.06</ele>
        <time>2018-05-08T15:34:50Z</time>
      </trkpt>
      <trkpt lat="43.30052" lon="3.41798">
        <ele>1.58</ele>
        <time>2018-05-08T15:35:03Z</time>
      </trkpt>
      <trkpt lat="43.30109" lon="3.41821">
        <ele>0.14</ele>
        <time>2018-05-08T15:35:19Z</time>
      </trkpt>
      <trkpt lat="43.30145" lon="3.41876">
        <ele>1.58</ele>
        <time>2018-05-08T15:35:33Z</time>
      </trkpt>
      <trkpt lat="43.30185" lon="3.41885">
        <ele>1.1</ele>
        <time>2018-05-08T15:35:45Z</time>
      </trkpt>
      <trkpt lat="43.30201" lon="3.41907">
        <ele>2.06</ele>
        <time>2018-05-08T15:35:55Z</time>
      </trkpt>
      <trkpt lat="43.30203" lon="3.41929">
        <ele>2.06</ele>
        <time>2018-05-08T15:36:00Z</time>
      </trkpt>
      <trkpt lat="43.30205" lon="3.41933">
        <ele>2.06</ele>
        <time>2018-05-08T15:36:01Z</time>
      </trkpt>
      <trkpt lat="43.30208" lon="3.41937">
        <ele>1.58</ele>
        <time>2018-05-08T15:36:02Z</time>
      </trkpt>
      <trkpt lat="43.3021" lon="3.41941">
        <ele>2.06</ele>
        <time>2018-05-08T15:36:03Z</time>
      </trkpt>
      <trkpt lat="43.30211" lon="3.41945">
        <ele>2.06</ele>
        <time>2018-05-08T15:36:04Z</time>
      </trkpt>
      <trkpt lat="43.30213" lon="3.4195">
        <ele>2.06</ele>
        <time>2018-05-08T15:36:05Z</time>
      </trkpt>
      <trkpt lat="43.30214" lon="3.41954">
        <ele>2.06</ele>
        <time>2018-05-08T15:36:06Z</time>
      </trkpt>
      <trkpt lat="43.30215" lon="3.41959">
        <ele>2.06</ele>
        <time>2018-05-08T15:36:07Z</time>
      </trkpt>
      <trkpt lat="43.3022" lon="3.41997">
        <ele>1.58</ele>
        <time>2018-05-08T15:36:20Z</time>
      </trkpt>
      <trkpt lat="43.30218" lon="3.41997">
        <ele>0.14</ele>
        <time>2018-05-08T15:36:32Z</time>
      </trkpt>
      <trkpt lat="43.30217" lon="3.41997">
        <ele>0.62</ele>
        <time>2018-05-08T15:36:46Z</time>
      </trkpt>
      <trkpt lat="43.30218" lon="3.41999">
        <ele>0.62</ele>
        <time>2018-05-08T15:37:11Z</time>
      </trkpt>
      <trkpt lat="43.30216" lon="3.41997">
        <ele>1.58</ele>
        <time>2018-05-08T15:37:40Z</time>
      </trkpt>
      <trkpt lat="43.30216" lon="3.41995">
        <ele>3.5</ele>
        <time>2018-05-08T15:38:03Z</time>
      </trkpt>
      <trkpt lat="43.30216" lon="3.41996">
        <ele>3.98</ele>
        <time>2018-05-08T15:38:35Z</time>
      </trkpt>
      <trkpt lat="43.30217" lon="3.41999">
        <ele>2.54</ele>
        <time>2018-05-08T15:39:03Z</time>
      </trkpt>
      <trkpt lat="43.30218" lon="3.41998">
        <ele>1.1</ele>
        <time>2018-05-08T15:39:36Z</time>
      </trkpt>
      <trkpt lat="43.30216" lon="3.41998">
        <ele>4.94</ele>
        <time>2018-05-08T15:40:13Z</time>
      </trkpt>
      <trkpt lat="43.30218" lon="3.42">
        <ele>3.5</ele>
        <time>2018-05-08T15:40:43Z</time>
      </trkpt>
      <trkpt lat="43.30217" lon="3.41999">
        <ele>1.58</ele>
        <time>2018-05-08T15:41:13Z</time>
      </trkpt>
      <trkpt lat="43.30217" lon="3.41997">
        <ele>3.02</ele>
        <time>2018-05-08T15:41:52Z</time>
      </trkpt>
      <trkpt lat="43.30216" lon="3.41997">
        <ele>4.94</ele>
        <time>2018-05-08T15:42:26Z</time>
      </trkpt>
      <trkpt lat="43.30217" lon="3.41997">
        <ele>8.31</ele>
        <time>2018-05-08T15:42:57Z</time>
      </trkpt>
      <trkpt lat="43.30217" lon="3.41996">
        <ele>8.31</ele>
        <time>2018-05-08T15:43:29Z</time>
      </trkpt>
      <trkpt lat="43.30215" lon="3.41996">
        <ele>5.91</ele>
        <time>2018-05-08T15:43:54Z</time>
      </trkpt>
      <trkpt lat="43.30217" lon="3.41997">
        <ele>5.42</ele>
        <time>2018-05-08T15:44:19Z</time>
      </trkpt>
      <trkpt lat="43.30217" lon="3.41998">
        <ele>3.5</ele>
        <time>2018-05-08T15:44:42Z</time>
      </trkpt>
      <trkpt lat="43.30217" lon="3.41996">
        <ele>6.39</ele>
        <time>2018-05-08T15:45:07Z</time>
      </trkpt>
      <trkpt lat="43.30222" lon="3.42001">
        <ele>5.91</ele>
        <time>2018-05-08T15:45:24Z</time>
      </trkpt>
      <trkpt lat="43.30222" lon="3.42002">
        <ele>5.91</ele>
        <time>2018-05-08T15:45:25Z</time>
      </trkpt>
      <trkpt lat="43.30223" lon="3.42004">
        <ele>5.42</ele>
        <time>2018-05-08T15:45:26Z</time>
      </trkpt>
      <trkpt lat="43.30227" lon="3.42049">
        <ele>5.42</ele>
        <time>2018-05-08T15:45:40Z</time>
      </trkpt>
      <trkpt lat="43.30234" lon="3.4213">
        <ele>5.91</ele>
        <time>2018-05-08T15:45:59Z</time>
      </trkpt>
      <trkpt lat="43.30237" lon="3.42202">
        <ele>5.91</ele>
        <time>2018-05-08T15:46:14Z</time>
      </trkpt>
      <trkpt lat="43.30241" lon="3.42271">
        <ele>2.54</ele>
        <time>2018-05-08T15:46:28Z</time>
      </trkpt>
      <trkpt lat="43.30248" lon="3.4234">
        <ele>0.62</ele>
        <time>2018-05-08T15:46:41Z</time>
      </trkpt>
      <trkpt lat="43.30256" lon="3.4245">
        <ele>1.58</ele>
        <time>2018-05-08T15:47:00Z</time>
      </trkpt>
      <trkpt lat="43.30257" lon="3.4248">
        <ele>1.58</ele>
        <time>2018-05-08T15:47:05Z</time>
      </trkpt>
      <trkpt lat="43.30264" lon="3.42561">
        <ele>2.54</ele>
        <time>2018-05-08T15:47:20Z</time>
      </trkpt>
      <trkpt lat="43.3027" lon="3.42648">
        <ele>3.02</ele>
        <time>2018-05-08T15:47:35Z</time>
      </trkpt>
      <trkpt lat="43.30276" lon="3.42731">
        <ele>3.5</ele>
        <time>2018-05-08T15:47:49Z</time>
      </trkpt>
      <trkpt lat="43.30281" lon="3.42819">
        <ele>3.02</ele>
        <time>2018-05-08T15:48:05Z</time>
      </trkpt>
      <trkpt lat="43.30282" lon="3.42824">
        <ele>3.02</ele>
        <time>2018-05-08T15:48:06Z</time>
      </trkpt>
      <trkpt lat="43.30287" lon="3.42898">
        <ele>3.5</ele>
        <time>2018-05-08T15:48:19Z</time>
      </trkpt>
      <trkpt lat="43.30285" lon="3.42928">
        <ele>3.02</ele>
        <time>2018-05-08T15:48:25Z</time>
      </trkpt>
      <trkpt lat="43.30282" lon="3.4293">
        <ele>2.54</ele>
        <time>2018-05-08T15:48:26Z</time>
      </trkpt>
      <trkpt lat="43.30279" lon="3.42931">
        <ele>3.02</ele>
        <time>2018-05-08T15:48:27Z</time>
      </trkpt>
      <trkpt lat="43.30276" lon="3.42932">
        <ele>3.02</ele>
        <time>2018-05-08T15:48:28Z</time>
      </trkpt>
      <trkpt lat="43.30274" lon="3.42934">
        <ele>3.02</ele>
        <time>2018-05-08T15:48:29Z</time>
      </trkpt>
      <trkpt lat="43.30272" lon="3.42935">
        <ele>3.02</ele>
        <time>2018-05-08T15:48:30Z</time>
      </trkpt>
      <trkpt lat="43.3027" lon="3.42936">
        <ele>3.02</ele>
        <time>2018-05-08T15:48:31Z</time>
      </trkpt>
      <trkpt lat="43.30269" lon="3.42937">
        <ele>3.02</ele>
        <time>2018-05-08T15:48:32Z</time>
      </trkpt>
      <trkpt lat="43.30268" lon="3.4294">
        <ele>3.02</ele>
        <time>2018-05-08T15:48:33Z</time>
      </trkpt>
      <trkpt lat="43.30267" lon="3.42943">
        <ele>3.02</ele>
        <time>2018-05-08T15:48:34Z</time>
      </trkpt>
      <trkpt lat="43.30267" lon="3.42946">
        <ele>3.02</ele>
        <time>2018-05-08T15:48:35Z</time>
      </trkpt>
      <trkpt lat="43.30266" lon="3.4295">
        <ele>3.02</ele>
        <time>2018-05-08T15:48:36Z</time>
      </trkpt>
      <trkpt lat="43.30269" lon="3.4301">
        <ele>3.5</ele>
        <time>2018-05-08T15:48:51Z</time>
      </trkpt>
      <trkpt lat="43.3027" lon="3.43058">
        <ele>2.06</ele>
        <time>2018-05-08T15:49:00Z</time>
      </trkpt>
      <trkpt lat="43.30267" lon="3.43064">
        <ele>1.58</ele>
        <time>2018-05-08T15:49:01Z</time>
      </trkpt>
      <trkpt lat="43.30264" lon="3.43069">
        <ele>1.58</ele>
        <time>2018-05-08T15:49:02Z</time>
      </trkpt>
      <trkpt lat="43.3026" lon="3.43072">
        <ele>1.58</ele>
        <time>2018-05-08T15:49:03Z</time>
      </trkpt>
      <trkpt lat="43.30256" lon="3.43075">
        <ele>1.58</ele>
        <time>2018-05-08T15:49:04Z</time>
      </trkpt>
      <trkpt lat="43.30252" lon="3.43078">
        <ele>2.06</ele>
        <time>2018-05-08T15:49:05Z</time>
      </trkpt>
      <trkpt lat="43.30217" lon="3.43102">
        <ele>2.54</ele>
        <time>2018-05-08T15:49:15Z</time>
      </trkpt>
      <trkpt lat="43.30214" lon="3.43106">
        <ele>3.02</ele>
        <time>2018-05-08T15:49:16Z</time>
      </trkpt>
      <trkpt lat="43.30183" lon="3.4316">
        <ele>3.02</ele>
        <time>2018-05-08T15:49:29Z</time>
      </trkpt>
      <trkpt lat="43.30149" lon="3.43235">
        <ele>3.02</ele>
        <time>2018-05-08T15:49:46Z</time>
      </trkpt>
      <trkpt lat="43.3012" lon="3.43299">
        <ele>7.35</ele>
        <time>2018-05-08T15:49:59Z</time>
      </trkpt>
      <trkpt lat="43.30102" lon="3.43335">
        <ele>4.94</ele>
        <time>2018-05-08T15:50:06Z</time>
      </trkpt>
      <trkpt lat="43.30084" lon="3.43368">
        <ele>0.14</ele>
        <time>2018-05-08T15:50:13Z</time>
      </trkpt>
      <trkpt lat="43.30029" lon="3.43438">
        <ele>-0.34</ele>
        <time>2018-05-08T15:50:28Z</time>
      </trkpt>
      <trkpt lat="43.29978" lon="3.43524">
        <ele>1.58</ele>
        <time>2018-05-08T15:50:45Z</time>
      </trkpt>
      <trkpt lat="43.29968" lon="3.43539">
        <ele>1.1</ele>
        <time>2018-05-08T15:50:48Z</time>
      </trkpt>
      <trkpt lat="43.29965" lon="3.43543">
        <ele>0.62</ele>
        <time>2018-05-08T15:50:49Z</time>
      </trkpt>
      <trkpt lat="43.29912" lon="3.43631">
        <ele>-0.34</ele>
        <time>2018-05-08T15:51:06Z</time>
      </trkpt>
      <trkpt lat="43.2991" lon="3.43635">
        <ele>-0.82</ele>
        <time>2018-05-08T15:51:07Z</time>
      </trkpt>
      <trkpt lat="43.29894" lon="3.43663">
        <ele>-1.3</ele>
        <time>2018-05-08T15:51:12Z</time>
      </trkpt>
      <trkpt lat="43.29845" lon="3.43738">
        <ele>-2.27</ele>
        <time>2018-05-08T15:51:25Z</time>
      </trkpt>
      <trkpt lat="43.29795" lon="3.43807">
        <ele>-2.27</ele>
        <time>2018-05-08T15:51:38Z</time>
      </trkpt>
      <trkpt lat="43.29775" lon="3.43836">
        <ele>-2.75</ele>
        <time>2018-05-08T15:51:45Z</time>
      </trkpt>
      <trkpt lat="43.29775" lon="3.43841">
        <ele>-2.27</ele>
        <time>2018-05-08T15:51:46Z</time>
      </trkpt>
      <trkpt lat="43.29776" lon="3.43847">
        <ele>-2.27</ele>
        <time>2018-05-08T15:51:47Z</time>
      </trkpt>
      <trkpt lat="43.29777" lon="3.43852">
        <ele>-2.27</ele>
        <time>2018-05-08T15:51:48Z</time>
      </trkpt>
      <trkpt lat="43.2978" lon="3.43858">
        <ele>-2.27</ele>
        <time>2018-05-08T15:51:49Z</time>
      </trkpt>
      <trkpt lat="43.29782" lon="3.43863">
        <ele>-1.79</ele>
        <time>2018-05-08T15:51:50Z</time>
      </trkpt>
      <trkpt lat="43.29786" lon="3.43869">
        <ele>-1.3</ele>
        <time>2018-05-08T15:51:51Z</time>
      </trkpt>
      <trkpt lat="43.29797" lon="3.43892">
        <ele>-0.34</ele>
        <time>2018-05-08T15:51:56Z</time>
      </trkpt>
      <trkpt lat="43.29799" lon="3.43898">
        <ele>-0.34</ele>
        <time>2018-05-08T15:51:57Z</time>
      </trkpt>
      <trkpt lat="43.29799" lon="3.43904">
        <ele>-0.34</ele>
        <time>2018-05-08T15:51:58Z</time>
      </trkpt>
      <trkpt lat="43.298" lon="3.43916">
        <ele>0.14</ele>
        <time>2018-05-08T15:52:00Z</time>
      </trkpt>
      <trkpt lat="43.29799" lon="3.43933">
        <ele>1.1</ele>
        <time>2018-05-08T15:52:03Z</time>
      </trkpt>
      <trkpt lat="43.298" lon="3.4394">
        <ele>1.58</ele>
        <time>2018-05-08T15:52:04Z</time>
      </trkpt>
      <trkpt lat="43.29801" lon="3.43945">
        <ele>1.58</ele>
        <time>2018-05-08T15:52:05Z</time>
      </trkpt>
      <trkpt lat="43.29826" lon="3.44032">
        <ele>2.54</ele>
        <time>2018-05-08T15:52:20Z</time>
      </trkpt>
      <trkpt lat="43.29844" lon="3.44119">
        <ele>2.54</ele>
        <time>2018-05-08T15:52:34Z</time>
      </trkpt>
      <trkpt lat="43.29848" lon="3.44145">
        <ele>2.06</ele>
        <time>2018-05-08T15:52:38Z</time>
      </trkpt>
      <trkpt lat="43.29848" lon="3.44152">
        <ele>2.06</ele>
        <time>2018-05-08T15:52:39Z</time>
      </trkpt>
      <trkpt lat="43.29854" lon="3.44193">
        <ele>1.58</ele>
        <time>2018-05-08T15:52:45Z</time>
      </trkpt>
      <trkpt lat="43.29856" lon="3.442">
        <ele>1.58</ele>
        <time>2018-05-08T15:52:46Z</time>
      </trkpt>
      <trkpt lat="43.29858" lon="3.44205">
        <ele>1.1</ele>
        <time>2018-05-08T15:52:47Z</time>
      </trkpt>
      <trkpt lat="43.2986" lon="3.44211">
        <ele>1.1</ele>
        <time>2018-05-08T15:52:48Z</time>
      </trkpt>
      <trkpt lat="43.29862" lon="3.44215">
        <ele>0.62</ele>
        <time>2018-05-08T15:52:49Z</time>
      </trkpt>
      <trkpt lat="43.29869" lon="3.4423">
        <ele>0.14</ele>
        <time>2018-05-08T15:52:52Z</time>
      </trkpt>
      <trkpt lat="43.29875" lon="3.44248">
        <ele>0.14</ele>
        <time>2018-05-08T15:52:56Z</time>
      </trkpt>
      <trkpt lat="43.29874" lon="3.44252">
        <ele>0.14</ele>
        <time>2018-05-08T15:52:57Z</time>
      </trkpt>
      <trkpt lat="43.29864" lon="3.44308">
        <ele>2.06</ele>
        <time>2018-05-08T15:53:09Z</time>
      </trkpt>
      <trkpt lat="43.2985" lon="3.44363">
        <ele>1.58</ele>
        <time>2018-05-08T15:53:20Z</time>
      </trkpt>
      <trkpt lat="43.29815" lon="3.44361">
        <ele>-0.82</ele>
        <time>2018-05-08T15:53:30Z</time>
      </trkpt>
      <trkpt lat="43.2976" lon="3.44339">
        <ele>0.14</ele>
        <time>2018-05-08T15:53:42Z</time>
      </trkpt>
      <trkpt lat="43.29756" lon="3.44337">
        <ele>0.14</ele>
        <time>2018-05-08T15:53:43Z</time>
      </trkpt>
      <trkpt lat="43.29752" lon="3.44335">
        <ele>0.14</ele>
        <time>2018-05-08T15:53:44Z</time>
      </trkpt>
      <trkpt lat="43.29731" lon="3.4433">
        <ele>0.62</ele>
        <time>2018-05-08T15:53:49Z</time>
      </trkpt>
      <trkpt lat="43.29728" lon="3.44332">
        <ele>0.62</ele>
        <time>2018-05-08T15:53:50Z</time>
      </trkpt>
      <trkpt lat="43.29727" lon="3.44336">
        <ele>0.62</ele>
        <time>2018-05-08T15:53:51Z</time>
      </trkpt>
      <trkpt lat="43.29727" lon="3.44341">
        <ele>0.62</ele>
        <time>2018-05-08T15:53:52Z</time>
      </trkpt>
      <trkpt lat="43.29727" lon="3.44346">
        <ele>0.62</ele>
        <time>2018-05-08T15:53:53Z</time>
      </trkpt>
      <trkpt lat="43.29728" lon="3.44418">
        <ele>0.62</ele>
        <time>2018-05-08T15:54:06Z</time>
      </trkpt>
      <trkpt lat="43.29729" lon="3.44471">
        <ele>2.06</ele>
        <time>2018-05-08T15:54:15Z</time>
      </trkpt>
      <trkpt lat="43.29732" lon="3.44494">
        <ele>1.58</ele>
        <time>2018-05-08T15:54:19Z</time>
      </trkpt>
      <trkpt lat="43.29734" lon="3.445">
        <ele>1.1</ele>
        <time>2018-05-08T15:54:20Z</time>
      </trkpt>
      <trkpt lat="43.29734" lon="3.44506">
        <ele>1.1</ele>
        <time>2018-05-08T15:54:21Z</time>
      </trkpt>
      <trkpt lat="43.29735" lon="3.44512">
        <ele>1.1</ele>
        <time>2018-05-08T15:54:22Z</time>
      </trkpt>
      <trkpt lat="43.29735" lon="3.44518">
        <ele>1.1</ele>
        <time>2018-05-08T15:54:23Z</time>
      </trkpt>
      <trkpt lat="43.29749" lon="3.44579">
        <ele>0.14</ele>
        <time>2018-05-08T15:54:35Z</time>
      </trkpt>
      <trkpt lat="43.29759" lon="3.4461">
        <ele>0.14</ele>
        <time>2018-05-08T15:54:43Z</time>
      </trkpt>
      <trkpt lat="43.2976" lon="3.44613">
        <ele>0.14</ele>
        <time>2018-05-08T15:54:44Z</time>
      </trkpt>
      <trkpt lat="43.29786" lon="3.44646">
        <ele>0.14</ele>
        <time>2018-05-08T15:54:55Z</time>
      </trkpt>
      <trkpt lat="43.29787" lon="3.44731">
        <ele>2.54</ele>
        <time>2018-05-08T15:55:11Z</time>
      </trkpt>
      <trkpt lat="43.2979" lon="3.44821">
        <ele>4.94</ele>
        <time>2018-05-08T15:55:27Z</time>
      </trkpt>
      <trkpt lat="43.29797" lon="3.44896">
        <ele>5.42</ele>
        <time>2018-05-08T15:55:41Z</time>
      </trkpt>
      <trkpt lat="43.29778" lon="3.44952">
        <ele>3.02</ele>
        <time>2018-05-08T15:55:53Z</time>
      </trkpt>
      <trkpt lat="43.29778" lon="3.44957">
        <ele>3.02</ele>
        <time>2018-05-08T15:55:54Z</time>
      </trkpt>
      <trkpt lat="43.29778" lon="3.44962">
        <ele>3.02</ele>
        <time>2018-05-08T15:55:55Z</time>
      </trkpt>
      <trkpt lat="43.29784" lon="3.4503">
        <ele>4.94</ele>
        <time>2018-05-08T15:56:09Z</time>
      </trkpt>
      <trkpt lat="43.29792" lon="3.45113">
        <ele>5.91</ele>
        <time>2018-05-08T15:56:25Z</time>
      </trkpt>
      <trkpt lat="43.29777" lon="3.4516">
        <ele>4.94</ele>
        <time>2018-05-08T15:56:37Z</time>
      </trkpt>
      <trkpt lat="43.29773" lon="3.45172">
        <ele>4.94</ele>
        <time>2018-05-08T15:56:41Z</time>
      </trkpt>
      <trkpt lat="43.29772" lon="3.45174">
        <ele>4.46</ele>
        <time>2018-05-08T15:56:52Z</time>
      </trkpt>
      <trkpt lat="43.29774" lon="3.45175">
        <ele>2.06</ele>
        <time>2018-05-08T15:57:16Z</time>
      </trkpt>
      <trkpt lat="43.29773" lon="3.45175">
        <ele>1.58</ele>
        <time>2018-05-08T15:57:23Z</time>
      </trkpt>
      <trkpt lat="43.29772" lon="3.45176">
        <ele>1.58</ele>
        <time>2018-05-08T15:57:24Z</time>
      </trkpt>
      <trkpt lat="43.29771" lon="3.45177">
        <ele>1.58</ele>
        <time>2018-05-08T15:57:25Z</time>
      </trkpt>
      <trkpt lat="43.29771" lon="3.45179">
        <ele>1.58</ele>
        <time>2018-05-08T15:57:26Z</time>
      </trkpt>
      <trkpt lat="43.29772" lon="3.45182">
        <ele>1.58</ele>
        <time>2018-05-08T15:57:27Z</time>
      </trkpt>
      <trkpt lat="43.29773" lon="3.45184">
        <ele>1.58</ele>
        <time>2018-05-08T15:57:28Z</time>
      </trkpt>
      <trkpt lat="43.29773" lon="3.45186">
        <ele>1.58</ele>
        <time>2018-05-08T15:57:29Z</time>
      </trkpt>
      <trkpt lat="43.29771" lon="3.45187">
        <ele>1.58</ele>
        <time>2018-05-08T15:57:30Z</time>
      </trkpt>
      <trkpt lat="43.2977" lon="3.45186">
        <ele>2.06</ele>
        <time>2018-05-08T15:57:31Z</time>
      </trkpt>
      <trkpt lat="43.29769" lon="3.45184">
        <ele>2.06</ele>
        <time>2018-05-08T15:57:32Z</time>
      </trkpt>
      <trkpt lat="43.29767" lon="3.45181">
        <ele>2.06</ele>
        <time>2018-05-08T15:57:33Z</time>
      </trkpt>
      <trkpt lat="43.29733" lon="3.45131">
        <ele>2.06</ele>
        <time>2018-05-08T15:57:47Z</time>
      </trkpt>
      <trkpt lat="43.29701" lon="3.45091">
        <ele>2.06</ele>
        <time>2018-05-08T15:57:58Z</time>
      </trkpt>
      <trkpt lat="43.29698" lon="3.45086">
        <ele>2.06</ele>
        <time>2018-05-08T15:57:59Z</time>
      </trkpt>
      <trkpt lat="43.29695" lon="3.45082">
        <ele>2.06</ele>
        <time>2018-05-08T15:58:00Z</time>
      </trkpt>
      <trkpt lat="43.29629" lon="3.45011">
        <ele>4.94</ele>
        <time>2018-05-08T15:58:18Z</time>
      </trkpt>
      <trkpt lat="43.29612" lon="3.44992">
        <ele>4.94</ele>
        <time>2018-05-08T15:58:23Z</time>
      </trkpt>
      <trkpt lat="43.2955" lon="3.44921">
        <ele>2.54</ele>
        <time>2018-05-08T15:58:40Z</time>
      </trkpt>
      <trkpt lat="43.29485" lon="3.44847">
        <ele>3.02</ele>
        <time>2018-05-08T15:58:57Z</time>
      </trkpt>
      <trkpt lat="43.29422" lon="3.44774">
        <ele>3.02</ele>
        <time>2018-05-08T15:59:14Z</time>
      </trkpt>
      <trkpt lat="43.29352" lon="3.4469">
        <ele>3.5</ele>
        <time>2018-05-08T15:59:33Z</time>
      </trkpt>
      <trkpt lat="43.29287" lon="3.44623">
        <ele>4.94</ele>
        <time>2018-05-08T15:59:50Z</time>
      </trkpt>
      <trkpt lat="43.29234" lon="3.44576">
        <ele>5.91</ele>
        <time>2018-05-08T16:00:03Z</time>
      </trkpt>
      <trkpt lat="43.29198" lon="3.44546">
        <ele>5.91</ele>
        <time>2018-05-08T16:00:12Z</time>
      </trkpt>
      <trkpt lat="43.29182" lon="3.44534">
        <ele>5.91</ele>
        <time>2018-05-08T16:00:16Z</time>
      </trkpt>
      <trkpt lat="43.29162" lon="3.44518">
        <ele>5.42</ele>
        <time>2018-05-08T16:00:21Z</time>
      </trkpt>
      <trkpt lat="43.2909" lon="3.4446">
        <ele>5.42</ele>
        <time>2018-05-08T16:00:39Z</time>
      </trkpt>
      <trkpt lat="43.29012" lon="3.44399">
        <ele>6.39</ele>
        <time>2018-05-08T16:00:58Z</time>
      </trkpt>
      <trkpt lat="43.28997" lon="3.44387">
        <ele>6.39</ele>
        <time>2018-05-08T16:01:02Z</time>
      </trkpt>
      <trkpt lat="43.28985" lon="3.44379">
        <ele>6.87</ele>
        <time>2018-05-08T16:01:05Z</time>
      </trkpt>
      <trkpt lat="43.28981" lon="3.44376">
        <ele>6.87</ele>
        <time>2018-05-08T16:01:06Z</time>
      </trkpt>
      <trkpt lat="43.28977" lon="3.44373">
        <ele>6.39</ele>
        <time>2018-05-08T16:01:07Z</time>
      </trkpt>
      <trkpt lat="43.28973" lon="3.44371">
        <ele>5.91</ele>
        <time>2018-05-08T16:01:08Z</time>
      </trkpt>
      <trkpt lat="43.28969" lon="3.44369">
        <ele>5.91</ele>
        <time>2018-05-08T16:01:09Z</time>
      </trkpt>
      <trkpt lat="43.28965" lon="3.44367">
        <ele>5.91</ele>
        <time>2018-05-08T16:01:10Z</time>
      </trkpt>
      <trkpt lat="43.28904" lon="3.44346">
        <ele>6.39</ele>
        <time>2018-05-08T16:01:25Z</time>
      </trkpt>
      <trkpt lat="43.28887" lon="3.44342">
        <ele>6.87</ele>
        <time>2018-05-08T16:01:29Z</time>
      </trkpt>
      <trkpt lat="43.28882" lon="3.44342">
        <ele>6.87</ele>
        <time>2018-05-08T16:01:30Z</time>
      </trkpt>
      <trkpt lat="43.28825" lon="3.44338">
        <ele>5.91</ele>
        <time>2018-05-08T16:01:44Z</time>
      </trkpt>
      <trkpt lat="43.28798" lon="3.44336">
        <ele>5.91</ele>
        <time>2018-05-08T16:01:50Z</time>
      </trkpt>
      <trkpt lat="43.28794" lon="3.44336">
        <ele>5.91</ele>
        <time>2018-05-08T16:01:51Z</time>
      </trkpt>
      <trkpt lat="43.2879" lon="3.44336">
        <ele>5.91</ele>
        <time>2018-05-08T16:01:52Z</time>
      </trkpt>
      <trkpt lat="43.28785" lon="3.44336">
        <ele>5.91</ele>
        <time>2018-05-08T16:01:53Z</time>
      </trkpt>
      <trkpt lat="43.28781" lon="3.44336">
        <ele>6.39</ele>
        <time>2018-05-08T16:01:54Z</time>
      </trkpt>
      <trkpt lat="43.28776" lon="3.44336">
        <ele>6.39</ele>
        <time>2018-05-08T16:01:55Z</time>
      </trkpt>
      <trkpt lat="43.28691" lon="3.44333">
        <ele>7.83</ele>
        <time>2018-05-08T16:02:13Z</time>
      </trkpt>
      <trkpt lat="43.28612" lon="3.4433">
        <ele>7.83</ele>
        <time>2018-05-08T16:02:30Z</time>
      </trkpt>
      <trkpt lat="43.2859" lon="3.4433">
        <ele>7.83</ele>
        <time>2018-05-08T16:02:35Z</time>
      </trkpt>
      <trkpt lat="43.28585" lon="3.44331">
        <ele>7.83</ele>
        <time>2018-05-08T16:02:36Z</time>
      </trkpt>
      <trkpt lat="43.28581" lon="3.44331">
        <ele>8.31</ele>
        <time>2018-05-08T16:02:37Z</time>
      </trkpt>
      <trkpt lat="43.28501" lon="3.44325">
        <ele>8.31</ele>
        <time>2018-05-08T16:02:55Z</time>
      </trkpt>
      <trkpt lat="43.28432" lon="3.44323">
        <ele>7.83</ele>
        <time>2018-05-08T16:03:10Z</time>
      </trkpt>
      <trkpt lat="43.28375" lon="3.44317">
        <ele>7.35</ele>
        <time>2018-05-08T16:03:26Z</time>
      </trkpt>
      <trkpt lat="43.28349" lon="3.44322">
        <ele>7.83</ele>
        <time>2018-05-08T16:03:34Z</time>
      </trkpt>
      <trkpt lat="43.2834" lon="3.44325">
        <ele>8.31</ele>
        <time>2018-05-08T16:03:44Z</time>
      </trkpt>
      <trkpt lat="43.28339" lon="3.44324">
        <ele>8.31</ele>
        <time>2018-05-08T16:03:45Z</time>
      </trkpt>
      <trkpt lat="43.28338" lon="3.44324">
        <ele>8.31</ele>
        <time>2018-05-08T16:03:46Z</time>
      </trkpt>
      <trkpt lat="43.28319" lon="3.44322">
        <ele>8.79</ele>
        <time>2018-05-08T16:03:55Z</time>
      </trkpt>
      <trkpt lat="43.28282" lon="3.44324">
        <ele>8.31</ele>
        <time>2018-05-08T16:04:08Z</time>
      </trkpt>
      <trkpt lat="43.28259" lon="3.44323">
        <ele>7.83</ele>
        <time>2018-05-08T16:04:14Z</time>
      </trkpt>
      <trkpt lat="43.28219" lon="3.44315">
        <ele>6.39</ele>
        <time>2018-05-08T16:04:25Z</time>
      </trkpt>
      <trkpt lat="43.282" lon="3.44308">
        <ele>6.39</ele>
        <time>2018-05-08T16:04:39Z</time>
      </trkpt>
      <trkpt lat="43.282" lon="3.44309">
        <ele>5.42</ele>
        <time>2018-05-08T16:04:54Z</time>
      </trkpt>
      <trkpt lat="43.282" lon="3.44309">
        <ele>4.46</ele>
        <time>2018-05-08T16:05:18Z</time>
      </trkpt>
      <trkpt lat="43.28199" lon="3.44309">
        <ele>5.91</ele>
        <time>2018-05-08T16:05:34Z</time>
      </trkpt>
      <trkpt lat="43.28203" lon="3.44313">
        <ele>5.42</ele>
        <time>2018-05-08T16:05:45Z</time>
      </trkpt>
      <trkpt lat="43.28203" lon="3.44314">
        <ele>5.42</ele>
        <time>2018-05-08T16:05:47Z</time>
      </trkpt>
      <trkpt lat="43.28223" lon="3.4432">
        <ele>5.42</ele>
        <time>2018-05-08T16:06:01Z</time>
      </trkpt>
      <trkpt lat="43.28255" lon="3.44324">
        <ele>5.91</ele>
        <time>2018-05-08T16:06:18Z</time>
      </trkpt>
      <trkpt lat="43.28272" lon="3.44308">
        <ele>5.42</ele>
        <time>2018-05-08T16:06:27Z</time>
      </trkpt>
      <trkpt lat="43.28273" lon="3.44306">
        <ele>3.5</ele>
        <time>2018-05-08T16:06:41Z</time>
      </trkpt>
      <trkpt lat="43.28274" lon="3.44307">
        <ele>2.06</ele>
        <time>2018-05-08T16:07:12Z</time>
      </trkpt>
      <trkpt lat="43.28275" lon="3.44307">
        <ele>0.14</ele>
        <time>2018-05-08T16:07:32Z</time>
      </trkpt>
      <trkpt lat="43.28275" lon="3.44305">
        <ele>0.14</ele>
        <time>2018-05-08T16:08:11Z</time>
      </trkpt>
      <trkpt lat="43.28272" lon="3.44308">
        <ele>1.1</ele>
        <time>2018-05-08T16:08:28Z</time>
      </trkpt>
      <trkpt lat="43.28272" lon="3.44315">
        <ele>0.62</ele>
        <time>2018-05-08T16:08:35Z</time>
      </trkpt>
      <trkpt lat="43.28281" lon="3.44324">
        <ele>1.1</ele>
        <time>2018-05-08T16:08:46Z</time>
      </trkpt>
      <trkpt lat="43.28306" lon="3.4432">
        <ele>0.62</ele>
        <time>2018-05-08T16:09:01Z</time>
      </trkpt>
      <trkpt lat="43.28339" lon="3.44327">
        <ele>-0.82</ele>
        <time>2018-05-08T16:09:17Z</time>
      </trkpt>
      <trkpt lat="43.28348" lon="3.44324">
        <ele>-1.79</ele>
        <time>2018-05-08T16:09:27Z</time>
      </trkpt>
      <trkpt lat="43.28352" lon="3.44322">
        <ele>-1.3</ele>
        <time>2018-05-08T16:09:37Z</time>
      </trkpt>
      <trkpt lat="43.28358" lon="3.44318">
        <ele>-1.3</ele>
        <time>2018-05-08T16:09:40Z</time>
      </trkpt>
      <trkpt lat="43.2836" lon="3.44318">
        <ele>-1.3</ele>
        <time>2018-05-08T16:09:41Z</time>
      </trkpt>
      <trkpt lat="43.28362" lon="3.44318">
        <ele>-1.3</ele>
        <time>2018-05-08T16:09:42Z</time>
      </trkpt>
      <trkpt lat="43.28364" lon="3.44319">
        <ele>-1.79</ele>
        <time>2018-05-08T16:09:43Z</time>
      </trkpt>
      <trkpt lat="43.28366" lon="3.4432">
        <ele>-1.79</ele>
        <time>2018-05-08T16:09:44Z</time>
      </trkpt>
      <trkpt lat="43.28368" lon="3.44321">
        <ele>-1.79</ele>
        <time>2018-05-08T16:09:45Z</time>
      </trkpt>
      <trkpt lat="43.2837" lon="3.44322">
        <ele>-2.27</ele>
        <time>2018-05-08T16:09:46Z</time>
      </trkpt>
      <trkpt lat="43.28397" lon="3.44323">
        <ele>-3.23</ele>
        <time>2018-05-08T16:10:00Z</time>
      </trkpt>
      <trkpt lat="43.28436" lon="3.44324">
        <ele>-3.71</ele>
        <time>2018-05-08T16:10:13Z</time>
      </trkpt>
      <trkpt lat="43.28465" lon="3.44326">
        <ele>-4.19</ele>
        <time>2018-05-08T16:10:26Z</time>
      </trkpt>
      <trkpt lat="43.28505" lon="3.44324">
        <ele>-6.11</ele>
        <time>2018-05-08T16:10:39Z</time>
      </trkpt>
      <trkpt lat="43.28553" lon="3.44325">
        <ele>-8.03</ele>
        <time>2018-05-08T16:10:53Z</time>
      </trkpt>
      <trkpt lat="43.28604" lon="3.44328">
        <ele>-9</ele>
        <time>2018-05-08T16:11:08Z</time>
      </trkpt>
      <trkpt lat="43.2865" lon="3.44331">
        <ele>-8.51</ele>
        <time>2018-05-08T16:11:22Z</time>
      </trkpt>
      <trkpt lat="43.2873" lon="3.44334">
        <ele>-9.48</ele>
        <time>2018-05-08T16:11:41Z</time>
      </trkpt>
      <trkpt lat="43.28799" lon="3.44337">
        <ele>-8.03</ele>
        <time>2018-05-08T16:11:58Z</time>
      </trkpt>
      <trkpt lat="43.28862" lon="3.44344">
        <ele>-6.11</ele>
        <time>2018-05-08T16:12:14Z</time>
      </trkpt>
      <trkpt lat="43.28916" lon="3.44351">
        <ele>-6.11</ele>
        <time>2018-05-08T16:12:29Z</time>
      </trkpt>
      <trkpt lat="43.2898" lon="3.44377">
        <ele>-5.63</ele>
        <time>2018-05-08T16:12:46Z</time>
      </trkpt>
      <trkpt lat="43.28998" lon="3.44389">
        <ele>-4.67</ele>
        <time>2018-05-08T16:12:56Z</time>
      </trkpt>
      <trkpt lat="43.29036" lon="3.44419">
        <ele>-5.15</ele>
        <time>2018-05-08T16:13:10Z</time>
      </trkpt>
      <trkpt lat="43.29083" lon="3.44455">
        <ele>-6.11</ele>
        <time>2018-05-08T16:13:25Z</time>
      </trkpt>
      <trkpt lat="43.29131" lon="3.44492">
        <ele>-7.07</ele>
        <time>2018-05-08T16:13:40Z</time>
      </trkpt>
      <trkpt lat="43.29181" lon="3.44531">
        <ele>-6.59</ele>
        <time>2018-05-08T16:13:55Z</time>
      </trkpt>
      <trkpt lat="43.29243" lon="3.44583">
        <ele>-6.11</ele>
        <time>2018-05-08T16:14:13Z</time>
      </trkpt>
      <trkpt lat="43.29299" lon="3.44635">
        <ele>-5.15</ele>
        <time>2018-05-08T16:14:31Z</time>
      </trkpt>
      <trkpt lat="43.29344" lon="3.44681">
        <ele>-5.15</ele>
        <time>2018-05-08T16:14:46Z</time>
      </trkpt>
      <trkpt lat="43.29388" lon="3.44733">
        <ele>-2.27</ele>
        <time>2018-05-08T16:15:01Z</time>
      </trkpt>
      <trkpt lat="43.29432" lon="3.44783">
        <ele>-1.79</ele>
        <time>2018-05-08T16:15:16Z</time>
      </trkpt>
      <trkpt lat="43.29478" lon="3.44834">
        <ele>-0.82</ele>
        <time>2018-05-08T16:15:31Z</time>
      </trkpt>
      <trkpt lat="43.29523" lon="3.44887">
        <ele>-1.3</ele>
        <time>2018-05-08T16:15:47Z</time>
      </trkpt>
      <trkpt lat="43.29567" lon="3.44937">
        <ele>-1.79</ele>
        <time>2018-05-08T16:16:02Z</time>
      </trkpt>
      <trkpt lat="43.29621" lon="3.44996">
        <ele>-4.67</ele>
        <time>2018-05-08T16:16:19Z</time>
      </trkpt>
      <trkpt lat="43.29679" lon="3.45059">
        <ele>-4.67</ele>
        <time>2018-05-08T16:16:37Z</time>
      </trkpt>
      <trkpt lat="43.29719" lon="3.45105">
        <ele>-5.63</ele>
        <time>2018-05-08T16:16:51Z</time>
      </trkpt>
      <trkpt lat="43.29754" lon="3.45159">
        <ele>-3.71</ele>
        <time>2018-05-08T16:17:05Z</time>
      </trkpt>
      <trkpt lat="43.29789" lon="3.45217">
        <ele>-1.79</ele>
        <time>2018-05-08T16:17:20Z</time>
      </trkpt>
      <trkpt lat="43.29823" lon="3.45293">
        <ele>0.14</ele>
        <time>2018-05-08T16:17:36Z</time>
      </trkpt>
      <trkpt lat="43.29834" lon="3.45325">
        <ele>0.14</ele>
        <time>2018-05-08T16:17:42Z</time>
      </trkpt>
      <trkpt lat="43.2986" lon="3.45394">
        <ele>-0.34</ele>
        <time>2018-05-08T16:17:56Z</time>
      </trkpt>
      <trkpt lat="43.29879" lon="3.45461">
        <ele>0.14</ele>
        <time>2018-05-08T16:18:09Z</time>
      </trkpt>
      <trkpt lat="43.29909" lon="3.45557">
        <ele>-0.82</ele>
        <time>2018-05-08T16:18:28Z</time>
      </trkpt>
      <trkpt lat="43.29912" lon="3.45567">
        <ele>-0.82</ele>
        <time>2018-05-08T16:18:30Z</time>
      </trkpt>
      <trkpt lat="43.29937" lon="3.45649">
        <ele>-1.79</ele>
        <time>2018-05-08T16:18:46Z</time>
      </trkpt>
      <trkpt lat="43.29952" lon="3.45729">
        <ele>-1.79</ele>
        <time>2018-05-08T16:19:01Z</time>
      </trkpt>
      <trkpt lat="43.29968" lon="3.45821">
        <ele>-1.3</ele>
        <time>2018-05-08T16:19:18Z</time>
      </trkpt>
      <trkpt lat="43.29972" lon="3.45859">
        <ele>-2.27</ele>
        <time>2018-05-08T16:19:25Z</time>
      </trkpt>
      <trkpt lat="43.29979" lon="3.45952">
        <ele>-3.71</ele>
        <time>2018-05-08T16:19:41Z</time>
      </trkpt>
      <trkpt lat="43.29992" lon="3.46031">
        <ele>-2.27</ele>
        <time>2018-05-08T16:19:55Z</time>
      </trkpt>
      <trkpt lat="43.30005" lon="3.46089">
        <ele>-0.82</ele>
        <time>2018-05-08T16:20:05Z</time>
      </trkpt>
      <trkpt lat="43.3003" lon="3.46157">
        <ele>-1.3</ele>
        <time>2018-05-08T16:20:18Z</time>
      </trkpt>
      <trkpt lat="43.30094" lon="3.46228">
        <ele>-2.27</ele>
        <time>2018-05-08T16:20:37Z</time>
      </trkpt>
      <trkpt lat="43.30167" lon="3.46276">
        <ele>-1.79</ele>
        <time>2018-05-08T16:20:57Z</time>
      </trkpt>
      <trkpt lat="43.30218" lon="3.46307">
        <ele>-2.27</ele>
        <time>2018-05-08T16:21:11Z</time>
      </trkpt>
      <trkpt lat="43.30222" lon="3.46309">
        <ele>-2.27</ele>
        <time>2018-05-08T16:21:12Z</time>
      </trkpt>
      <trkpt lat="43.30299" lon="3.46339">
        <ele>-2.27</ele>
        <time>2018-05-08T16:21:31Z</time>
      </trkpt>
      <trkpt lat="43.30355" lon="3.46356">
        <ele>-5.15</ele>
        <time>2018-05-08T16:21:47Z</time>
      </trkpt>
      <trkpt lat="43.30376" lon="3.46362">
        <ele>-6.11</ele>
        <time>2018-05-08T16:21:54Z</time>
      </trkpt>
      <trkpt lat="43.30378" lon="3.46365">
        <ele>-6.11</ele>
        <time>2018-05-08T16:21:55Z</time>
      </trkpt>
      <trkpt lat="43.3038" lon="3.46368">
        <ele>-6.11</ele>
        <time>2018-05-08T16:21:56Z</time>
      </trkpt>
      <trkpt lat="43.3038" lon="3.46371">
        <ele>-6.11</ele>
        <time>2018-05-08T16:21:57Z</time>
      </trkpt>
      <trkpt lat="43.30381" lon="3.46375">
        <ele>-6.11</ele>
        <time>2018-05-08T16:21:58Z</time>
      </trkpt>
      <trkpt lat="43.30386" lon="3.46403">
        <ele>-4.67</ele>
        <time>2018-05-08T16:22:10Z</time>
      </trkpt>
      <trkpt lat="43.30386" lon="3.46404">
        <ele>-3.71</ele>
        <time>2018-05-08T16:22:23Z</time>
      </trkpt>
      <trkpt lat="43.30387" lon="3.46404">
        <ele>-5.63</ele>
        <time>2018-05-08T16:22:38Z</time>
      </trkpt>
      <trkpt lat="43.30393" lon="3.46399">
        <ele>-5.15</ele>
        <time>2018-05-08T16:22:52Z</time>
      </trkpt>
      <trkpt lat="43.30395" lon="3.464">
        <ele>-2.27</ele>
        <time>2018-05-08T16:23:26Z</time>
      </trkpt>
      <trkpt lat="43.30384" lon="3.46404">
        <ele>-3.23</ele>
        <time>2018-05-08T16:23:41Z</time>
      </trkpt>
      <trkpt lat="43.30384" lon="3.46406">
        <ele>-3.23</ele>
        <time>2018-05-08T16:23:55Z</time>
      </trkpt>
      <trkpt lat="43.30384" lon="3.46407">
        <ele>-5.15</ele>
        <time>2018-05-08T16:24:16Z</time>
      </trkpt>
      <trkpt lat="43.30385" lon="3.46406">
        <ele>-5.63</ele>
        <time>2018-05-08T16:24:17Z</time>
      </trkpt>
      <trkpt lat="43.30382" lon="3.46376">
        <ele>-5.15</ele>
        <time>2018-05-08T16:24:29Z</time>
      </trkpt>
      <trkpt lat="43.30389" lon="3.46369">
        <ele>-4.67</ele>
        <time>2018-05-08T16:24:34Z</time>
      </trkpt>
      <trkpt lat="43.30392" lon="3.4637">
        <ele>-4.67</ele>
        <time>2018-05-08T16:24:35Z</time>
      </trkpt>
      <trkpt lat="43.30436" lon="3.46383">
        <ele>-3.23</ele>
        <time>2018-05-08T16:24:49Z</time>
      </trkpt>
      <trkpt lat="43.30506" lon="3.46393">
        <ele>-3.23</ele>
        <time>2018-05-08T16:25:07Z</time>
      </trkpt>
      <trkpt lat="43.30527" lon="3.46395">
        <ele>-3.23</ele>
        <time>2018-05-08T16:25:12Z</time>
      </trkpt>
      <trkpt lat="43.30585" lon="3.46393">
        <ele>-4.67</ele>
        <time>2018-05-08T16:25:26Z</time>
      </trkpt>
      <trkpt lat="43.30589" lon="3.46394">
        <ele>-5.15</ele>
        <time>2018-05-08T16:25:27Z</time>
      </trkpt>
      <trkpt lat="43.30653" lon="3.46389">
        <ele>-7.55</ele>
        <time>2018-05-08T16:25:43Z</time>
      </trkpt>
      <trkpt lat="43.30721" lon="3.46385">
        <ele>-8.03</ele>
        <time>2018-05-08T16:26:00Z</time>
      </trkpt>
      <trkpt lat="43.30792" lon="3.46383">
        <ele>-7.55</ele>
        <time>2018-05-08T16:26:17Z</time>
      </trkpt>
      <trkpt lat="43.30864" lon="3.46383">
        <ele>-6.59</ele>
        <time>2018-05-08T16:26:34Z</time>
      </trkpt>
      <trkpt lat="43.30917" lon="3.4638">
        <ele>-6.11</ele>
        <time>2018-05-08T16:26:48Z</time>
      </trkpt>
      <trkpt lat="43.30961" lon="3.46395">
        <ele>-4.67</ele>
        <time>2018-05-08T16:27:00Z</time>
      </trkpt>
      <trkpt lat="43.31018" lon="3.46406">
        <ele>-3.71</ele>
        <time>2018-05-08T16:27:14Z</time>
      </trkpt>
      <trkpt lat="43.31061" lon="3.46423">
        <ele>-3.71</ele>
        <time>2018-05-08T16:27:26Z</time>
      </trkpt>
      <trkpt lat="43.31081" lon="3.46434">
        <ele>-3.71</ele>
        <time>2018-05-08T16:27:35Z</time>
      </trkpt>
      <trkpt lat="43.31117" lon="3.4646">
        <ele>-2.75</ele>
        <time>2018-05-08T16:27:49Z</time>
      </trkpt>
      <trkpt lat="43.31159" lon="3.46493">
        <ele>-1.79</ele>
        <time>2018-05-08T16:28:04Z</time>
      </trkpt>
      <trkpt lat="43.31204" lon="3.46531">
        <ele>-0.82</ele>
        <time>2018-05-08T16:28:21Z</time>
      </trkpt>
      <trkpt lat="43.31241" lon="3.46564">
        <ele>0.62</ele>
        <time>2018-05-08T16:28:34Z</time>
      </trkpt>
      <trkpt lat="43.31287" lon="3.46604">
        <ele>1.1</ele>
        <time>2018-05-08T16:28:50Z</time>
      </trkpt>
      <trkpt lat="43.31323" lon="3.46643">
        <ele>2.06</ele>
        <time>2018-05-08T16:29:03Z</time>
      </trkpt>
      <trkpt lat="43.31355" lon="3.4668">
        <ele>2.54</ele>
        <time>2018-05-08T16:29:15Z</time>
      </trkpt>
      <trkpt lat="43.31389" lon="3.46716">
        <ele>2.54</ele>
        <time>2018-05-08T16:29:28Z</time>
      </trkpt>
      <trkpt lat="43.31421" lon="3.46751">
        <ele>3.02</ele>
        <time>2018-05-08T16:29:41Z</time>
      </trkpt>
      <trkpt lat="43.31443" lon="3.46766">
        <ele>3.98</ele>
        <time>2018-05-08T16:29:52Z</time>
      </trkpt>
      <trkpt lat="43.31475" lon="3.46798">
        <ele>2.06</ele>
        <time>2018-05-08T16:30:08Z</time>
      </trkpt>
      <trkpt lat="43.31503" lon="3.4683">
        <ele>1.58</ele>
        <time>2018-05-08T16:30:23Z</time>
      </trkpt>
      <trkpt lat="43.31507" lon="3.4687">
        <ele>2.54</ele>
        <time>2018-05-08T16:30:35Z</time>
      </trkpt>
      <trkpt lat="43.31487" lon="3.46924">
        <ele>6.39</ele>
        <time>2018-05-08T16:30:52Z</time>
      </trkpt>
      <trkpt lat="43.31473" lon="3.46979">
        <ele>4.46</ele>
        <time>2018-05-08T16:31:08Z</time>
      </trkpt>
      <trkpt lat="43.31494" lon="3.47026">
        <ele>0.14</ele>
        <time>2018-05-08T16:31:20Z</time>
      </trkpt>
      <trkpt lat="43.31511" lon="3.47065">
        <ele>-3.71</ele>
        <time>2018-05-08T16:31:32Z</time>
      </trkpt>
      <trkpt lat="43.31512" lon="3.47072">
        <ele>-6.11</ele>
        <time>2018-05-08T16:31:35Z</time>
      </trkpt>
      <trkpt lat="43.31504" lon="3.47099">
        <ele>-7.55</ele>
        <time>2018-05-08T16:31:46Z</time>
      </trkpt>
      <trkpt lat="43.31501" lon="3.47148">
        <ele>-5.63</ele>
        <time>2018-05-08T16:31:58Z</time>
      </trkpt>
      <trkpt lat="43.31503" lon="3.47151">
        <ele>-5.63</ele>
        <time>2018-05-08T16:31:59Z</time>
      </trkpt>
      <trkpt lat="43.31505" lon="3.47153">
        <ele>-5.15</ele>
        <time>2018-05-08T16:32:00Z</time>
      </trkpt>
      <trkpt lat="43.31507" lon="3.47154">
        <ele>-4.67</ele>
        <time>2018-05-08T16:32:01Z</time>
      </trkpt>
      <trkpt lat="43.31509" lon="3.47153">
        <ele>-4.67</ele>
        <time>2018-05-08T16:32:02Z</time>
      </trkpt>
      <trkpt lat="43.31511" lon="3.47152">
        <ele>-4.67</ele>
        <time>2018-05-08T16:32:03Z</time>
      </trkpt>
      <trkpt lat="43.31513" lon="3.47152">
        <ele>-4.19</ele>
        <time>2018-05-08T16:32:04Z</time>
      </trkpt>
      <trkpt lat="43.31516" lon="3.47153">
        <ele>-4.19</ele>
        <time>2018-05-08T16:32:05Z</time>
      </trkpt>
      <trkpt lat="43.31517" lon="3.47155">
        <ele>-4.19</ele>
        <time>2018-05-08T16:32:06Z</time>
      </trkpt>
      <trkpt lat="43.31519" lon="3.47157">
        <ele>-4.19</ele>
        <time>2018-05-08T16:32:07Z</time>
      </trkpt>
      <trkpt lat="43.3154" lon="3.47194">
        <ele>-2.27</ele>
        <time>2018-05-08T16:32:20Z</time>
      </trkpt>
      <trkpt lat="43.31559" lon="3.47255">
        <ele>-2.27</ele>
        <time>2018-05-08T16:32:37Z</time>
      </trkpt>
      <trkpt lat="43.31592" lon="3.47297">
        <ele>-1.3</ele>
        <time>2018-05-08T16:32:50Z</time>
      </trkpt>
      <trkpt lat="43.31593" lon="3.47301">
        <ele>-1.3</ele>
        <time>2018-05-08T16:32:51Z</time>
      </trkpt>
      <trkpt lat="43.31594" lon="3.47305">
        <ele>-1.3</ele>
        <time>2018-05-08T16:32:52Z</time>
      </trkpt>
      <trkpt lat="43.31605" lon="3.47332">
        <ele>-3.23</ele>
        <time>2018-05-08T16:33:00Z</time>
      </trkpt>
      <trkpt lat="43.31636" lon="3.47339">
        <ele>-5.15</ele>
        <time>2018-05-08T16:33:11Z</time>
      </trkpt>
      <trkpt lat="43.3167" lon="3.47337">
        <ele>-2.27</ele>
        <time>2018-05-08T16:33:24Z</time>
      </trkpt>
      <trkpt lat="43.31713" lon="3.4734">
        <ele>-1.79</ele>
        <time>2018-05-08T16:33:38Z</time>
      </trkpt>
      <trkpt lat="43.3172" lon="3.47343">
        <ele>-1.79</ele>
        <time>2018-05-08T16:33:40Z</time>
      </trkpt>
      <trkpt lat="43.31722" lon="3.47347">
        <ele>-1.3</ele>
        <time>2018-05-08T16:33:41Z</time>
      </trkpt>
      <trkpt lat="43.31724" lon="3.47357">
        <ele>-0.34</ele>
        <time>2018-05-08T16:33:43Z</time>
      </trkpt>
      <trkpt lat="43.31718" lon="3.47422">
        <ele>2.06</ele>
        <time>2018-05-08T16:33:56Z</time>
      </trkpt>
      <trkpt lat="43.31692" lon="3.47445">
        <ele>3.5</ele>
        <time>2018-05-08T16:34:06Z</time>
      </trkpt>
      <trkpt lat="43.31694" lon="3.47467">
        <ele>3.98</ele>
        <time>2018-05-08T16:34:15Z</time>
      </trkpt>
      <trkpt lat="43.31688" lon="3.47472">
        <ele>4.46</ele>
        <time>2018-05-08T16:34:29Z</time>
      </trkpt>
      <trkpt lat="43.31693" lon="3.47469">
        <ele>4.46</ele>
        <time>2018-05-08T16:34:45Z</time>
      </trkpt>
      <trkpt lat="43.31692" lon="3.4747">
        <ele>4.94</ele>
        <time>2018-05-08T16:35:05Z</time>
      </trkpt>
      <trkpt lat="43.31692" lon="3.47469">
        <ele>5.42</ele>
        <time>2018-05-08T16:35:25Z</time>
      </trkpt>
      <trkpt lat="43.31694" lon="3.47465">
        <ele>7.35</ele>
        <time>2018-05-08T16:35:49Z</time>
      </trkpt>
    </trkseg>
  </trk>
</gpx>